<?xml version="1.0" encoding="UTF-8" standalone="no" ?>
<gpx xmlns="http://www.topografix.com/GPX/1/1" xmlns:xsi="http://www.w3.org/2001/XMLSchema-instance" xsi:schemaLocation="http://www.topografix.com/GPX/1/1 http://www.topografix.com/GPX/1/1/gpx.xsd" version="1.1" creator="VisuGPX - https://www.visugpx.com">
  <metadata>
    <name>Californie, Razorbike, Ushuaïa</name>
    <desc><![CDATA[Avec Gaso, Sacha, Olivier et Fred.]]></desc>
  </metadata>
  <trk>
    <name><![CDATA[Ushuaïa, Californie, Razorbike]]></name>
    <desc><![CDATA[Avec Gaso, Sacha, Olivier et Fred.]]></desc>
    <trkseg>
      <trkpt lat="43.54993" lon="7.00973">
        <ele>32.599998474121</ele>
        <time>2013-12-23T11:10:05.000Z</time>
      </trkpt>
      <trkpt lat="43.54989" lon="7.00975">
        <ele>32.200000762939</ele>
        <time>2013-12-23T11:10:06.000Z</time>
      </trkpt>
      <trkpt lat="43.54975" lon="7.00973">
        <ele>30.200000762939</ele>
        <time>2013-12-23T11:10:09.000Z</time>
      </trkpt>
      <trkpt lat="43.54971" lon="7.00973">
        <ele>29.39999961853</ele>
        <time>2013-12-23T11:10:10.000Z</time>
      </trkpt>
      <trkpt lat="43.54951" lon="7.00976">
        <ele>26.60000038147</ele>
        <time>2013-12-23T11:10:15.000Z</time>
      </trkpt>
      <trkpt lat="43.54947" lon="7.00977">
        <ele>26</ele>
        <time>2013-12-23T11:10:16.000Z</time>
      </trkpt>
      <trkpt lat="43.54912" lon="7.00989">
        <ele>21.200000762939</ele>
        <time>2013-12-23T11:10:23.000Z</time>
      </trkpt>
      <trkpt lat="43.54855" lon="7.01005">
        <ele>14.60000038147</ele>
        <time>2013-12-23T11:10:34.000Z</time>
      </trkpt>
      <trkpt lat="43.54849" lon="7.01005">
        <ele>14</ele>
        <time>2013-12-23T11:10:35.000Z</time>
      </trkpt>
      <trkpt lat="43.54839" lon="7.0101">
        <ele>13</ele>
        <time>2013-12-23T11:10:37.000Z</time>
      </trkpt>
      <trkpt lat="43.54823" lon="7.01017">
        <ele>10.800000190735</ele>
        <time>2013-12-23T11:10:40.000Z</time>
      </trkpt>
      <trkpt lat="43.54817" lon="7.01017">
        <ele>10</ele>
        <time>2013-12-23T11:10:41.000Z</time>
      </trkpt>
      <trkpt lat="43.54789" lon="7.0102">
        <ele>5.5999999046326</ele>
        <time>2013-12-23T11:10:46.000Z</time>
      </trkpt>
      <trkpt lat="43.54749" lon="7.01025">
        <ele>-0.60000002384186</ele>
        <time>2013-12-23T11:10:54.000Z</time>
      </trkpt>
      <trkpt lat="43.54738" lon="7.01024">
        <ele>-1</ele>
        <time>2013-12-23T11:10:56.000Z</time>
      </trkpt>
      <trkpt lat="43.54731" lon="7.01017">
        <ele>-1.2000000476837</ele>
        <time>2013-12-23T11:10:58.000Z</time>
      </trkpt>
      <trkpt lat="43.54731" lon="7.00998">
        <ele>-0.60000002384186</ele>
        <time>2013-12-23T11:11:01.000Z</time>
      </trkpt>
      <trkpt lat="43.5474" lon="7.00976">
        <ele>0.80000001192093</ele>
        <time>2013-12-23T11:11:06.000Z</time>
      </trkpt>
      <trkpt lat="43.54735" lon="7.00929">
        <ele>3</ele>
        <time>2013-12-23T11:11:13.000Z</time>
      </trkpt>
      <trkpt lat="43.54728" lon="7.00876">
        <ele>2.2000000476837</ele>
        <time>2013-12-23T11:11:20.000Z</time>
      </trkpt>
      <trkpt lat="43.54727" lon="7.00867">
        <ele>1.7999999523163</ele>
        <time>2013-12-23T11:11:21.000Z</time>
      </trkpt>
      <trkpt lat="43.54729" lon="7.00835">
        <ele>0.60000002384186</ele>
        <time>2013-12-23T11:11:25.000Z</time>
      </trkpt>
      <trkpt lat="43.54738" lon="7.00787">
        <ele>1</ele>
        <time>2013-12-23T11:11:31.000Z</time>
      </trkpt>
      <trkpt lat="43.54747" lon="7.00739">
        <ele>1</ele>
        <time>2013-12-23T11:11:37.000Z</time>
      </trkpt>
      <trkpt lat="43.54754" lon="7.00692">
        <ele>-1.2000000476837</ele>
        <time>2013-12-23T11:11:43.000Z</time>
      </trkpt>
      <trkpt lat="43.54759" lon="7.00662">
        <ele>-2.2000000476837</ele>
        <time>2013-12-23T11:11:47.000Z</time>
      </trkpt>
      <trkpt lat="43.54759" lon="7.00655">
        <ele>-2</ele>
        <time>2013-12-23T11:11:48.000Z</time>
      </trkpt>
      <trkpt lat="43.54766" lon="7.00614">
        <ele>-0.60000002384186</ele>
        <time>2013-12-23T11:11:54.000Z</time>
      </trkpt>
      <trkpt lat="43.54772" lon="7.00591">
        <ele>0.20000000298023</ele>
        <time>2013-12-23T11:11:59.000Z</time>
      </trkpt>
      <trkpt lat="43.54777" lon="7.00563">
        <ele>-0.20000000298023</ele>
        <time>2013-12-23T11:12:04.000Z</time>
      </trkpt>
      <trkpt lat="43.54779" lon="7.00557">
        <ele>-0.40000000596046</ele>
        <time>2013-12-23T11:12:05.000Z</time>
      </trkpt>
      <trkpt lat="43.54782" lon="7.00543">
        <ele>-0.60000002384186</ele>
        <time>2013-12-23T11:12:07.000Z</time>
      </trkpt>
      <trkpt lat="43.54784" lon="7.00518">
        <ele>-1.6000000238419</ele>
        <time>2013-12-23T11:12:10.000Z</time>
      </trkpt>
      <trkpt lat="43.54785" lon="7.00481">
        <ele>-1.7999999523163</ele>
        <time>2013-12-23T11:12:14.000Z</time>
      </trkpt>
      <trkpt lat="43.5479" lon="7.00436">
        <ele>-0.60000002384186</ele>
        <time>2013-12-23T11:12:20.000Z</time>
      </trkpt>
      <trkpt lat="43.54796" lon="7.0037">
        <ele>-1</ele>
        <time>2013-12-23T11:12:28.000Z</time>
      </trkpt>
      <trkpt lat="43.548" lon="7.00317">
        <ele>-2.2000000476837</ele>
        <time>2013-12-23T11:12:34.000Z</time>
      </trkpt>
      <trkpt lat="43.54803" lon="7.00262">
        <ele>-4.1999998092651</ele>
        <time>2013-12-23T11:12:40.000Z</time>
      </trkpt>
      <trkpt lat="43.54808" lon="7.00198">
        <ele>-5</ele>
        <time>2013-12-23T11:12:47.000Z</time>
      </trkpt>
      <trkpt lat="43.54811" lon="7.00145">
        <ele>-4.1999998092651</ele>
        <time>2013-12-23T11:12:53.000Z</time>
      </trkpt>
      <trkpt lat="43.54808" lon="7.00066">
        <ele>-1.2000000476837</ele>
        <time>2013-12-23T11:13:02.000Z</time>
      </trkpt>
      <trkpt lat="43.54817" lon="6.99985">
        <ele>-2.5999999046326</ele>
        <time>2013-12-23T11:13:12.000Z</time>
      </trkpt>
      <trkpt lat="43.54817" lon="6.99976">
        <ele>-2.5999999046326</ele>
        <time>2013-12-23T11:13:13.000Z</time>
      </trkpt>
      <trkpt lat="43.54823" lon="6.99897">
        <ele>-0.60000002384186</ele>
        <time>2013-12-23T11:13:22.000Z</time>
      </trkpt>
      <trkpt lat="43.54825" lon="6.99886">
        <ele>-1.3999999761581</ele>
        <time>2013-12-23T11:13:24.000Z</time>
      </trkpt>
      <trkpt lat="43.54836" lon="6.99834">
        <ele>-5.5999999046326</ele>
        <time>2013-12-23T11:13:34.000Z</time>
      </trkpt>
      <trkpt lat="43.54852" lon="6.99773">
        <ele>3.2000000476837</ele>
        <time>2013-12-23T11:13:44.000Z</time>
      </trkpt>
      <trkpt lat="43.54875" lon="6.99722">
        <ele>4.4000000953674</ele>
        <time>2013-12-23T11:13:52.000Z</time>
      </trkpt>
      <trkpt lat="43.54883" lon="6.99681">
        <ele>3.2000000476837</ele>
        <time>2013-12-23T11:13:58.000Z</time>
      </trkpt>
      <trkpt lat="43.5489" lon="6.99614">
        <ele>2.2000000476837</ele>
        <time>2013-12-23T11:14:07.000Z</time>
      </trkpt>
      <trkpt lat="43.54896" lon="6.99541">
        <ele>3.2000000476837</ele>
        <time>2013-12-23T11:14:17.000Z</time>
      </trkpt>
      <trkpt lat="43.54902" lon="6.99472">
        <ele>5.8000001907349</ele>
        <time>2013-12-23T11:14:26.000Z</time>
      </trkpt>
      <trkpt lat="43.54903" lon="6.99398">
        <ele>7.1999998092651</ele>
        <time>2013-12-23T11:14:35.000Z</time>
      </trkpt>
      <trkpt lat="43.54903" lon="6.9939">
        <ele>6.8000001907349</ele>
        <time>2013-12-23T11:14:36.000Z</time>
      </trkpt>
      <trkpt lat="43.54903" lon="6.99314">
        <ele>4.8000001907349</ele>
        <time>2013-12-23T11:14:45.000Z</time>
      </trkpt>
      <trkpt lat="43.54902" lon="6.99306">
        <ele>5</ele>
        <time>2013-12-23T11:14:46.000Z</time>
      </trkpt>
      <trkpt lat="43.549" lon="6.99225">
        <ele>5.8000001907349</ele>
        <time>2013-12-23T11:14:56.000Z</time>
      </trkpt>
      <trkpt lat="43.54896" lon="6.99143">
        <ele>4</ele>
        <time>2013-12-23T11:15:06.000Z</time>
      </trkpt>
      <trkpt lat="43.54896" lon="6.99134">
        <ele>3.7999999523163</ele>
        <time>2013-12-23T11:15:07.000Z</time>
      </trkpt>
      <trkpt lat="43.54895" lon="6.99053">
        <ele>2.7999999523163</ele>
        <time>2013-12-23T11:15:17.000Z</time>
      </trkpt>
      <trkpt lat="43.54895" lon="6.99045">
        <ele>2.7999999523163</ele>
        <time>2013-12-23T11:15:18.000Z</time>
      </trkpt>
      <trkpt lat="43.54892" lon="6.98969">
        <ele>2.7999999523163</ele>
        <time>2013-12-23T11:15:27.000Z</time>
      </trkpt>
      <trkpt lat="43.54892" lon="6.98961">
        <ele>2.7999999523163</ele>
        <time>2013-12-23T11:15:28.000Z</time>
      </trkpt>
      <trkpt lat="43.54888" lon="6.98884">
        <ele>3.7999999523163</ele>
        <time>2013-12-23T11:15:37.000Z</time>
      </trkpt>
      <trkpt lat="43.54886" lon="6.9885">
        <ele>4</ele>
        <time>2013-12-23T11:15:41.000Z</time>
      </trkpt>
      <trkpt lat="43.54879" lon="6.98774">
        <ele>5.8000001907349</ele>
        <time>2013-12-23T11:15:50.000Z</time>
      </trkpt>
      <trkpt lat="43.54877" lon="6.98765">
        <ele>6</ele>
        <time>2013-12-23T11:15:51.000Z</time>
      </trkpt>
      <trkpt lat="43.54867" lon="6.98689">
        <ele>4.8000001907349</ele>
        <time>2013-12-23T11:16:00.000Z</time>
      </trkpt>
      <trkpt lat="43.54864" lon="6.98673">
        <ele>4</ele>
        <time>2013-12-23T11:16:02.000Z</time>
      </trkpt>
      <trkpt lat="43.54863" lon="6.98665">
        <ele>4</ele>
        <time>2013-12-23T11:16:03.000Z</time>
      </trkpt>
      <trkpt lat="43.54854" lon="6.98622">
        <ele>5.8000001907349</ele>
        <time>2013-12-23T11:16:08.000Z</time>
      </trkpt>
      <trkpt lat="43.5484" lon="6.98552">
        <ele>8.8000001907349</ele>
        <time>2013-12-23T11:16:16.000Z</time>
      </trkpt>
      <trkpt lat="43.54828" lon="6.98475">
        <ele>9.8000001907349</ele>
        <time>2013-12-23T11:16:25.000Z</time>
      </trkpt>
      <trkpt lat="43.54827" lon="6.98467">
        <ele>9.3999996185303</ele>
        <time>2013-12-23T11:16:26.000Z</time>
      </trkpt>
      <trkpt lat="43.54815" lon="6.98407">
        <ele>7.4000000953674</ele>
        <time>2013-12-23T11:16:33.000Z</time>
      </trkpt>
      <trkpt lat="43.54799" lon="6.98327">
        <ele>6.1999998092651</ele>
        <time>2013-12-23T11:16:42.000Z</time>
      </trkpt>
      <trkpt lat="43.548" lon="6.98311">
        <ele>6.5999999046326</ele>
        <time>2013-12-23T11:16:44.000Z</time>
      </trkpt>
      <trkpt lat="43.54805" lon="6.98249">
        <ele>9</ele>
        <time>2013-12-23T11:16:52.000Z</time>
      </trkpt>
      <trkpt lat="43.54795" lon="6.98169">
        <ele>9.3999996185303</ele>
        <time>2013-12-23T11:17:01.000Z</time>
      </trkpt>
      <trkpt lat="43.54793" lon="6.9816">
        <ele>9</ele>
        <time>2013-12-23T11:17:02.000Z</time>
      </trkpt>
      <trkpt lat="43.54795" lon="6.98092">
        <ele>7.4000000953674</ele>
        <time>2013-12-23T11:17:11.000Z</time>
      </trkpt>
      <trkpt lat="43.5479" lon="6.98017">
        <ele>8.3999996185303</ele>
        <time>2013-12-23T11:17:20.000Z</time>
      </trkpt>
      <trkpt lat="43.54785" lon="6.97936">
        <ele>10.800000190735</ele>
        <time>2013-12-23T11:17:30.000Z</time>
      </trkpt>
      <trkpt lat="43.54784" lon="6.97927">
        <ele>11</ele>
        <time>2013-12-23T11:17:31.000Z</time>
      </trkpt>
      <trkpt lat="43.54777" lon="6.97847">
        <ele>8.8000001907349</ele>
        <time>2013-12-23T11:17:41.000Z</time>
      </trkpt>
      <trkpt lat="43.54769" lon="6.97765">
        <ele>5.1999998092651</ele>
        <time>2013-12-23T11:17:51.000Z</time>
      </trkpt>
      <trkpt lat="43.54765" lon="6.97739">
        <ele>4.4000000953674</ele>
        <time>2013-12-23T11:17:54.000Z</time>
      </trkpt>
      <trkpt lat="43.54753" lon="6.97661">
        <ele>3</ele>
        <time>2013-12-23T11:18:03.000Z</time>
      </trkpt>
      <trkpt lat="43.54752" lon="6.97652">
        <ele>3</ele>
        <time>2013-12-23T11:18:04.000Z</time>
      </trkpt>
      <trkpt lat="43.54737" lon="6.97576">
        <ele>2.4000000953674</ele>
        <time>2013-12-23T11:18:13.000Z</time>
      </trkpt>
      <trkpt lat="43.54719" lon="6.97505">
        <ele>2.4000000953674</ele>
        <time>2013-12-23T11:18:22.000Z</time>
      </trkpt>
      <trkpt lat="43.54718" lon="6.97497">
        <ele>2.5999999046326</ele>
        <time>2013-12-23T11:18:23.000Z</time>
      </trkpt>
      <trkpt lat="43.54702" lon="6.97435">
        <ele>3.4000000953674</ele>
        <time>2013-12-23T11:18:31.000Z</time>
      </trkpt>
      <trkpt lat="43.54685" lon="6.97373">
        <ele>4</ele>
        <time>2013-12-23T11:18:39.000Z</time>
      </trkpt>
      <trkpt lat="43.54663" lon="6.97304">
        <ele>4</ele>
        <time>2013-12-23T11:18:48.000Z</time>
      </trkpt>
      <trkpt lat="43.54638" lon="6.97243">
        <ele>1.6000000238419</ele>
        <time>2013-12-23T11:18:56.000Z</time>
      </trkpt>
      <trkpt lat="43.54609" lon="6.97175">
        <ele>1.2000000476837</ele>
        <time>2013-12-23T11:19:05.000Z</time>
      </trkpt>
      <trkpt lat="43.54584" lon="6.97114">
        <ele>2.2000000476837</ele>
        <time>2013-12-23T11:19:13.000Z</time>
      </trkpt>
      <trkpt lat="43.54555" lon="6.97046">
        <ele>1.7999999523163</ele>
        <time>2013-12-23T11:19:22.000Z</time>
      </trkpt>
      <trkpt lat="43.54525" lon="6.96987">
        <ele>1.2000000476837</ele>
        <time>2013-12-23T11:19:30.000Z</time>
      </trkpt>
      <trkpt lat="43.5449" lon="6.96919">
        <ele>1.2000000476837</ele>
        <time>2013-12-23T11:19:39.000Z</time>
      </trkpt>
      <trkpt lat="43.54461" lon="6.96857">
        <ele>1.6000000238419</ele>
        <time>2013-12-23T11:19:47.000Z</time>
      </trkpt>
      <trkpt lat="43.5444" lon="6.96802">
        <ele>2.5999999046326</ele>
        <time>2013-12-23T11:19:54.000Z</time>
      </trkpt>
      <trkpt lat="43.54409" lon="6.96734">
        <ele>3.5999999046326</ele>
        <time>2013-12-23T11:20:03.000Z</time>
      </trkpt>
      <trkpt lat="43.54392" lon="6.96679">
        <ele>2.4000000953674</ele>
        <time>2013-12-23T11:20:10.000Z</time>
      </trkpt>
      <trkpt lat="43.54372" lon="6.96606">
        <ele>1.7999999523163</ele>
        <time>2013-12-23T11:20:19.000Z</time>
      </trkpt>
      <trkpt lat="43.54351" lon="6.96544">
        <ele>4.4000000953674</ele>
        <time>2013-12-23T11:20:27.000Z</time>
      </trkpt>
      <trkpt lat="43.54323" lon="6.96477">
        <ele>7.8000001907349</ele>
        <time>2013-12-23T11:20:36.000Z</time>
      </trkpt>
      <trkpt lat="43.54294" lon="6.96411">
        <ele>6.1999998092651</ele>
        <time>2013-12-23T11:20:45.000Z</time>
      </trkpt>
      <trkpt lat="43.54272" lon="6.9636">
        <ele>6.8000001907349</ele>
        <time>2013-12-23T11:20:52.000Z</time>
      </trkpt>
      <trkpt lat="43.54246" lon="6.96302">
        <ele>8.8000001907349</ele>
        <time>2013-12-23T11:21:00.000Z</time>
      </trkpt>
      <trkpt lat="43.54217" lon="6.96238">
        <ele>8</ele>
        <time>2013-12-23T11:21:09.000Z</time>
      </trkpt>
      <trkpt lat="43.54193" lon="6.96187">
        <ele>7.5999999046326</ele>
        <time>2013-12-23T11:21:16.000Z</time>
      </trkpt>
      <trkpt lat="43.54174" lon="6.9614">
        <ele>6.5999999046326</ele>
        <time>2013-12-23T11:21:23.000Z</time>
      </trkpt>
      <trkpt lat="43.54172" lon="6.96131">
        <ele>6.4000000953674</ele>
        <time>2013-12-23T11:21:25.000Z</time>
      </trkpt>
      <trkpt lat="43.54172" lon="6.96128">
        <ele>6.1999998092651</ele>
        <time>2013-12-23T11:21:26.000Z</time>
      </trkpt>
      <trkpt lat="43.54172" lon="6.96115">
        <ele>6</ele>
        <time>2013-12-23T11:21:31.000Z</time>
      </trkpt>
      <trkpt lat="43.54157" lon="6.96103">
        <ele>5.4000000953674</ele>
        <time>2013-12-23T11:21:36.000Z</time>
      </trkpt>
      <trkpt lat="43.54154" lon="6.96102">
        <ele>5.4000000953674</ele>
        <time>2013-12-23T11:21:37.000Z</time>
      </trkpt>
      <trkpt lat="43.54144" lon="6.96091">
        <ele>5.1999998092651</ele>
        <time>2013-12-23T11:21:41.000Z</time>
      </trkpt>
      <trkpt lat="43.54136" lon="6.96071">
        <ele>5.8000001907349</ele>
        <time>2013-12-23T11:21:47.000Z</time>
      </trkpt>
      <trkpt lat="43.54142" lon="6.96072">
        <ele>5.8000001907349</ele>
        <time>2013-12-23T11:21:50.000Z</time>
      </trkpt>
      <trkpt lat="43.54144" lon="6.96072">
        <ele>5.8000001907349</ele>
        <time>2013-12-23T11:21:51.000Z</time>
      </trkpt>
      <trkpt lat="43.54159" lon="6.96077">
        <ele>5.4000000953674</ele>
        <time>2013-12-23T11:21:56.000Z</time>
      </trkpt>
      <trkpt lat="43.54165" lon="6.96086">
        <ele>5</ele>
        <time>2013-12-23T11:22:00.000Z</time>
      </trkpt>
      <trkpt lat="43.54166" lon="6.96087">
        <ele>5</ele>
        <time>2013-12-23T11:22:02.000Z</time>
      </trkpt>
      <trkpt lat="43.54167" lon="6.96086">
        <ele>5</ele>
        <time>2013-12-23T11:22:04.000Z</time>
      </trkpt>
      <trkpt lat="43.54168" lon="6.96086">
        <ele>5</ele>
        <time>2013-12-23T11:22:17.000Z</time>
      </trkpt>
      <trkpt lat="43.54167" lon="6.96084">
        <ele>5</ele>
        <time>2013-12-23T11:22:27.000Z</time>
      </trkpt>
      <trkpt lat="43.54169" lon="6.96084">
        <ele>5</ele>
        <time>2013-12-23T11:22:29.000Z</time>
      </trkpt>
      <trkpt lat="43.54172" lon="6.96085">
        <ele>5.1999998092651</ele>
        <time>2013-12-23T11:27:43.000Z</time>
      </trkpt>
      <trkpt lat="43.54163" lon="6.96078">
        <ele>5.4000000953674</ele>
        <time>2013-12-23T11:27:47.000Z</time>
      </trkpt>
      <trkpt lat="43.54148" lon="6.96076">
        <ele>5.5999999046326</ele>
        <time>2013-12-23T11:27:51.000Z</time>
      </trkpt>
      <trkpt lat="43.54137" lon="6.9606">
        <ele>6.4000000953674</ele>
        <time>2013-12-23T11:27:55.000Z</time>
      </trkpt>
      <trkpt lat="43.54111" lon="6.96015">
        <ele>8.3999996185303</ele>
        <time>2013-12-23T11:28:03.000Z</time>
      </trkpt>
      <trkpt lat="43.54097" lon="6.95994">
        <ele>9.1999998092651</ele>
        <time>2013-12-23T11:28:07.000Z</time>
      </trkpt>
      <trkpt lat="43.54089" lon="6.95986">
        <ele>9.3999996185303</ele>
        <time>2013-12-23T11:28:09.000Z</time>
      </trkpt>
      <trkpt lat="43.54073" lon="6.95972">
        <ele>10.199999809265</ele>
        <time>2013-12-23T11:28:12.000Z</time>
      </trkpt>
      <trkpt lat="43.5406" lon="6.95954">
        <ele>11</ele>
        <time>2013-12-23T11:28:15.000Z</time>
      </trkpt>
      <trkpt lat="43.54031" lon="6.95906">
        <ele>10.800000190735</ele>
        <time>2013-12-23T11:28:22.000Z</time>
      </trkpt>
      <trkpt lat="43.53993" lon="6.95842">
        <ele>7.5999999046326</ele>
        <time>2013-12-23T11:28:31.000Z</time>
      </trkpt>
      <trkpt lat="43.53957" lon="6.95786">
        <ele>7.1999998092651</ele>
        <time>2013-12-23T11:28:39.000Z</time>
      </trkpt>
      <trkpt lat="43.53948" lon="6.95773">
        <ele>7.8000001907349</ele>
        <time>2013-12-23T11:28:41.000Z</time>
      </trkpt>
      <trkpt lat="43.53912" lon="6.9571">
        <ele>9.1999998092651</ele>
        <time>2013-12-23T11:28:50.000Z</time>
      </trkpt>
      <trkpt lat="43.53881" lon="6.95661">
        <ele>10.60000038147</ele>
        <time>2013-12-23T11:28:58.000Z</time>
      </trkpt>
      <trkpt lat="43.53866" lon="6.95638">
        <ele>11.60000038147</ele>
        <time>2013-12-23T11:29:03.000Z</time>
      </trkpt>
      <trkpt lat="43.53867" lon="6.95636">
        <ele>11.60000038147</ele>
        <time>2013-12-23T11:29:06.000Z</time>
      </trkpt>
      <trkpt lat="43.5386" lon="6.95633">
        <ele>12</ele>
        <time>2013-12-23T11:30:34.000Z</time>
      </trkpt>
      <trkpt lat="43.53858" lon="6.95631">
        <ele>12</ele>
        <time>2013-12-23T11:30:35.000Z</time>
      </trkpt>
      <trkpt lat="43.53852" lon="6.95619">
        <ele>12.39999961853</ele>
        <time>2013-12-23T11:30:38.000Z</time>
      </trkpt>
      <trkpt lat="43.53831" lon="6.95585">
        <ele>13.199999809265</ele>
        <time>2013-12-23T11:30:46.000Z</time>
      </trkpt>
      <trkpt lat="43.538" lon="6.95538">
        <ele>12.39999961853</ele>
        <time>2013-12-23T11:30:55.000Z</time>
      </trkpt>
      <trkpt lat="43.53776" lon="6.95502">
        <ele>10</ele>
        <time>2013-12-23T11:31:02.000Z</time>
      </trkpt>
      <trkpt lat="43.53746" lon="6.95462">
        <ele>8</ele>
        <time>2013-12-23T11:31:10.000Z</time>
      </trkpt>
      <trkpt lat="43.53716" lon="6.95422">
        <ele>5.8000001907349</ele>
        <time>2013-12-23T11:31:18.000Z</time>
      </trkpt>
      <trkpt lat="43.53685" lon="6.95386">
        <ele>4</ele>
        <time>2013-12-23T11:31:26.000Z</time>
      </trkpt>
      <trkpt lat="43.53642" lon="6.95344">
        <ele>3</ele>
        <time>2013-12-23T11:31:36.000Z</time>
      </trkpt>
      <trkpt lat="43.53616" lon="6.95314">
        <ele>2.5999999046326</ele>
        <time>2013-12-23T11:31:42.000Z</time>
      </trkpt>
      <trkpt lat="43.53591" lon="6.95284">
        <ele>3.2000000476837</ele>
        <time>2013-12-23T11:31:49.000Z</time>
      </trkpt>
      <trkpt lat="43.53588" lon="6.9528">
        <ele>3.2000000476837</ele>
        <time>2013-12-23T11:31:50.000Z</time>
      </trkpt>
      <trkpt lat="43.53571" lon="6.9526">
        <ele>4</ele>
        <time>2013-12-23T11:31:55.000Z</time>
      </trkpt>
      <trkpt lat="43.53545" lon="6.95229">
        <ele>4.4000000953674</ele>
        <time>2013-12-23T11:32:01.000Z</time>
      </trkpt>
      <trkpt lat="43.53513" lon="6.95192">
        <ele>3.7999999523163</ele>
        <time>2013-12-23T11:32:09.000Z</time>
      </trkpt>
      <trkpt lat="43.53483" lon="6.95156">
        <ele>2.5999999046326</ele>
        <time>2013-12-23T11:32:17.000Z</time>
      </trkpt>
      <trkpt lat="43.53449" lon="6.9512">
        <ele>2.4000000953674</ele>
        <time>2013-12-23T11:32:25.000Z</time>
      </trkpt>
      <trkpt lat="43.5341" lon="6.95081">
        <ele>3</ele>
        <time>2013-12-23T11:32:34.000Z</time>
      </trkpt>
      <trkpt lat="43.53368" lon="6.95042">
        <ele>3.5999999046326</ele>
        <time>2013-12-23T11:32:43.000Z</time>
      </trkpt>
      <trkpt lat="43.53332" lon="6.95009">
        <ele>2.7999999523163</ele>
        <time>2013-12-23T11:32:51.000Z</time>
      </trkpt>
      <trkpt lat="43.53292" lon="6.94972">
        <ele>3.7999999523163</ele>
        <time>2013-12-23T11:33:00.000Z</time>
      </trkpt>
      <trkpt lat="43.53267" lon="6.94949">
        <ele>4.4000000953674</ele>
        <time>2013-12-23T11:33:06.000Z</time>
      </trkpt>
      <trkpt lat="43.5324" lon="6.94921">
        <ele>4.5999999046326</ele>
        <time>2013-12-23T11:33:13.000Z</time>
      </trkpt>
      <trkpt lat="43.53208" lon="6.94892">
        <ele>4.8000001907349</ele>
        <time>2013-12-23T11:33:21.000Z</time>
      </trkpt>
      <trkpt lat="43.53186" lon="6.94863">
        <ele>5</ele>
        <time>2013-12-23T11:33:28.000Z</time>
      </trkpt>
      <trkpt lat="43.53178" lon="6.94848">
        <ele>5</ele>
        <time>2013-12-23T11:33:31.000Z</time>
      </trkpt>
      <trkpt lat="43.5317" lon="6.94827">
        <ele>5</ele>
        <time>2013-12-23T11:33:35.000Z</time>
      </trkpt>
      <trkpt lat="43.53162" lon="6.94812">
        <ele>4.4000000953674</ele>
        <time>2013-12-23T11:33:38.000Z</time>
      </trkpt>
      <trkpt lat="43.53154" lon="6.94804">
        <ele>4.1999998092651</ele>
        <time>2013-12-23T11:33:40.000Z</time>
      </trkpt>
      <trkpt lat="43.53128" lon="6.94788">
        <ele>3.7999999523163</ele>
        <time>2013-12-23T11:33:46.000Z</time>
      </trkpt>
      <trkpt lat="43.53095" lon="6.94773">
        <ele>3.4000000953674</ele>
        <time>2013-12-23T11:33:53.000Z</time>
      </trkpt>
      <trkpt lat="43.53047" lon="6.94752">
        <ele>4.8000001907349</ele>
        <time>2013-12-23T11:34:02.000Z</time>
      </trkpt>
      <trkpt lat="43.52994" lon="6.94733">
        <ele>6.5999999046326</ele>
        <time>2013-12-23T11:34:11.000Z</time>
      </trkpt>
      <trkpt lat="43.52938" lon="6.94715">
        <ele>6.4000000953674</ele>
        <time>2013-12-23T11:34:20.000Z</time>
      </trkpt>
      <trkpt lat="43.52933" lon="6.94712">
        <ele>6.4000000953674</ele>
        <time>2013-12-23T11:34:21.000Z</time>
      </trkpt>
      <trkpt lat="43.52898" lon="6.94692">
        <ele>6.4000000953674</ele>
        <time>2013-12-23T11:34:28.000Z</time>
      </trkpt>
      <trkpt lat="43.52874" lon="6.94677">
        <ele>6.1999998092651</ele>
        <time>2013-12-23T11:34:33.000Z</time>
      </trkpt>
      <trkpt lat="43.52841" lon="6.94658">
        <ele>5.8000001907349</ele>
        <time>2013-12-23T11:34:39.000Z</time>
      </trkpt>
      <trkpt lat="43.52826" lon="6.94648">
        <ele>5.4000000953674</ele>
        <time>2013-12-23T11:34:42.000Z</time>
      </trkpt>
      <trkpt lat="43.5281" lon="6.94638">
        <ele>4.5999999046326</ele>
        <time>2013-12-23T11:34:45.000Z</time>
      </trkpt>
      <trkpt lat="43.52769" lon="6.94611">
        <ele>3.4000000953674</ele>
        <time>2013-12-23T11:34:53.000Z</time>
      </trkpt>
      <trkpt lat="43.52735" lon="6.94582">
        <ele>3</ele>
        <time>2013-12-23T11:35:00.000Z</time>
      </trkpt>
      <trkpt lat="43.52703" lon="6.94553">
        <ele>3.4000000953674</ele>
        <time>2013-12-23T11:35:07.000Z</time>
      </trkpt>
      <trkpt lat="43.52665" lon="6.94521">
        <ele>3.7999999523163</ele>
        <time>2013-12-23T11:35:15.000Z</time>
      </trkpt>
      <trkpt lat="43.52639" lon="6.94499">
        <ele>3.5999999046326</ele>
        <time>2013-12-23T11:35:20.000Z</time>
      </trkpt>
      <trkpt lat="43.52634" lon="6.94494">
        <ele>3.5999999046326</ele>
        <time>2013-12-23T11:35:21.000Z</time>
      </trkpt>
      <trkpt lat="43.52618" lon="6.94481">
        <ele>3.7999999523163</ele>
        <time>2013-12-23T11:35:24.000Z</time>
      </trkpt>
      <trkpt lat="43.52602" lon="6.94467">
        <ele>4.1999998092651</ele>
        <time>2013-12-23T11:35:27.000Z</time>
      </trkpt>
      <trkpt lat="43.52564" lon="6.9443">
        <ele>5.1999998092651</ele>
        <time>2013-12-23T11:35:35.000Z</time>
      </trkpt>
      <trkpt lat="43.52536" lon="6.94404">
        <ele>5.5999999046326</ele>
        <time>2013-12-23T11:35:41.000Z</time>
      </trkpt>
      <trkpt lat="43.52503" lon="6.94371">
        <ele>6</ele>
        <time>2013-12-23T11:35:48.000Z</time>
      </trkpt>
      <trkpt lat="43.52477" lon="6.94343">
        <ele>6.1999998092651</ele>
        <time>2013-12-23T11:35:54.000Z</time>
      </trkpt>
      <trkpt lat="43.52446" lon="6.94311">
        <ele>6.4000000953674</ele>
        <time>2013-12-23T11:36:01.000Z</time>
      </trkpt>
      <trkpt lat="43.52427" lon="6.9428">
        <ele>7.4000000953674</ele>
        <time>2013-12-23T11:36:08.000Z</time>
      </trkpt>
      <trkpt lat="43.52411" lon="6.94244">
        <ele>9.1999998092651</ele>
        <time>2013-12-23T11:36:16.000Z</time>
      </trkpt>
      <trkpt lat="43.52397" lon="6.94217">
        <ele>10.199999809265</ele>
        <time>2013-12-23T11:36:23.000Z</time>
      </trkpt>
      <trkpt lat="43.52381" lon="6.94188">
        <ele>11.60000038147</ele>
        <time>2013-12-23T11:36:31.000Z</time>
      </trkpt>
      <trkpt lat="43.52366" lon="6.94165">
        <ele>12.60000038147</ele>
        <time>2013-12-23T11:36:38.000Z</time>
      </trkpt>
      <trkpt lat="43.52349" lon="6.94152">
        <ele>13.60000038147</ele>
        <time>2013-12-23T11:36:45.000Z</time>
      </trkpt>
      <trkpt lat="43.52329" lon="6.94147">
        <ele>13.800000190735</ele>
        <time>2013-12-23T11:36:53.000Z</time>
      </trkpt>
      <trkpt lat="43.52306" lon="6.94137">
        <ele>13.60000038147</ele>
        <time>2013-12-23T11:37:02.000Z</time>
      </trkpt>
      <trkpt lat="43.52296" lon="6.94117">
        <ele>14.60000038147</ele>
        <time>2013-12-23T11:37:07.000Z</time>
      </trkpt>
      <trkpt lat="43.52287" lon="6.94087">
        <ele>16.799999237061</ele>
        <time>2013-12-23T11:37:12.000Z</time>
      </trkpt>
      <trkpt lat="43.52282" lon="6.94078">
        <ele>17.60000038147</ele>
        <time>2013-12-23T11:37:14.000Z</time>
      </trkpt>
      <trkpt lat="43.52271" lon="6.94068">
        <ele>18.799999237061</ele>
        <time>2013-12-23T11:37:17.000Z</time>
      </trkpt>
      <trkpt lat="43.52263" lon="6.94064">
        <ele>19.200000762939</ele>
        <time>2013-12-23T11:37:19.000Z</time>
      </trkpt>
      <trkpt lat="43.52248" lon="6.94056">
        <ele>19.799999237061</ele>
        <time>2013-12-23T11:37:23.000Z</time>
      </trkpt>
      <trkpt lat="43.52219" lon="6.94038">
        <ele>19.60000038147</ele>
        <time>2013-12-23T11:37:30.000Z</time>
      </trkpt>
      <trkpt lat="43.52191" lon="6.94018">
        <ele>19.799999237061</ele>
        <time>2013-12-23T11:37:37.000Z</time>
      </trkpt>
      <trkpt lat="43.52173" lon="6.94002">
        <ele>20.200000762939</ele>
        <time>2013-12-23T11:37:43.000Z</time>
      </trkpt>
      <trkpt lat="43.5216" lon="6.93981">
        <ele>23.60000038147</ele>
        <time>2013-12-23T11:37:49.000Z</time>
      </trkpt>
      <trkpt lat="43.52147" lon="6.93969">
        <ele>27.799999237061</ele>
        <time>2013-12-23T11:37:54.000Z</time>
      </trkpt>
      <trkpt lat="43.52135" lon="6.93973">
        <ele>29.60000038147</ele>
        <time>2013-12-23T11:37:58.000Z</time>
      </trkpt>
      <trkpt lat="43.52127" lon="6.9399">
        <ele>29.200000762939</ele>
        <time>2013-12-23T11:38:03.000Z</time>
      </trkpt>
      <trkpt lat="43.52118" lon="6.94011">
        <ele>27.60000038147</ele>
        <time>2013-12-23T11:38:09.000Z</time>
      </trkpt>
      <trkpt lat="43.52099" lon="6.94034">
        <ele>26.200000762939</ele>
        <time>2013-12-23T11:38:18.000Z</time>
      </trkpt>
      <trkpt lat="43.52085" lon="6.94045">
        <ele>25.39999961853</ele>
        <time>2013-12-23T11:38:24.000Z</time>
      </trkpt>
      <trkpt lat="43.52065" lon="6.94051">
        <ele>24.60000038147</ele>
        <time>2013-12-23T11:38:31.000Z</time>
      </trkpt>
      <trkpt lat="43.52043" lon="6.94049">
        <ele>25.60000038147</ele>
        <time>2013-12-23T11:38:38.000Z</time>
      </trkpt>
      <trkpt lat="43.52018" lon="6.94041">
        <ele>28.200000762939</ele>
        <time>2013-12-23T11:38:47.000Z</time>
      </trkpt>
      <trkpt lat="43.51994" lon="6.94033">
        <ele>30</ele>
        <time>2013-12-23T11:38:55.000Z</time>
      </trkpt>
      <trkpt lat="43.51971" lon="6.94022">
        <ele>31.39999961853</ele>
        <time>2013-12-23T11:39:03.000Z</time>
      </trkpt>
      <trkpt lat="43.51944" lon="6.94007">
        <ele>33.599998474121</ele>
        <time>2013-12-23T11:39:12.000Z</time>
      </trkpt>
      <trkpt lat="43.51919" lon="6.93995">
        <ele>35.200000762939</ele>
        <time>2013-12-23T11:39:20.000Z</time>
      </trkpt>
      <trkpt lat="43.51898" lon="6.93983">
        <ele>33</ele>
        <time>2013-12-23T11:39:25.000Z</time>
      </trkpt>
      <trkpt lat="43.51867" lon="6.93963">
        <ele>29.200000762939</ele>
        <time>2013-12-23T11:39:31.000Z</time>
      </trkpt>
      <trkpt lat="43.51862" lon="6.93958">
        <ele>29</ele>
        <time>2013-12-23T11:39:32.000Z</time>
      </trkpt>
      <trkpt lat="43.51849" lon="6.93933">
        <ele>30.799999237061</ele>
        <time>2013-12-23T11:39:35.000Z</time>
      </trkpt>
      <trkpt lat="43.51845" lon="6.93924">
        <ele>31.799999237061</ele>
        <time>2013-12-23T11:39:36.000Z</time>
      </trkpt>
      <trkpt lat="43.51834" lon="6.93905">
        <ele>31.60000038147</ele>
        <time>2013-12-23T11:39:38.000Z</time>
      </trkpt>
      <trkpt lat="43.51821" lon="6.93887">
        <ele>30</ele>
        <time>2013-12-23T11:39:40.000Z</time>
      </trkpt>
      <trkpt lat="43.51803" lon="6.93856">
        <ele>26</ele>
        <time>2013-12-23T11:39:43.000Z</time>
      </trkpt>
      <trkpt lat="43.51798" lon="6.93843">
        <ele>25.200000762939</ele>
        <time>2013-12-23T11:39:44.000Z</time>
      </trkpt>
      <trkpt lat="43.51792" lon="6.93801">
        <ele>24.39999961853</ele>
        <time>2013-12-23T11:39:47.000Z</time>
      </trkpt>
      <trkpt lat="43.51785" lon="6.93729">
        <ele>24.200000762939</ele>
        <time>2013-12-23T11:39:52.000Z</time>
      </trkpt>
      <trkpt lat="43.51775" lon="6.93684">
        <ele>20.799999237061</ele>
        <time>2013-12-23T11:39:55.000Z</time>
      </trkpt>
      <trkpt lat="43.51775" lon="6.93668">
        <ele>21.200000762939</ele>
        <time>2013-12-23T11:39:56.000Z</time>
      </trkpt>
      <trkpt lat="43.51781" lon="6.93606">
        <ele>24.39999961853</ele>
        <time>2013-12-23T11:40:00.000Z</time>
      </trkpt>
      <trkpt lat="43.51781" lon="6.93563">
        <ele>25.60000038147</ele>
        <time>2013-12-23T11:40:03.000Z</time>
      </trkpt>
      <trkpt lat="43.51779" lon="6.93551">
        <ele>25.200000762939</ele>
        <time>2013-12-23T11:40:04.000Z</time>
      </trkpt>
      <trkpt lat="43.51756" lon="6.93525">
        <ele>17.60000038147</ele>
        <time>2013-12-23T11:40:07.000Z</time>
      </trkpt>
      <trkpt lat="43.51739" lon="6.93525">
        <ele>19.799999237061</ele>
        <time>2013-12-23T11:40:09.000Z</time>
      </trkpt>
      <trkpt lat="43.51718" lon="6.93539">
        <ele>26.60000038147</ele>
        <time>2013-12-23T11:40:12.000Z</time>
      </trkpt>
      <trkpt lat="43.51706" lon="6.93558">
        <ele>28.39999961853</ele>
        <time>2013-12-23T11:40:15.000Z</time>
      </trkpt>
      <trkpt lat="43.51691" lon="6.9359">
        <ele>28.799999237061</ele>
        <time>2013-12-23T11:40:21.000Z</time>
      </trkpt>
      <trkpt lat="43.51679" lon="6.93615">
        <ele>29</ele>
        <time>2013-12-23T11:40:28.000Z</time>
      </trkpt>
      <trkpt lat="43.51671" lon="6.93637">
        <ele>27.799999237061</ele>
        <time>2013-12-23T11:40:35.000Z</time>
      </trkpt>
      <trkpt lat="43.51662" lon="6.93668">
        <ele>25.39999961853</ele>
        <time>2013-12-23T11:40:44.000Z</time>
      </trkpt>
      <trkpt lat="43.51654" lon="6.93692">
        <ele>24</ele>
        <time>2013-12-23T11:40:51.000Z</time>
      </trkpt>
      <trkpt lat="43.51642" lon="6.9372">
        <ele>22.39999961853</ele>
        <time>2013-12-23T11:40:59.000Z</time>
      </trkpt>
      <trkpt lat="43.5163" lon="6.93735">
        <ele>21.60000038147</ele>
        <time>2013-12-23T11:41:05.000Z</time>
      </trkpt>
      <trkpt lat="43.5162" lon="6.93761">
        <ele>18.39999961853</ele>
        <time>2013-12-23T11:41:12.000Z</time>
      </trkpt>
      <trkpt lat="43.51606" lon="6.93779">
        <ele>17.200000762939</ele>
        <time>2013-12-23T11:41:17.000Z</time>
      </trkpt>
      <trkpt lat="43.51589" lon="6.93781">
        <ele>18.799999237061</ele>
        <time>2013-12-23T11:41:21.000Z</time>
      </trkpt>
      <trkpt lat="43.51567" lon="6.93768">
        <ele>20</ele>
        <time>2013-12-23T11:41:26.000Z</time>
      </trkpt>
      <trkpt lat="43.51533" lon="6.93746">
        <ele>19.799999237061</ele>
        <time>2013-12-23T11:41:33.000Z</time>
      </trkpt>
      <trkpt lat="43.51507" lon="6.9372">
        <ele>21.200000762939</ele>
        <time>2013-12-23T11:41:38.000Z</time>
      </trkpt>
      <trkpt lat="43.51502" lon="6.93714">
        <ele>21.39999961853</ele>
        <time>2013-12-23T11:41:39.000Z</time>
      </trkpt>
      <trkpt lat="43.51492" lon="6.93704">
        <ele>22.39999961853</ele>
        <time>2013-12-23T11:41:41.000Z</time>
      </trkpt>
      <trkpt lat="43.51481" lon="6.93699">
        <ele>22.60000038147</ele>
        <time>2013-12-23T11:41:43.000Z</time>
      </trkpt>
      <trkpt lat="43.5147" lon="6.93697">
        <ele>22.60000038147</ele>
        <time>2013-12-23T11:41:45.000Z</time>
      </trkpt>
      <trkpt lat="43.51449" lon="6.93695">
        <ele>22</ele>
        <time>2013-12-23T11:41:49.000Z</time>
      </trkpt>
      <trkpt lat="43.51411" lon="6.93692">
        <ele>21.39999961853</ele>
        <time>2013-12-23T11:41:57.000Z</time>
      </trkpt>
      <trkpt lat="43.5137" lon="6.93698">
        <ele>23.39999961853</ele>
        <time>2013-12-23T11:42:06.000Z</time>
      </trkpt>
      <trkpt lat="43.51362" lon="6.93703">
        <ele>22.799999237061</ele>
        <time>2013-12-23T11:42:08.000Z</time>
      </trkpt>
      <trkpt lat="43.51344" lon="6.93709">
        <ele>22.200000762939</ele>
        <time>2013-12-23T11:42:12.000Z</time>
      </trkpt>
      <trkpt lat="43.51311" lon="6.93709">
        <ele>23</ele>
        <time>2013-12-23T11:42:19.000Z</time>
      </trkpt>
      <trkpt lat="43.5128" lon="6.93703">
        <ele>24.799999237061</ele>
        <time>2013-12-23T11:42:26.000Z</time>
      </trkpt>
      <trkpt lat="43.51246" lon="6.937">
        <ele>25.799999237061</ele>
        <time>2013-12-23T11:42:34.000Z</time>
      </trkpt>
      <trkpt lat="43.51231" lon="6.93711">
        <ele>23.39999961853</ele>
        <time>2013-12-23T11:42:38.000Z</time>
      </trkpt>
      <trkpt lat="43.51225" lon="6.93721">
        <ele>21.39999961853</ele>
        <time>2013-12-23T11:42:40.000Z</time>
      </trkpt>
      <trkpt lat="43.51218" lon="6.9373">
        <ele>19.200000762939</ele>
        <time>2013-12-23T11:42:42.000Z</time>
      </trkpt>
      <trkpt lat="43.5121" lon="6.93739">
        <ele>17.200000762939</ele>
        <time>2013-12-23T11:42:44.000Z</time>
      </trkpt>
      <trkpt lat="43.51187" lon="6.93745">
        <ele>16.60000038147</ele>
        <time>2013-12-23T11:42:48.000Z</time>
      </trkpt>
      <trkpt lat="43.51181" lon="6.93745">
        <ele>16.799999237061</ele>
        <time>2013-12-23T11:42:49.000Z</time>
      </trkpt>
      <trkpt lat="43.51139" lon="6.93742">
        <ele>15.800000190735</ele>
        <time>2013-12-23T11:42:56.000Z</time>
      </trkpt>
      <trkpt lat="43.51133" lon="6.9374">
        <ele>15.800000190735</ele>
        <time>2013-12-23T11:42:57.000Z</time>
      </trkpt>
      <trkpt lat="43.51107" lon="6.93727">
        <ele>16.200000762939</ele>
        <time>2013-12-23T11:43:01.000Z</time>
      </trkpt>
      <trkpt lat="43.51095" lon="6.93717">
        <ele>16.799999237061</ele>
        <time>2013-12-23T11:43:03.000Z</time>
      </trkpt>
      <trkpt lat="43.51084" lon="6.93705">
        <ele>17.60000038147</ele>
        <time>2013-12-23T11:43:05.000Z</time>
      </trkpt>
      <trkpt lat="43.51078" lon="6.93699">
        <ele>18.39999961853</ele>
        <time>2013-12-23T11:43:06.000Z</time>
      </trkpt>
      <trkpt lat="43.5106" lon="6.93684">
        <ele>20.60000038147</ele>
        <time>2013-12-23T11:43:09.000Z</time>
      </trkpt>
      <trkpt lat="43.51048" lon="6.93681">
        <ele>20.799999237061</ele>
        <time>2013-12-23T11:43:11.000Z</time>
      </trkpt>
      <trkpt lat="43.51036" lon="6.93684">
        <ele>20</ele>
        <time>2013-12-23T11:43:13.000Z</time>
      </trkpt>
      <trkpt lat="43.51031" lon="6.93687">
        <ele>19.200000762939</ele>
        <time>2013-12-23T11:43:14.000Z</time>
      </trkpt>
      <trkpt lat="43.51025" lon="6.93689">
        <ele>18.60000038147</ele>
        <time>2013-12-23T11:43:15.000Z</time>
      </trkpt>
      <trkpt lat="43.50981" lon="6.93714">
        <ele>13.800000190735</ele>
        <time>2013-12-23T11:43:23.000Z</time>
      </trkpt>
      <trkpt lat="43.50958" lon="6.93726">
        <ele>13</ele>
        <time>2013-12-23T11:43:27.000Z</time>
      </trkpt>
      <trkpt lat="43.50945" lon="6.93726">
        <ele>14</ele>
        <time>2013-12-23T11:43:29.000Z</time>
      </trkpt>
      <trkpt lat="43.50911" lon="6.93732">
        <ele>15.199999809265</ele>
        <time>2013-12-23T11:43:35.000Z</time>
      </trkpt>
      <trkpt lat="43.50871" lon="6.93757">
        <ele>12.800000190735</ele>
        <time>2013-12-23T11:43:43.000Z</time>
      </trkpt>
      <trkpt lat="43.50839" lon="6.93778">
        <ele>12.800000190735</ele>
        <time>2013-12-23T11:43:50.000Z</time>
      </trkpt>
      <trkpt lat="43.50824" lon="6.93793">
        <ele>13.800000190735</ele>
        <time>2013-12-23T11:43:54.000Z</time>
      </trkpt>
      <trkpt lat="43.50819" lon="6.93803">
        <ele>14.60000038147</ele>
        <time>2013-12-23T11:43:56.000Z</time>
      </trkpt>
      <trkpt lat="43.50814" lon="6.93813">
        <ele>15</ele>
        <time>2013-12-23T11:43:58.000Z</time>
      </trkpt>
      <trkpt lat="43.50813" lon="6.93819">
        <ele>15</ele>
        <time>2013-12-23T11:43:59.000Z</time>
      </trkpt>
      <trkpt lat="43.50811" lon="6.93831">
        <ele>15.199999809265</ele>
        <time>2013-12-23T11:44:01.000Z</time>
      </trkpt>
      <trkpt lat="43.508" lon="6.93875">
        <ele>16.39999961853</ele>
        <time>2013-12-23T11:44:09.000Z</time>
      </trkpt>
      <trkpt lat="43.50788" lon="6.93916">
        <ele>17.799999237061</ele>
        <time>2013-12-23T11:44:17.000Z</time>
      </trkpt>
      <trkpt lat="43.50787" lon="6.9392">
        <ele>17.799999237061</ele>
        <time>2013-12-23T11:44:18.000Z</time>
      </trkpt>
      <trkpt lat="43.50783" lon="6.93952">
        <ele>15.800000190735</ele>
        <time>2013-12-23T11:44:24.000Z</time>
      </trkpt>
      <trkpt lat="43.50779" lon="6.93998">
        <ele>12</ele>
        <time>2013-12-23T11:44:32.000Z</time>
      </trkpt>
      <trkpt lat="43.50774" lon="6.94047">
        <ele>11.39999961853</ele>
        <time>2013-12-23T11:44:39.000Z</time>
      </trkpt>
      <trkpt lat="43.50772" lon="6.94062">
        <ele>11.199999809265</ele>
        <time>2013-12-23T11:44:41.000Z</time>
      </trkpt>
      <trkpt lat="43.50767" lon="6.94098">
        <ele>9.8000001907349</ele>
        <time>2013-12-23T11:44:45.000Z</time>
      </trkpt>
      <trkpt lat="43.50755" lon="6.94147">
        <ele>6.4000000953674</ele>
        <time>2013-12-23T11:44:51.000Z</time>
      </trkpt>
      <trkpt lat="43.50752" lon="6.94153">
        <ele>6</ele>
        <time>2013-12-23T11:44:52.000Z</time>
      </trkpt>
      <trkpt lat="43.50743" lon="6.94169">
        <ele>5.1999998092651</ele>
        <time>2013-12-23T11:44:55.000Z</time>
      </trkpt>
      <trkpt lat="43.5073" lon="6.94172">
        <ele>6</ele>
        <time>2013-12-23T11:44:58.000Z</time>
      </trkpt>
      <trkpt lat="43.50716" lon="6.94149">
        <ele>7.5999999046326</ele>
        <time>2013-12-23T11:45:01.000Z</time>
      </trkpt>
      <trkpt lat="43.50719" lon="6.94146">
        <ele>7.5999999046326</ele>
        <time>2013-12-23T11:45:02.000Z</time>
      </trkpt>
      <trkpt lat="43.50703" lon="6.94127">
        <ele>8.6000003814697</ele>
        <time>2013-12-23T11:45:06.000Z</time>
      </trkpt>
      <trkpt lat="43.50678" lon="6.94098">
        <ele>8.6000003814697</ele>
        <time>2013-12-23T11:45:13.000Z</time>
      </trkpt>
      <trkpt lat="43.50667" lon="6.94081">
        <ele>8</ele>
        <time>2013-12-23T11:45:17.000Z</time>
      </trkpt>
      <trkpt lat="43.5066" lon="6.94073">
        <ele>9.6000003814697</ele>
        <time>2013-12-23T11:45:19.000Z</time>
      </trkpt>
      <trkpt lat="43.50636" lon="6.94037">
        <ele>12.39999961853</ele>
        <time>2013-12-23T11:45:28.000Z</time>
      </trkpt>
      <trkpt lat="43.5062" lon="6.94015">
        <ele>12</ele>
        <time>2013-12-23T11:45:34.000Z</time>
      </trkpt>
      <trkpt lat="43.50616" lon="6.93995">
        <ele>10.800000190735</ele>
        <time>2013-12-23T11:45:38.000Z</time>
      </trkpt>
      <trkpt lat="43.50608" lon="6.93982">
        <ele>11.39999961853</ele>
        <time>2013-12-23T11:45:42.000Z</time>
      </trkpt>
      <trkpt lat="43.50587" lon="6.93966">
        <ele>11.199999809265</ele>
        <time>2013-12-23T11:45:48.000Z</time>
      </trkpt>
      <trkpt lat="43.50571" lon="6.93947">
        <ele>12.800000190735</ele>
        <time>2013-12-23T11:45:54.000Z</time>
      </trkpt>
      <trkpt lat="43.50557" lon="6.93927">
        <ele>13.60000038147</ele>
        <time>2013-12-23T11:46:00.000Z</time>
      </trkpt>
      <trkpt lat="43.50544" lon="6.93913">
        <ele>14.199999809265</ele>
        <time>2013-12-23T11:46:05.000Z</time>
      </trkpt>
      <trkpt lat="43.50522" lon="6.93896">
        <ele>16.799999237061</ele>
        <time>2013-12-23T11:46:12.000Z</time>
      </trkpt>
      <trkpt lat="43.50504" lon="6.93884">
        <ele>17.799999237061</ele>
        <time>2013-12-23T11:46:18.000Z</time>
      </trkpt>
      <trkpt lat="43.50489" lon="6.93871">
        <ele>20</ele>
        <time>2013-12-23T11:46:23.000Z</time>
      </trkpt>
      <trkpt lat="43.50464" lon="6.93858">
        <ele>23.799999237061</ele>
        <time>2013-12-23T11:46:29.000Z</time>
      </trkpt>
      <trkpt lat="43.50452" lon="6.93843">
        <ele>24.60000038147</ele>
        <time>2013-12-23T11:46:35.000Z</time>
      </trkpt>
      <trkpt lat="43.50434" lon="6.93825">
        <ele>26</ele>
        <time>2013-12-23T11:46:42.000Z</time>
      </trkpt>
      <trkpt lat="43.50421" lon="6.93807">
        <ele>27.60000038147</ele>
        <time>2013-12-23T11:46:48.000Z</time>
      </trkpt>
      <trkpt lat="43.50406" lon="6.93788">
        <ele>30.60000038147</ele>
        <time>2013-12-23T11:46:56.000Z</time>
      </trkpt>
      <trkpt lat="43.50403" lon="6.93778">
        <ele>31.200000762939</ele>
        <time>2013-12-23T11:46:59.000Z</time>
      </trkpt>
      <trkpt lat="43.50405" lon="6.93776">
        <ele>30.60000038147</ele>
        <time>2013-12-23T11:47:00.000Z</time>
      </trkpt>
      <trkpt lat="43.50403" lon="6.93764">
        <ele>30.799999237061</ele>
        <time>2013-12-23T11:47:04.000Z</time>
      </trkpt>
      <trkpt lat="43.50394" lon="6.93756">
        <ele>31.799999237061</ele>
        <time>2013-12-23T11:47:08.000Z</time>
      </trkpt>
      <trkpt lat="43.50392" lon="6.93754">
        <ele>32</ele>
        <time>2013-12-23T11:47:09.000Z</time>
      </trkpt>
      <trkpt lat="43.50372" lon="6.93739">
        <ele>35.200000762939</ele>
        <time>2013-12-23T11:47:19.000Z</time>
      </trkpt>
      <trkpt lat="43.50362" lon="6.93733">
        <ele>36.400001525879</ele>
        <time>2013-12-23T11:47:26.000Z</time>
      </trkpt>
      <trkpt lat="43.50361" lon="6.93733">
        <ele>36.400001525879</ele>
        <time>2013-12-23T11:47:29.000Z</time>
      </trkpt>
      <trkpt lat="43.50357" lon="6.9373">
        <ele>36.799999237061</ele>
        <time>2013-12-23T11:47:32.000Z</time>
      </trkpt>
      <trkpt lat="43.50353" lon="6.93726">
        <ele>37.200000762939</ele>
        <time>2013-12-23T11:47:35.000Z</time>
      </trkpt>
      <trkpt lat="43.50349" lon="6.93724">
        <ele>37.599998474121</ele>
        <time>2013-12-23T11:47:38.000Z</time>
      </trkpt>
      <trkpt lat="43.50343" lon="6.93723">
        <ele>37.799999237061</ele>
        <time>2013-12-23T11:47:42.000Z</time>
      </trkpt>
      <trkpt lat="43.50343" lon="6.93725">
        <ele>37.599998474121</ele>
        <time>2013-12-23T11:47:44.000Z</time>
      </trkpt>
      <trkpt lat="43.50349" lon="6.93727">
        <ele>37.400001525879</ele>
        <time>2013-12-23T11:47:50.000Z</time>
      </trkpt>
      <trkpt lat="43.50349" lon="6.93727">
        <ele>37.400001525879</ele>
        <time>2013-12-23T11:47:51.000Z</time>
      </trkpt>
      <trkpt lat="43.50348" lon="6.93728">
        <ele>37.400001525879</ele>
        <time>2013-12-23T11:47:56.000Z</time>
      </trkpt>
      <trkpt lat="43.50346" lon="6.93711">
        <ele>38.200000762939</ele>
        <time>2013-12-23T12:15:49.000Z</time>
      </trkpt>
      <trkpt lat="43.50338" lon="6.93718">
        <ele>38</ele>
        <time>2013-12-23T12:17:13.000Z</time>
      </trkpt>
      <trkpt lat="43.50336" lon="6.93724">
        <ele>38</ele>
        <time>2013-12-23T12:17:17.000Z</time>
      </trkpt>
      <trkpt lat="43.50336" lon="6.93725">
        <ele>38</ele>
        <time>2013-12-23T12:17:19.000Z</time>
      </trkpt>
      <trkpt lat="43.50333" lon="6.93726">
        <ele>38</ele>
        <time>2013-12-23T12:17:21.000Z</time>
      </trkpt>
      <trkpt lat="43.5033" lon="6.93723">
        <ele>38.400001525879</ele>
        <time>2013-12-23T12:17:24.000Z</time>
      </trkpt>
      <trkpt lat="43.50328" lon="6.93722">
        <ele>38.599998474121</ele>
        <time>2013-12-23T12:17:26.000Z</time>
      </trkpt>
      <trkpt lat="43.50319" lon="6.93713">
        <ele>39.599998474121</ele>
        <time>2013-12-23T12:17:31.000Z</time>
      </trkpt>
      <trkpt lat="43.50316" lon="6.93709">
        <ele>40</ele>
        <time>2013-12-23T12:17:36.000Z</time>
      </trkpt>
      <trkpt lat="43.50309" lon="6.93696">
        <ele>41</ele>
        <time>2013-12-23T12:17:41.000Z</time>
      </trkpt>
      <trkpt lat="43.50299" lon="6.93691">
        <ele>42.400001525879</ele>
        <time>2013-12-23T12:17:46.000Z</time>
      </trkpt>
      <trkpt lat="43.50282" lon="6.93683">
        <ele>44.599998474121</ele>
        <time>2013-12-23T12:17:54.000Z</time>
      </trkpt>
      <trkpt lat="43.50266" lon="6.93686">
        <ele>46.400001525879</ele>
        <time>2013-12-23T12:17:59.000Z</time>
      </trkpt>
      <trkpt lat="43.50245" lon="6.93701">
        <ele>48.400001525879</ele>
        <time>2013-12-23T12:18:03.000Z</time>
      </trkpt>
      <trkpt lat="43.50218" lon="6.93714">
        <ele>48.799999237061</ele>
        <time>2013-12-23T12:18:09.000Z</time>
      </trkpt>
      <trkpt lat="43.50211" lon="6.93716">
        <ele>49</ele>
        <time>2013-12-23T12:18:11.000Z</time>
      </trkpt>
      <trkpt lat="43.50205" lon="6.93717">
        <ele>49.200000762939</ele>
        <time>2013-12-23T12:18:13.000Z</time>
      </trkpt>
      <trkpt lat="43.50202" lon="6.93717">
        <ele>49.200000762939</ele>
        <time>2013-12-23T12:18:14.000Z</time>
      </trkpt>
      <trkpt lat="43.50184" lon="6.93714">
        <ele>50</ele>
        <time>2013-12-23T12:18:19.000Z</time>
      </trkpt>
      <trkpt lat="43.50164" lon="6.93718">
        <ele>50.200000762939</ele>
        <time>2013-12-23T12:18:26.000Z</time>
      </trkpt>
      <trkpt lat="43.50151" lon="6.93719">
        <ele>49.599998474121</ele>
        <time>2013-12-23T12:18:31.000Z</time>
      </trkpt>
      <trkpt lat="43.50131" lon="6.93723">
        <ele>48.599998474121</ele>
        <time>2013-12-23T12:18:37.000Z</time>
      </trkpt>
      <trkpt lat="43.50118" lon="6.93718">
        <ele>48.200000762939</ele>
        <time>2013-12-23T12:18:42.000Z</time>
      </trkpt>
      <trkpt lat="43.50101" lon="6.93713">
        <ele>47.400001525879</ele>
        <time>2013-12-23T12:18:49.000Z</time>
      </trkpt>
      <trkpt lat="43.50086" lon="6.93706">
        <ele>46.599998474121</ele>
        <time>2013-12-23T12:18:54.000Z</time>
      </trkpt>
      <trkpt lat="43.50069" lon="6.937">
        <ele>46</ele>
        <time>2013-12-23T12:19:00.000Z</time>
      </trkpt>
      <trkpt lat="43.50049" lon="6.93706">
        <ele>46.400001525879</ele>
        <time>2013-12-23T12:19:07.000Z</time>
      </trkpt>
      <trkpt lat="43.50036" lon="6.93707">
        <ele>46.599998474121</ele>
        <time>2013-12-23T12:19:12.000Z</time>
      </trkpt>
      <trkpt lat="43.50016" lon="6.93708">
        <ele>47</ele>
        <time>2013-12-23T12:19:19.000Z</time>
      </trkpt>
      <trkpt lat="43.50001" lon="6.93702">
        <ele>45.799999237061</ele>
        <time>2013-12-23T12:19:26.000Z</time>
      </trkpt>
      <trkpt lat="43.49989" lon="6.93694">
        <ele>45.400001525879</ele>
        <time>2013-12-23T12:19:32.000Z</time>
      </trkpt>
      <trkpt lat="43.49977" lon="6.93685">
        <ele>44.799999237061</ele>
        <time>2013-12-23T12:19:38.000Z</time>
      </trkpt>
      <trkpt lat="43.49962" lon="6.93676">
        <ele>44.400001525879</ele>
        <time>2013-12-23T12:19:45.000Z</time>
      </trkpt>
      <trkpt lat="43.49947" lon="6.9367">
        <ele>44.200000762939</ele>
        <time>2013-12-23T12:19:53.000Z</time>
      </trkpt>
      <trkpt lat="43.49932" lon="6.93663">
        <ele>45</ele>
        <time>2013-12-23T12:20:00.000Z</time>
      </trkpt>
      <trkpt lat="43.49922" lon="6.93658">
        <ele>46</ele>
        <time>2013-12-23T12:20:05.000Z</time>
      </trkpt>
      <trkpt lat="43.4991" lon="6.93659">
        <ele>47</ele>
        <time>2013-12-23T12:20:11.000Z</time>
      </trkpt>
      <trkpt lat="43.49898" lon="6.93666">
        <ele>48.200000762939</ele>
        <time>2013-12-23T12:20:18.000Z</time>
      </trkpt>
      <trkpt lat="43.49888" lon="6.93671">
        <ele>50.599998474121</ele>
        <time>2013-12-23T12:20:24.000Z</time>
      </trkpt>
      <trkpt lat="43.49877" lon="6.93666">
        <ele>50.799999237061</ele>
        <time>2013-12-23T12:20:29.000Z</time>
      </trkpt>
      <trkpt lat="43.49871" lon="6.93654">
        <ele>51</ele>
        <time>2013-12-23T12:20:34.000Z</time>
      </trkpt>
      <trkpt lat="43.49868" lon="6.93653">
        <ele>51.200000762939</ele>
        <time>2013-12-23T12:20:36.000Z</time>
      </trkpt>
      <trkpt lat="43.49861" lon="6.93655">
        <ele>52</ele>
        <time>2013-12-23T12:20:39.000Z</time>
      </trkpt>
      <trkpt lat="43.49858" lon="6.93656">
        <ele>52.400001525879</ele>
        <time>2013-12-23T12:20:41.000Z</time>
      </trkpt>
      <trkpt lat="43.49847" lon="6.93656">
        <ele>53.400001525879</ele>
        <time>2013-12-23T12:20:47.000Z</time>
      </trkpt>
      <trkpt lat="43.49836" lon="6.93653">
        <ele>54.200000762939</ele>
        <time>2013-12-23T12:20:55.000Z</time>
      </trkpt>
      <trkpt lat="43.49824" lon="6.93644">
        <ele>55.799999237061</ele>
        <time>2013-12-23T12:21:03.000Z</time>
      </trkpt>
      <trkpt lat="43.49812" lon="6.93634">
        <ele>57.400001525879</ele>
        <time>2013-12-23T12:21:12.000Z</time>
      </trkpt>
      <trkpt lat="43.49797" lon="6.93627">
        <ele>59.400001525879</ele>
        <time>2013-12-23T12:21:21.000Z</time>
      </trkpt>
      <trkpt lat="43.49785" lon="6.93629">
        <ele>62.400001525879</ele>
        <time>2013-12-23T12:21:28.000Z</time>
      </trkpt>
      <trkpt lat="43.49777" lon="6.93621">
        <ele>62.599998474121</ele>
        <time>2013-12-23T12:21:34.000Z</time>
      </trkpt>
      <trkpt lat="43.49766" lon="6.93609">
        <ele>62.200000762939</ele>
        <time>2013-12-23T12:21:42.000Z</time>
      </trkpt>
      <trkpt lat="43.49756" lon="6.93595">
        <ele>60.799999237061</ele>
        <time>2013-12-23T12:21:49.000Z</time>
      </trkpt>
      <trkpt lat="43.49745" lon="6.93578">
        <ele>59.599998474121</ele>
        <time>2013-12-23T12:21:57.000Z</time>
      </trkpt>
      <trkpt lat="43.49734" lon="6.9357">
        <ele>60.599998474121</ele>
        <time>2013-12-23T12:22:03.000Z</time>
      </trkpt>
      <trkpt lat="43.49722" lon="6.93566">
        <ele>61.599998474121</ele>
        <time>2013-12-23T12:22:10.000Z</time>
      </trkpt>
      <trkpt lat="43.49708" lon="6.93564">
        <ele>63</ele>
        <time>2013-12-23T12:22:18.000Z</time>
      </trkpt>
      <trkpt lat="43.49692" lon="6.93572">
        <ele>64.199996948242</ele>
        <time>2013-12-23T12:22:25.000Z</time>
      </trkpt>
      <trkpt lat="43.49674" lon="6.93594">
        <ele>67</ele>
        <time>2013-12-23T12:22:34.000Z</time>
      </trkpt>
      <trkpt lat="43.49664" lon="6.93612">
        <ele>70.199996948242</ele>
        <time>2013-12-23T12:22:39.000Z</time>
      </trkpt>
      <trkpt lat="43.49648" lon="6.9364">
        <ele>75.199996948242</ele>
        <time>2013-12-23T12:22:47.000Z</time>
      </trkpt>
      <trkpt lat="43.49633" lon="6.93655">
        <ele>76.800003051758</ele>
        <time>2013-12-23T12:22:53.000Z</time>
      </trkpt>
      <trkpt lat="43.49618" lon="6.93668">
        <ele>77.199996948242</ele>
        <time>2013-12-23T12:23:01.000Z</time>
      </trkpt>
      <trkpt lat="43.49615" lon="6.93667">
        <ele>77</ele>
        <time>2013-12-23T12:23:02.000Z</time>
      </trkpt>
      <trkpt lat="43.49611" lon="6.93661">
        <ele>77.400001525879</ele>
        <time>2013-12-23T12:23:05.000Z</time>
      </trkpt>
      <trkpt lat="43.49615" lon="6.93651">
        <ele>77.800003051758</ele>
        <time>2013-12-23T12:23:09.000Z</time>
      </trkpt>
      <trkpt lat="43.49618" lon="6.93643">
        <ele>77.800003051758</ele>
        <time>2013-12-23T12:23:12.000Z</time>
      </trkpt>
      <trkpt lat="43.4962" lon="6.93634">
        <ele>78</ele>
        <time>2013-12-23T12:23:16.000Z</time>
      </trkpt>
      <trkpt lat="43.49625" lon="6.93616">
        <ele>77.599998474121</ele>
        <time>2013-12-23T12:23:23.000Z</time>
      </trkpt>
      <trkpt lat="43.4963" lon="6.93592">
        <ele>76.599998474121</ele>
        <time>2013-12-23T12:23:32.000Z</time>
      </trkpt>
      <trkpt lat="43.49639" lon="6.93563">
        <ele>76</ele>
        <time>2013-12-23T12:23:43.000Z</time>
      </trkpt>
      <trkpt lat="43.49648" lon="6.93538">
        <ele>74.800003051758</ele>
        <time>2013-12-23T12:23:52.000Z</time>
      </trkpt>
      <trkpt lat="43.49658" lon="6.93517">
        <ele>72.400001525879</ele>
        <time>2013-12-23T12:24:00.000Z</time>
      </trkpt>
      <trkpt lat="43.49666" lon="6.93497">
        <ele>69.400001525879</ele>
        <time>2013-12-23T12:24:08.000Z</time>
      </trkpt>
      <trkpt lat="43.49666" lon="6.93478">
        <ele>69.199996948242</ele>
        <time>2013-12-23T12:24:15.000Z</time>
      </trkpt>
      <trkpt lat="43.49662" lon="6.93459">
        <ele>70.599998474121</ele>
        <time>2013-12-23T12:24:22.000Z</time>
      </trkpt>
      <trkpt lat="43.49655" lon="6.93434">
        <ele>73.400001525879</ele>
        <time>2013-12-23T12:24:31.000Z</time>
      </trkpt>
      <trkpt lat="43.49647" lon="6.93416">
        <ele>76.199996948242</ele>
        <time>2013-12-23T12:24:39.000Z</time>
      </trkpt>
      <trkpt lat="43.49632" lon="6.93398">
        <ele>82.199996948242</ele>
        <time>2013-12-23T12:24:47.000Z</time>
      </trkpt>
      <trkpt lat="43.4962" lon="6.93387">
        <ele>86.400001525879</ele>
        <time>2013-12-23T12:24:55.000Z</time>
      </trkpt>
      <trkpt lat="43.49607" lon="6.93378">
        <ele>90.800003051758</ele>
        <time>2013-12-23T12:25:02.000Z</time>
      </trkpt>
      <trkpt lat="43.49593" lon="6.93373">
        <ele>95.599998474121</ele>
        <time>2013-12-23T12:25:09.000Z</time>
      </trkpt>
      <trkpt lat="43.49577" lon="6.93366">
        <ele>101.19999694824</ele>
        <time>2013-12-23T12:25:17.000Z</time>
      </trkpt>
      <trkpt lat="43.49572" lon="6.93361">
        <ele>102.80000305176</ele>
        <time>2013-12-23T12:25:20.000Z</time>
      </trkpt>
      <trkpt lat="43.4957" lon="6.9335">
        <ele>102.59999847412</ele>
        <time>2013-12-23T12:25:23.000Z</time>
      </trkpt>
      <trkpt lat="43.49573" lon="6.93343">
        <ele>100.80000305176</ele>
        <time>2013-12-23T12:25:26.000Z</time>
      </trkpt>
      <trkpt lat="43.49576" lon="6.93338">
        <ele>99.400001525879</ele>
        <time>2013-12-23T12:25:28.000Z</time>
      </trkpt>
      <trkpt lat="43.49592" lon="6.93326">
        <ele>93.800003051758</ele>
        <time>2013-12-23T12:25:36.000Z</time>
      </trkpt>
      <trkpt lat="43.4961" lon="6.93316">
        <ele>88.800003051758</ele>
        <time>2013-12-23T12:25:44.000Z</time>
      </trkpt>
      <trkpt lat="43.49617" lon="6.933">
        <ele>87.800003051758</ele>
        <time>2013-12-23T12:25:50.000Z</time>
      </trkpt>
      <trkpt lat="43.4962" lon="6.93278">
        <ele>88.800003051758</ele>
        <time>2013-12-23T12:25:57.000Z</time>
      </trkpt>
      <trkpt lat="43.49614" lon="6.9325">
        <ele>93</ele>
        <time>2013-12-23T12:26:06.000Z</time>
      </trkpt>
      <trkpt lat="43.49605" lon="6.93237">
        <ele>96.599998474121</ele>
        <time>2013-12-23T12:26:12.000Z</time>
      </trkpt>
      <trkpt lat="43.49592" lon="6.93225">
        <ele>101.40000152588</ele>
        <time>2013-12-23T12:26:18.000Z</time>
      </trkpt>
      <trkpt lat="43.49576" lon="6.93208">
        <ele>108.40000152588</ele>
        <time>2013-12-23T12:26:25.000Z</time>
      </trkpt>
      <trkpt lat="43.49573" lon="6.93198">
        <ele>109.80000305176</ele>
        <time>2013-12-23T12:26:27.000Z</time>
      </trkpt>
      <trkpt lat="43.49574" lon="6.93194">
        <ele>109.80000305176</ele>
        <time>2013-12-23T12:26:28.000Z</time>
      </trkpt>
      <trkpt lat="43.49582" lon="6.9318">
        <ele>107</ele>
        <time>2013-12-23T12:26:32.000Z</time>
      </trkpt>
      <trkpt lat="43.49595" lon="6.93166">
        <ele>103.59999847412</ele>
        <time>2013-12-23T12:26:38.000Z</time>
      </trkpt>
      <trkpt lat="43.49611" lon="6.93149">
        <ele>100.40000152588</ele>
        <time>2013-12-23T12:26:46.000Z</time>
      </trkpt>
      <trkpt lat="43.49623" lon="6.93126">
        <ele>99.400001525879</ele>
        <time>2013-12-23T12:26:54.000Z</time>
      </trkpt>
      <trkpt lat="43.49629" lon="6.93101">
        <ele>101</ele>
        <time>2013-12-23T12:27:01.000Z</time>
      </trkpt>
      <trkpt lat="43.49632" lon="6.93071">
        <ele>102.19999694824</ele>
        <time>2013-12-23T12:27:10.000Z</time>
      </trkpt>
      <trkpt lat="43.4963" lon="6.93052">
        <ele>102.40000152588</ele>
        <time>2013-12-23T12:27:17.000Z</time>
      </trkpt>
      <trkpt lat="43.49621" lon="6.93042">
        <ele>104.80000305176</ele>
        <time>2013-12-23T12:27:22.000Z</time>
      </trkpt>
      <trkpt lat="43.49601" lon="6.9303">
        <ele>110.19999694824</ele>
        <time>2013-12-23T12:27:31.000Z</time>
      </trkpt>
      <trkpt lat="43.49588" lon="6.93014">
        <ele>112.59999847412</ele>
        <time>2013-12-23T12:27:37.000Z</time>
      </trkpt>
      <trkpt lat="43.4959" lon="6.92997">
        <ele>111.19999694824</ele>
        <time>2013-12-23T12:27:41.000Z</time>
      </trkpt>
      <trkpt lat="43.49592" lon="6.92979">
        <ele>109.59999847412</ele>
        <time>2013-12-23T12:27:47.000Z</time>
      </trkpt>
      <trkpt lat="43.49583" lon="6.92961">
        <ele>110.19999694824</ele>
        <time>2013-12-23T12:27:53.000Z</time>
      </trkpt>
      <trkpt lat="43.49574" lon="6.92937">
        <ele>111.80000305176</ele>
        <time>2013-12-23T12:28:01.000Z</time>
      </trkpt>
      <trkpt lat="43.49566" lon="6.92918">
        <ele>113.19999694824</ele>
        <time>2013-12-23T12:28:08.000Z</time>
      </trkpt>
      <trkpt lat="43.49553" lon="6.92897">
        <ele>115.59999847412</ele>
        <time>2013-12-23T12:28:16.000Z</time>
      </trkpt>
      <trkpt lat="43.49538" lon="6.92879">
        <ele>118.59999847412</ele>
        <time>2013-12-23T12:28:24.000Z</time>
      </trkpt>
      <trkpt lat="43.49523" lon="6.92858">
        <ele>120.19999694824</ele>
        <time>2013-12-23T12:28:32.000Z</time>
      </trkpt>
      <trkpt lat="43.49509" lon="6.92842">
        <ele>122</ele>
        <time>2013-12-23T12:28:39.000Z</time>
      </trkpt>
      <trkpt lat="43.495" lon="6.92824">
        <ele>122.59999847412</ele>
        <time>2013-12-23T12:28:45.000Z</time>
      </trkpt>
      <trkpt lat="43.49496" lon="6.92798">
        <ele>121.40000152588</ele>
        <time>2013-12-23T12:28:53.000Z</time>
      </trkpt>
      <trkpt lat="43.4949" lon="6.92784">
        <ele>120.19999694824</ele>
        <time>2013-12-23T12:28:59.000Z</time>
      </trkpt>
      <trkpt lat="43.49488" lon="6.92778">
        <ele>119.59999847412</ele>
        <time>2013-12-23T12:29:03.000Z</time>
      </trkpt>
      <trkpt lat="43.49488" lon="6.92778">
        <ele>119.59999847412</ele>
        <time>2013-12-23T12:29:05.000Z</time>
      </trkpt>
      <trkpt lat="43.49489" lon="6.92782">
        <ele>120</ele>
        <time>2013-12-23T12:29:40.000Z</time>
      </trkpt>
      <trkpt lat="43.4949" lon="6.92779">
        <ele>119.80000305176</ele>
        <time>2013-12-23T12:29:58.000Z</time>
      </trkpt>
      <trkpt lat="43.4949" lon="6.92776">
        <ele>119.59999847412</ele>
        <time>2013-12-23T12:29:59.000Z</time>
      </trkpt>
      <trkpt lat="43.49493" lon="6.92752">
        <ele>119</ele>
        <time>2013-12-23T12:30:07.000Z</time>
      </trkpt>
      <trkpt lat="43.49501" lon="6.92735">
        <ele>121.40000152588</ele>
        <time>2013-12-23T12:30:13.000Z</time>
      </trkpt>
      <trkpt lat="43.49502" lon="6.92722">
        <ele>122.40000152588</ele>
        <time>2013-12-23T12:30:18.000Z</time>
      </trkpt>
      <trkpt lat="43.49501" lon="6.92717">
        <ele>123</ele>
        <time>2013-12-23T12:30:20.000Z</time>
      </trkpt>
      <trkpt lat="43.49501" lon="6.92712">
        <ele>123.59999847412</ele>
        <time>2013-12-23T12:30:22.000Z</time>
      </trkpt>
      <trkpt lat="43.49501" lon="6.92704">
        <ele>124.40000152588</ele>
        <time>2013-12-23T12:30:25.000Z</time>
      </trkpt>
      <trkpt lat="43.495" lon="6.92686">
        <ele>126.19999694824</ele>
        <time>2013-12-23T12:30:33.000Z</time>
      </trkpt>
      <trkpt lat="43.49499" lon="6.92684">
        <ele>126.19999694824</ele>
        <time>2013-12-23T12:30:34.000Z</time>
      </trkpt>
      <trkpt lat="43.49499" lon="6.92676">
        <ele>126.80000305176</ele>
        <time>2013-12-23T12:30:37.000Z</time>
      </trkpt>
      <trkpt lat="43.49499" lon="6.92669">
        <ele>127.40000152588</ele>
        <time>2013-12-23T12:30:39.000Z</time>
      </trkpt>
      <trkpt lat="43.495" lon="6.92663">
        <ele>128.60000610352</ele>
        <time>2013-12-23T12:30:42.000Z</time>
      </trkpt>
      <trkpt lat="43.495" lon="6.92657">
        <ele>129.80000305176</ele>
        <time>2013-12-23T12:30:48.000Z</time>
      </trkpt>
      <trkpt lat="43.49505" lon="6.92648">
        <ele>130.60000610352</ele>
        <time>2013-12-23T12:31:02.000Z</time>
      </trkpt>
      <trkpt lat="43.49514" lon="6.92632">
        <ele>132</ele>
        <time>2013-12-23T12:31:08.000Z</time>
      </trkpt>
      <trkpt lat="43.49524" lon="6.92619">
        <ele>132.39999389648</ele>
        <time>2013-12-23T12:31:13.000Z</time>
      </trkpt>
      <trkpt lat="43.49536" lon="6.92605">
        <ele>132.39999389648</ele>
        <time>2013-12-23T12:31:19.000Z</time>
      </trkpt>
      <trkpt lat="43.49548" lon="6.9259">
        <ele>132.39999389648</ele>
        <time>2013-12-23T12:31:24.000Z</time>
      </trkpt>
      <trkpt lat="43.49553" lon="6.92577">
        <ele>133</ele>
        <time>2013-12-23T12:31:28.000Z</time>
      </trkpt>
      <trkpt lat="43.49557" lon="6.92555">
        <ele>134.80000305176</ele>
        <time>2013-12-23T12:31:32.000Z</time>
      </trkpt>
      <trkpt lat="43.49566" lon="6.92534">
        <ele>135.19999694824</ele>
        <time>2013-12-23T12:31:36.000Z</time>
      </trkpt>
      <trkpt lat="43.49569" lon="6.92514">
        <ele>136.39999389648</ele>
        <time>2013-12-23T12:31:39.000Z</time>
      </trkpt>
      <trkpt lat="43.49571" lon="6.92508">
        <ele>136.60000610352</ele>
        <time>2013-12-23T12:31:40.000Z</time>
      </trkpt>
      <trkpt lat="43.49576" lon="6.9249">
        <ele>137.19999694824</ele>
        <time>2013-12-23T12:31:43.000Z</time>
      </trkpt>
      <trkpt lat="43.49576" lon="6.92483">
        <ele>138</ele>
        <time>2013-12-23T12:31:44.000Z</time>
      </trkpt>
      <trkpt lat="43.49578" lon="6.92476">
        <ele>138.39999389648</ele>
        <time>2013-12-23T12:31:45.000Z</time>
      </trkpt>
      <trkpt lat="43.49578" lon="6.92463">
        <ele>139.80000305176</ele>
        <time>2013-12-23T12:31:47.000Z</time>
      </trkpt>
      <trkpt lat="43.49583" lon="6.92446">
        <ele>140.60000610352</ele>
        <time>2013-12-23T12:31:51.000Z</time>
      </trkpt>
      <trkpt lat="43.49594" lon="6.92443">
        <ele>141.39999389648</ele>
        <time>2013-12-23T12:31:56.000Z</time>
      </trkpt>
      <trkpt lat="43.49599" lon="6.92442">
        <ele>142</ele>
        <time>2013-12-23T12:31:59.000Z</time>
      </trkpt>
      <trkpt lat="43.49603" lon="6.9244">
        <ele>142.39999389648</ele>
        <time>2013-12-23T12:32:01.000Z</time>
      </trkpt>
      <trkpt lat="43.4961" lon="6.92438">
        <ele>143</ele>
        <time>2013-12-23T12:32:04.000Z</time>
      </trkpt>
      <trkpt lat="43.49614" lon="6.92441">
        <ele>143</ele>
        <time>2013-12-23T12:32:06.000Z</time>
      </trkpt>
      <trkpt lat="43.49618" lon="6.92443">
        <ele>143</ele>
        <time>2013-12-23T12:32:10.000Z</time>
      </trkpt>
      <trkpt lat="43.49617" lon="6.92452">
        <ele>142.19999694824</ele>
        <time>2013-12-23T12:32:19.000Z</time>
      </trkpt>
      <trkpt lat="43.49616" lon="6.92454">
        <ele>141.80000305176</ele>
        <time>2013-12-23T12:32:24.000Z</time>
      </trkpt>
      <trkpt lat="43.49617" lon="6.9246">
        <ele>141.39999389648</ele>
        <time>2013-12-23T12:32:29.000Z</time>
      </trkpt>
      <trkpt lat="43.49619" lon="6.92473">
        <ele>140.60000610352</ele>
        <time>2013-12-23T12:32:34.000Z</time>
      </trkpt>
      <trkpt lat="43.49626" lon="6.92489">
        <ele>140</ele>
        <time>2013-12-23T12:32:38.000Z</time>
      </trkpt>
      <trkpt lat="43.49628" lon="6.925">
        <ele>139.39999389648</ele>
        <time>2013-12-23T12:32:42.000Z</time>
      </trkpt>
      <trkpt lat="43.4963" lon="6.92508">
        <ele>138.80000305176</ele>
        <time>2013-12-23T12:32:45.000Z</time>
      </trkpt>
      <trkpt lat="43.49631" lon="6.92513">
        <ele>138.60000610352</ele>
        <time>2013-12-23T12:32:47.000Z</time>
      </trkpt>
      <trkpt lat="43.49637" lon="6.92527">
        <ele>137.80000305176</ele>
        <time>2013-12-23T12:32:54.000Z</time>
      </trkpt>
      <trkpt lat="43.49643" lon="6.92539">
        <ele>137.39999389648</ele>
        <time>2013-12-23T12:32:59.000Z</time>
      </trkpt>
      <trkpt lat="43.49649" lon="6.92548">
        <ele>137.19999694824</ele>
        <time>2013-12-23T12:33:03.000Z</time>
      </trkpt>
      <trkpt lat="43.49662" lon="6.9257">
        <ele>136.60000610352</ele>
        <time>2013-12-23T12:33:11.000Z</time>
      </trkpt>
      <trkpt lat="43.49675" lon="6.9259">
        <ele>137.39999389648</ele>
        <time>2013-12-23T12:33:19.000Z</time>
      </trkpt>
      <trkpt lat="43.49689" lon="6.92597">
        <ele>140</ele>
        <time>2013-12-23T12:33:25.000Z</time>
      </trkpt>
      <trkpt lat="43.49698" lon="6.92605">
        <ele>141.19999694824</ele>
        <time>2013-12-23T12:33:29.000Z</time>
      </trkpt>
      <trkpt lat="43.49706" lon="6.92624">
        <ele>141</ele>
        <time>2013-12-23T12:33:35.000Z</time>
      </trkpt>
      <trkpt lat="43.49718" lon="6.92632">
        <ele>142.39999389648</ele>
        <time>2013-12-23T12:33:41.000Z</time>
      </trkpt>
      <trkpt lat="43.4973" lon="6.92627">
        <ele>145</ele>
        <time>2013-12-23T12:33:46.000Z</time>
      </trkpt>
      <trkpt lat="43.49744" lon="6.92619">
        <ele>148.80000305176</ele>
        <time>2013-12-23T12:33:53.000Z</time>
      </trkpt>
      <trkpt lat="43.49749" lon="6.9263">
        <ele>148</ele>
        <time>2013-12-23T12:33:57.000Z</time>
      </trkpt>
      <trkpt lat="43.49752" lon="6.92645">
        <ele>146.60000610352</ele>
        <time>2013-12-23T12:34:03.000Z</time>
      </trkpt>
      <trkpt lat="43.4976" lon="6.9266">
        <ele>147.39999389648</ele>
        <time>2013-12-23T12:34:09.000Z</time>
      </trkpt>
      <trkpt lat="43.49769" lon="6.92678">
        <ele>147.39999389648</ele>
        <time>2013-12-23T12:34:16.000Z</time>
      </trkpt>
      <trkpt lat="43.49769" lon="6.92692">
        <ele>144.80000305176</ele>
        <time>2013-12-23T12:34:21.000Z</time>
      </trkpt>
      <trkpt lat="43.4977" lon="6.9271">
        <ele>142</ele>
        <time>2013-12-23T12:34:26.000Z</time>
      </trkpt>
      <trkpt lat="43.49777" lon="6.92733">
        <ele>140.19999694824</ele>
        <time>2013-12-23T12:34:32.000Z</time>
      </trkpt>
      <trkpt lat="43.49792" lon="6.92753">
        <ele>141.19999694824</ele>
        <time>2013-12-23T12:34:38.000Z</time>
      </trkpt>
      <trkpt lat="43.49805" lon="6.92771">
        <ele>141.39999389648</ele>
        <time>2013-12-23T12:34:42.000Z</time>
      </trkpt>
      <trkpt lat="43.49811" lon="6.92783">
        <ele>140.80000305176</ele>
        <time>2013-12-23T12:34:45.000Z</time>
      </trkpt>
      <trkpt lat="43.49813" lon="6.92787">
        <ele>140.60000610352</ele>
        <time>2013-12-23T12:34:46.000Z</time>
      </trkpt>
      <trkpt lat="43.49819" lon="6.92796">
        <ele>140.80000305176</ele>
        <time>2013-12-23T12:34:49.000Z</time>
      </trkpt>
      <trkpt lat="43.49826" lon="6.92806">
        <ele>140.60000610352</ele>
        <time>2013-12-23T12:34:52.000Z</time>
      </trkpt>
      <trkpt lat="43.49835" lon="6.92827">
        <ele>139</ele>
        <time>2013-12-23T12:34:58.000Z</time>
      </trkpt>
      <trkpt lat="43.49841" lon="6.92841">
        <ele>138.60000610352</ele>
        <time>2013-12-23T12:35:03.000Z</time>
      </trkpt>
      <trkpt lat="43.49841" lon="6.92843">
        <ele>138.19999694824</ele>
        <time>2013-12-23T12:35:08.000Z</time>
      </trkpt>
      <trkpt lat="43.49841" lon="6.92845">
        <ele>137.80000305176</ele>
        <time>2013-12-23T12:35:13.000Z</time>
      </trkpt>
      <trkpt lat="43.49842" lon="6.92846">
        <ele>138</ele>
        <time>2013-12-23T12:35:19.000Z</time>
      </trkpt>
      <trkpt lat="43.49842" lon="6.9286">
        <ele>136.19999694824</ele>
        <time>2013-12-23T12:35:24.000Z</time>
      </trkpt>
      <trkpt lat="43.49851" lon="6.92877">
        <ele>136.60000610352</ele>
        <time>2013-12-23T12:35:29.000Z</time>
      </trkpt>
      <trkpt lat="43.49861" lon="6.92895">
        <ele>137.19999694824</ele>
        <time>2013-12-23T12:35:34.000Z</time>
      </trkpt>
      <trkpt lat="43.49875" lon="6.92912">
        <ele>139</ele>
        <time>2013-12-23T12:35:39.000Z</time>
      </trkpt>
      <trkpt lat="43.49889" lon="6.92931">
        <ele>140.60000610352</ele>
        <time>2013-12-23T12:35:43.000Z</time>
      </trkpt>
      <trkpt lat="43.49892" lon="6.92935">
        <ele>141.39999389648</ele>
        <time>2013-12-23T12:35:44.000Z</time>
      </trkpt>
      <trkpt lat="43.49898" lon="6.9295">
        <ele>141.60000610352</ele>
        <time>2013-12-23T12:35:47.000Z</time>
      </trkpt>
      <trkpt lat="43.49899" lon="6.92956">
        <ele>141.19999694824</ele>
        <time>2013-12-23T12:35:48.000Z</time>
      </trkpt>
      <trkpt lat="43.49903" lon="6.92983">
        <ele>139</ele>
        <time>2013-12-23T12:35:52.000Z</time>
      </trkpt>
      <trkpt lat="43.49903" lon="6.92994">
        <ele>137.80000305176</ele>
        <time>2013-12-23T12:35:54.000Z</time>
      </trkpt>
      <trkpt lat="43.49904" lon="6.93003">
        <ele>137.19999694824</ele>
        <time>2013-12-23T12:35:56.000Z</time>
      </trkpt>
      <trkpt lat="43.49905" lon="6.9301">
        <ele>137</ele>
        <time>2013-12-23T12:35:58.000Z</time>
      </trkpt>
      <trkpt lat="43.49908" lon="6.9302">
        <ele>137.19999694824</ele>
        <time>2013-12-23T12:36:01.000Z</time>
      </trkpt>
      <trkpt lat="43.4991" lon="6.93027">
        <ele>137.39999389648</ele>
        <time>2013-12-23T12:36:03.000Z</time>
      </trkpt>
      <trkpt lat="43.49911" lon="6.93038">
        <ele>136.60000610352</ele>
        <time>2013-12-23T12:36:06.000Z</time>
      </trkpt>
      <trkpt lat="43.49919" lon="6.93064">
        <ele>137.60000610352</ele>
        <time>2013-12-23T12:36:14.000Z</time>
      </trkpt>
      <trkpt lat="43.49924" lon="6.93078">
        <ele>139.39999389648</ele>
        <time>2013-12-23T12:36:19.000Z</time>
      </trkpt>
      <trkpt lat="43.49928" lon="6.93093">
        <ele>140.39999389648</ele>
        <time>2013-12-23T12:36:25.000Z</time>
      </trkpt>
      <trkpt lat="43.49935" lon="6.93107">
        <ele>142.80000305176</ele>
        <time>2013-12-23T12:36:31.000Z</time>
      </trkpt>
      <trkpt lat="43.49944" lon="6.93122">
        <ele>145.60000610352</ele>
        <time>2013-12-23T12:36:37.000Z</time>
      </trkpt>
      <trkpt lat="43.49953" lon="6.93133">
        <ele>148.60000610352</ele>
        <time>2013-12-23T12:36:43.000Z</time>
      </trkpt>
      <trkpt lat="43.49954" lon="6.93135">
        <ele>148.80000305176</ele>
        <time>2013-12-23T12:36:44.000Z</time>
      </trkpt>
      <trkpt lat="43.49955" lon="6.93142">
        <ele>148.39999389648</ele>
        <time>2013-12-23T12:36:47.000Z</time>
      </trkpt>
      <trkpt lat="43.49955" lon="6.93146">
        <ele>147.80000305176</ele>
        <time>2013-12-23T12:36:51.000Z</time>
      </trkpt>
      <trkpt lat="43.49956" lon="6.93148">
        <ele>148</ele>
        <time>2013-12-23T12:36:52.000Z</time>
      </trkpt>
      <trkpt lat="43.4996" lon="6.93158">
        <ele>148.80000305176</ele>
        <time>2013-12-23T12:36:57.000Z</time>
      </trkpt>
      <trkpt lat="43.49967" lon="6.93169">
        <ele>150.39999389648</ele>
        <time>2013-12-23T12:37:03.000Z</time>
      </trkpt>
      <trkpt lat="43.49968" lon="6.9317">
        <ele>150.80000305176</ele>
        <time>2013-12-23T12:37:08.000Z</time>
      </trkpt>
      <trkpt lat="43.4997" lon="6.93174">
        <ele>151.19999694824</ele>
        <time>2013-12-23T12:37:14.000Z</time>
      </trkpt>
      <trkpt lat="43.4997" lon="6.93178">
        <ele>151</ele>
        <time>2013-12-23T12:37:23.000Z</time>
      </trkpt>
      <trkpt lat="43.49971" lon="6.93182">
        <ele>151.39999389648</ele>
        <time>2013-12-23T12:37:28.000Z</time>
      </trkpt>
      <trkpt lat="43.49972" lon="6.93184">
        <ele>151.39999389648</ele>
        <time>2013-12-23T12:37:34.000Z</time>
      </trkpt>
      <trkpt lat="43.49971" lon="6.93192">
        <ele>150.60000610352</ele>
        <time>2013-12-23T12:37:44.000Z</time>
      </trkpt>
      <trkpt lat="43.49972" lon="6.93205">
        <ele>150</ele>
        <time>2013-12-23T12:37:50.000Z</time>
      </trkpt>
      <trkpt lat="43.49974" lon="6.93211">
        <ele>150.19999694824</ele>
        <time>2013-12-23T12:37:53.000Z</time>
      </trkpt>
      <trkpt lat="43.49974" lon="6.93216">
        <ele>149.80000305176</ele>
        <time>2013-12-23T12:37:55.000Z</time>
      </trkpt>
      <trkpt lat="43.49974" lon="6.93221">
        <ele>149.39999389648</ele>
        <time>2013-12-23T12:37:57.000Z</time>
      </trkpt>
      <trkpt lat="43.49972" lon="6.9323">
        <ele>148.19999694824</ele>
        <time>2013-12-23T12:38:01.000Z</time>
      </trkpt>
      <trkpt lat="43.49969" lon="6.93244">
        <ele>146.60000610352</ele>
        <time>2013-12-23T12:38:05.000Z</time>
      </trkpt>
      <trkpt lat="43.49978" lon="6.93262">
        <ele>145.60000610352</ele>
        <time>2013-12-23T12:38:09.000Z</time>
      </trkpt>
      <trkpt lat="43.49984" lon="6.9327">
        <ele>145.19999694824</ele>
        <time>2013-12-23T12:38:11.000Z</time>
      </trkpt>
      <trkpt lat="43.49991" lon="6.93273">
        <ele>146</ele>
        <time>2013-12-23T12:38:13.000Z</time>
      </trkpt>
      <trkpt lat="43.50004" lon="6.93278">
        <ele>147.19999694824</ele>
        <time>2013-12-23T12:38:17.000Z</time>
      </trkpt>
      <trkpt lat="43.5002" lon="6.93285">
        <ele>148</ele>
        <time>2013-12-23T12:38:21.000Z</time>
      </trkpt>
      <trkpt lat="43.50025" lon="6.93286">
        <ele>148.60000610352</ele>
        <time>2013-12-23T12:38:22.000Z</time>
      </trkpt>
      <trkpt lat="43.50031" lon="6.93288">
        <ele>149</ele>
        <time>2013-12-23T12:38:23.000Z</time>
      </trkpt>
      <trkpt lat="43.50041" lon="6.93294">
        <ele>148.80000305176</ele>
        <time>2013-12-23T12:38:25.000Z</time>
      </trkpt>
      <trkpt lat="43.50053" lon="6.93298">
        <ele>149.19999694824</ele>
        <time>2013-12-23T12:38:28.000Z</time>
      </trkpt>
      <trkpt lat="43.50056" lon="6.93299">
        <ele>149.19999694824</ele>
        <time>2013-12-23T12:38:29.000Z</time>
      </trkpt>
      <trkpt lat="43.50061" lon="6.933">
        <ele>149.80000305176</ele>
        <time>2013-12-23T12:38:31.000Z</time>
      </trkpt>
      <trkpt lat="43.50065" lon="6.933">
        <ele>150</ele>
        <time>2013-12-23T12:38:33.000Z</time>
      </trkpt>
      <trkpt lat="43.50065" lon="6.93303">
        <ele>149.19999694824</ele>
        <time>2013-12-23T12:38:39.000Z</time>
      </trkpt>
      <trkpt lat="43.50065" lon="6.93313">
        <ele>146.19999694824</ele>
        <time>2013-12-23T12:39:05.000Z</time>
      </trkpt>
      <trkpt lat="43.50068" lon="6.93292">
        <ele>153.19999694824</ele>
        <time>2013-12-23T12:39:28.000Z</time>
      </trkpt>
      <trkpt lat="43.5007" lon="6.93305">
        <ele>149.39999389648</ele>
        <time>2013-12-23T12:39:53.000Z</time>
      </trkpt>
      <trkpt lat="43.50071" lon="6.93308">
        <ele>148.19999694824</ele>
        <time>2013-12-23T12:39:58.000Z</time>
      </trkpt>
      <trkpt lat="43.50074" lon="6.93308">
        <ele>148.80000305176</ele>
        <time>2013-12-23T12:40:13.000Z</time>
      </trkpt>
      <trkpt lat="43.50073" lon="6.93309">
        <ele>148.39999389648</ele>
        <time>2013-12-23T12:40:19.000Z</time>
      </trkpt>
      <trkpt lat="43.5007" lon="6.93304">
        <ele>149.60000610352</ele>
        <time>2013-12-23T12:40:30.000Z</time>
      </trkpt>
      <trkpt lat="43.50072" lon="6.93301">
        <ele>150.80000305176</ele>
        <time>2013-12-23T12:40:37.000Z</time>
      </trkpt>
      <trkpt lat="43.50077" lon="6.93306">
        <ele>149.60000610352</ele>
        <time>2013-12-23T12:40:49.000Z</time>
      </trkpt>
      <trkpt lat="43.50074" lon="6.93309">
        <ele>148.19999694824</ele>
        <time>2013-12-23T12:41:07.000Z</time>
      </trkpt>
      <trkpt lat="43.50076" lon="6.93309">
        <ele>148.60000610352</ele>
        <time>2013-12-23T12:41:08.000Z</time>
      </trkpt>
      <trkpt lat="43.50086" lon="6.93308">
        <ele>150.19999694824</ele>
        <time>2013-12-23T12:41:11.000Z</time>
      </trkpt>
      <trkpt lat="43.50105" lon="6.93305">
        <ele>154</ele>
        <time>2013-12-23T12:41:15.000Z</time>
      </trkpt>
      <trkpt lat="43.50111" lon="6.93306">
        <ele>154.80000305176</ele>
        <time>2013-12-23T12:41:16.000Z</time>
      </trkpt>
      <trkpt lat="43.50126" lon="6.93317">
        <ele>153.60000610352</ele>
        <time>2013-12-23T12:41:20.000Z</time>
      </trkpt>
      <trkpt lat="43.50128" lon="6.9332">
        <ele>153.19999694824</ele>
        <time>2013-12-23T12:41:21.000Z</time>
      </trkpt>
      <trkpt lat="43.50133" lon="6.93328">
        <ele>151.60000610352</ele>
        <time>2013-12-23T12:41:23.000Z</time>
      </trkpt>
      <trkpt lat="43.50135" lon="6.9333">
        <ele>151.19999694824</ele>
        <time>2013-12-23T12:41:24.000Z</time>
      </trkpt>
      <trkpt lat="43.50151" lon="6.93348">
        <ele>148.60000610352</ele>
        <time>2013-12-23T12:41:30.000Z</time>
      </trkpt>
      <trkpt lat="43.50168" lon="6.93372">
        <ele>144.80000305176</ele>
        <time>2013-12-23T12:41:36.000Z</time>
      </trkpt>
      <trkpt lat="43.50182" lon="6.93385">
        <ele>140.39999389648</ele>
        <time>2013-12-23T12:41:41.000Z</time>
      </trkpt>
      <trkpt lat="43.50194" lon="6.93389">
        <ele>138.60000610352</ele>
        <time>2013-12-23T12:41:47.000Z</time>
      </trkpt>
      <trkpt lat="43.5021" lon="6.93391">
        <ele>137.39999389648</ele>
        <time>2013-12-23T12:41:51.000Z</time>
      </trkpt>
      <trkpt lat="43.50229" lon="6.93397">
        <ele>134.80000305176</ele>
        <time>2013-12-23T12:41:55.000Z</time>
      </trkpt>
      <trkpt lat="43.50259" lon="6.93404">
        <ele>130.39999389648</ele>
        <time>2013-12-23T12:42:00.000Z</time>
      </trkpt>
      <trkpt lat="43.50287" lon="6.93397">
        <ele>125.80000305176</ele>
        <time>2013-12-23T12:42:04.000Z</time>
      </trkpt>
      <trkpt lat="43.503" lon="6.93399">
        <ele>122.80000305176</ele>
        <time>2013-12-23T12:42:06.000Z</time>
      </trkpt>
      <trkpt lat="43.50305" lon="6.93403">
        <ele>121.40000152588</ele>
        <time>2013-12-23T12:42:07.000Z</time>
      </trkpt>
      <trkpt lat="43.5031" lon="6.93409">
        <ele>120.19999694824</ele>
        <time>2013-12-23T12:42:08.000Z</time>
      </trkpt>
      <trkpt lat="43.50325" lon="6.93425">
        <ele>115.40000152588</ele>
        <time>2013-12-23T12:42:11.000Z</time>
      </trkpt>
      <trkpt lat="43.5033" lon="6.9343">
        <ele>113.59999847412</ele>
        <time>2013-12-23T12:42:12.000Z</time>
      </trkpt>
      <trkpt lat="43.50349" lon="6.93449">
        <ele>105.40000152588</ele>
        <time>2013-12-23T12:42:16.000Z</time>
      </trkpt>
      <trkpt lat="43.50362" lon="6.93462">
        <ele>101.19999694824</ele>
        <time>2013-12-23T12:42:20.000Z</time>
      </trkpt>
      <trkpt lat="43.50364" lon="6.93464">
        <ele>100.59999847412</ele>
        <time>2013-12-23T12:42:21.000Z</time>
      </trkpt>
      <trkpt lat="43.50369" lon="6.93466">
        <ele>99.599998474121</ele>
        <time>2013-12-23T12:42:25.000Z</time>
      </trkpt>
      <trkpt lat="43.50371" lon="6.93466">
        <ele>99.599998474121</ele>
        <time>2013-12-23T12:42:27.000Z</time>
      </trkpt>
      <trkpt lat="43.50372" lon="6.93466">
        <ele>99.400001525879</ele>
        <time>2013-12-23T12:42:30.000Z</time>
      </trkpt>
      <trkpt lat="43.50372" lon="6.93465">
        <ele>99.400001525879</ele>
        <time>2013-12-23T12:42:31.000Z</time>
      </trkpt>
      <trkpt lat="43.50373" lon="6.93466">
        <ele>99.199996948242</ele>
        <time>2013-12-23T12:42:41.000Z</time>
      </trkpt>
      <trkpt lat="43.50371" lon="6.93462">
        <ele>99.800003051758</ele>
        <time>2013-12-23T12:42:50.000Z</time>
      </trkpt>
      <trkpt lat="43.5037" lon="6.93461">
        <ele>100.19999694824</ele>
        <time>2013-12-23T12:42:51.000Z</time>
      </trkpt>
      <trkpt lat="43.50368" lon="6.93454">
        <ele>101</ele>
        <time>2013-12-23T12:42:55.000Z</time>
      </trkpt>
      <trkpt lat="43.50366" lon="6.93448">
        <ele>102.19999694824</ele>
        <time>2013-12-23T12:42:58.000Z</time>
      </trkpt>
      <trkpt lat="43.50361" lon="6.93439">
        <ele>104.19999694824</ele>
        <time>2013-12-23T12:43:03.000Z</time>
      </trkpt>
      <trkpt lat="43.5036" lon="6.93436">
        <ele>105</ele>
        <time>2013-12-23T12:43:05.000Z</time>
      </trkpt>
      <trkpt lat="43.50354" lon="6.93422">
        <ele>108.59999847412</ele>
        <time>2013-12-23T12:43:11.000Z</time>
      </trkpt>
      <trkpt lat="43.50347" lon="6.93407">
        <ele>111.19999694824</ele>
        <time>2013-12-23T12:43:18.000Z</time>
      </trkpt>
      <trkpt lat="43.50341" lon="6.93392">
        <ele>113</ele>
        <time>2013-12-23T12:43:25.000Z</time>
      </trkpt>
      <trkpt lat="43.50334" lon="6.93374">
        <ele>114.80000305176</ele>
        <time>2013-12-23T12:43:33.000Z</time>
      </trkpt>
      <trkpt lat="43.50325" lon="6.93354">
        <ele>117.59999847412</ele>
        <time>2013-12-23T12:43:41.000Z</time>
      </trkpt>
      <trkpt lat="43.50315" lon="6.93326">
        <ele>121.80000305176</ele>
        <time>2013-12-23T12:43:51.000Z</time>
      </trkpt>
      <trkpt lat="43.50307" lon="6.93312">
        <ele>125.40000152588</ele>
        <time>2013-12-23T12:43:58.000Z</time>
      </trkpt>
      <trkpt lat="43.50302" lon="6.93298">
        <ele>127.40000152588</ele>
        <time>2013-12-23T12:44:05.000Z</time>
      </trkpt>
      <trkpt lat="43.50297" lon="6.93283">
        <ele>129.60000610352</ele>
        <time>2013-12-23T12:44:12.000Z</time>
      </trkpt>
      <trkpt lat="43.50291" lon="6.93265">
        <ele>131.80000305176</ele>
        <time>2013-12-23T12:44:19.000Z</time>
      </trkpt>
      <trkpt lat="43.50284" lon="6.93254">
        <ele>134.80000305176</ele>
        <time>2013-12-23T12:44:26.000Z</time>
      </trkpt>
      <trkpt lat="43.50275" lon="6.93237">
        <ele>139.60000610352</ele>
        <time>2013-12-23T12:44:35.000Z</time>
      </trkpt>
      <trkpt lat="43.50268" lon="6.93223">
        <ele>143.39999389648</ele>
        <time>2013-12-23T12:44:42.000Z</time>
      </trkpt>
      <trkpt lat="43.5026" lon="6.93202">
        <ele>148</ele>
        <time>2013-12-23T12:44:52.000Z</time>
      </trkpt>
      <trkpt lat="43.50249" lon="6.93185">
        <ele>152.19999694824</ele>
        <time>2013-12-23T12:45:00.000Z</time>
      </trkpt>
      <trkpt lat="43.50249" lon="6.93181">
        <ele>152.60000610352</ele>
        <time>2013-12-23T12:45:02.000Z</time>
      </trkpt>
      <trkpt lat="43.50248" lon="6.93173">
        <ele>153.19999694824</ele>
        <time>2013-12-23T12:45:05.000Z</time>
      </trkpt>
      <trkpt lat="43.50253" lon="6.93163">
        <ele>153.19999694824</ele>
        <time>2013-12-23T12:45:10.000Z</time>
      </trkpt>
      <trkpt lat="43.50257" lon="6.93161">
        <ele>153</ele>
        <time>2013-12-23T12:45:12.000Z</time>
      </trkpt>
      <trkpt lat="43.50267" lon="6.93154">
        <ele>152.19999694824</ele>
        <time>2013-12-23T12:45:18.000Z</time>
      </trkpt>
      <trkpt lat="43.50283" lon="6.93145">
        <ele>150.39999389648</ele>
        <time>2013-12-23T12:45:27.000Z</time>
      </trkpt>
      <trkpt lat="43.50294" lon="6.93139">
        <ele>148.80000305176</ele>
        <time>2013-12-23T12:45:33.000Z</time>
      </trkpt>
      <trkpt lat="43.50307" lon="6.93136">
        <ele>146.19999694824</ele>
        <time>2013-12-23T12:45:41.000Z</time>
      </trkpt>
      <trkpt lat="43.50318" lon="6.93134">
        <ele>143.39999389648</ele>
        <time>2013-12-23T12:45:49.000Z</time>
      </trkpt>
      <trkpt lat="43.50333" lon="6.93131">
        <ele>140.19999694824</ele>
        <time>2013-12-23T12:45:58.000Z</time>
      </trkpt>
      <trkpt lat="43.50345" lon="6.93128">
        <ele>137.80000305176</ele>
        <time>2013-12-23T12:46:06.000Z</time>
      </trkpt>
      <trkpt lat="43.50352" lon="6.93121">
        <ele>136.80000305176</ele>
        <time>2013-12-23T12:46:13.000Z</time>
      </trkpt>
      <trkpt lat="43.50353" lon="6.93119">
        <ele>137</ele>
        <time>2013-12-23T12:46:15.000Z</time>
      </trkpt>
      <trkpt lat="43.50351" lon="6.93114">
        <ele>137.80000305176</ele>
        <time>2013-12-23T12:46:19.000Z</time>
      </trkpt>
      <trkpt lat="43.50343" lon="6.93108">
        <ele>140.60000610352</ele>
        <time>2013-12-23T12:46:26.000Z</time>
      </trkpt>
      <trkpt lat="43.50337" lon="6.93107">
        <ele>142.39999389648</ele>
        <time>2013-12-23T12:46:30.000Z</time>
      </trkpt>
      <trkpt lat="43.50333" lon="6.93106">
        <ele>143.80000305176</ele>
        <time>2013-12-23T12:46:33.000Z</time>
      </trkpt>
      <trkpt lat="43.5032" lon="6.93098">
        <ele>148.80000305176</ele>
        <time>2013-12-23T12:46:42.000Z</time>
      </trkpt>
      <trkpt lat="43.50308" lon="6.93089">
        <ele>154</ele>
        <time>2013-12-23T12:46:51.000Z</time>
      </trkpt>
      <trkpt lat="43.50297" lon="6.93078">
        <ele>158.19999694824</ele>
        <time>2013-12-23T12:46:59.000Z</time>
      </trkpt>
      <trkpt lat="43.50291" lon="6.93066">
        <ele>160.39999389648</ele>
        <time>2013-12-23T12:47:06.000Z</time>
      </trkpt>
      <trkpt lat="43.50283" lon="6.93053">
        <ele>163.80000305176</ele>
        <time>2013-12-23T12:47:13.000Z</time>
      </trkpt>
      <trkpt lat="43.50275" lon="6.93038">
        <ele>167.80000305176</ele>
        <time>2013-12-23T12:47:20.000Z</time>
      </trkpt>
      <trkpt lat="43.50269" lon="6.93024">
        <ele>171.19999694824</ele>
        <time>2013-12-23T12:47:26.000Z</time>
      </trkpt>
      <trkpt lat="43.50265" lon="6.93007">
        <ele>174.19999694824</ele>
        <time>2013-12-23T12:47:33.000Z</time>
      </trkpt>
      <trkpt lat="43.50261" lon="6.92985">
        <ele>177</ele>
        <time>2013-12-23T12:47:41.000Z</time>
      </trkpt>
      <trkpt lat="43.50261" lon="6.92972">
        <ele>177.60000610352</ele>
        <time>2013-12-23T12:47:46.000Z</time>
      </trkpt>
      <trkpt lat="43.50266" lon="6.9296">
        <ele>175</ele>
        <time>2013-12-23T12:47:51.000Z</time>
      </trkpt>
      <trkpt lat="43.50275" lon="6.92943">
        <ele>170.80000305176</ele>
        <time>2013-12-23T12:47:58.000Z</time>
      </trkpt>
      <trkpt lat="43.50284" lon="6.92927">
        <ele>166.80000305176</ele>
        <time>2013-12-23T12:48:06.000Z</time>
      </trkpt>
      <trkpt lat="43.5028" lon="6.92916">
        <ele>168.60000610352</ele>
        <time>2013-12-23T12:48:11.000Z</time>
      </trkpt>
      <trkpt lat="43.50272" lon="6.92897">
        <ele>172.39999389648</ele>
        <time>2013-12-23T12:48:18.000Z</time>
      </trkpt>
      <trkpt lat="43.50267" lon="6.92872">
        <ele>174.19999694824</ele>
        <time>2013-12-23T12:48:25.000Z</time>
      </trkpt>
      <trkpt lat="43.50261" lon="6.92842">
        <ele>177.39999389648</ele>
        <time>2013-12-23T12:48:30.000Z</time>
      </trkpt>
      <trkpt lat="43.50249" lon="6.92806">
        <ele>181.19999694824</ele>
        <time>2013-12-23T12:48:36.000Z</time>
      </trkpt>
      <trkpt lat="43.50239" lon="6.92767">
        <ele>181.60000610352</ele>
        <time>2013-12-23T12:48:44.000Z</time>
      </trkpt>
      <trkpt lat="43.50233" lon="6.92736">
        <ele>182.39999389648</ele>
        <time>2013-12-23T12:48:51.000Z</time>
      </trkpt>
      <trkpt lat="43.5023" lon="6.92708">
        <ele>182.60000610352</ele>
        <time>2013-12-23T12:48:57.000Z</time>
      </trkpt>
      <trkpt lat="43.50228" lon="6.92683">
        <ele>182</ele>
        <time>2013-12-23T12:49:03.000Z</time>
      </trkpt>
      <trkpt lat="43.50224" lon="6.92652">
        <ele>182.19999694824</ele>
        <time>2013-12-23T12:49:11.000Z</time>
      </trkpt>
      <trkpt lat="43.50219" lon="6.92624">
        <ele>183.80000305176</ele>
        <time>2013-12-23T12:49:19.000Z</time>
      </trkpt>
      <trkpt lat="43.5021" lon="6.92598">
        <ele>186.80000305176</ele>
        <time>2013-12-23T12:49:26.000Z</time>
      </trkpt>
      <trkpt lat="43.50205" lon="6.92576">
        <ele>189.60000610352</ele>
        <time>2013-12-23T12:49:32.000Z</time>
      </trkpt>
      <trkpt lat="43.50201" lon="6.9255">
        <ele>193.60000610352</ele>
        <time>2013-12-23T12:49:39.000Z</time>
      </trkpt>
      <trkpt lat="43.502" lon="6.9252">
        <ele>196</ele>
        <time>2013-12-23T12:49:47.000Z</time>
      </trkpt>
      <trkpt lat="43.50203" lon="6.92484">
        <ele>199.39999389648</ele>
        <time>2013-12-23T12:49:57.000Z</time>
      </trkpt>
      <trkpt lat="43.50216" lon="6.92467">
        <ele>198.19999694824</ele>
        <time>2013-12-23T12:50:03.000Z</time>
      </trkpt>
      <trkpt lat="43.50235" lon="6.92448">
        <ele>196.80000305176</ele>
        <time>2013-12-23T12:50:11.000Z</time>
      </trkpt>
      <trkpt lat="43.50256" lon="6.92437">
        <ele>195</ele>
        <time>2013-12-23T12:50:18.000Z</time>
      </trkpt>
      <trkpt lat="43.50276" lon="6.92432">
        <ele>195.80000305176</ele>
        <time>2013-12-23T12:50:25.000Z</time>
      </trkpt>
      <trkpt lat="43.50293" lon="6.92431">
        <ele>195.19999694824</ele>
        <time>2013-12-23T12:50:31.000Z</time>
      </trkpt>
      <trkpt lat="43.50315" lon="6.92437">
        <ele>192.39999389648</ele>
        <time>2013-12-23T12:50:39.000Z</time>
      </trkpt>
      <trkpt lat="43.5034" lon="6.92437">
        <ele>190.80000305176</ele>
        <time>2013-12-23T12:50:47.000Z</time>
      </trkpt>
      <trkpt lat="43.5036" lon="6.92436">
        <ele>189.80000305176</ele>
        <time>2013-12-23T12:50:55.000Z</time>
      </trkpt>
      <trkpt lat="43.50383" lon="6.92438">
        <ele>187.80000305176</ele>
        <time>2013-12-23T12:51:04.000Z</time>
      </trkpt>
      <trkpt lat="43.50401" lon="6.92443">
        <ele>186.19999694824</ele>
        <time>2013-12-23T12:51:11.000Z</time>
      </trkpt>
      <trkpt lat="43.50409" lon="6.92446">
        <ele>185.60000610352</ele>
        <time>2013-12-23T12:51:17.000Z</time>
      </trkpt>
      <trkpt lat="43.50411" lon="6.92448">
        <ele>185.39999389648</ele>
        <time>2013-12-23T12:51:23.000Z</time>
      </trkpt>
      <trkpt lat="43.50407" lon="6.92454">
        <ele>184.80000305176</ele>
        <time>2013-12-23T12:52:13.000Z</time>
      </trkpt>
      <trkpt lat="43.50414" lon="6.92453">
        <ele>184.80000305176</ele>
        <time>2013-12-23T12:56:48.000Z</time>
      </trkpt>
      <trkpt lat="43.50425" lon="6.92463">
        <ele>185</ele>
        <time>2013-12-23T12:56:53.000Z</time>
      </trkpt>
      <trkpt lat="43.50442" lon="6.92481">
        <ele>186.60000610352</ele>
        <time>2013-12-23T12:56:59.000Z</time>
      </trkpt>
      <trkpt lat="43.50462" lon="6.925">
        <ele>190.19999694824</ele>
        <time>2013-12-23T12:57:06.000Z</time>
      </trkpt>
      <trkpt lat="43.50479" lon="6.92516">
        <ele>190.60000610352</ele>
        <time>2013-12-23T12:57:13.000Z</time>
      </trkpt>
      <trkpt lat="43.50495" lon="6.9252">
        <ele>193.60000610352</ele>
        <time>2013-12-23T12:57:19.000Z</time>
      </trkpt>
      <trkpt lat="43.50508" lon="6.92523">
        <ele>196</ele>
        <time>2013-12-23T12:57:25.000Z</time>
      </trkpt>
      <trkpt lat="43.50522" lon="6.92523">
        <ele>198.80000305176</ele>
        <time>2013-12-23T12:57:32.000Z</time>
      </trkpt>
      <trkpt lat="43.50533" lon="6.92523">
        <ele>201</ele>
        <time>2013-12-23T12:57:39.000Z</time>
      </trkpt>
      <trkpt lat="43.50543" lon="6.9252">
        <ele>203.39999389648</ele>
        <time>2013-12-23T12:57:45.000Z</time>
      </trkpt>
      <trkpt lat="43.50552" lon="6.92515">
        <ele>205.80000305176</ele>
        <time>2013-12-23T12:57:52.000Z</time>
      </trkpt>
      <trkpt lat="43.5056" lon="6.92511">
        <ele>208</ele>
        <time>2013-12-23T12:57:58.000Z</time>
      </trkpt>
      <trkpt lat="43.50572" lon="6.92509">
        <ele>210.60000610352</ele>
        <time>2013-12-23T12:58:06.000Z</time>
      </trkpt>
      <trkpt lat="43.50581" lon="6.92506">
        <ele>212.80000305176</ele>
        <time>2013-12-23T12:58:13.000Z</time>
      </trkpt>
      <trkpt lat="43.50584" lon="6.92505">
        <ele>213.39999389648</ele>
        <time>2013-12-23T12:58:15.000Z</time>
      </trkpt>
      <trkpt lat="43.50586" lon="6.92503">
        <ele>213</ele>
        <time>2013-12-23T12:58:19.000Z</time>
      </trkpt>
      <trkpt lat="43.50593" lon="6.92498">
        <ele>211.39999389648</ele>
        <time>2013-12-23T13:02:22.000Z</time>
      </trkpt>
      <trkpt lat="43.50597" lon="6.92478">
        <ele>210.19999694824</ele>
        <time>2013-12-23T13:02:28.000Z</time>
      </trkpt>
      <trkpt lat="43.50602" lon="6.92454">
        <ele>209.60000610352</ele>
        <time>2013-12-23T13:02:35.000Z</time>
      </trkpt>
      <trkpt lat="43.50608" lon="6.92431">
        <ele>209.19999694824</ele>
        <time>2013-12-23T13:02:40.000Z</time>
      </trkpt>
      <trkpt lat="43.50615" lon="6.92405">
        <ele>209.19999694824</ele>
        <time>2013-12-23T13:02:46.000Z</time>
      </trkpt>
      <trkpt lat="43.50616" lon="6.92386">
        <ele>209.19999694824</ele>
        <time>2013-12-23T13:02:50.000Z</time>
      </trkpt>
      <trkpt lat="43.50618" lon="6.92365">
        <ele>209.60000610352</ele>
        <time>2013-12-23T13:02:55.000Z</time>
      </trkpt>
      <trkpt lat="43.50623" lon="6.92348">
        <ele>210</ele>
        <time>2013-12-23T13:03:00.000Z</time>
      </trkpt>
      <trkpt lat="43.50627" lon="6.92337">
        <ele>210.60000610352</ele>
        <time>2013-12-23T13:03:04.000Z</time>
      </trkpt>
      <trkpt lat="43.50627" lon="6.92337">
        <ele>210.60000610352</ele>
        <time>2013-12-23T13:03:05.000Z</time>
      </trkpt>
      <trkpt lat="43.50628" lon="6.92335">
        <ele>210.60000610352</ele>
        <time>2013-12-23T13:03:16.000Z</time>
      </trkpt>
      <trkpt lat="43.50629" lon="6.92333">
        <ele>210.60000610352</ele>
        <time>2013-12-23T13:03:24.000Z</time>
      </trkpt>
      <trkpt lat="43.50631" lon="6.92326">
        <ele>210</ele>
        <time>2013-12-23T13:03:32.000Z</time>
      </trkpt>
      <trkpt lat="43.50634" lon="6.92321">
        <ele>209.60000610352</ele>
        <time>2013-12-23T13:03:34.000Z</time>
      </trkpt>
      <trkpt lat="43.5064" lon="6.92317">
        <ele>209.39999389648</ele>
        <time>2013-12-23T13:03:37.000Z</time>
      </trkpt>
      <trkpt lat="43.50649" lon="6.92309">
        <ele>209</ele>
        <time>2013-12-23T13:03:40.000Z</time>
      </trkpt>
      <trkpt lat="43.50654" lon="6.92305">
        <ele>209</ele>
        <time>2013-12-23T13:03:42.000Z</time>
      </trkpt>
      <trkpt lat="43.50662" lon="6.923">
        <ele>209</ele>
        <time>2013-12-23T13:03:46.000Z</time>
      </trkpt>
      <trkpt lat="43.50673" lon="6.9229">
        <ele>206.80000305176</ele>
        <time>2013-12-23T13:03:50.000Z</time>
      </trkpt>
      <trkpt lat="43.50687" lon="6.92273">
        <ele>202.80000305176</ele>
        <time>2013-12-23T13:03:55.000Z</time>
      </trkpt>
      <trkpt lat="43.50705" lon="6.92261">
        <ele>199.80000305176</ele>
        <time>2013-12-23T13:04:00.000Z</time>
      </trkpt>
      <trkpt lat="43.50722" lon="6.92246">
        <ele>197.19999694824</ele>
        <time>2013-12-23T13:04:05.000Z</time>
      </trkpt>
      <trkpt lat="43.50736" lon="6.92235">
        <ele>194.19999694824</ele>
        <time>2013-12-23T13:04:09.000Z</time>
      </trkpt>
      <trkpt lat="43.50745" lon="6.9223">
        <ele>192.80000305176</ele>
        <time>2013-12-23T13:04:11.000Z</time>
      </trkpt>
      <trkpt lat="43.50772" lon="6.92214">
        <ele>191</ele>
        <time>2013-12-23T13:04:16.000Z</time>
      </trkpt>
      <trkpt lat="43.508" lon="6.92201">
        <ele>191</ele>
        <time>2013-12-23T13:04:20.000Z</time>
      </trkpt>
      <trkpt lat="43.50807" lon="6.92201">
        <ele>191.19999694824</ele>
        <time>2013-12-23T13:04:21.000Z</time>
      </trkpt>
      <trkpt lat="43.50828" lon="6.92208">
        <ele>191.80000305176</ele>
        <time>2013-12-23T13:04:25.000Z</time>
      </trkpt>
      <trkpt lat="43.50848" lon="6.92219">
        <ele>196</ele>
        <time>2013-12-23T13:04:30.000Z</time>
      </trkpt>
      <trkpt lat="43.50849" lon="6.92219">
        <ele>196.19999694824</ele>
        <time>2013-12-23T13:04:31.000Z</time>
      </trkpt>
      <trkpt lat="43.50849" lon="6.9222">
        <ele>196.19999694824</ele>
        <time>2013-12-23T13:04:33.000Z</time>
      </trkpt>
      <trkpt lat="43.50851" lon="6.9222">
        <ele>196.80000305176</ele>
        <time>2013-12-23T13:04:58.000Z</time>
      </trkpt>
      <trkpt lat="43.50854" lon="6.92224">
        <ele>197.39999389648</ele>
        <time>2013-12-23T13:05:06.000Z</time>
      </trkpt>
      <trkpt lat="43.50857" lon="6.92226">
        <ele>198.39999389648</ele>
        <time>2013-12-23T13:05:11.000Z</time>
      </trkpt>
      <trkpt lat="43.50862" lon="6.92231">
        <ele>199.80000305176</ele>
        <time>2013-12-23T13:05:18.000Z</time>
      </trkpt>
      <trkpt lat="43.50865" lon="6.92234">
        <ele>200.39999389648</ele>
        <time>2013-12-23T13:05:21.000Z</time>
      </trkpt>
      <trkpt lat="43.50866" lon="6.92236">
        <ele>200.60000610352</ele>
        <time>2013-12-23T13:05:23.000Z</time>
      </trkpt>
      <trkpt lat="43.50863" lon="6.92237">
        <ele>199.60000610352</ele>
        <time>2013-12-23T13:05:27.000Z</time>
      </trkpt>
      <trkpt lat="43.50859" lon="6.92231">
        <ele>198.80000305176</ele>
        <time>2013-12-23T13:05:31.000Z</time>
      </trkpt>
      <trkpt lat="43.50856" lon="6.92224">
        <ele>198</ele>
        <time>2013-12-23T13:05:34.000Z</time>
      </trkpt>
      <trkpt lat="43.50854" lon="6.92221">
        <ele>197.39999389648</ele>
        <time>2013-12-23T13:05:36.000Z</time>
      </trkpt>
      <trkpt lat="43.50853" lon="6.9222">
        <ele>197.19999694824</ele>
        <time>2013-12-23T13:05:37.000Z</time>
      </trkpt>
      <trkpt lat="43.50847" lon="6.92216">
        <ele>195.80000305176</ele>
        <time>2013-12-23T13:05:43.000Z</time>
      </trkpt>
      <trkpt lat="43.50845" lon="6.92219">
        <ele>195.19999694824</ele>
        <time>2013-12-23T13:05:48.000Z</time>
      </trkpt>
      <trkpt lat="43.50853" lon="6.92222">
        <ele>197.19999694824</ele>
        <time>2013-12-23T13:05:53.000Z</time>
      </trkpt>
      <trkpt lat="43.50855" lon="6.92223">
        <ele>197.80000305176</ele>
        <time>2013-12-23T13:05:55.000Z</time>
      </trkpt>
      <trkpt lat="43.5086" lon="6.92227">
        <ele>199.19999694824</ele>
        <time>2013-12-23T13:05:58.000Z</time>
      </trkpt>
      <trkpt lat="43.50866" lon="6.92238">
        <ele>200.80000305176</ele>
        <time>2013-12-23T13:06:03.000Z</time>
      </trkpt>
      <trkpt lat="43.50868" lon="6.92258">
        <ele>200.80000305176</ele>
        <time>2013-12-23T13:06:08.000Z</time>
      </trkpt>
      <trkpt lat="43.50867" lon="6.92288">
        <ele>199.19999694824</ele>
        <time>2013-12-23T13:06:15.000Z</time>
      </trkpt>
      <trkpt lat="43.50866" lon="6.92319">
        <ele>198</ele>
        <time>2013-12-23T13:06:23.000Z</time>
      </trkpt>
      <trkpt lat="43.50869" lon="6.92349">
        <ele>197.80000305176</ele>
        <time>2013-12-23T13:06:31.000Z</time>
      </trkpt>
      <trkpt lat="43.50871" lon="6.92383">
        <ele>197.60000610352</ele>
        <time>2013-12-23T13:06:40.000Z</time>
      </trkpt>
      <trkpt lat="43.50875" lon="6.92414">
        <ele>198.19999694824</ele>
        <time>2013-12-23T13:06:47.000Z</time>
      </trkpt>
      <trkpt lat="43.50882" lon="6.92439">
        <ele>199.39999389648</ele>
        <time>2013-12-23T13:06:53.000Z</time>
      </trkpt>
      <trkpt lat="43.50892" lon="6.92478">
        <ele>200.60000610352</ele>
        <time>2013-12-23T13:07:03.000Z</time>
      </trkpt>
      <trkpt lat="43.50899" lon="6.92507">
        <ele>201.19999694824</ele>
        <time>2013-12-23T13:07:10.000Z</time>
      </trkpt>
      <trkpt lat="43.50904" lon="6.9253">
        <ele>201.39999389648</ele>
        <time>2013-12-23T13:07:16.000Z</time>
      </trkpt>
      <trkpt lat="43.50911" lon="6.92562">
        <ele>201.19999694824</ele>
        <time>2013-12-23T13:07:24.000Z</time>
      </trkpt>
      <trkpt lat="43.5092" lon="6.92599">
        <ele>201.80000305176</ele>
        <time>2013-12-23T13:07:33.000Z</time>
      </trkpt>
      <trkpt lat="43.50928" lon="6.92632">
        <ele>201.39999389648</ele>
        <time>2013-12-23T13:07:41.000Z</time>
      </trkpt>
      <trkpt lat="43.50936" lon="6.92653">
        <ele>202.39999389648</ele>
        <time>2013-12-23T13:07:48.000Z</time>
      </trkpt>
      <trkpt lat="43.50945" lon="6.92667">
        <ele>205</ele>
        <time>2013-12-23T13:07:54.000Z</time>
      </trkpt>
      <trkpt lat="43.50959" lon="6.92686">
        <ele>209.80000305176</ele>
        <time>2013-12-23T13:08:03.000Z</time>
      </trkpt>
      <trkpt lat="43.50971" lon="6.92702">
        <ele>214</ele>
        <time>2013-12-23T13:08:11.000Z</time>
      </trkpt>
      <trkpt lat="43.50975" lon="6.92727">
        <ele>213.39999389648</ele>
        <time>2013-12-23T13:08:20.000Z</time>
      </trkpt>
      <trkpt lat="43.50979" lon="6.92745">
        <ele>213.39999389648</ele>
        <time>2013-12-23T13:08:27.000Z</time>
      </trkpt>
      <trkpt lat="43.50981" lon="6.92761">
        <ele>214</ele>
        <time>2013-12-23T13:08:33.000Z</time>
      </trkpt>
      <trkpt lat="43.50983" lon="6.92781">
        <ele>215.80000305176</ele>
        <time>2013-12-23T13:08:40.000Z</time>
      </trkpt>
      <trkpt lat="43.50982" lon="6.92798">
        <ele>215.60000610352</ele>
        <time>2013-12-23T13:08:46.000Z</time>
      </trkpt>
      <trkpt lat="43.50985" lon="6.92822">
        <ele>217.19999694824</ele>
        <time>2013-12-23T13:08:55.000Z</time>
      </trkpt>
      <trkpt lat="43.50985" lon="6.92847">
        <ele>217.19999694824</ele>
        <time>2013-12-23T13:09:04.000Z</time>
      </trkpt>
      <trkpt lat="43.50988" lon="6.92873">
        <ele>218</ele>
        <time>2013-12-23T13:09:13.000Z</time>
      </trkpt>
      <trkpt lat="43.50992" lon="6.92899">
        <ele>219.80000305176</ele>
        <time>2013-12-23T13:09:21.000Z</time>
      </trkpt>
      <trkpt lat="43.50997" lon="6.92923">
        <ele>221.60000610352</ele>
        <time>2013-12-23T13:09:28.000Z</time>
      </trkpt>
      <trkpt lat="43.51002" lon="6.92949">
        <ele>222.39999389648</ele>
        <time>2013-12-23T13:09:36.000Z</time>
      </trkpt>
      <trkpt lat="43.51004" lon="6.92971">
        <ele>221</ele>
        <time>2013-12-23T13:09:43.000Z</time>
      </trkpt>
      <trkpt lat="43.51006" lon="6.9299">
        <ele>220</ele>
        <time>2013-12-23T13:09:51.000Z</time>
      </trkpt>
      <trkpt lat="43.51007" lon="6.92996">
        <ele>219.80000305176</ele>
        <time>2013-12-23T13:09:57.000Z</time>
      </trkpt>
      <trkpt lat="43.51007" lon="6.92997">
        <ele>220</ele>
        <time>2013-12-23T13:09:58.000Z</time>
      </trkpt>
      <trkpt lat="43.51009" lon="6.92996">
        <ele>220.19999694824</ele>
        <time>2013-12-23T13:10:08.000Z</time>
      </trkpt>
      <trkpt lat="43.51012" lon="6.92998">
        <ele>220.80000305176</ele>
        <time>2013-12-23T13:16:22.000Z</time>
      </trkpt>
      <trkpt lat="43.51021" lon="6.92997">
        <ele>222.80000305176</ele>
        <time>2013-12-23T13:16:27.000Z</time>
      </trkpt>
      <trkpt lat="43.51029" lon="6.92998">
        <ele>224.60000610352</ele>
        <time>2013-12-23T13:16:31.000Z</time>
      </trkpt>
      <trkpt lat="43.51033" lon="6.92998">
        <ele>225.39999389648</ele>
        <time>2013-12-23T13:16:34.000Z</time>
      </trkpt>
      <trkpt lat="43.51036" lon="6.92998">
        <ele>226</ele>
        <time>2013-12-23T13:16:36.000Z</time>
      </trkpt>
      <trkpt lat="43.51036" lon="6.92998">
        <ele>226</ele>
        <time>2013-12-23T13:16:40.000Z</time>
      </trkpt>
      <trkpt lat="43.51032" lon="6.93">
        <ele>224.80000305176</ele>
        <time>2013-12-23T13:17:10.000Z</time>
      </trkpt>
      <trkpt lat="43.5103" lon="6.93001">
        <ele>224.19999694824</ele>
        <time>2013-12-23T13:17:15.000Z</time>
      </trkpt>
      <trkpt lat="43.51024" lon="6.93">
        <ele>223</ele>
        <time>2013-12-23T13:17:22.000Z</time>
      </trkpt>
      <trkpt lat="43.51019" lon="6.93001">
        <ele>221.80000305176</ele>
        <time>2013-12-23T13:17:28.000Z</time>
      </trkpt>
      <trkpt lat="43.51018" lon="6.93">
        <ele>221.80000305176</ele>
        <time>2013-12-23T13:17:33.000Z</time>
      </trkpt>
      <trkpt lat="43.51019" lon="6.92993">
        <ele>222.80000305176</ele>
        <time>2013-12-23T13:17:49.000Z</time>
      </trkpt>
      <trkpt lat="43.51022" lon="6.92987">
        <ele>224</ele>
        <time>2013-12-23T13:17:56.000Z</time>
      </trkpt>
      <trkpt lat="43.51023" lon="6.9298">
        <ele>225.19999694824</ele>
        <time>2013-12-23T13:18:03.000Z</time>
      </trkpt>
      <trkpt lat="43.51027" lon="6.92974">
        <ele>226.80000305176</ele>
        <time>2013-12-23T13:18:12.000Z</time>
      </trkpt>
      <trkpt lat="43.51036" lon="6.92974">
        <ele>229</ele>
        <time>2013-12-23T13:18:20.000Z</time>
      </trkpt>
      <trkpt lat="43.51048" lon="6.92976">
        <ele>231.80000305176</ele>
        <time>2013-12-23T13:18:31.000Z</time>
      </trkpt>
      <trkpt lat="43.51052" lon="6.92977">
        <ele>232.60000610352</ele>
        <time>2013-12-23T13:18:35.000Z</time>
      </trkpt>
      <trkpt lat="43.51055" lon="6.92977">
        <ele>233.39999389648</ele>
        <time>2013-12-23T13:18:38.000Z</time>
      </trkpt>
      <trkpt lat="43.51057" lon="6.92977">
        <ele>234</ele>
        <time>2013-12-23T13:18:40.000Z</time>
      </trkpt>
      <trkpt lat="43.51062" lon="6.92977">
        <ele>235.19999694824</ele>
        <time>2013-12-23T13:18:46.000Z</time>
      </trkpt>
      <trkpt lat="43.51071" lon="6.92979">
        <ele>236.80000305176</ele>
        <time>2013-12-23T13:18:54.000Z</time>
      </trkpt>
      <trkpt lat="43.51077" lon="6.92979">
        <ele>238.39999389648</ele>
        <time>2013-12-23T13:19:01.000Z</time>
      </trkpt>
      <trkpt lat="43.51083" lon="6.92979">
        <ele>240</ele>
        <time>2013-12-23T13:19:10.000Z</time>
      </trkpt>
      <trkpt lat="43.51089" lon="6.92981">
        <ele>240</ele>
        <time>2013-12-23T13:19:19.000Z</time>
      </trkpt>
      <trkpt lat="43.51095" lon="6.92982">
        <ele>240</ele>
        <time>2013-12-23T13:19:27.000Z</time>
      </trkpt>
      <trkpt lat="43.51103" lon="6.92983">
        <ele>240.19999694824</ele>
        <time>2013-12-23T13:19:37.000Z</time>
      </trkpt>
      <trkpt lat="43.51108" lon="6.92985">
        <ele>240.19999694824</ele>
        <time>2013-12-23T13:19:44.000Z</time>
      </trkpt>
      <trkpt lat="43.51109" lon="6.92985">
        <ele>240.19999694824</ele>
        <time>2013-12-23T13:19:45.000Z</time>
      </trkpt>
      <trkpt lat="43.51113" lon="6.92986">
        <ele>240.39999389648</ele>
        <time>2013-12-23T13:19:49.000Z</time>
      </trkpt>
      <trkpt lat="43.51116" lon="6.92986">
        <ele>240.39999389648</ele>
        <time>2013-12-23T13:19:52.000Z</time>
      </trkpt>
      <trkpt lat="43.51122" lon="6.92986">
        <ele>240.80000305176</ele>
        <time>2013-12-23T13:19:58.000Z</time>
      </trkpt>
      <trkpt lat="43.51123" lon="6.92986">
        <ele>240.80000305176</ele>
        <time>2013-12-23T13:20:00.000Z</time>
      </trkpt>
      <trkpt lat="43.51126" lon="6.92985">
        <ele>241.19999694824</ele>
        <time>2013-12-23T13:20:08.000Z</time>
      </trkpt>
      <trkpt lat="43.51127" lon="6.9298">
        <ele>241.80000305176</ele>
        <time>2013-12-23T13:20:15.000Z</time>
      </trkpt>
      <trkpt lat="43.51125" lon="6.92971">
        <ele>243</ele>
        <time>2013-12-23T13:20:23.000Z</time>
      </trkpt>
      <trkpt lat="43.51124" lon="6.9297">
        <ele>243</ele>
        <time>2013-12-23T13:20:24.000Z</time>
      </trkpt>
      <trkpt lat="43.51124" lon="6.92968">
        <ele>243.39999389648</ele>
        <time>2013-12-23T13:20:26.000Z</time>
      </trkpt>
      <trkpt lat="43.51125" lon="6.92963">
        <ele>244</ele>
        <time>2013-12-23T13:20:32.000Z</time>
      </trkpt>
      <trkpt lat="43.51125" lon="6.92957">
        <ele>245</ele>
        <time>2013-12-23T13:20:39.000Z</time>
      </trkpt>
      <trkpt lat="43.51125" lon="6.92956">
        <ele>245.19999694824</ele>
        <time>2013-12-23T13:20:46.000Z</time>
      </trkpt>
      <trkpt lat="43.51127" lon="6.92949">
        <ele>246</ele>
        <time>2013-12-23T13:31:00.000Z</time>
      </trkpt>
      <trkpt lat="43.51116" lon="6.92937">
        <ele>247.80000305176</ele>
        <time>2013-12-23T13:31:05.000Z</time>
      </trkpt>
      <trkpt lat="43.5111" lon="6.92928">
        <ele>249.19999694824</ele>
        <time>2013-12-23T13:31:10.000Z</time>
      </trkpt>
      <trkpt lat="43.51108" lon="6.92926">
        <ele>249.60000610352</ele>
        <time>2013-12-23T13:31:15.000Z</time>
      </trkpt>
      <trkpt lat="43.51104" lon="6.92918">
        <ele>251</ele>
        <time>2013-12-23T13:31:21.000Z</time>
      </trkpt>
      <trkpt lat="43.51103" lon="6.92913">
        <ele>251.39999389648</ele>
        <time>2013-12-23T13:31:26.000Z</time>
      </trkpt>
      <trkpt lat="43.51101" lon="6.92911">
        <ele>251.60000610352</ele>
        <time>2013-12-23T13:31:28.000Z</time>
      </trkpt>
      <trkpt lat="43.51102" lon="6.92907">
        <ele>251.80000305176</ele>
        <time>2013-12-23T13:31:34.000Z</time>
      </trkpt>
      <trkpt lat="43.511" lon="6.92901">
        <ele>252.19999694824</ele>
        <time>2013-12-23T13:31:39.000Z</time>
      </trkpt>
      <trkpt lat="43.51099" lon="6.92897">
        <ele>252.39999389648</ele>
        <time>2013-12-23T13:31:42.000Z</time>
      </trkpt>
      <trkpt lat="43.51096" lon="6.92895">
        <ele>252.80000305176</ele>
        <time>2013-12-23T13:31:45.000Z</time>
      </trkpt>
      <trkpt lat="43.51096" lon="6.92893">
        <ele>252.80000305176</ele>
        <time>2013-12-23T13:31:46.000Z</time>
      </trkpt>
      <trkpt lat="43.51094" lon="6.92889">
        <ele>253.19999694824</ele>
        <time>2013-12-23T13:31:49.000Z</time>
      </trkpt>
      <trkpt lat="43.51093" lon="6.92886">
        <ele>253.39999389648</ele>
        <time>2013-12-23T13:31:51.000Z</time>
      </trkpt>
      <trkpt lat="43.51092" lon="6.9288">
        <ele>253.80000305176</ele>
        <time>2013-12-23T13:31:57.000Z</time>
      </trkpt>
      <trkpt lat="43.51091" lon="6.92877">
        <ele>254.19999694824</ele>
        <time>2013-12-23T13:32:00.000Z</time>
      </trkpt>
      <trkpt lat="43.51091" lon="6.92876">
        <ele>254.19999694824</ele>
        <time>2013-12-23T13:32:01.000Z</time>
      </trkpt>
      <trkpt lat="43.51088" lon="6.92865">
        <ele>255.19999694824</ele>
        <time>2013-12-23T13:32:06.000Z</time>
      </trkpt>
      <trkpt lat="43.51088" lon="6.92852">
        <ele>256</ele>
        <time>2013-12-23T13:32:10.000Z</time>
      </trkpt>
      <trkpt lat="43.51089" lon="6.92848">
        <ele>256.20001220703</ele>
        <time>2013-12-23T13:32:11.000Z</time>
      </trkpt>
      <trkpt lat="43.51091" lon="6.92828">
        <ele>256.60000610352</ele>
        <time>2013-12-23T13:32:16.000Z</time>
      </trkpt>
      <trkpt lat="43.51091" lon="6.92824">
        <ele>256.60000610352</ele>
        <time>2013-12-23T13:32:17.000Z</time>
      </trkpt>
      <trkpt lat="43.51091" lon="6.92812">
        <ele>256.20001220703</ele>
        <time>2013-12-23T13:32:20.000Z</time>
      </trkpt>
      <trkpt lat="43.51091" lon="6.92809">
        <ele>256.20001220703</ele>
        <time>2013-12-23T13:32:21.000Z</time>
      </trkpt>
      <trkpt lat="43.51092" lon="6.92789">
        <ele>255.39999389648</ele>
        <time>2013-12-23T13:32:26.000Z</time>
      </trkpt>
      <trkpt lat="43.51093" lon="6.92766">
        <ele>254.60000610352</ele>
        <time>2013-12-23T13:32:31.000Z</time>
      </trkpt>
      <trkpt lat="43.51092" lon="6.9275">
        <ele>254.39999389648</ele>
        <time>2013-12-23T13:32:35.000Z</time>
      </trkpt>
      <trkpt lat="43.51089" lon="6.92727">
        <ele>254.39999389648</ele>
        <time>2013-12-23T13:32:40.000Z</time>
      </trkpt>
      <trkpt lat="43.51087" lon="6.92718">
        <ele>254.60000610352</ele>
        <time>2013-12-23T13:32:42.000Z</time>
      </trkpt>
      <trkpt lat="43.51084" lon="6.92709">
        <ele>254.80000305176</ele>
        <time>2013-12-23T13:32:44.000Z</time>
      </trkpt>
      <trkpt lat="43.51083" lon="6.92695">
        <ele>254.60000610352</ele>
        <time>2013-12-23T13:32:47.000Z</time>
      </trkpt>
      <trkpt lat="43.51082" lon="6.92691">
        <ele>254.19999694824</ele>
        <time>2013-12-23T13:32:48.000Z</time>
      </trkpt>
      <trkpt lat="43.51074" lon="6.92667">
        <ele>251.80000305176</ele>
        <time>2013-12-23T13:32:53.000Z</time>
      </trkpt>
      <trkpt lat="43.51066" lon="6.92645">
        <ele>249</ele>
        <time>2013-12-23T13:32:57.000Z</time>
      </trkpt>
      <trkpt lat="43.51059" lon="6.92628">
        <ele>247.60000610352</ele>
        <time>2013-12-23T13:33:01.000Z</time>
      </trkpt>
      <trkpt lat="43.51058" lon="6.92624">
        <ele>247.39999389648</ele>
        <time>2013-12-23T13:33:02.000Z</time>
      </trkpt>
      <trkpt lat="43.51054" lon="6.92598">
        <ele>246.80000305176</ele>
        <time>2013-12-23T13:33:08.000Z</time>
      </trkpt>
      <trkpt lat="43.51053" lon="6.92594">
        <ele>246.80000305176</ele>
        <time>2013-12-23T13:33:09.000Z</time>
      </trkpt>
      <trkpt lat="43.51049" lon="6.92583">
        <ele>246.39999389648</ele>
        <time>2013-12-23T13:33:12.000Z</time>
      </trkpt>
      <trkpt lat="43.51048" lon="6.92579">
        <ele>246.19999694824</ele>
        <time>2013-12-23T13:33:13.000Z</time>
      </trkpt>
      <trkpt lat="43.51045" lon="6.9257">
        <ele>245.80000305176</ele>
        <time>2013-12-23T13:33:16.000Z</time>
      </trkpt>
      <trkpt lat="43.51042" lon="6.92563">
        <ele>245.39999389648</ele>
        <time>2013-12-23T13:33:18.000Z</time>
      </trkpt>
      <trkpt lat="43.51041" lon="6.92555">
        <ele>245.19999694824</ele>
        <time>2013-12-23T13:33:20.000Z</time>
      </trkpt>
      <trkpt lat="43.51036" lon="6.92541">
        <ele>244.80000305176</ele>
        <time>2013-12-23T13:33:24.000Z</time>
      </trkpt>
      <trkpt lat="43.51033" lon="6.92526">
        <ele>245</ele>
        <time>2013-12-23T13:33:30.000Z</time>
      </trkpt>
      <trkpt lat="43.51031" lon="6.92522">
        <ele>245</ele>
        <time>2013-12-23T13:33:36.000Z</time>
      </trkpt>
      <trkpt lat="43.51028" lon="6.92515">
        <ele>245.19999694824</ele>
        <time>2013-12-23T13:33:42.000Z</time>
      </trkpt>
      <trkpt lat="43.51027" lon="6.92507">
        <ele>245.39999389648</ele>
        <time>2013-12-23T13:33:50.000Z</time>
      </trkpt>
      <trkpt lat="43.51027" lon="6.92508">
        <ele>245.39999389648</ele>
        <time>2013-12-23T13:34:01.000Z</time>
      </trkpt>
      <trkpt lat="43.51026" lon="6.92505">
        <ele>245.60000610352</ele>
        <time>2013-12-23T13:34:10.000Z</time>
      </trkpt>
      <trkpt lat="43.51022" lon="6.92491">
        <ele>245.39999389648</ele>
        <time>2013-12-23T13:34:15.000Z</time>
      </trkpt>
      <trkpt lat="43.51019" lon="6.92489">
        <ele>245.60000610352</ele>
        <time>2013-12-23T13:34:18.000Z</time>
      </trkpt>
      <trkpt lat="43.51019" lon="6.92488">
        <ele>245.39999389648</ele>
        <time>2013-12-23T13:34:19.000Z</time>
      </trkpt>
      <trkpt lat="43.51021" lon="6.92489">
        <ele>245.19999694824</ele>
        <time>2013-12-23T13:34:27.000Z</time>
      </trkpt>
      <trkpt lat="43.51022" lon="6.92491">
        <ele>245.19999694824</ele>
        <time>2013-12-23T13:34:29.000Z</time>
      </trkpt>
      <trkpt lat="43.51023" lon="6.92493">
        <ele>245.39999389648</ele>
        <time>2013-12-23T13:34:31.000Z</time>
      </trkpt>
      <trkpt lat="43.51023" lon="6.92498">
        <ele>245.80000305176</ele>
        <time>2013-12-23T13:34:35.000Z</time>
      </trkpt>
      <trkpt lat="43.51023" lon="6.92497">
        <ele>245.80000305176</ele>
        <time>2013-12-23T13:34:36.000Z</time>
      </trkpt>
      <trkpt lat="43.51024" lon="6.92497">
        <ele>245.60000610352</ele>
        <time>2013-12-23T13:34:44.000Z</time>
      </trkpt>
      <trkpt lat="43.51021" lon="6.92488">
        <ele>245.19999694824</ele>
        <time>2013-12-23T13:34:58.000Z</time>
      </trkpt>
      <trkpt lat="43.5102" lon="6.92486">
        <ele>245.19999694824</ele>
        <time>2013-12-23T13:34:59.000Z</time>
      </trkpt>
      <trkpt lat="43.51017" lon="6.92481">
        <ele>245.19999694824</ele>
        <time>2013-12-23T13:35:02.000Z</time>
      </trkpt>
      <trkpt lat="43.51013" lon="6.92472">
        <ele>245.39999389648</ele>
        <time>2013-12-23T13:35:05.000Z</time>
      </trkpt>
      <trkpt lat="43.51012" lon="6.9247">
        <ele>245.60000610352</ele>
        <time>2013-12-23T13:35:08.000Z</time>
      </trkpt>
      <trkpt lat="43.51013" lon="6.92466">
        <ele>245</ele>
        <time>2013-12-23T13:35:40.000Z</time>
      </trkpt>
      <trkpt lat="43.51012" lon="6.92463">
        <ele>245</ele>
        <time>2013-12-23T13:35:41.000Z</time>
      </trkpt>
      <trkpt lat="43.51007" lon="6.92446">
        <ele>245</ele>
        <time>2013-12-23T13:35:45.000Z</time>
      </trkpt>
      <trkpt lat="43.51005" lon="6.92436">
        <ele>245.39999389648</ele>
        <time>2013-12-23T13:35:49.000Z</time>
      </trkpt>
      <trkpt lat="43.51001" lon="6.92426">
        <ele>246</ele>
        <time>2013-12-23T13:35:53.000Z</time>
      </trkpt>
      <trkpt lat="43.50999" lon="6.92415">
        <ele>245.39999389648</ele>
        <time>2013-12-23T13:35:57.000Z</time>
      </trkpt>
      <trkpt lat="43.50995" lon="6.92402">
        <ele>243.80000305176</ele>
        <time>2013-12-23T13:36:01.000Z</time>
      </trkpt>
      <trkpt lat="43.50995" lon="6.924">
        <ele>243.80000305176</ele>
        <time>2013-12-23T13:36:02.000Z</time>
      </trkpt>
      <trkpt lat="43.50995" lon="6.92394">
        <ele>243.39999389648</ele>
        <time>2013-12-23T13:36:04.000Z</time>
      </trkpt>
      <trkpt lat="43.50994" lon="6.9239">
        <ele>242.80000305176</ele>
        <time>2013-12-23T13:36:05.000Z</time>
      </trkpt>
      <trkpt lat="43.5099" lon="6.92379">
        <ele>241.19999694824</ele>
        <time>2013-12-23T13:36:08.000Z</time>
      </trkpt>
      <trkpt lat="43.5099" lon="6.92377">
        <ele>241</ele>
        <time>2013-12-23T13:36:09.000Z</time>
      </trkpt>
      <trkpt lat="43.50988" lon="6.92368">
        <ele>240</ele>
        <time>2013-12-23T13:36:12.000Z</time>
      </trkpt>
      <trkpt lat="43.50988" lon="6.92366">
        <ele>240</ele>
        <time>2013-12-23T13:36:13.000Z</time>
      </trkpt>
      <trkpt lat="43.5099" lon="6.92362">
        <ele>240.19999694824</ele>
        <time>2013-12-23T13:36:15.000Z</time>
      </trkpt>
      <trkpt lat="43.5099" lon="6.92353">
        <ele>240</ele>
        <time>2013-12-23T13:36:17.000Z</time>
      </trkpt>
      <trkpt lat="43.50989" lon="6.9235">
        <ele>239.60000610352</ele>
        <time>2013-12-23T13:36:18.000Z</time>
      </trkpt>
      <trkpt lat="43.50989" lon="6.92347">
        <ele>239.39999389648</ele>
        <time>2013-12-23T13:36:19.000Z</time>
      </trkpt>
      <trkpt lat="43.50992" lon="6.92337">
        <ele>239.80000305176</ele>
        <time>2013-12-23T13:36:22.000Z</time>
      </trkpt>
      <trkpt lat="43.50994" lon="6.92331">
        <ele>240</ele>
        <time>2013-12-23T13:36:23.000Z</time>
      </trkpt>
      <trkpt lat="43.50997" lon="6.92307">
        <ele>239.39999389648</ele>
        <time>2013-12-23T13:36:27.000Z</time>
      </trkpt>
      <trkpt lat="43.50999" lon="6.92264">
        <ele>236.80000305176</ele>
        <time>2013-12-23T13:36:32.000Z</time>
      </trkpt>
      <trkpt lat="43.50995" lon="6.92218">
        <ele>234.39999389648</ele>
        <time>2013-12-23T13:36:38.000Z</time>
      </trkpt>
      <trkpt lat="43.50995" lon="6.92214">
        <ele>234.39999389648</ele>
        <time>2013-12-23T13:36:39.000Z</time>
      </trkpt>
      <trkpt lat="43.50996" lon="6.92209">
        <ele>234.60000610352</ele>
        <time>2013-12-23T13:36:41.000Z</time>
      </trkpt>
      <trkpt lat="43.50997" lon="6.92207">
        <ele>234.80000305176</ele>
        <time>2013-12-23T13:36:45.000Z</time>
      </trkpt>
      <trkpt lat="43.51001" lon="6.92198">
        <ele>235</ele>
        <time>2013-12-23T13:37:54.000Z</time>
      </trkpt>
      <trkpt lat="43.51008" lon="6.92185">
        <ele>232.39999389648</ele>
        <time>2013-12-23T13:37:59.000Z</time>
      </trkpt>
      <trkpt lat="43.51011" lon="6.92173">
        <ele>231.39999389648</ele>
        <time>2013-12-23T13:38:03.000Z</time>
      </trkpt>
      <trkpt lat="43.51011" lon="6.92166">
        <ele>231</ele>
        <time>2013-12-23T13:38:07.000Z</time>
      </trkpt>
      <trkpt lat="43.51009" lon="6.92147">
        <ele>229</ele>
        <time>2013-12-23T13:38:12.000Z</time>
      </trkpt>
      <trkpt lat="43.51006" lon="6.92144">
        <ele>229.39999389648</ele>
        <time>2013-12-23T13:38:13.000Z</time>
      </trkpt>
      <trkpt lat="43.51002" lon="6.92139">
        <ele>229.80000305176</ele>
        <time>2013-12-23T13:38:15.000Z</time>
      </trkpt>
      <trkpt lat="43.51" lon="6.92134">
        <ele>229.80000305176</ele>
        <time>2013-12-23T13:38:17.000Z</time>
      </trkpt>
      <trkpt lat="43.50997" lon="6.9213">
        <ele>228.60000610352</ele>
        <time>2013-12-23T13:38:19.000Z</time>
      </trkpt>
      <trkpt lat="43.50995" lon="6.92123">
        <ele>227</ele>
        <time>2013-12-23T13:38:21.000Z</time>
      </trkpt>
      <trkpt lat="43.50994" lon="6.92115">
        <ele>225.39999389648</ele>
        <time>2013-12-23T13:38:23.000Z</time>
      </trkpt>
      <trkpt lat="43.50994" lon="6.92101">
        <ele>223.19999694824</ele>
        <time>2013-12-23T13:38:28.000Z</time>
      </trkpt>
      <trkpt lat="43.50994" lon="6.92089">
        <ele>221.39999389648</ele>
        <time>2013-12-23T13:38:32.000Z</time>
      </trkpt>
      <trkpt lat="43.50992" lon="6.92085">
        <ele>220.19999694824</ele>
        <time>2013-12-23T13:38:34.000Z</time>
      </trkpt>
      <trkpt lat="43.50986" lon="6.92068">
        <ele>215.19999694824</ele>
        <time>2013-12-23T13:38:39.000Z</time>
      </trkpt>
      <trkpt lat="43.50981" lon="6.92058">
        <ele>211.80000305176</ele>
        <time>2013-12-23T13:38:43.000Z</time>
      </trkpt>
      <trkpt lat="43.50981" lon="6.92056">
        <ele>211.19999694824</ele>
        <time>2013-12-23T13:38:44.000Z</time>
      </trkpt>
      <trkpt lat="43.5098" lon="6.92044">
        <ele>208.60000610352</ele>
        <time>2013-12-23T13:38:48.000Z</time>
      </trkpt>
      <trkpt lat="43.50985" lon="6.92035">
        <ele>207.80000305176</ele>
        <time>2013-12-23T13:38:52.000Z</time>
      </trkpt>
      <trkpt lat="43.50981" lon="6.92023">
        <ele>204.19999694824</ele>
        <time>2013-12-23T13:38:55.000Z</time>
      </trkpt>
      <trkpt lat="43.50982" lon="6.92009">
        <ele>201</ele>
        <time>2013-12-23T13:38:59.000Z</time>
      </trkpt>
      <trkpt lat="43.50984" lon="6.91996">
        <ele>199.39999389648</ele>
        <time>2013-12-23T13:39:03.000Z</time>
      </trkpt>
      <trkpt lat="43.50984" lon="6.91993">
        <ele>199</ele>
        <time>2013-12-23T13:39:04.000Z</time>
      </trkpt>
      <trkpt lat="43.50981" lon="6.91984">
        <ele>197</ele>
        <time>2013-12-23T13:39:07.000Z</time>
      </trkpt>
      <trkpt lat="43.5098" lon="6.91977">
        <ele>196</ele>
        <time>2013-12-23T13:39:09.000Z</time>
      </trkpt>
      <trkpt lat="43.5098" lon="6.91966">
        <ele>194.80000305176</ele>
        <time>2013-12-23T13:39:12.000Z</time>
      </trkpt>
      <trkpt lat="43.50982" lon="6.91948">
        <ele>193</ele>
        <time>2013-12-23T13:39:17.000Z</time>
      </trkpt>
      <trkpt lat="43.50981" lon="6.91945">
        <ele>192.60000610352</ele>
        <time>2013-12-23T13:39:21.000Z</time>
      </trkpt>
      <trkpt lat="43.50987" lon="6.91937">
        <ele>193.19999694824</ele>
        <time>2013-12-23T13:40:20.000Z</time>
      </trkpt>
      <trkpt lat="43.50991" lon="6.91916">
        <ele>191.60000610352</ele>
        <time>2013-12-23T13:40:25.000Z</time>
      </trkpt>
      <trkpt lat="43.50997" lon="6.91889">
        <ele>191.80000305176</ele>
        <time>2013-12-23T13:40:29.000Z</time>
      </trkpt>
      <trkpt lat="43.51001" lon="6.91868">
        <ele>191.19999694824</ele>
        <time>2013-12-23T13:40:32.000Z</time>
      </trkpt>
      <trkpt lat="43.51002" lon="6.91863">
        <ele>190.80000305176</ele>
        <time>2013-12-23T13:40:33.000Z</time>
      </trkpt>
      <trkpt lat="43.51005" lon="6.91855">
        <ele>189.60000610352</ele>
        <time>2013-12-23T13:40:35.000Z</time>
      </trkpt>
      <trkpt lat="43.5101" lon="6.91841">
        <ele>187.39999389648</ele>
        <time>2013-12-23T13:40:38.000Z</time>
      </trkpt>
      <trkpt lat="43.51022" lon="6.9183">
        <ele>183.60000610352</ele>
        <time>2013-12-23T13:40:42.000Z</time>
      </trkpt>
      <trkpt lat="43.51033" lon="6.9182">
        <ele>179.80000305176</ele>
        <time>2013-12-23T13:40:47.000Z</time>
      </trkpt>
      <trkpt lat="43.51042" lon="6.91803">
        <ele>176.39999389648</ele>
        <time>2013-12-23T13:40:52.000Z</time>
      </trkpt>
      <trkpt lat="43.51047" lon="6.91799">
        <ele>175.19999694824</ele>
        <time>2013-12-23T13:40:54.000Z</time>
      </trkpt>
      <trkpt lat="43.51053" lon="6.91795">
        <ele>173.80000305176</ele>
        <time>2013-12-23T13:40:56.000Z</time>
      </trkpt>
      <trkpt lat="43.51068" lon="6.91785">
        <ele>171.19999694824</ele>
        <time>2013-12-23T13:41:01.000Z</time>
      </trkpt>
      <trkpt lat="43.51079" lon="6.91778">
        <ele>169.80000305176</ele>
        <time>2013-12-23T13:41:05.000Z</time>
      </trkpt>
      <trkpt lat="43.51092" lon="6.91769">
        <ele>168.19999694824</ele>
        <time>2013-12-23T13:41:09.000Z</time>
      </trkpt>
      <trkpt lat="43.51102" lon="6.91763">
        <ele>167.19999694824</ele>
        <time>2013-12-23T13:41:11.000Z</time>
      </trkpt>
      <trkpt lat="43.51112" lon="6.91758">
        <ele>166.39999389648</ele>
        <time>2013-12-23T13:41:13.000Z</time>
      </trkpt>
      <trkpt lat="43.51118" lon="6.91755">
        <ele>166.19999694824</ele>
        <time>2013-12-23T13:41:14.000Z</time>
      </trkpt>
      <trkpt lat="43.51133" lon="6.91744">
        <ele>164</ele>
        <time>2013-12-23T13:41:17.000Z</time>
      </trkpt>
      <trkpt lat="43.51149" lon="6.91734">
        <ele>160.80000305176</ele>
        <time>2013-12-23T13:41:20.000Z</time>
      </trkpt>
      <trkpt lat="43.5116" lon="6.91732">
        <ele>159.60000610352</ele>
        <time>2013-12-23T13:41:22.000Z</time>
      </trkpt>
      <trkpt lat="43.5117" lon="6.91729">
        <ele>158.19999694824</ele>
        <time>2013-12-23T13:41:24.000Z</time>
      </trkpt>
      <trkpt lat="43.51174" lon="6.91727">
        <ele>157.19999694824</ele>
        <time>2013-12-23T13:41:25.000Z</time>
      </trkpt>
      <trkpt lat="43.51177" lon="6.91722">
        <ele>155.80000305176</ele>
        <time>2013-12-23T13:41:27.000Z</time>
      </trkpt>
      <trkpt lat="43.51177" lon="6.91707">
        <ele>153.60000610352</ele>
        <time>2013-12-23T13:41:31.000Z</time>
      </trkpt>
      <trkpt lat="43.51171" lon="6.91698">
        <ele>153.19999694824</ele>
        <time>2013-12-23T13:41:34.000Z</time>
      </trkpt>
      <trkpt lat="43.51169" lon="6.91696">
        <ele>153.19999694824</ele>
        <time>2013-12-23T13:41:35.000Z</time>
      </trkpt>
      <trkpt lat="43.51155" lon="6.91693">
        <ele>153</ele>
        <time>2013-12-23T13:41:39.000Z</time>
      </trkpt>
      <trkpt lat="43.51143" lon="6.91692">
        <ele>152.60000610352</ele>
        <time>2013-12-23T13:41:43.000Z</time>
      </trkpt>
      <trkpt lat="43.51133" lon="6.91691">
        <ele>152.19999694824</ele>
        <time>2013-12-23T13:41:47.000Z</time>
      </trkpt>
      <trkpt lat="43.51125" lon="6.9169">
        <ele>152</ele>
        <time>2013-12-23T13:41:51.000Z</time>
      </trkpt>
      <trkpt lat="43.51126" lon="6.91686">
        <ele>151</ele>
        <time>2013-12-23T13:41:57.000Z</time>
      </trkpt>
      <trkpt lat="43.51119" lon="6.91683">
        <ele>150.19999694824</ele>
        <time>2013-12-23T13:42:34.000Z</time>
      </trkpt>
      <trkpt lat="43.51118" lon="6.9168">
        <ele>149.39999389648</ele>
        <time>2013-12-23T13:42:38.000Z</time>
      </trkpt>
      <trkpt lat="43.51119" lon="6.91677">
        <ele>148.60000610352</ele>
        <time>2013-12-23T13:42:42.000Z</time>
      </trkpt>
      <trkpt lat="43.51118" lon="6.91674">
        <ele>148</ele>
        <time>2013-12-23T13:42:46.000Z</time>
      </trkpt>
      <trkpt lat="43.5111" lon="6.91675">
        <ele>147.80000305176</ele>
        <time>2013-12-23T13:42:51.000Z</time>
      </trkpt>
      <trkpt lat="43.51101" lon="6.91677">
        <ele>148</ele>
        <time>2013-12-23T13:42:55.000Z</time>
      </trkpt>
      <trkpt lat="43.51086" lon="6.91681">
        <ele>148.80000305176</ele>
        <time>2013-12-23T13:43:01.000Z</time>
      </trkpt>
      <trkpt lat="43.51085" lon="6.91682">
        <ele>148.80000305176</ele>
        <time>2013-12-23T13:43:05.000Z</time>
      </trkpt>
      <trkpt lat="43.51075" lon="6.91683">
        <ele>149.19999694824</ele>
        <time>2013-12-23T13:44:45.000Z</time>
      </trkpt>
      <trkpt lat="43.51068" lon="6.91685">
        <ele>149.60000610352</ele>
        <time>2013-12-23T13:44:49.000Z</time>
      </trkpt>
      <trkpt lat="43.51067" lon="6.91684">
        <ele>149.39999389648</ele>
        <time>2013-12-23T13:44:50.000Z</time>
      </trkpt>
      <trkpt lat="43.51065" lon="6.91686">
        <ele>150</ele>
        <time>2013-12-23T13:44:54.000Z</time>
      </trkpt>
      <trkpt lat="43.51064" lon="6.91686">
        <ele>150</ele>
        <time>2013-12-23T13:44:55.000Z</time>
      </trkpt>
      <trkpt lat="43.5106" lon="6.91685">
        <ele>149.60000610352</ele>
        <time>2013-12-23T13:44:58.000Z</time>
      </trkpt>
      <trkpt lat="43.51059" lon="6.91685">
        <ele>149.80000305176</ele>
        <time>2013-12-23T13:44:59.000Z</time>
      </trkpt>
      <trkpt lat="43.51055" lon="6.91686">
        <ele>150.19999694824</ele>
        <time>2013-12-23T13:45:03.000Z</time>
      </trkpt>
      <trkpt lat="43.5105" lon="6.91687">
        <ele>150.39999389648</ele>
        <time>2013-12-23T13:45:07.000Z</time>
      </trkpt>
      <trkpt lat="43.5105" lon="6.91688">
        <ele>150.60000610352</ele>
        <time>2013-12-23T13:45:08.000Z</time>
      </trkpt>
      <trkpt lat="43.51052" lon="6.91691">
        <ele>151.60000610352</ele>
        <time>2013-12-23T13:45:13.000Z</time>
      </trkpt>
      <trkpt lat="43.51057" lon="6.91691">
        <ele>151.80000305176</ele>
        <time>2013-12-23T13:45:20.000Z</time>
      </trkpt>
      <trkpt lat="43.51056" lon="6.91689">
        <ele>151.19999694824</ele>
        <time>2013-12-23T13:45:25.000Z</time>
      </trkpt>
      <trkpt lat="43.51057" lon="6.91691">
        <ele>151.60000610352</ele>
        <time>2013-12-23T13:45:29.000Z</time>
      </trkpt>
      <trkpt lat="43.51059" lon="6.91689">
        <ele>151</ele>
        <time>2013-12-23T13:45:34.000Z</time>
      </trkpt>
      <trkpt lat="43.51061" lon="6.91689">
        <ele>151</ele>
        <time>2013-12-23T13:45:39.000Z</time>
      </trkpt>
      <trkpt lat="43.51066" lon="6.91688">
        <ele>150.60000610352</ele>
        <time>2013-12-23T13:45:46.000Z</time>
      </trkpt>
      <trkpt lat="43.51067" lon="6.91689">
        <ele>151</ele>
        <time>2013-12-23T13:45:47.000Z</time>
      </trkpt>
      <trkpt lat="43.51066" lon="6.91689">
        <ele>151.19999694824</ele>
        <time>2013-12-23T13:45:49.000Z</time>
      </trkpt>
      <trkpt lat="43.51059" lon="6.91686">
        <ele>150.19999694824</ele>
        <time>2013-12-23T13:45:53.000Z</time>
      </trkpt>
      <trkpt lat="43.51055" lon="6.9168">
        <ele>148.19999694824</ele>
        <time>2013-12-23T13:45:56.000Z</time>
      </trkpt>
      <trkpt lat="43.51054" lon="6.9168">
        <ele>148</ele>
        <time>2013-12-23T13:45:57.000Z</time>
      </trkpt>
      <trkpt lat="43.51054" lon="6.91681">
        <ele>148.39999389648</ele>
        <time>2013-12-23T13:46:01.000Z</time>
      </trkpt>
      <trkpt lat="43.51062" lon="6.91681">
        <ele>148.39999389648</ele>
        <time>2013-12-23T13:46:05.000Z</time>
      </trkpt>
      <trkpt lat="43.51065" lon="6.91681">
        <ele>148.19999694824</ele>
        <time>2013-12-23T13:46:06.000Z</time>
      </trkpt>
      <trkpt lat="43.51076" lon="6.91681">
        <ele>148.60000610352</ele>
        <time>2013-12-23T13:46:10.000Z</time>
      </trkpt>
      <trkpt lat="43.51076" lon="6.91684">
        <ele>149.60000610352</ele>
        <time>2013-12-23T13:46:11.000Z</time>
      </trkpt>
      <trkpt lat="43.51073" lon="6.91687">
        <ele>150.19999694824</ele>
        <time>2013-12-23T13:46:14.000Z</time>
      </trkpt>
      <trkpt lat="43.51064" lon="6.91685">
        <ele>149.60000610352</ele>
        <time>2013-12-23T13:46:20.000Z</time>
      </trkpt>
      <trkpt lat="43.51062" lon="6.91685">
        <ele>149.60000610352</ele>
        <time>2013-12-23T13:46:21.000Z</time>
      </trkpt>
      <trkpt lat="43.51054" lon="6.91686">
        <ele>150.19999694824</ele>
        <time>2013-12-23T13:46:26.000Z</time>
      </trkpt>
      <trkpt lat="43.51053" lon="6.91685">
        <ele>149.60000610352</ele>
        <time>2013-12-23T13:46:27.000Z</time>
      </trkpt>
      <trkpt lat="43.51052" lon="6.91678">
        <ele>147.39999389648</ele>
        <time>2013-12-23T13:46:31.000Z</time>
      </trkpt>
      <trkpt lat="43.51051" lon="6.91678">
        <ele>147.19999694824</ele>
        <time>2013-12-23T13:46:32.000Z</time>
      </trkpt>
      <trkpt lat="43.51047" lon="6.91678">
        <ele>147.19999694824</ele>
        <time>2013-12-23T13:46:35.000Z</time>
      </trkpt>
      <trkpt lat="43.5105" lon="6.91679">
        <ele>148</ele>
        <time>2013-12-23T13:46:38.000Z</time>
      </trkpt>
      <trkpt lat="43.51052" lon="6.91679">
        <ele>147.60000610352</ele>
        <time>2013-12-23T13:46:39.000Z</time>
      </trkpt>
      <trkpt lat="43.51064" lon="6.91679">
        <ele>147.60000610352</ele>
        <time>2013-12-23T13:46:43.000Z</time>
      </trkpt>
      <trkpt lat="43.51075" lon="6.91682">
        <ele>148.80000305176</ele>
        <time>2013-12-23T13:46:47.000Z</time>
      </trkpt>
      <trkpt lat="43.51076" lon="6.91684">
        <ele>149.60000610352</ele>
        <time>2013-12-23T13:46:48.000Z</time>
      </trkpt>
      <trkpt lat="43.5107" lon="6.91686">
        <ele>150</ele>
        <time>2013-12-23T13:46:51.000Z</time>
      </trkpt>
      <trkpt lat="43.51068" lon="6.91685">
        <ele>149.80000305176</ele>
        <time>2013-12-23T13:46:52.000Z</time>
      </trkpt>
      <trkpt lat="43.51058" lon="6.91685">
        <ele>149.80000305176</ele>
        <time>2013-12-23T13:46:58.000Z</time>
      </trkpt>
      <trkpt lat="43.51057" lon="6.91684">
        <ele>149.60000610352</ele>
        <time>2013-12-23T13:47:04.000Z</time>
      </trkpt>
      <trkpt lat="43.51054" lon="6.91682">
        <ele>148.80000305176</ele>
        <time>2013-12-23T13:47:15.000Z</time>
      </trkpt>
      <trkpt lat="43.51042" lon="6.91683">
        <ele>149.19999694824</ele>
        <time>2013-12-23T13:47:21.000Z</time>
      </trkpt>
      <trkpt lat="43.51025" lon="6.91685">
        <ele>149.80000305176</ele>
        <time>2013-12-23T13:47:28.000Z</time>
      </trkpt>
      <trkpt lat="43.51004" lon="6.91688">
        <ele>151</ele>
        <time>2013-12-23T13:47:35.000Z</time>
      </trkpt>
      <trkpt lat="43.50982" lon="6.91694">
        <ele>150.19999694824</ele>
        <time>2013-12-23T13:47:42.000Z</time>
      </trkpt>
      <trkpt lat="43.50962" lon="6.91701">
        <ele>149</ele>
        <time>2013-12-23T13:47:49.000Z</time>
      </trkpt>
      <trkpt lat="43.50947" lon="6.91711">
        <ele>149.39999389648</ele>
        <time>2013-12-23T13:47:55.000Z</time>
      </trkpt>
      <trkpt lat="43.50932" lon="6.91722">
        <ele>150</ele>
        <time>2013-12-23T13:48:01.000Z</time>
      </trkpt>
      <trkpt lat="43.50932" lon="6.91723">
        <ele>150</ele>
        <time>2013-12-23T13:48:04.000Z</time>
      </trkpt>
      <trkpt lat="43.50926" lon="6.91728">
        <ele>150</ele>
        <time>2013-12-23T13:48:25.000Z</time>
      </trkpt>
      <trkpt lat="43.50923" lon="6.91746">
        <ele>154.39999389648</ele>
        <time>2013-12-23T13:48:29.000Z</time>
      </trkpt>
      <trkpt lat="43.50927" lon="6.9178">
        <ele>160.39999389648</ele>
        <time>2013-12-23T13:48:34.000Z</time>
      </trkpt>
      <trkpt lat="43.50928" lon="6.9181">
        <ele>164.60000610352</ele>
        <time>2013-12-23T13:48:39.000Z</time>
      </trkpt>
      <trkpt lat="43.50928" lon="6.91818">
        <ele>165.60000610352</ele>
        <time>2013-12-23T13:48:42.000Z</time>
      </trkpt>
      <trkpt lat="43.50928" lon="6.91824">
        <ele>166.19999694824</ele>
        <time>2013-12-23T13:48:44.000Z</time>
      </trkpt>
      <trkpt lat="43.50924" lon="6.91844">
        <ele>167.60000610352</ele>
        <time>2013-12-23T13:48:52.000Z</time>
      </trkpt>
      <trkpt lat="43.50918" lon="6.91866">
        <ele>167.80000305176</ele>
        <time>2013-12-23T13:49:01.000Z</time>
      </trkpt>
      <trkpt lat="43.50911" lon="6.91891">
        <ele>167.39999389648</ele>
        <time>2013-12-23T13:49:11.000Z</time>
      </trkpt>
      <trkpt lat="43.50908" lon="6.91916">
        <ele>168.60000610352</ele>
        <time>2013-12-23T13:49:21.000Z</time>
      </trkpt>
      <trkpt lat="43.50907" lon="6.91934">
        <ele>170.39999389648</ele>
        <time>2013-12-23T13:49:28.000Z</time>
      </trkpt>
      <trkpt lat="43.50908" lon="6.91958">
        <ele>173.80000305176</ele>
        <time>2013-12-23T13:49:37.000Z</time>
      </trkpt>
      <trkpt lat="43.50908" lon="6.91978">
        <ele>175.80000305176</ele>
        <time>2013-12-23T13:49:45.000Z</time>
      </trkpt>
      <trkpt lat="43.50906" lon="6.92">
        <ele>177.60000610352</ele>
        <time>2013-12-23T13:49:53.000Z</time>
      </trkpt>
      <trkpt lat="43.50902" lon="6.92018">
        <ele>180.60000610352</ele>
        <time>2013-12-23T13:49:59.000Z</time>
      </trkpt>
      <trkpt lat="43.50897" lon="6.92038">
        <ele>183.39999389648</ele>
        <time>2013-12-23T13:50:06.000Z</time>
      </trkpt>
      <trkpt lat="43.50886" lon="6.92058">
        <ele>184.80000305176</ele>
        <time>2013-12-23T13:50:15.000Z</time>
      </trkpt>
      <trkpt lat="43.50876" lon="6.92076">
        <ele>186.19999694824</ele>
        <time>2013-12-23T13:50:24.000Z</time>
      </trkpt>
      <trkpt lat="43.50864" lon="6.92087">
        <ele>185.19999694824</ele>
        <time>2013-12-23T13:50:32.000Z</time>
      </trkpt>
      <trkpt lat="43.50853" lon="6.92094">
        <ele>183.60000610352</ele>
        <time>2013-12-23T13:50:39.000Z</time>
      </trkpt>
      <trkpt lat="43.50843" lon="6.92109">
        <ele>183.60000610352</ele>
        <time>2013-12-23T13:50:47.000Z</time>
      </trkpt>
      <trkpt lat="43.50834" lon="6.92124">
        <ele>184</ele>
        <time>2013-12-23T13:50:55.000Z</time>
      </trkpt>
      <trkpt lat="43.50825" lon="6.92139">
        <ele>186</ele>
        <time>2013-12-23T13:51:03.000Z</time>
      </trkpt>
      <trkpt lat="43.50817" lon="6.92151">
        <ele>187.80000305176</ele>
        <time>2013-12-23T13:51:09.000Z</time>
      </trkpt>
      <trkpt lat="43.50809" lon="6.92162">
        <ele>189.39999389648</ele>
        <time>2013-12-23T13:51:16.000Z</time>
      </trkpt>
      <trkpt lat="43.50799" lon="6.92171">
        <ele>189.80000305176</ele>
        <time>2013-12-23T13:51:24.000Z</time>
      </trkpt>
      <trkpt lat="43.50795" lon="6.92174">
        <ele>189.60000610352</ele>
        <time>2013-12-23T13:51:28.000Z</time>
      </trkpt>
      <trkpt lat="43.50793" lon="6.92175">
        <ele>189.60000610352</ele>
        <time>2013-12-23T13:51:29.000Z</time>
      </trkpt>
      <trkpt lat="43.50787" lon="6.92177">
        <ele>189.19999694824</ele>
        <time>2013-12-23T13:51:32.000Z</time>
      </trkpt>
      <trkpt lat="43.50784" lon="6.92179">
        <ele>189</ele>
        <time>2013-12-23T13:51:34.000Z</time>
      </trkpt>
      <trkpt lat="43.50773" lon="6.92184">
        <ele>188.60000610352</ele>
        <time>2013-12-23T13:51:42.000Z</time>
      </trkpt>
      <trkpt lat="43.5076" lon="6.92187">
        <ele>188</ele>
        <time>2013-12-23T13:51:50.000Z</time>
      </trkpt>
      <trkpt lat="43.50746" lon="6.92189">
        <ele>187.39999389648</ele>
        <time>2013-12-23T13:51:58.000Z</time>
      </trkpt>
      <trkpt lat="43.5073" lon="6.92194">
        <ele>187.60000610352</ele>
        <time>2013-12-23T13:52:05.000Z</time>
      </trkpt>
      <trkpt lat="43.50715" lon="6.92198">
        <ele>187.80000305176</ele>
        <time>2013-12-23T13:52:13.000Z</time>
      </trkpt>
      <trkpt lat="43.507" lon="6.92206">
        <ele>189.60000610352</ele>
        <time>2013-12-23T13:52:21.000Z</time>
      </trkpt>
      <trkpt lat="43.50686" lon="6.92213">
        <ele>191.39999389648</ele>
        <time>2013-12-23T13:52:28.000Z</time>
      </trkpt>
      <trkpt lat="43.50673" lon="6.92219">
        <ele>193.39999389648</ele>
        <time>2013-12-23T13:52:35.000Z</time>
      </trkpt>
      <trkpt lat="43.50658" lon="6.92225">
        <ele>194.39999389648</ele>
        <time>2013-12-23T13:52:42.000Z</time>
      </trkpt>
      <trkpt lat="43.50645" lon="6.9223">
        <ele>195</ele>
        <time>2013-12-23T13:52:49.000Z</time>
      </trkpt>
      <trkpt lat="43.5063" lon="6.92237">
        <ele>195.60000610352</ele>
        <time>2013-12-23T13:52:57.000Z</time>
      </trkpt>
      <trkpt lat="43.50616" lon="6.92242">
        <ele>195.60000610352</ele>
        <time>2013-12-23T13:53:04.000Z</time>
      </trkpt>
      <trkpt lat="43.506" lon="6.9225">
        <ele>196.80000305176</ele>
        <time>2013-12-23T13:53:12.000Z</time>
      </trkpt>
      <trkpt lat="43.5059" lon="6.92262">
        <ele>197.39999389648</ele>
        <time>2013-12-23T13:53:19.000Z</time>
      </trkpt>
      <trkpt lat="43.50581" lon="6.92284">
        <ele>199.39999389648</ele>
        <time>2013-12-23T13:53:28.000Z</time>
      </trkpt>
      <trkpt lat="43.50574" lon="6.92308">
        <ele>200</ele>
        <time>2013-12-23T13:53:36.000Z</time>
      </trkpt>
      <trkpt lat="43.50571" lon="6.92337">
        <ele>202.80000305176</ele>
        <time>2013-12-23T13:53:44.000Z</time>
      </trkpt>
      <trkpt lat="43.50566" lon="6.92364">
        <ele>202.60000610352</ele>
        <time>2013-12-23T13:53:50.000Z</time>
      </trkpt>
      <trkpt lat="43.50559" lon="6.92404">
        <ele>203</ele>
        <time>2013-12-23T13:53:58.000Z</time>
      </trkpt>
      <trkpt lat="43.50549" lon="6.92444">
        <ele>202.80000305176</ele>
        <time>2013-12-23T13:54:05.000Z</time>
      </trkpt>
      <trkpt lat="43.50528" lon="6.9248">
        <ele>200.60000610352</ele>
        <time>2013-12-23T13:54:11.000Z</time>
      </trkpt>
      <trkpt lat="43.50508" lon="6.92494">
        <ele>197.80000305176</ele>
        <time>2013-12-23T13:54:14.000Z</time>
      </trkpt>
      <trkpt lat="43.50484" lon="6.92496">
        <ele>193.80000305176</ele>
        <time>2013-12-23T13:54:17.000Z</time>
      </trkpt>
      <trkpt lat="43.50452" lon="6.92483">
        <ele>187.80000305176</ele>
        <time>2013-12-23T13:54:21.000Z</time>
      </trkpt>
      <trkpt lat="43.50433" lon="6.92465">
        <ele>185.60000610352</ele>
        <time>2013-12-23T13:54:24.000Z</time>
      </trkpt>
      <trkpt lat="43.50428" lon="6.9246">
        <ele>185.39999389648</ele>
        <time>2013-12-23T13:54:25.000Z</time>
      </trkpt>
      <trkpt lat="43.50409" lon="6.92438">
        <ele>186.19999694824</ele>
        <time>2013-12-23T13:54:30.000Z</time>
      </trkpt>
      <trkpt lat="43.50402" lon="6.9243">
        <ele>187.39999389648</ele>
        <time>2013-12-23T13:54:33.000Z</time>
      </trkpt>
      <trkpt lat="43.50399" lon="6.92426">
        <ele>188.39999389648</ele>
        <time>2013-12-23T13:54:35.000Z</time>
      </trkpt>
      <trkpt lat="43.50397" lon="6.92424">
        <ele>188.80000305176</ele>
        <time>2013-12-23T13:54:36.000Z</time>
      </trkpt>
      <trkpt lat="43.50388" lon="6.92413">
        <ele>190.39999389648</ele>
        <time>2013-12-23T13:54:41.000Z</time>
      </trkpt>
      <trkpt lat="43.50375" lon="6.92398">
        <ele>190.80000305176</ele>
        <time>2013-12-23T13:54:49.000Z</time>
      </trkpt>
      <trkpt lat="43.50366" lon="6.92386">
        <ele>192</ele>
        <time>2013-12-23T13:54:55.000Z</time>
      </trkpt>
      <trkpt lat="43.50355" lon="6.92371">
        <ele>194.19999694824</ele>
        <time>2013-12-23T13:55:02.000Z</time>
      </trkpt>
      <trkpt lat="43.50344" lon="6.92352">
        <ele>197.39999389648</ele>
        <time>2013-12-23T13:55:11.000Z</time>
      </trkpt>
      <trkpt lat="43.50336" lon="6.9234">
        <ele>200.60000610352</ele>
        <time>2013-12-23T13:55:17.000Z</time>
      </trkpt>
      <trkpt lat="43.50324" lon="6.92323">
        <ele>201</ele>
        <time>2013-12-23T13:55:26.000Z</time>
      </trkpt>
      <trkpt lat="43.50311" lon="6.9231">
        <ele>199.80000305176</ele>
        <time>2013-12-23T13:55:34.000Z</time>
      </trkpt>
      <trkpt lat="43.50298" lon="6.92303">
        <ele>200.19999694824</ele>
        <time>2013-12-23T13:55:42.000Z</time>
      </trkpt>
      <trkpt lat="43.50281" lon="6.923">
        <ele>201.80000305176</ele>
        <time>2013-12-23T13:55:51.000Z</time>
      </trkpt>
      <trkpt lat="43.50269" lon="6.92304">
        <ele>204.19999694824</ele>
        <time>2013-12-23T13:55:58.000Z</time>
      </trkpt>
      <trkpt lat="43.50255" lon="6.92314">
        <ele>208.80000305176</ele>
        <time>2013-12-23T13:56:06.000Z</time>
      </trkpt>
      <trkpt lat="43.50245" lon="6.92322">
        <ele>211.60000610352</ele>
        <time>2013-12-23T13:56:12.000Z</time>
      </trkpt>
      <trkpt lat="43.50229" lon="6.92333">
        <ele>215.60000610352</ele>
        <time>2013-12-23T13:56:21.000Z</time>
      </trkpt>
      <trkpt lat="43.50215" lon="6.92339">
        <ele>216.60000610352</ele>
        <time>2013-12-23T13:56:29.000Z</time>
      </trkpt>
      <trkpt lat="43.502" lon="6.92348">
        <ele>217.60000610352</ele>
        <time>2013-12-23T13:56:37.000Z</time>
      </trkpt>
      <trkpt lat="43.50184" lon="6.92357">
        <ele>219.19999694824</ele>
        <time>2013-12-23T13:56:46.000Z</time>
      </trkpt>
      <trkpt lat="43.5017" lon="6.92365">
        <ele>221.19999694824</ele>
        <time>2013-12-23T13:56:54.000Z</time>
      </trkpt>
      <trkpt lat="43.50157" lon="6.92373">
        <ele>224.39999389648</ele>
        <time>2013-12-23T13:57:02.000Z</time>
      </trkpt>
      <trkpt lat="43.50143" lon="6.9238">
        <ele>228.19999694824</ele>
        <time>2013-12-23T13:57:10.000Z</time>
      </trkpt>
      <trkpt lat="43.50132" lon="6.92378">
        <ele>230.80000305176</ele>
        <time>2013-12-23T13:57:16.000Z</time>
      </trkpt>
      <trkpt lat="43.50118" lon="6.9237">
        <ele>233.39999389648</ele>
        <time>2013-12-23T13:57:25.000Z</time>
      </trkpt>
      <trkpt lat="43.50107" lon="6.92364">
        <ele>235.39999389648</ele>
        <time>2013-12-23T13:57:32.000Z</time>
      </trkpt>
      <trkpt lat="43.50093" lon="6.92357">
        <ele>237.80000305176</ele>
        <time>2013-12-23T13:57:40.000Z</time>
      </trkpt>
      <trkpt lat="43.50081" lon="6.92352">
        <ele>239.80000305176</ele>
        <time>2013-12-23T13:57:47.000Z</time>
      </trkpt>
      <trkpt lat="43.50065" lon="6.92345">
        <ele>244.19999694824</ele>
        <time>2013-12-23T13:57:56.000Z</time>
      </trkpt>
      <trkpt lat="43.50051" lon="6.92339">
        <ele>248</ele>
        <time>2013-12-23T13:58:03.000Z</time>
      </trkpt>
      <trkpt lat="43.50041" lon="6.92329">
        <ele>249.80000305176</ele>
        <time>2013-12-23T13:58:09.000Z</time>
      </trkpt>
      <trkpt lat="43.50035" lon="6.9231">
        <ele>248.39999389648</ele>
        <time>2013-12-23T13:58:17.000Z</time>
      </trkpt>
      <trkpt lat="43.5003" lon="6.92297">
        <ele>247.80000305176</ele>
        <time>2013-12-23T13:58:23.000Z</time>
      </trkpt>
      <trkpt lat="43.50019" lon="6.9228">
        <ele>248.60000610352</ele>
        <time>2013-12-23T13:58:32.000Z</time>
      </trkpt>
      <trkpt lat="43.50004" lon="6.92262">
        <ele>250.80000305176</ele>
        <time>2013-12-23T13:58:41.000Z</time>
      </trkpt>
      <trkpt lat="43.49995" lon="6.92249">
        <ele>250.19999694824</ele>
        <time>2013-12-23T13:58:47.000Z</time>
      </trkpt>
      <trkpt lat="43.49981" lon="6.92226">
        <ele>247.60000610352</ele>
        <time>2013-12-23T13:58:57.000Z</time>
      </trkpt>
      <trkpt lat="43.49976" lon="6.92207">
        <ele>244.80000305176</ele>
        <time>2013-12-23T13:59:04.000Z</time>
      </trkpt>
      <trkpt lat="43.49972" lon="6.92192">
        <ele>242.80000305176</ele>
        <time>2013-12-23T13:59:11.000Z</time>
      </trkpt>
      <trkpt lat="43.49969" lon="6.92187">
        <ele>242</ele>
        <time>2013-12-23T13:59:15.000Z</time>
      </trkpt>
      <trkpt lat="43.49967" lon="6.92184">
        <ele>241.39999389648</ele>
        <time>2013-12-23T13:59:18.000Z</time>
      </trkpt>
      <trkpt lat="43.49968" lon="6.92178">
        <ele>240.60000610352</ele>
        <time>2013-12-23T13:59:25.000Z</time>
      </trkpt>
      <trkpt lat="43.49973" lon="6.92179">
        <ele>240.80000305176</ele>
        <time>2013-12-23T13:59:30.000Z</time>
      </trkpt>
      <trkpt lat="43.49971" lon="6.92175">
        <ele>240.19999694824</ele>
        <time>2013-12-23T13:59:35.000Z</time>
      </trkpt>
      <trkpt lat="43.4997" lon="6.9217">
        <ele>239.39999389648</ele>
        <time>2013-12-23T13:59:38.000Z</time>
      </trkpt>
      <trkpt lat="43.49969" lon="6.92168">
        <ele>239.19999694824</ele>
        <time>2013-12-23T13:59:39.000Z</time>
      </trkpt>
      <trkpt lat="43.49967" lon="6.92164">
        <ele>238.39999389648</ele>
        <time>2013-12-23T13:59:42.000Z</time>
      </trkpt>
      <trkpt lat="43.49965" lon="6.92165">
        <ele>238.39999389648</ele>
        <time>2013-12-23T13:59:44.000Z</time>
      </trkpt>
      <trkpt lat="43.49964" lon="6.92171">
        <ele>239.39999389648</ele>
        <time>2013-12-23T13:59:48.000Z</time>
      </trkpt>
      <trkpt lat="43.49964" lon="6.92172">
        <ele>239.60000610352</ele>
        <time>2013-12-23T13:59:49.000Z</time>
      </trkpt>
      <trkpt lat="43.49963" lon="6.9217">
        <ele>239.19999694824</ele>
        <time>2013-12-23T13:59:59.000Z</time>
      </trkpt>
      <trkpt lat="43.49962" lon="6.92175">
        <ele>240</ele>
        <time>2013-12-23T14:06:18.000Z</time>
      </trkpt>
      <trkpt lat="43.49953" lon="6.92179">
        <ele>240.39999389648</ele>
        <time>2013-12-23T14:06:23.000Z</time>
      </trkpt>
      <trkpt lat="43.49951" lon="6.92181">
        <ele>240.60000610352</ele>
        <time>2013-12-23T14:06:24.000Z</time>
      </trkpt>
      <trkpt lat="43.49936" lon="6.92192">
        <ele>242.39999389648</ele>
        <time>2013-12-23T14:06:29.000Z</time>
      </trkpt>
      <trkpt lat="43.49914" lon="6.92207">
        <ele>244.80000305176</ele>
        <time>2013-12-23T14:06:34.000Z</time>
      </trkpt>
      <trkpt lat="43.49892" lon="6.92221">
        <ele>243.39999389648</ele>
        <time>2013-12-23T14:06:39.000Z</time>
      </trkpt>
      <trkpt lat="43.49868" lon="6.92237">
        <ele>240.80000305176</ele>
        <time>2013-12-23T14:06:45.000Z</time>
      </trkpt>
      <trkpt lat="43.4986" lon="6.92232">
        <ele>238.60000610352</ele>
        <time>2013-12-23T14:06:48.000Z</time>
      </trkpt>
      <trkpt lat="43.49849" lon="6.92226">
        <ele>236</ele>
        <time>2013-12-23T14:06:51.000Z</time>
      </trkpt>
      <trkpt lat="43.49832" lon="6.92215">
        <ele>232</ele>
        <time>2013-12-23T14:06:55.000Z</time>
      </trkpt>
      <trkpt lat="43.49824" lon="6.92205">
        <ele>230.60000610352</ele>
        <time>2013-12-23T14:06:57.000Z</time>
      </trkpt>
      <trkpt lat="43.49819" lon="6.92201">
        <ele>229.80000305176</ele>
        <time>2013-12-23T14:06:59.000Z</time>
      </trkpt>
      <trkpt lat="43.49816" lon="6.92201">
        <ele>229.39999389648</ele>
        <time>2013-12-23T14:07:03.000Z</time>
      </trkpt>
      <trkpt lat="43.49819" lon="6.92205">
        <ele>229.80000305176</ele>
        <time>2013-12-23T14:07:12.000Z</time>
      </trkpt>
      <trkpt lat="43.49819" lon="6.92206">
        <ele>229.80000305176</ele>
        <time>2013-12-23T14:07:18.000Z</time>
      </trkpt>
      <trkpt lat="43.49819" lon="6.92205">
        <ele>229.80000305176</ele>
        <time>2013-12-23T14:07:27.000Z</time>
      </trkpt>
      <trkpt lat="43.49816" lon="6.92202">
        <ele>229.39999389648</ele>
        <time>2013-12-23T14:08:08.000Z</time>
      </trkpt>
      <trkpt lat="43.49813" lon="6.92194">
        <ele>229</ele>
        <time>2013-12-23T14:08:13.000Z</time>
      </trkpt>
      <trkpt lat="43.49804" lon="6.92178">
        <ele>228.60000610352</ele>
        <time>2013-12-23T14:08:19.000Z</time>
      </trkpt>
      <trkpt lat="43.49795" lon="6.92159">
        <ele>228</ele>
        <time>2013-12-23T14:08:25.000Z</time>
      </trkpt>
      <trkpt lat="43.49781" lon="6.92132">
        <ele>226.80000305176</ele>
        <time>2013-12-23T14:08:32.000Z</time>
      </trkpt>
      <trkpt lat="43.49773" lon="6.92105">
        <ele>226.39999389648</ele>
        <time>2013-12-23T14:08:39.000Z</time>
      </trkpt>
      <trkpt lat="43.49763" lon="6.9208">
        <ele>227.39999389648</ele>
        <time>2013-12-23T14:08:46.000Z</time>
      </trkpt>
      <trkpt lat="43.49755" lon="6.92046">
        <ele>229.39999389648</ele>
        <time>2013-12-23T14:08:55.000Z</time>
      </trkpt>
      <trkpt lat="43.49747" lon="6.92018">
        <ele>230.39999389648</ele>
        <time>2013-12-23T14:09:03.000Z</time>
      </trkpt>
      <trkpt lat="43.49742" lon="6.92003">
        <ele>229.80000305176</ele>
        <time>2013-12-23T14:09:08.000Z</time>
      </trkpt>
      <trkpt lat="43.4973" lon="6.91976">
        <ele>228</ele>
        <time>2013-12-23T14:09:14.000Z</time>
      </trkpt>
      <trkpt lat="43.49714" lon="6.9194">
        <ele>227.60000610352</ele>
        <time>2013-12-23T14:09:22.000Z</time>
      </trkpt>
      <trkpt lat="43.49699" lon="6.91907">
        <ele>228.80000305176</ele>
        <time>2013-12-23T14:09:30.000Z</time>
      </trkpt>
      <trkpt lat="43.49688" lon="6.91883">
        <ele>230.19999694824</ele>
        <time>2013-12-23T14:09:37.000Z</time>
      </trkpt>
      <trkpt lat="43.49678" lon="6.91854">
        <ele>233.60000610352</ele>
        <time>2013-12-23T14:09:44.000Z</time>
      </trkpt>
      <trkpt lat="43.49671" lon="6.91828">
        <ele>237.39999389648</ele>
        <time>2013-12-23T14:09:52.000Z</time>
      </trkpt>
      <trkpt lat="43.49661" lon="6.91802">
        <ele>239.19999694824</ele>
        <time>2013-12-23T14:09:59.000Z</time>
      </trkpt>
      <trkpt lat="43.49655" lon="6.91782">
        <ele>240.19999694824</ele>
        <time>2013-12-23T14:10:06.000Z</time>
      </trkpt>
      <trkpt lat="43.49654" lon="6.9178">
        <ele>240.39999389648</ele>
        <time>2013-12-23T14:10:11.000Z</time>
      </trkpt>
      <trkpt lat="43.49641" lon="6.91778">
        <ele>240.60000610352</ele>
        <time>2013-12-23T14:10:56.000Z</time>
      </trkpt>
      <trkpt lat="43.49638" lon="6.91777">
        <ele>240.60000610352</ele>
        <time>2013-12-23T14:10:57.000Z</time>
      </trkpt>
      <trkpt lat="43.49621" lon="6.91767">
        <ele>242</ele>
        <time>2013-12-23T14:11:00.000Z</time>
      </trkpt>
      <trkpt lat="43.49606" lon="6.91759">
        <ele>244</ele>
        <time>2013-12-23T14:11:04.000Z</time>
      </trkpt>
      <trkpt lat="43.49594" lon="6.91761">
        <ele>244</ele>
        <time>2013-12-23T14:11:08.000Z</time>
      </trkpt>
      <trkpt lat="43.49591" lon="6.91763">
        <ele>243.60000610352</ele>
        <time>2013-12-23T14:11:12.000Z</time>
      </trkpt>
      <trkpt lat="43.49584" lon="6.91771">
        <ele>242</ele>
        <time>2013-12-23T14:11:17.000Z</time>
      </trkpt>
      <trkpt lat="43.49576" lon="6.91779">
        <ele>241.19999694824</ele>
        <time>2013-12-23T14:11:22.000Z</time>
      </trkpt>
      <trkpt lat="43.49569" lon="6.91787">
        <ele>240.19999694824</ele>
        <time>2013-12-23T14:11:26.000Z</time>
      </trkpt>
      <trkpt lat="43.49566" lon="6.9179">
        <ele>239.80000305176</ele>
        <time>2013-12-23T14:11:28.000Z</time>
      </trkpt>
      <trkpt lat="43.49562" lon="6.91797">
        <ele>238.39999389648</ele>
        <time>2013-12-23T14:11:30.000Z</time>
      </trkpt>
      <trkpt lat="43.49551" lon="6.91823">
        <ele>232</ele>
        <time>2013-12-23T14:11:35.000Z</time>
      </trkpt>
      <trkpt lat="43.49542" lon="6.91834">
        <ele>229.39999389648</ele>
        <time>2013-12-23T14:11:40.000Z</time>
      </trkpt>
      <trkpt lat="43.49541" lon="6.91836">
        <ele>228.80000305176</ele>
        <time>2013-12-23T14:11:50.000Z</time>
      </trkpt>
      <trkpt lat="43.49535" lon="6.91849">
        <ele>225.39999389648</ele>
        <time>2013-12-23T14:11:56.000Z</time>
      </trkpt>
      <trkpt lat="43.49533" lon="6.91852">
        <ele>224.39999389648</ele>
        <time>2013-12-23T14:12:01.000Z</time>
      </trkpt>
      <trkpt lat="43.49533" lon="6.91855">
        <ele>223.60000610352</ele>
        <time>2013-12-23T14:12:05.000Z</time>
      </trkpt>
      <trkpt lat="43.49533" lon="6.91856">
        <ele>223.39999389648</ele>
        <time>2013-12-23T14:12:08.000Z</time>
      </trkpt>
      <trkpt lat="43.49532" lon="6.91858">
        <ele>223</ele>
        <time>2013-12-23T14:12:15.000Z</time>
      </trkpt>
      <trkpt lat="43.49528" lon="6.91863">
        <ele>221.60000610352</ele>
        <time>2013-12-23T14:12:22.000Z</time>
      </trkpt>
      <trkpt lat="43.49523" lon="6.9187">
        <ele>220</ele>
        <time>2013-12-23T14:12:28.000Z</time>
      </trkpt>
      <trkpt lat="43.49522" lon="6.9187">
        <ele>219.80000305176</ele>
        <time>2013-12-23T14:12:29.000Z</time>
      </trkpt>
      <trkpt lat="43.49519" lon="6.91874">
        <ele>218.80000305176</ele>
        <time>2013-12-23T14:12:36.000Z</time>
      </trkpt>
      <trkpt lat="43.49517" lon="6.91876">
        <ele>218.19999694824</ele>
        <time>2013-12-23T14:12:38.000Z</time>
      </trkpt>
      <trkpt lat="43.4951" lon="6.91884">
        <ele>216.39999389648</ele>
        <time>2013-12-23T14:12:43.000Z</time>
      </trkpt>
      <trkpt lat="43.495" lon="6.91893">
        <ele>214</ele>
        <time>2013-12-23T14:12:48.000Z</time>
      </trkpt>
      <trkpt lat="43.49492" lon="6.919">
        <ele>211.80000305176</ele>
        <time>2013-12-23T14:12:53.000Z</time>
      </trkpt>
      <trkpt lat="43.49484" lon="6.91912">
        <ele>208.39999389648</ele>
        <time>2013-12-23T14:12:57.000Z</time>
      </trkpt>
      <trkpt lat="43.49482" lon="6.91915">
        <ele>207.39999389648</ele>
        <time>2013-12-23T14:12:58.000Z</time>
      </trkpt>
      <trkpt lat="43.49472" lon="6.91928">
        <ele>204</ele>
        <time>2013-12-23T14:13:03.000Z</time>
      </trkpt>
      <trkpt lat="43.49467" lon="6.91938">
        <ele>201.80000305176</ele>
        <time>2013-12-23T14:13:08.000Z</time>
      </trkpt>
      <trkpt lat="43.49462" lon="6.91946">
        <ele>200</ele>
        <time>2013-12-23T14:13:11.000Z</time>
      </trkpt>
      <trkpt lat="43.49458" lon="6.91951">
        <ele>198.60000610352</ele>
        <time>2013-12-23T14:13:13.000Z</time>
      </trkpt>
      <trkpt lat="43.49447" lon="6.91968">
        <ele>194.39999389648</ele>
        <time>2013-12-23T14:13:20.000Z</time>
      </trkpt>
      <trkpt lat="43.49443" lon="6.91979">
        <ele>191.80000305176</ele>
        <time>2013-12-23T14:13:24.000Z</time>
      </trkpt>
      <trkpt lat="43.49435" lon="6.92003">
        <ele>186.60000610352</ele>
        <time>2013-12-23T14:13:27.000Z</time>
      </trkpt>
      <trkpt lat="43.49419" lon="6.9205">
        <ele>184.19999694824</ele>
        <time>2013-12-23T14:13:32.000Z</time>
      </trkpt>
      <trkpt lat="43.49423" lon="6.92072">
        <ele>183</ele>
        <time>2013-12-23T14:13:35.000Z</time>
      </trkpt>
      <trkpt lat="43.49425" lon="6.92079">
        <ele>182.60000610352</ele>
        <time>2013-12-23T14:13:36.000Z</time>
      </trkpt>
      <trkpt lat="43.4943" lon="6.92095">
        <ele>183</ele>
        <time>2013-12-23T14:13:39.000Z</time>
      </trkpt>
      <trkpt lat="43.49431" lon="6.921">
        <ele>183.19999694824</ele>
        <time>2013-12-23T14:13:40.000Z</time>
      </trkpt>
      <trkpt lat="43.49432" lon="6.92104">
        <ele>183.39999389648</ele>
        <time>2013-12-23T14:13:41.000Z</time>
      </trkpt>
      <trkpt lat="43.49436" lon="6.92114">
        <ele>183.80000305176</ele>
        <time>2013-12-23T14:13:44.000Z</time>
      </trkpt>
      <trkpt lat="43.4944" lon="6.92123">
        <ele>184</ele>
        <time>2013-12-23T14:13:48.000Z</time>
      </trkpt>
      <trkpt lat="43.49442" lon="6.92127">
        <ele>184</ele>
        <time>2013-12-23T14:13:49.000Z</time>
      </trkpt>
      <trkpt lat="43.49447" lon="6.92134">
        <ele>183.80000305176</ele>
        <time>2013-12-23T14:13:53.000Z</time>
      </trkpt>
      <trkpt lat="43.49451" lon="6.92143">
        <ele>183.60000610352</ele>
        <time>2013-12-23T14:13:58.000Z</time>
      </trkpt>
      <trkpt lat="43.49451" lon="6.92144">
        <ele>183.60000610352</ele>
        <time>2013-12-23T14:14:03.000Z</time>
      </trkpt>
      <trkpt lat="43.49452" lon="6.92158">
        <ele>184</ele>
        <time>2013-12-23T14:20:51.000Z</time>
      </trkpt>
      <trkpt lat="43.49456" lon="6.92182">
        <ele>185</ele>
        <time>2013-12-23T14:20:57.000Z</time>
      </trkpt>
      <trkpt lat="43.4946" lon="6.92214">
        <ele>186.60000610352</ele>
        <time>2013-12-23T14:21:02.000Z</time>
      </trkpt>
      <trkpt lat="43.4947" lon="6.92251">
        <ele>187.39999389648</ele>
        <time>2013-12-23T14:21:08.000Z</time>
      </trkpt>
      <trkpt lat="43.49486" lon="6.92271">
        <ele>182.39999389648</ele>
        <time>2013-12-23T14:21:12.000Z</time>
      </trkpt>
      <trkpt lat="43.49498" lon="6.92292">
        <ele>178.19999694824</ele>
        <time>2013-12-23T14:21:16.000Z</time>
      </trkpt>
      <trkpt lat="43.495" lon="6.923">
        <ele>177</ele>
        <time>2013-12-23T14:21:17.000Z</time>
      </trkpt>
      <trkpt lat="43.49505" lon="6.92313">
        <ele>174.39999389648</ele>
        <time>2013-12-23T14:21:19.000Z</time>
      </trkpt>
      <trkpt lat="43.49507" lon="6.92332">
        <ele>171.60000610352</ele>
        <time>2013-12-23T14:21:22.000Z</time>
      </trkpt>
      <trkpt lat="43.49512" lon="6.92351">
        <ele>168.60000610352</ele>
        <time>2013-12-23T14:21:25.000Z</time>
      </trkpt>
      <trkpt lat="43.49507" lon="6.92368">
        <ele>168</ele>
        <time>2013-12-23T14:21:29.000Z</time>
      </trkpt>
      <trkpt lat="43.49498" lon="6.92382">
        <ele>168.19999694824</ele>
        <time>2013-12-23T14:21:32.000Z</time>
      </trkpt>
      <trkpt lat="43.49499" lon="6.92405">
        <ele>166.19999694824</ele>
        <time>2013-12-23T14:21:35.000Z</time>
      </trkpt>
      <trkpt lat="43.49501" lon="6.92415">
        <ele>165</ele>
        <time>2013-12-23T14:21:36.000Z</time>
      </trkpt>
      <trkpt lat="43.495" lon="6.92425">
        <ele>164.19999694824</ele>
        <time>2013-12-23T14:21:37.000Z</time>
      </trkpt>
      <trkpt lat="43.49501" lon="6.92444">
        <ele>162.39999389648</ele>
        <time>2013-12-23T14:21:39.000Z</time>
      </trkpt>
      <trkpt lat="43.49504" lon="6.92459">
        <ele>160.39999389648</ele>
        <time>2013-12-23T14:21:41.000Z</time>
      </trkpt>
      <trkpt lat="43.49506" lon="6.92472">
        <ele>158.80000305176</ele>
        <time>2013-12-23T14:21:43.000Z</time>
      </trkpt>
      <trkpt lat="43.49503" lon="6.92482">
        <ele>158.80000305176</ele>
        <time>2013-12-23T14:21:45.000Z</time>
      </trkpt>
      <trkpt lat="43.49503" lon="6.9249">
        <ele>158</ele>
        <time>2013-12-23T14:21:46.000Z</time>
      </trkpt>
      <trkpt lat="43.49504" lon="6.92518">
        <ele>153.60000610352</ele>
        <time>2013-12-23T14:21:50.000Z</time>
      </trkpt>
      <trkpt lat="43.49501" lon="6.92532">
        <ele>151.80000305176</ele>
        <time>2013-12-23T14:21:54.000Z</time>
      </trkpt>
      <trkpt lat="43.49498" lon="6.9254">
        <ele>150.39999389648</ele>
        <time>2013-12-23T14:21:57.000Z</time>
      </trkpt>
      <trkpt lat="43.49498" lon="6.92546">
        <ele>149.39999389648</ele>
        <time>2013-12-23T14:21:59.000Z</time>
      </trkpt>
      <trkpt lat="43.49499" lon="6.92548">
        <ele>149.19999694824</ele>
        <time>2013-12-23T14:22:00.000Z</time>
      </trkpt>
      <trkpt lat="43.49499" lon="6.92556">
        <ele>147.80000305176</ele>
        <time>2013-12-23T14:22:03.000Z</time>
      </trkpt>
      <trkpt lat="43.49505" lon="6.92572">
        <ele>144</ele>
        <time>2013-12-23T14:22:08.000Z</time>
      </trkpt>
      <trkpt lat="43.49504" lon="6.92574">
        <ele>144</ele>
        <time>2013-12-23T14:22:10.000Z</time>
      </trkpt>
      <trkpt lat="43.49503" lon="6.92573">
        <ele>144.19999694824</ele>
        <time>2013-12-23T14:22:12.000Z</time>
      </trkpt>
      <trkpt lat="43.49499" lon="6.92577">
        <ele>143.80000305176</ele>
        <time>2013-12-23T14:22:17.000Z</time>
      </trkpt>
      <trkpt lat="43.495" lon="6.92589">
        <ele>142</ele>
        <time>2013-12-23T14:22:22.000Z</time>
      </trkpt>
      <trkpt lat="43.49501" lon="6.9259">
        <ele>141.60000610352</ele>
        <time>2013-12-23T14:22:23.000Z</time>
      </trkpt>
      <trkpt lat="43.49501" lon="6.92601">
        <ele>139.60000610352</ele>
        <time>2013-12-23T14:22:26.000Z</time>
      </trkpt>
      <trkpt lat="43.49502" lon="6.92603">
        <ele>139.19999694824</ele>
        <time>2013-12-23T14:22:27.000Z</time>
      </trkpt>
      <trkpt lat="43.49503" lon="6.92616">
        <ele>136.80000305176</ele>
        <time>2013-12-23T14:22:30.000Z</time>
      </trkpt>
      <trkpt lat="43.49503" lon="6.92641">
        <ele>132.19999694824</ele>
        <time>2013-12-23T14:22:34.000Z</time>
      </trkpt>
      <trkpt lat="43.49498" lon="6.9267">
        <ele>127.19999694824</ele>
        <time>2013-12-23T14:22:38.000Z</time>
      </trkpt>
      <trkpt lat="43.49496" lon="6.92688">
        <ele>125</ele>
        <time>2013-12-23T14:22:41.000Z</time>
      </trkpt>
      <trkpt lat="43.49495" lon="6.92701">
        <ele>123.59999847412</ele>
        <time>2013-12-23T14:22:43.000Z</time>
      </trkpt>
      <trkpt lat="43.49496" lon="6.92726">
        <ele>121.40000152588</ele>
        <time>2013-12-23T14:22:46.000Z</time>
      </trkpt>
      <trkpt lat="43.49491" lon="6.92756">
        <ele>118.80000305176</ele>
        <time>2013-12-23T14:22:49.000Z</time>
      </trkpt>
      <trkpt lat="43.49489" lon="6.92767">
        <ele>119</ele>
        <time>2013-12-23T14:22:50.000Z</time>
      </trkpt>
      <trkpt lat="43.49484" lon="6.92798">
        <ele>120.40000152588</ele>
        <time>2013-12-23T14:22:54.000Z</time>
      </trkpt>
      <trkpt lat="43.49482" lon="6.92804">
        <ele>120.59999847412</ele>
        <time>2013-12-23T14:22:56.000Z</time>
      </trkpt>
      <trkpt lat="43.49481" lon="6.92804">
        <ele>120.59999847412</ele>
        <time>2013-12-23T14:22:57.000Z</time>
      </trkpt>
      <trkpt lat="43.49482" lon="6.92804">
        <ele>120.59999847412</ele>
        <time>2013-12-23T14:23:02.000Z</time>
      </trkpt>
      <trkpt lat="43.49483" lon="6.92802">
        <ele>120.59999847412</ele>
        <time>2013-12-23T14:23:23.000Z</time>
      </trkpt>
      <trkpt lat="43.49482" lon="6.928">
        <ele>120.40000152588</ele>
        <time>2013-12-23T14:23:48.000Z</time>
      </trkpt>
      <trkpt lat="43.4948" lon="6.92812">
        <ele>121</ele>
        <time>2013-12-23T14:24:12.000Z</time>
      </trkpt>
      <trkpt lat="43.49469" lon="6.92825">
        <ele>121.59999847412</ele>
        <time>2013-12-23T14:24:19.000Z</time>
      </trkpt>
      <trkpt lat="43.49456" lon="6.92842">
        <ele>123.19999694824</ele>
        <time>2013-12-23T14:24:27.000Z</time>
      </trkpt>
      <trkpt lat="43.49443" lon="6.92841">
        <ele>122.80000305176</ele>
        <time>2013-12-23T14:24:32.000Z</time>
      </trkpt>
      <trkpt lat="43.49425" lon="6.92842">
        <ele>122.59999847412</ele>
        <time>2013-12-23T14:24:40.000Z</time>
      </trkpt>
      <trkpt lat="43.49411" lon="6.92855">
        <ele>122.59999847412</ele>
        <time>2013-12-23T14:24:47.000Z</time>
      </trkpt>
      <trkpt lat="43.49402" lon="6.92876">
        <ele>122.80000305176</ele>
        <time>2013-12-23T14:24:54.000Z</time>
      </trkpt>
      <trkpt lat="43.49405" lon="6.92898">
        <ele>127</ele>
        <time>2013-12-23T14:25:00.000Z</time>
      </trkpt>
      <trkpt lat="43.49411" lon="6.9292">
        <ele>132.39999389648</ele>
        <time>2013-12-23T14:25:07.000Z</time>
      </trkpt>
      <trkpt lat="43.49414" lon="6.92942">
        <ele>136.60000610352</ele>
        <time>2013-12-23T14:25:13.000Z</time>
      </trkpt>
      <trkpt lat="43.49409" lon="6.92958">
        <ele>137</ele>
        <time>2013-12-23T14:25:18.000Z</time>
      </trkpt>
      <trkpt lat="43.49405" lon="6.92981">
        <ele>138.60000610352</ele>
        <time>2013-12-23T14:25:26.000Z</time>
      </trkpt>
      <trkpt lat="43.49409" lon="6.93003">
        <ele>142.80000305176</ele>
        <time>2013-12-23T14:25:33.000Z</time>
      </trkpt>
      <trkpt lat="43.49408" lon="6.93027">
        <ele>146</ele>
        <time>2013-12-23T14:25:40.000Z</time>
      </trkpt>
      <trkpt lat="43.49403" lon="6.93046">
        <ele>147.39999389648</ele>
        <time>2013-12-23T14:25:46.000Z</time>
      </trkpt>
      <trkpt lat="43.49396" lon="6.93068">
        <ele>148.39999389648</ele>
        <time>2013-12-23T14:25:53.000Z</time>
      </trkpt>
      <trkpt lat="43.49386" lon="6.93088">
        <ele>148.39999389648</ele>
        <time>2013-12-23T14:26:00.000Z</time>
      </trkpt>
      <trkpt lat="43.49374" lon="6.93106">
        <ele>147.19999694824</ele>
        <time>2013-12-23T14:26:07.000Z</time>
      </trkpt>
      <trkpt lat="43.49367" lon="6.93119">
        <ele>147.19999694824</ele>
        <time>2013-12-23T14:26:12.000Z</time>
      </trkpt>
      <trkpt lat="43.49361" lon="6.93141">
        <ele>149</ele>
        <time>2013-12-23T14:26:20.000Z</time>
      </trkpt>
      <trkpt lat="43.4936" lon="6.93164">
        <ele>152.19999694824</ele>
        <time>2013-12-23T14:26:27.000Z</time>
      </trkpt>
      <trkpt lat="43.49366" lon="6.93184">
        <ele>155.39999389648</ele>
        <time>2013-12-23T14:26:34.000Z</time>
      </trkpt>
      <trkpt lat="43.49373" lon="6.93199">
        <ele>158</ele>
        <time>2013-12-23T14:26:41.000Z</time>
      </trkpt>
      <trkpt lat="43.49376" lon="6.93193">
        <ele>157.80000305176</ele>
        <time>2013-12-23T14:26:45.000Z</time>
      </trkpt>
      <trkpt lat="43.4937" lon="6.93182">
        <ele>156</ele>
        <time>2013-12-23T14:26:50.000Z</time>
      </trkpt>
      <trkpt lat="43.4937" lon="6.9318">
        <ele>155.60000610352</ele>
        <time>2013-12-23T14:26:51.000Z</time>
      </trkpt>
      <trkpt lat="43.49374" lon="6.93164">
        <ele>154.80000305176</ele>
        <time>2013-12-23T14:26:57.000Z</time>
      </trkpt>
      <trkpt lat="43.49386" lon="6.93145">
        <ele>155</ele>
        <time>2013-12-23T14:27:05.000Z</time>
      </trkpt>
      <trkpt lat="43.49396" lon="6.93132">
        <ele>156.19999694824</ele>
        <time>2013-12-23T14:27:12.000Z</time>
      </trkpt>
      <trkpt lat="43.49411" lon="6.93123">
        <ele>158.80000305176</ele>
        <time>2013-12-23T14:27:21.000Z</time>
      </trkpt>
      <trkpt lat="43.49422" lon="6.93117">
        <ele>159</ele>
        <time>2013-12-23T14:27:28.000Z</time>
      </trkpt>
      <trkpt lat="43.49433" lon="6.93115">
        <ele>157</ele>
        <time>2013-12-23T14:27:35.000Z</time>
      </trkpt>
      <trkpt lat="43.4944" lon="6.93124">
        <ele>156.19999694824</ele>
        <time>2013-12-23T14:27:40.000Z</time>
      </trkpt>
      <trkpt lat="43.4944" lon="6.93143">
        <ele>157.19999694824</ele>
        <time>2013-12-23T14:27:44.000Z</time>
      </trkpt>
      <trkpt lat="43.49435" lon="6.93178">
        <ele>159.39999389648</ele>
        <time>2013-12-23T14:27:51.000Z</time>
      </trkpt>
      <trkpt lat="43.49422" lon="6.932">
        <ele>162.60000610352</ele>
        <time>2013-12-23T14:27:56.000Z</time>
      </trkpt>
      <trkpt lat="43.49406" lon="6.93234">
        <ele>163.19999694824</ele>
        <time>2013-12-23T14:28:03.000Z</time>
      </trkpt>
      <trkpt lat="43.49402" lon="6.93258">
        <ele>163.80000305176</ele>
        <time>2013-12-23T14:28:09.000Z</time>
      </trkpt>
      <trkpt lat="43.49397" lon="6.93272">
        <ele>164</ele>
        <time>2013-12-23T14:28:15.000Z</time>
      </trkpt>
      <trkpt lat="43.49392" lon="6.93286">
        <ele>164.80000305176</ele>
        <time>2013-12-23T14:28:22.000Z</time>
      </trkpt>
      <trkpt lat="43.49385" lon="6.93294">
        <ele>165.39999389648</ele>
        <time>2013-12-23T14:28:27.000Z</time>
      </trkpt>
      <trkpt lat="43.49383" lon="6.93296">
        <ele>165.60000610352</ele>
        <time>2013-12-23T14:28:28.000Z</time>
      </trkpt>
      <trkpt lat="43.49378" lon="6.93302">
        <ele>166.39999389648</ele>
        <time>2013-12-23T14:28:33.000Z</time>
      </trkpt>
      <trkpt lat="43.49375" lon="6.93303">
        <ele>166.60000610352</ele>
        <time>2013-12-23T14:28:35.000Z</time>
      </trkpt>
      <trkpt lat="43.49369" lon="6.93306">
        <ele>167.19999694824</ele>
        <time>2013-12-23T14:28:41.000Z</time>
      </trkpt>
      <trkpt lat="43.49359" lon="6.93309">
        <ele>168.19999694824</ele>
        <time>2013-12-23T14:28:48.000Z</time>
      </trkpt>
      <trkpt lat="43.4935" lon="6.93316">
        <ele>169.80000305176</ele>
        <time>2013-12-23T14:28:54.000Z</time>
      </trkpt>
      <trkpt lat="43.49344" lon="6.93332">
        <ele>172.60000610352</ele>
        <time>2013-12-23T14:29:01.000Z</time>
      </trkpt>
      <trkpt lat="43.49345" lon="6.93346">
        <ele>173.60000610352</ele>
        <time>2013-12-23T14:29:07.000Z</time>
      </trkpt>
      <trkpt lat="43.49353" lon="6.93358">
        <ele>173.19999694824</ele>
        <time>2013-12-23T14:29:13.000Z</time>
      </trkpt>
      <trkpt lat="43.49357" lon="6.93373">
        <ele>173.39999389648</ele>
        <time>2013-12-23T14:29:20.000Z</time>
      </trkpt>
      <trkpt lat="43.49356" lon="6.93379">
        <ele>174</ele>
        <time>2013-12-23T14:29:25.000Z</time>
      </trkpt>
      <trkpt lat="43.49357" lon="6.9338">
        <ele>174</ele>
        <time>2013-12-23T14:29:26.000Z</time>
      </trkpt>
      <trkpt lat="43.49357" lon="6.93384">
        <ele>174.19999694824</ele>
        <time>2013-12-23T14:29:30.000Z</time>
      </trkpt>
      <trkpt lat="43.49357" lon="6.93384">
        <ele>174.19999694824</ele>
        <time>2013-12-23T14:29:32.000Z</time>
      </trkpt>
      <trkpt lat="43.49356" lon="6.93391">
        <ele>174.60000610352</ele>
        <time>2013-12-23T14:31:24.000Z</time>
      </trkpt>
      <trkpt lat="43.49352" lon="6.93412">
        <ele>176.60000610352</ele>
        <time>2013-12-23T14:31:29.000Z</time>
      </trkpt>
      <trkpt lat="43.49348" lon="6.9345">
        <ele>176.80000305176</ele>
        <time>2013-12-23T14:31:36.000Z</time>
      </trkpt>
      <trkpt lat="43.49341" lon="6.93477">
        <ele>177.39999389648</ele>
        <time>2013-12-23T14:31:42.000Z</time>
      </trkpt>
      <trkpt lat="43.49341" lon="6.93503">
        <ele>176.60000610352</ele>
        <time>2013-12-23T14:31:45.000Z</time>
      </trkpt>
      <trkpt lat="43.49351" lon="6.93546">
        <ele>172</ele>
        <time>2013-12-23T14:31:49.000Z</time>
      </trkpt>
      <trkpt lat="43.49352" lon="6.9356">
        <ele>170.80000305176</ele>
        <time>2013-12-23T14:31:50.000Z</time>
      </trkpt>
      <trkpt lat="43.49351" lon="6.93587">
        <ele>169.60000610352</ele>
        <time>2013-12-23T14:31:52.000Z</time>
      </trkpt>
      <trkpt lat="43.49342" lon="6.9362">
        <ele>172.60000610352</ele>
        <time>2013-12-23T14:31:55.000Z</time>
      </trkpt>
      <trkpt lat="43.4933" lon="6.93652">
        <ele>175</ele>
        <time>2013-12-23T14:31:59.000Z</time>
      </trkpt>
      <trkpt lat="43.49327" lon="6.93664">
        <ele>174.60000610352</ele>
        <time>2013-12-23T14:32:02.000Z</time>
      </trkpt>
      <trkpt lat="43.49326" lon="6.93667">
        <ele>174.60000610352</ele>
        <time>2013-12-23T14:32:03.000Z</time>
      </trkpt>
      <trkpt lat="43.49326" lon="6.93679">
        <ele>174.39999389648</ele>
        <time>2013-12-23T14:32:07.000Z</time>
      </trkpt>
      <trkpt lat="43.49326" lon="6.93688">
        <ele>174.39999389648</ele>
        <time>2013-12-23T14:32:10.000Z</time>
      </trkpt>
      <trkpt lat="43.49322" lon="6.9371">
        <ele>173.80000305176</ele>
        <time>2013-12-23T14:32:17.000Z</time>
      </trkpt>
      <trkpt lat="43.49319" lon="6.93729">
        <ele>173.19999694824</ele>
        <time>2013-12-23T14:32:23.000Z</time>
      </trkpt>
      <trkpt lat="43.49319" lon="6.93754">
        <ele>173.39999389648</ele>
        <time>2013-12-23T14:32:30.000Z</time>
      </trkpt>
      <trkpt lat="43.49318" lon="6.93789">
        <ele>174</ele>
        <time>2013-12-23T14:32:38.000Z</time>
      </trkpt>
      <trkpt lat="43.49312" lon="6.93839">
        <ele>174.19999694824</ele>
        <time>2013-12-23T14:32:48.000Z</time>
      </trkpt>
      <trkpt lat="43.49316" lon="6.93872">
        <ele>174.80000305176</ele>
        <time>2013-12-23T14:32:55.000Z</time>
      </trkpt>
      <trkpt lat="43.49323" lon="6.93905">
        <ele>175.60000610352</ele>
        <time>2013-12-23T14:33:03.000Z</time>
      </trkpt>
      <trkpt lat="43.49331" lon="6.93949">
        <ele>175.60000610352</ele>
        <time>2013-12-23T14:33:11.000Z</time>
      </trkpt>
      <trkpt lat="43.49337" lon="6.93987">
        <ele>173.19999694824</ele>
        <time>2013-12-23T14:33:16.000Z</time>
      </trkpt>
      <trkpt lat="43.49344" lon="6.94044">
        <ele>169.19999694824</ele>
        <time>2013-12-23T14:33:22.000Z</time>
      </trkpt>
      <trkpt lat="43.49346" lon="6.94103">
        <ele>167.19999694824</ele>
        <time>2013-12-23T14:33:28.000Z</time>
      </trkpt>
      <trkpt lat="43.49352" lon="6.94142">
        <ele>165</ele>
        <time>2013-12-23T14:33:32.000Z</time>
      </trkpt>
      <trkpt lat="43.49354" lon="6.94196">
        <ele>161.80000305176</ele>
        <time>2013-12-23T14:33:37.000Z</time>
      </trkpt>
      <trkpt lat="43.49356" lon="6.94242">
        <ele>158.19999694824</ele>
        <time>2013-12-23T14:33:42.000Z</time>
      </trkpt>
      <trkpt lat="43.49367" lon="6.94252">
        <ele>156.80000305176</ele>
        <time>2013-12-23T14:33:45.000Z</time>
      </trkpt>
      <trkpt lat="43.49388" lon="6.94251">
        <ele>156.39999389648</ele>
        <time>2013-12-23T14:33:48.000Z</time>
      </trkpt>
      <trkpt lat="43.49434" lon="6.94252">
        <ele>155.80000305176</ele>
        <time>2013-12-23T14:33:55.000Z</time>
      </trkpt>
      <trkpt lat="43.49445" lon="6.94251">
        <ele>156.19999694824</ele>
        <time>2013-12-23T14:33:58.000Z</time>
      </trkpt>
      <trkpt lat="43.49449" lon="6.9425">
        <ele>156.39999389648</ele>
        <time>2013-12-23T14:33:59.000Z</time>
      </trkpt>
      <trkpt lat="43.49454" lon="6.94249">
        <ele>156.39999389648</ele>
        <time>2013-12-23T14:34:01.000Z</time>
      </trkpt>
      <trkpt lat="43.49465" lon="6.94249">
        <ele>156.39999389648</ele>
        <time>2013-12-23T14:34:05.000Z</time>
      </trkpt>
      <trkpt lat="43.49485" lon="6.94249">
        <ele>156.60000610352</ele>
        <time>2013-12-23T14:34:11.000Z</time>
      </trkpt>
      <trkpt lat="43.49504" lon="6.94248">
        <ele>157</ele>
        <time>2013-12-23T14:34:17.000Z</time>
      </trkpt>
      <trkpt lat="43.49527" lon="6.94241">
        <ele>157</ele>
        <time>2013-12-23T14:34:24.000Z</time>
      </trkpt>
      <trkpt lat="43.49542" lon="6.94244">
        <ele>158.19999694824</ele>
        <time>2013-12-23T14:34:30.000Z</time>
      </trkpt>
      <trkpt lat="43.49544" lon="6.9425">
        <ele>159</ele>
        <time>2013-12-23T14:34:32.000Z</time>
      </trkpt>
      <trkpt lat="43.49546" lon="6.94256">
        <ele>158.60000610352</ele>
        <time>2013-12-23T14:34:34.000Z</time>
      </trkpt>
      <trkpt lat="43.49553" lon="6.94266">
        <ele>158.19999694824</ele>
        <time>2013-12-23T14:34:40.000Z</time>
      </trkpt>
      <trkpt lat="43.49563" lon="6.94263">
        <ele>159</ele>
        <time>2013-12-23T14:34:46.000Z</time>
      </trkpt>
      <trkpt lat="43.49565" lon="6.94261">
        <ele>159.19999694824</ele>
        <time>2013-12-23T14:34:47.000Z</time>
      </trkpt>
      <trkpt lat="43.49573" lon="6.94252">
        <ele>160.39999389648</ele>
        <time>2013-12-23T14:34:51.000Z</time>
      </trkpt>
      <trkpt lat="43.49575" lon="6.9425">
        <ele>160.60000610352</ele>
        <time>2013-12-23T14:34:52.000Z</time>
      </trkpt>
      <trkpt lat="43.49587" lon="6.94242">
        <ele>160.60000610352</ele>
        <time>2013-12-23T14:34:59.000Z</time>
      </trkpt>
      <trkpt lat="43.49599" lon="6.94239">
        <ele>162.39999389648</ele>
        <time>2013-12-23T14:35:06.000Z</time>
      </trkpt>
      <trkpt lat="43.49615" lon="6.9423">
        <ele>164.19999694824</ele>
        <time>2013-12-23T14:35:14.000Z</time>
      </trkpt>
      <trkpt lat="43.49629" lon="6.94219">
        <ele>165.60000610352</ele>
        <time>2013-12-23T14:35:21.000Z</time>
      </trkpt>
      <trkpt lat="43.49644" lon="6.94207">
        <ele>167.19999694824</ele>
        <time>2013-12-23T14:35:29.000Z</time>
      </trkpt>
      <trkpt lat="43.49659" lon="6.94194">
        <ele>169</ele>
        <time>2013-12-23T14:35:38.000Z</time>
      </trkpt>
      <trkpt lat="43.4968" lon="6.94177">
        <ele>171.19999694824</ele>
        <time>2013-12-23T14:35:47.000Z</time>
      </trkpt>
      <trkpt lat="43.49699" lon="6.94163">
        <ele>172.19999694824</ele>
        <time>2013-12-23T14:35:56.000Z</time>
      </trkpt>
      <trkpt lat="43.49717" lon="6.94161">
        <ele>174.60000610352</ele>
        <time>2013-12-23T14:36:04.000Z</time>
      </trkpt>
      <trkpt lat="43.49732" lon="6.94162">
        <ele>177</ele>
        <time>2013-12-23T14:36:12.000Z</time>
      </trkpt>
      <trkpt lat="43.49739" lon="6.94163">
        <ele>178.19999694824</ele>
        <time>2013-12-23T14:36:19.000Z</time>
      </trkpt>
      <trkpt lat="43.49747" lon="6.94164">
        <ele>180</ele>
        <time>2013-12-23T14:36:36.000Z</time>
      </trkpt>
      <trkpt lat="43.49751" lon="6.94165">
        <ele>180.60000610352</ele>
        <time>2013-12-23T14:36:39.000Z</time>
      </trkpt>
      <trkpt lat="43.49756" lon="6.94166">
        <ele>181.60000610352</ele>
        <time>2013-12-23T14:36:43.000Z</time>
      </trkpt>
      <trkpt lat="43.49765" lon="6.94163">
        <ele>181.60000610352</ele>
        <time>2013-12-23T14:36:51.000Z</time>
      </trkpt>
      <trkpt lat="43.49773" lon="6.94163">
        <ele>182.60000610352</ele>
        <time>2013-12-23T14:36:57.000Z</time>
      </trkpt>
      <trkpt lat="43.49784" lon="6.94159">
        <ele>182.60000610352</ele>
        <time>2013-12-23T14:37:03.000Z</time>
      </trkpt>
      <trkpt lat="43.49797" lon="6.94153">
        <ele>182.39999389648</ele>
        <time>2013-12-23T14:37:09.000Z</time>
      </trkpt>
      <trkpt lat="43.49811" lon="6.94145">
        <ele>181.60000610352</ele>
        <time>2013-12-23T14:37:16.000Z</time>
      </trkpt>
      <trkpt lat="43.49827" lon="6.94139">
        <ele>181.60000610352</ele>
        <time>2013-12-23T14:37:23.000Z</time>
      </trkpt>
      <trkpt lat="43.4983" lon="6.9414">
        <ele>182.39999389648</ele>
        <time>2013-12-23T14:37:24.000Z</time>
      </trkpt>
      <trkpt lat="43.49832" lon="6.94146">
        <ele>184.19999694824</ele>
        <time>2013-12-23T14:37:26.000Z</time>
      </trkpt>
      <trkpt lat="43.4983" lon="6.94152">
        <ele>185.60000610352</ele>
        <time>2013-12-23T14:37:29.000Z</time>
      </trkpt>
      <trkpt lat="43.49819" lon="6.94168">
        <ele>188.60000610352</ele>
        <time>2013-12-23T14:37:36.000Z</time>
      </trkpt>
      <trkpt lat="43.49807" lon="6.94187">
        <ele>190.19999694824</ele>
        <time>2013-12-23T14:37:44.000Z</time>
      </trkpt>
      <trkpt lat="43.49793" lon="6.94206">
        <ele>191.80000305176</ele>
        <time>2013-12-23T14:37:53.000Z</time>
      </trkpt>
      <trkpt lat="43.49784" lon="6.94219">
        <ele>192.80000305176</ele>
        <time>2013-12-23T14:38:00.000Z</time>
      </trkpt>
      <trkpt lat="43.49775" lon="6.94233">
        <ele>194</ele>
        <time>2013-12-23T14:38:07.000Z</time>
      </trkpt>
      <trkpt lat="43.49766" lon="6.94248">
        <ele>195.39999389648</ele>
        <time>2013-12-23T14:38:15.000Z</time>
      </trkpt>
      <trkpt lat="43.49765" lon="6.94264">
        <ele>195.39999389648</ele>
        <time>2013-12-23T14:38:21.000Z</time>
      </trkpt>
      <trkpt lat="43.49763" lon="6.94275">
        <ele>195</ele>
        <time>2013-12-23T14:38:27.000Z</time>
      </trkpt>
      <trkpt lat="43.49764" lon="6.94281">
        <ele>195</ele>
        <time>2013-12-23T14:38:32.000Z</time>
      </trkpt>
      <trkpt lat="43.49763" lon="6.94283">
        <ele>194.80000305176</ele>
        <time>2013-12-23T14:38:33.000Z</time>
      </trkpt>
      <trkpt lat="43.49761" lon="6.94278">
        <ele>194.60000610352</ele>
        <time>2013-12-23T14:38:36.000Z</time>
      </trkpt>
      <trkpt lat="43.49762" lon="6.94276">
        <ele>194.80000305176</ele>
        <time>2013-12-23T14:38:41.000Z</time>
      </trkpt>
      <trkpt lat="43.49764" lon="6.94282">
        <ele>194.80000305176</ele>
        <time>2013-12-23T14:38:46.000Z</time>
      </trkpt>
      <trkpt lat="43.49765" lon="6.94302">
        <ele>194.80000305176</ele>
        <time>2013-12-23T14:38:51.000Z</time>
      </trkpt>
      <trkpt lat="43.49773" lon="6.94324">
        <ele>196.60000610352</ele>
        <time>2013-12-23T14:38:56.000Z</time>
      </trkpt>
      <trkpt lat="43.49781" lon="6.94341">
        <ele>198.39999389648</ele>
        <time>2013-12-23T14:39:01.000Z</time>
      </trkpt>
      <trkpt lat="43.49788" lon="6.94358">
        <ele>199.60000610352</ele>
        <time>2013-12-23T14:39:08.000Z</time>
      </trkpt>
      <trkpt lat="43.49791" lon="6.94383">
        <ele>199.60000610352</ele>
        <time>2013-12-23T14:39:16.000Z</time>
      </trkpt>
      <trkpt lat="43.49794" lon="6.94415">
        <ele>199.60000610352</ele>
        <time>2013-12-23T14:39:26.000Z</time>
      </trkpt>
      <trkpt lat="43.49797" lon="6.94444">
        <ele>198.80000305176</ele>
        <time>2013-12-23T14:39:35.000Z</time>
      </trkpt>
      <trkpt lat="43.49805" lon="6.94474">
        <ele>200.39999389648</ele>
        <time>2013-12-23T14:39:44.000Z</time>
      </trkpt>
      <trkpt lat="43.49814" lon="6.9451">
        <ele>201</ele>
        <time>2013-12-23T14:39:54.000Z</time>
      </trkpt>
      <trkpt lat="43.49827" lon="6.94542">
        <ele>200.80000305176</ele>
        <time>2013-12-23T14:40:04.000Z</time>
      </trkpt>
      <trkpt lat="43.4984" lon="6.94568">
        <ele>201.60000610352</ele>
        <time>2013-12-23T14:40:12.000Z</time>
      </trkpt>
      <trkpt lat="43.4986" lon="6.94604">
        <ele>202.60000610352</ele>
        <time>2013-12-23T14:40:23.000Z</time>
      </trkpt>
      <trkpt lat="43.49876" lon="6.94633">
        <ele>202.80000305176</ele>
        <time>2013-12-23T14:40:32.000Z</time>
      </trkpt>
      <trkpt lat="43.49893" lon="6.94657">
        <ele>204.19999694824</ele>
        <time>2013-12-23T14:40:40.000Z</time>
      </trkpt>
      <trkpt lat="43.49908" lon="6.94679">
        <ele>205.39999389648</ele>
        <time>2013-12-23T14:40:47.000Z</time>
      </trkpt>
      <trkpt lat="43.49934" lon="6.94707">
        <ele>205.19999694824</ele>
        <time>2013-12-23T14:40:57.000Z</time>
      </trkpt>
      <trkpt lat="43.49956" lon="6.94725">
        <ele>205.39999389648</ele>
        <time>2013-12-23T14:41:05.000Z</time>
      </trkpt>
      <trkpt lat="43.49978" lon="6.94743">
        <ele>206.39999389648</ele>
        <time>2013-12-23T14:41:12.000Z</time>
      </trkpt>
      <trkpt lat="43.50005" lon="6.9476">
        <ele>207</ele>
        <time>2013-12-23T14:41:21.000Z</time>
      </trkpt>
      <trkpt lat="43.50025" lon="6.94772">
        <ele>203.60000610352</ele>
        <time>2013-12-23T14:41:28.000Z</time>
      </trkpt>
      <trkpt lat="43.50046" lon="6.94785">
        <ele>201.80000305176</ele>
        <time>2013-12-23T14:41:35.000Z</time>
      </trkpt>
      <trkpt lat="43.50057" lon="6.94792">
        <ele>201.60000610352</ele>
        <time>2013-12-23T14:41:41.000Z</time>
      </trkpt>
      <trkpt lat="43.50057" lon="6.94793">
        <ele>201.39999389648</ele>
        <time>2013-12-23T14:41:46.000Z</time>
      </trkpt>
      <trkpt lat="43.50057" lon="6.94791">
        <ele>201.60000610352</ele>
        <time>2013-12-23T14:42:05.000Z</time>
      </trkpt>
      <trkpt lat="43.50057" lon="6.94786">
        <ele>201.80000305176</ele>
        <time>2013-12-23T14:42:11.000Z</time>
      </trkpt>
      <trkpt lat="43.50056" lon="6.94783">
        <ele>202</ele>
        <time>2013-12-23T14:42:17.000Z</time>
      </trkpt>
      <trkpt lat="43.50054" lon="6.94777">
        <ele>202.39999389648</ele>
        <time>2013-12-23T14:42:27.000Z</time>
      </trkpt>
      <trkpt lat="43.50052" lon="6.94771">
        <ele>202.80000305176</ele>
        <time>2013-12-23T14:42:34.000Z</time>
      </trkpt>
      <trkpt lat="43.50051" lon="6.94767">
        <ele>203.19999694824</ele>
        <time>2013-12-23T14:42:40.000Z</time>
      </trkpt>
      <trkpt lat="43.50049" lon="6.94765">
        <ele>203.39999389648</ele>
        <time>2013-12-23T14:42:45.000Z</time>
      </trkpt>
      <trkpt lat="43.50049" lon="6.94757">
        <ele>204</ele>
        <time>2013-12-23T14:42:52.000Z</time>
      </trkpt>
      <trkpt lat="43.50048" lon="6.94751">
        <ele>204.80000305176</ele>
        <time>2013-12-23T14:42:57.000Z</time>
      </trkpt>
      <trkpt lat="43.50048" lon="6.9475">
        <ele>204.80000305176</ele>
        <time>2013-12-23T14:42:58.000Z</time>
      </trkpt>
      <trkpt lat="43.50044" lon="6.94741">
        <ele>206.60000610352</ele>
        <time>2013-12-23T14:43:06.000Z</time>
      </trkpt>
      <trkpt lat="43.50043" lon="6.9474">
        <ele>206.80000305176</ele>
        <time>2013-12-23T14:43:07.000Z</time>
      </trkpt>
      <trkpt lat="43.50043" lon="6.94738">
        <ele>207.19999694824</ele>
        <time>2013-12-23T14:43:09.000Z</time>
      </trkpt>
      <trkpt lat="43.50041" lon="6.94736">
        <ele>207.60000610352</ele>
        <time>2013-12-23T14:43:11.000Z</time>
      </trkpt>
      <trkpt lat="43.5004" lon="6.94734">
        <ele>208.19999694824</ele>
        <time>2013-12-23T14:43:14.000Z</time>
      </trkpt>
      <trkpt lat="43.50038" lon="6.94731">
        <ele>209</ele>
        <time>2013-12-23T14:43:18.000Z</time>
      </trkpt>
      <trkpt lat="43.50036" lon="6.9473">
        <ele>209.39999389648</ele>
        <time>2013-12-23T14:43:22.000Z</time>
      </trkpt>
      <trkpt lat="43.50033" lon="6.94728">
        <ele>210.19999694824</ele>
        <time>2013-12-23T14:43:29.000Z</time>
      </trkpt>
      <trkpt lat="43.5003" lon="6.94725">
        <ele>211.19999694824</ele>
        <time>2013-12-23T14:43:35.000Z</time>
      </trkpt>
      <trkpt lat="43.50026" lon="6.94716">
        <ele>213.39999389648</ele>
        <time>2013-12-23T14:43:44.000Z</time>
      </trkpt>
      <trkpt lat="43.50026" lon="6.94715">
        <ele>213.80000305176</ele>
        <time>2013-12-23T14:43:46.000Z</time>
      </trkpt>
      <trkpt lat="43.50026" lon="6.9471">
        <ele>214.60000610352</ele>
        <time>2013-12-23T14:43:52.000Z</time>
      </trkpt>
      <trkpt lat="43.50026" lon="6.94703">
        <ele>215.80000305176</ele>
        <time>2013-12-23T14:44:00.000Z</time>
      </trkpt>
      <trkpt lat="43.50026" lon="6.94699">
        <ele>216.39999389648</ele>
        <time>2013-12-23T14:44:05.000Z</time>
      </trkpt>
      <trkpt lat="43.50024" lon="6.94696">
        <ele>217.60000610352</ele>
        <time>2013-12-23T14:44:11.000Z</time>
      </trkpt>
      <trkpt lat="43.50019" lon="6.94689">
        <ele>220.19999694824</ele>
        <time>2013-12-23T14:44:18.000Z</time>
      </trkpt>
      <trkpt lat="43.50016" lon="6.94685">
        <ele>221.60000610352</ele>
        <time>2013-12-23T14:44:25.000Z</time>
      </trkpt>
      <trkpt lat="43.50015" lon="6.94681">
        <ele>222.60000610352</ele>
        <time>2013-12-23T14:44:30.000Z</time>
      </trkpt>
      <trkpt lat="43.50015" lon="6.94681">
        <ele>223</ele>
        <time>2013-12-23T14:44:31.000Z</time>
      </trkpt>
      <trkpt lat="43.50013" lon="6.94678">
        <ele>224</ele>
        <time>2013-12-23T14:44:34.000Z</time>
      </trkpt>
      <trkpt lat="43.50012" lon="6.94676">
        <ele>224.60000610352</ele>
        <time>2013-12-23T14:44:38.000Z</time>
      </trkpt>
      <trkpt lat="43.50011" lon="6.9467">
        <ele>226</ele>
        <time>2013-12-23T14:44:45.000Z</time>
      </trkpt>
      <trkpt lat="43.50011" lon="6.94664">
        <ele>227.39999389648</ele>
        <time>2013-12-23T14:44:53.000Z</time>
      </trkpt>
      <trkpt lat="43.5001" lon="6.94659">
        <ele>228.39999389648</ele>
        <time>2013-12-23T14:44:59.000Z</time>
      </trkpt>
      <trkpt lat="43.50008" lon="6.94653">
        <ele>229.80000305176</ele>
        <time>2013-12-23T14:45:07.000Z</time>
      </trkpt>
      <trkpt lat="43.50006" lon="6.94651">
        <ele>230.60000610352</ele>
        <time>2013-12-23T14:45:10.000Z</time>
      </trkpt>
      <trkpt lat="43.50005" lon="6.9465">
        <ele>231</ele>
        <time>2013-12-23T14:45:12.000Z</time>
      </trkpt>
      <trkpt lat="43.50002" lon="6.94645">
        <ele>232.60000610352</ele>
        <time>2013-12-23T14:45:18.000Z</time>
      </trkpt>
      <trkpt lat="43.50001" lon="6.94644">
        <ele>233.19999694824</ele>
        <time>2013-12-23T14:45:20.000Z</time>
      </trkpt>
      <trkpt lat="43.5" lon="6.9464">
        <ele>234.19999694824</ele>
        <time>2013-12-23T14:45:25.000Z</time>
      </trkpt>
      <trkpt lat="43.49999" lon="6.94632">
        <ele>235.19999694824</ele>
        <time>2013-12-23T14:45:32.000Z</time>
      </trkpt>
      <trkpt lat="43.49997" lon="6.94628">
        <ele>235.60000610352</ele>
        <time>2013-12-23T14:45:38.000Z</time>
      </trkpt>
      <trkpt lat="43.49996" lon="6.94619">
        <ele>237</ele>
        <time>2013-12-23T14:45:45.000Z</time>
      </trkpt>
      <trkpt lat="43.49993" lon="6.94613">
        <ele>237.39999389648</ele>
        <time>2013-12-23T14:45:51.000Z</time>
      </trkpt>
      <trkpt lat="43.49993" lon="6.94612">
        <ele>237.60000610352</ele>
        <time>2013-12-23T14:45:52.000Z</time>
      </trkpt>
      <trkpt lat="43.49992" lon="6.94609">
        <ele>238</ele>
        <time>2013-12-23T14:45:55.000Z</time>
      </trkpt>
      <trkpt lat="43.49992" lon="6.94608">
        <ele>238.19999694824</ele>
        <time>2013-12-23T14:45:56.000Z</time>
      </trkpt>
      <trkpt lat="43.49991" lon="6.94601">
        <ele>239.19999694824</ele>
        <time>2013-12-23T14:46:02.000Z</time>
      </trkpt>
      <trkpt lat="43.49989" lon="6.94597">
        <ele>239.80000305176</ele>
        <time>2013-12-23T14:46:07.000Z</time>
      </trkpt>
      <trkpt lat="43.49989" lon="6.94596">
        <ele>239.80000305176</ele>
        <time>2013-12-23T14:46:08.000Z</time>
      </trkpt>
      <trkpt lat="43.49986" lon="6.94594">
        <ele>240</ele>
        <time>2013-12-23T14:46:12.000Z</time>
      </trkpt>
      <trkpt lat="43.49981" lon="6.94594">
        <ele>239.39999389648</ele>
        <time>2013-12-23T14:46:17.000Z</time>
      </trkpt>
      <trkpt lat="43.49976" lon="6.94595">
        <ele>238.80000305176</ele>
        <time>2013-12-23T14:46:23.000Z</time>
      </trkpt>
      <trkpt lat="43.49974" lon="6.94593">
        <ele>239</ele>
        <time>2013-12-23T14:46:26.000Z</time>
      </trkpt>
      <trkpt lat="43.49973" lon="6.94593">
        <ele>238.80000305176</ele>
        <time>2013-12-23T14:46:38.000Z</time>
      </trkpt>
      <trkpt lat="43.49972" lon="6.94589">
        <ele>239.60000610352</ele>
        <time>2013-12-23T14:47:05.000Z</time>
      </trkpt>
      <trkpt lat="43.49973" lon="6.94586">
        <ele>240.19999694824</ele>
        <time>2013-12-23T14:47:08.000Z</time>
      </trkpt>
      <trkpt lat="43.49973" lon="6.94583">
        <ele>240.60000610352</ele>
        <time>2013-12-23T14:47:10.000Z</time>
      </trkpt>
      <trkpt lat="43.49971" lon="6.9458">
        <ele>240.39999389648</ele>
        <time>2013-12-23T14:47:13.000Z</time>
      </trkpt>
      <trkpt lat="43.49968" lon="6.94576">
        <ele>240</ele>
        <time>2013-12-23T14:47:18.000Z</time>
      </trkpt>
      <trkpt lat="43.49968" lon="6.94576">
        <ele>240.19999694824</ele>
        <time>2013-12-23T14:47:39.000Z</time>
      </trkpt>
      <trkpt lat="43.49969" lon="6.94576">
        <ele>240.19999694824</ele>
        <time>2013-12-23T14:47:44.000Z</time>
      </trkpt>
      <trkpt lat="43.49969" lon="6.94574">
        <ele>240</ele>
        <time>2013-12-23T14:52:07.000Z</time>
      </trkpt>
      <trkpt lat="43.49966" lon="6.94569">
        <ele>239.80000305176</ele>
        <time>2013-12-23T14:52:10.000Z</time>
      </trkpt>
      <trkpt lat="43.49962" lon="6.94566">
        <ele>239.60000610352</ele>
        <time>2013-12-23T14:52:12.000Z</time>
      </trkpt>
      <trkpt lat="43.49959" lon="6.94563">
        <ele>239.39999389648</ele>
        <time>2013-12-23T14:52:14.000Z</time>
      </trkpt>
      <trkpt lat="43.49951" lon="6.94557">
        <ele>239.19999694824</ele>
        <time>2013-12-23T14:52:19.000Z</time>
      </trkpt>
      <trkpt lat="43.49948" lon="6.94554">
        <ele>239.19999694824</ele>
        <time>2013-12-23T14:52:21.000Z</time>
      </trkpt>
      <trkpt lat="43.49948" lon="6.94551">
        <ele>239.19999694824</ele>
        <time>2013-12-23T14:52:24.000Z</time>
      </trkpt>
      <trkpt lat="43.49949" lon="6.94545">
        <ele>239.39999389648</ele>
        <time>2013-12-23T14:52:33.000Z</time>
      </trkpt>
      <trkpt lat="43.4995" lon="6.94542">
        <ele>239.39999389648</ele>
        <time>2013-12-23T14:52:34.000Z</time>
      </trkpt>
      <trkpt lat="43.49949" lon="6.94534">
        <ele>239.60000610352</ele>
        <time>2013-12-23T14:52:36.000Z</time>
      </trkpt>
      <trkpt lat="43.49943" lon="6.94528">
        <ele>240</ele>
        <time>2013-12-23T14:52:40.000Z</time>
      </trkpt>
      <trkpt lat="43.49931" lon="6.94523">
        <ele>240.80000305176</ele>
        <time>2013-12-23T14:52:45.000Z</time>
      </trkpt>
      <trkpt lat="43.49928" lon="6.9452">
        <ele>241.39999389648</ele>
        <time>2013-12-23T14:52:47.000Z</time>
      </trkpt>
      <trkpt lat="43.49924" lon="6.94518">
        <ele>241.80000305176</ele>
        <time>2013-12-23T14:52:49.000Z</time>
      </trkpt>
      <trkpt lat="43.49917" lon="6.94507">
        <ele>243.39999389648</ele>
        <time>2013-12-23T14:52:54.000Z</time>
      </trkpt>
      <trkpt lat="43.49915" lon="6.94505">
        <ele>243</ele>
        <time>2013-12-23T14:52:56.000Z</time>
      </trkpt>
      <trkpt lat="43.49914" lon="6.94505">
        <ele>242.60000610352</ele>
        <time>2013-12-23T14:52:59.000Z</time>
      </trkpt>
      <trkpt lat="43.4991" lon="6.94498">
        <ele>241.60000610352</ele>
        <time>2013-12-23T14:53:04.000Z</time>
      </trkpt>
      <trkpt lat="43.49906" lon="6.94492">
        <ele>239.39999389648</ele>
        <time>2013-12-23T14:53:11.000Z</time>
      </trkpt>
      <trkpt lat="43.49905" lon="6.9449">
        <ele>238.80000305176</ele>
        <time>2013-12-23T14:53:17.000Z</time>
      </trkpt>
      <trkpt lat="43.49905" lon="6.94485">
        <ele>238.39999389648</ele>
        <time>2013-12-23T14:53:50.000Z</time>
      </trkpt>
      <trkpt lat="43.49904" lon="6.94483">
        <ele>237.80000305176</ele>
        <time>2013-12-23T14:53:51.000Z</time>
      </trkpt>
      <trkpt lat="43.49901" lon="6.94473">
        <ele>236</ele>
        <time>2013-12-23T14:53:54.000Z</time>
      </trkpt>
      <trkpt lat="43.49899" lon="6.94466">
        <ele>235.19999694824</ele>
        <time>2013-12-23T14:53:56.000Z</time>
      </trkpt>
      <trkpt lat="43.49892" lon="6.94453">
        <ele>232</ele>
        <time>2013-12-23T14:54:00.000Z</time>
      </trkpt>
      <trkpt lat="43.49885" lon="6.94441">
        <ele>229.80000305176</ele>
        <time>2013-12-23T14:54:04.000Z</time>
      </trkpt>
      <trkpt lat="43.49884" lon="6.94438">
        <ele>229.19999694824</ele>
        <time>2013-12-23T14:54:05.000Z</time>
      </trkpt>
      <trkpt lat="43.49879" lon="6.94422">
        <ele>227.60000610352</ele>
        <time>2013-12-23T14:54:10.000Z</time>
      </trkpt>
      <trkpt lat="43.49882" lon="6.94415">
        <ele>227.80000305176</ele>
        <time>2013-12-23T14:54:13.000Z</time>
      </trkpt>
      <trkpt lat="43.49883" lon="6.94411">
        <ele>227.60000610352</ele>
        <time>2013-12-23T14:54:14.000Z</time>
      </trkpt>
      <trkpt lat="43.49886" lon="6.94391">
        <ele>225.80000305176</ele>
        <time>2013-12-23T14:54:18.000Z</time>
      </trkpt>
      <trkpt lat="43.49889" lon="6.94368">
        <ele>224</ele>
        <time>2013-12-23T14:54:22.000Z</time>
      </trkpt>
      <trkpt lat="43.49887" lon="6.94366">
        <ele>223.39999389648</ele>
        <time>2013-12-23T14:54:23.000Z</time>
      </trkpt>
      <trkpt lat="43.49884" lon="6.94357">
        <ele>222</ele>
        <time>2013-12-23T14:54:25.000Z</time>
      </trkpt>
      <trkpt lat="43.49885" lon="6.94336">
        <ele>219.80000305176</ele>
        <time>2013-12-23T14:54:30.000Z</time>
      </trkpt>
      <trkpt lat="43.49886" lon="6.94325">
        <ele>218</ele>
        <time>2013-12-23T14:54:34.000Z</time>
      </trkpt>
      <trkpt lat="43.49877" lon="6.94316">
        <ele>215.60000610352</ele>
        <time>2013-12-23T14:54:39.000Z</time>
      </trkpt>
      <trkpt lat="43.49866" lon="6.94316">
        <ele>214.60000610352</ele>
        <time>2013-12-23T14:54:43.000Z</time>
      </trkpt>
      <trkpt lat="43.49856" lon="6.94317">
        <ele>213.80000305176</ele>
        <time>2013-12-23T14:54:46.000Z</time>
      </trkpt>
      <trkpt lat="43.49854" lon="6.94314">
        <ele>213.39999389648</ele>
        <time>2013-12-23T14:54:47.000Z</time>
      </trkpt>
      <trkpt lat="43.49846" lon="6.94306">
        <ele>211.39999389648</ele>
        <time>2013-12-23T14:54:51.000Z</time>
      </trkpt>
      <trkpt lat="43.49843" lon="6.94304">
        <ele>210.80000305176</ele>
        <time>2013-12-23T14:54:53.000Z</time>
      </trkpt>
      <trkpt lat="43.49844" lon="6.94295">
        <ele>209.60000610352</ele>
        <time>2013-12-23T14:54:56.000Z</time>
      </trkpt>
      <trkpt lat="43.49844" lon="6.94288">
        <ele>208.60000610352</ele>
        <time>2013-12-23T14:54:59.000Z</time>
      </trkpt>
      <trkpt lat="43.49835" lon="6.94288">
        <ele>208</ele>
        <time>2013-12-23T14:55:03.000Z</time>
      </trkpt>
      <trkpt lat="43.49825" lon="6.94289">
        <ele>206.39999389648</ele>
        <time>2013-12-23T14:55:07.000Z</time>
      </trkpt>
      <trkpt lat="43.49819" lon="6.94293">
        <ele>205.80000305176</ele>
        <time>2013-12-23T14:55:09.000Z</time>
      </trkpt>
      <trkpt lat="43.49817" lon="6.94294">
        <ele>205.39999389648</ele>
        <time>2013-12-23T14:55:10.000Z</time>
      </trkpt>
      <trkpt lat="43.49814" lon="6.94292">
        <ele>204.80000305176</ele>
        <time>2013-12-23T14:55:11.000Z</time>
      </trkpt>
      <trkpt lat="43.49808" lon="6.94286">
        <ele>203</ele>
        <time>2013-12-23T14:55:13.000Z</time>
      </trkpt>
      <trkpt lat="43.49804" lon="6.94287">
        <ele>202.19999694824</ele>
        <time>2013-12-23T14:55:14.000Z</time>
      </trkpt>
      <trkpt lat="43.49791" lon="6.94287">
        <ele>199.80000305176</ele>
        <time>2013-12-23T14:55:18.000Z</time>
      </trkpt>
      <trkpt lat="43.49786" lon="6.94286">
        <ele>199</ele>
        <time>2013-12-23T14:55:19.000Z</time>
      </trkpt>
      <trkpt lat="43.4977" lon="6.94278">
        <ele>196</ele>
        <time>2013-12-23T14:55:22.000Z</time>
      </trkpt>
      <trkpt lat="43.49759" lon="6.94269">
        <ele>194.60000610352</ele>
        <time>2013-12-23T14:55:24.000Z</time>
      </trkpt>
      <trkpt lat="43.49759" lon="6.94263">
        <ele>194.60000610352</ele>
        <time>2013-12-23T14:55:25.000Z</time>
      </trkpt>
      <trkpt lat="43.49764" lon="6.94257">
        <ele>195.39999389648</ele>
        <time>2013-12-23T14:55:27.000Z</time>
      </trkpt>
      <trkpt lat="43.49765" lon="6.94254">
        <ele>195.60000610352</ele>
        <time>2013-12-23T14:55:30.000Z</time>
      </trkpt>
      <trkpt lat="43.49764" lon="6.94251">
        <ele>195.39999389648</ele>
        <time>2013-12-23T14:55:44.000Z</time>
      </trkpt>
      <trkpt lat="43.49763" lon="6.94248">
        <ele>195</ele>
        <time>2013-12-23T14:55:45.000Z</time>
      </trkpt>
      <trkpt lat="43.49759" lon="6.94235">
        <ele>192.60000610352</ele>
        <time>2013-12-23T14:55:49.000Z</time>
      </trkpt>
      <trkpt lat="43.49757" lon="6.94232">
        <ele>192</ele>
        <time>2013-12-23T14:55:50.000Z</time>
      </trkpt>
      <trkpt lat="43.49746" lon="6.94223">
        <ele>189</ele>
        <time>2013-12-23T14:55:54.000Z</time>
      </trkpt>
      <trkpt lat="43.49742" lon="6.94222">
        <ele>188.19999694824</ele>
        <time>2013-12-23T14:55:55.000Z</time>
      </trkpt>
      <trkpt lat="43.49739" lon="6.94228">
        <ele>188.39999389648</ele>
        <time>2013-12-23T14:55:57.000Z</time>
      </trkpt>
      <trkpt lat="43.49746" lon="6.94233">
        <ele>190.39999389648</ele>
        <time>2013-12-23T14:56:00.000Z</time>
      </trkpt>
      <trkpt lat="43.49749" lon="6.94235">
        <ele>191.60000610352</ele>
        <time>2013-12-23T14:56:01.000Z</time>
      </trkpt>
      <trkpt lat="43.49755" lon="6.9424">
        <ele>193</ele>
        <time>2013-12-23T14:56:04.000Z</time>
      </trkpt>
      <trkpt lat="43.4976" lon="6.94258">
        <ele>195</ele>
        <time>2013-12-23T14:56:09.000Z</time>
      </trkpt>
      <trkpt lat="43.49758" lon="6.94272">
        <ele>194.19999694824</ele>
        <time>2013-12-23T14:56:14.000Z</time>
      </trkpt>
      <trkpt lat="43.49759" lon="6.94278">
        <ele>194</ele>
        <time>2013-12-23T14:56:18.000Z</time>
      </trkpt>
      <trkpt lat="43.49759" lon="6.9428">
        <ele>194.19999694824</ele>
        <time>2013-12-23T14:56:20.000Z</time>
      </trkpt>
      <trkpt lat="43.49761" lon="6.9428">
        <ele>194.39999389648</ele>
        <time>2013-12-23T14:56:25.000Z</time>
      </trkpt>
      <trkpt lat="43.4977" lon="6.94282">
        <ele>196</ele>
        <time>2013-12-23T14:56:30.000Z</time>
      </trkpt>
      <trkpt lat="43.49775" lon="6.94281">
        <ele>197</ele>
        <time>2013-12-23T14:56:33.000Z</time>
      </trkpt>
      <trkpt lat="43.49776" lon="6.94281">
        <ele>197</ele>
        <time>2013-12-23T14:56:35.000Z</time>
      </trkpt>
      <trkpt lat="43.4978" lon="6.94283">
        <ele>197.80000305176</ele>
        <time>2013-12-23T14:56:40.000Z</time>
      </trkpt>
      <trkpt lat="43.49784" lon="6.94284">
        <ele>198.60000610352</ele>
        <time>2013-12-23T14:56:45.000Z</time>
      </trkpt>
      <trkpt lat="43.49789" lon="6.94287">
        <ele>199.39999389648</ele>
        <time>2013-12-23T14:56:49.000Z</time>
      </trkpt>
      <trkpt lat="43.49791" lon="6.94288">
        <ele>199.80000305176</ele>
        <time>2013-12-23T14:56:51.000Z</time>
      </trkpt>
      <trkpt lat="43.49793" lon="6.94287">
        <ele>200.39999389648</ele>
        <time>2013-12-23T14:56:57.000Z</time>
      </trkpt>
      <trkpt lat="43.498" lon="6.94286">
        <ele>201.60000610352</ele>
        <time>2013-12-23T14:57:04.000Z</time>
      </trkpt>
      <trkpt lat="43.49803" lon="6.94286">
        <ele>202.19999694824</ele>
        <time>2013-12-23T14:57:09.000Z</time>
      </trkpt>
      <trkpt lat="43.498" lon="6.94288">
        <ele>201.60000610352</ele>
        <time>2013-12-23T14:57:18.000Z</time>
      </trkpt>
      <trkpt lat="43.49788" lon="6.94286">
        <ele>199.39999389648</ele>
        <time>2013-12-23T14:57:22.000Z</time>
      </trkpt>
      <trkpt lat="43.49766" lon="6.94273">
        <ele>195.39999389648</ele>
        <time>2013-12-23T14:57:26.000Z</time>
      </trkpt>
      <trkpt lat="43.4976" lon="6.94265">
        <ele>194.80000305176</ele>
        <time>2013-12-23T14:57:28.000Z</time>
      </trkpt>
      <trkpt lat="43.49759" lon="6.94262">
        <ele>194.60000610352</ele>
        <time>2013-12-23T14:57:29.000Z</time>
      </trkpt>
      <trkpt lat="43.4976" lon="6.94262">
        <ele>194.80000305176</ele>
        <time>2013-12-23T14:57:32.000Z</time>
      </trkpt>
      <trkpt lat="43.49764" lon="6.94262">
        <ele>195.39999389648</ele>
        <time>2013-12-23T14:58:13.000Z</time>
      </trkpt>
      <trkpt lat="43.49756" lon="6.94261">
        <ele>194.19999694824</ele>
        <time>2013-12-23T14:59:08.000Z</time>
      </trkpt>
      <trkpt lat="43.49758" lon="6.9426">
        <ele>194.60000610352</ele>
        <time>2013-12-23T14:59:32.000Z</time>
      </trkpt>
      <trkpt lat="43.49765" lon="6.9426">
        <ele>195.39999389648</ele>
        <time>2013-12-23T15:00:18.000Z</time>
      </trkpt>
      <trkpt lat="43.49762" lon="6.94262">
        <ele>195</ele>
        <time>2013-12-23T15:00:58.000Z</time>
      </trkpt>
      <trkpt lat="43.49763" lon="6.94254">
        <ele>195.39999389648</ele>
        <time>2013-12-23T15:05:43.000Z</time>
      </trkpt>
      <trkpt lat="43.49755" lon="6.9424">
        <ele>192.80000305176</ele>
        <time>2013-12-23T15:05:47.000Z</time>
      </trkpt>
      <trkpt lat="43.49739" lon="6.94222">
        <ele>187.60000610352</ele>
        <time>2013-12-23T15:05:51.000Z</time>
      </trkpt>
      <trkpt lat="43.49736" lon="6.9422">
        <ele>186.60000610352</ele>
        <time>2013-12-23T15:05:53.000Z</time>
      </trkpt>
      <trkpt lat="43.49735" lon="6.94221">
        <ele>186.60000610352</ele>
        <time>2013-12-23T15:05:54.000Z</time>
      </trkpt>
      <trkpt lat="43.4974" lon="6.94227">
        <ele>188.39999389648</ele>
        <time>2013-12-23T15:05:58.000Z</time>
      </trkpt>
      <trkpt lat="43.49753" lon="6.94234">
        <ele>191.80000305176</ele>
        <time>2013-12-23T15:06:03.000Z</time>
      </trkpt>
      <trkpt lat="43.49763" lon="6.94241">
        <ele>194</ele>
        <time>2013-12-23T15:06:07.000Z</time>
      </trkpt>
      <trkpt lat="43.49763" lon="6.94255">
        <ele>195.39999389648</ele>
        <time>2013-12-23T15:06:11.000Z</time>
      </trkpt>
      <trkpt lat="43.49762" lon="6.94265">
        <ele>195</ele>
        <time>2013-12-23T15:06:15.000Z</time>
      </trkpt>
      <trkpt lat="43.49761" lon="6.94267">
        <ele>194.80000305176</ele>
        <time>2013-12-23T15:06:16.000Z</time>
      </trkpt>
      <trkpt lat="43.4976" lon="6.94272">
        <ele>194.60000610352</ele>
        <time>2013-12-23T15:06:21.000Z</time>
      </trkpt>
      <trkpt lat="43.49761" lon="6.94279">
        <ele>194.60000610352</ele>
        <time>2013-12-23T15:06:26.000Z</time>
      </trkpt>
      <trkpt lat="43.49762" lon="6.94274">
        <ele>194.80000305176</ele>
        <time>2013-12-23T15:06:29.000Z</time>
      </trkpt>
      <trkpt lat="43.49762" lon="6.94263">
        <ele>195</ele>
        <time>2013-12-23T15:06:33.000Z</time>
      </trkpt>
      <trkpt lat="43.49762" lon="6.94261">
        <ele>195.19999694824</ele>
        <time>2013-12-23T15:06:34.000Z</time>
      </trkpt>
      <trkpt lat="43.49762" lon="6.94255">
        <ele>195.19999694824</ele>
        <time>2013-12-23T15:06:36.000Z</time>
      </trkpt>
      <trkpt lat="43.49758" lon="6.94247">
        <ele>194.39999389648</ele>
        <time>2013-12-23T15:06:38.000Z</time>
      </trkpt>
      <trkpt lat="43.49752" lon="6.94238">
        <ele>192.39999389648</ele>
        <time>2013-12-23T15:06:40.000Z</time>
      </trkpt>
      <trkpt lat="43.4974" lon="6.94224">
        <ele>188</ele>
        <time>2013-12-23T15:06:43.000Z</time>
      </trkpt>
      <trkpt lat="43.49736" lon="6.94219">
        <ele>186.39999389648</ele>
        <time>2013-12-23T15:06:45.000Z</time>
      </trkpt>
      <trkpt lat="43.49736" lon="6.94217">
        <ele>186.19999694824</ele>
        <time>2013-12-23T15:06:46.000Z</time>
      </trkpt>
      <trkpt lat="43.49741" lon="6.94216">
        <ele>187</ele>
        <time>2013-12-23T15:06:49.000Z</time>
      </trkpt>
      <trkpt lat="43.49748" lon="6.9422">
        <ele>189</ele>
        <time>2013-12-23T15:06:53.000Z</time>
      </trkpt>
      <trkpt lat="43.4975" lon="6.94222">
        <ele>189.60000610352</ele>
        <time>2013-12-23T15:06:55.000Z</time>
      </trkpt>
      <trkpt lat="43.4975" lon="6.94224">
        <ele>190</ele>
        <time>2013-12-23T15:06:57.000Z</time>
      </trkpt>
      <trkpt lat="43.49753" lon="6.94228">
        <ele>191</ele>
        <time>2013-12-23T15:07:00.000Z</time>
      </trkpt>
      <trkpt lat="43.49759" lon="6.94234">
        <ele>192.39999389648</ele>
        <time>2013-12-23T15:07:04.000Z</time>
      </trkpt>
      <trkpt lat="43.4976" lon="6.94236">
        <ele>193</ele>
        <time>2013-12-23T15:07:05.000Z</time>
      </trkpt>
      <trkpt lat="43.49763" lon="6.94252">
        <ele>195.39999389648</ele>
        <time>2013-12-23T15:07:10.000Z</time>
      </trkpt>
      <trkpt lat="43.49763" lon="6.94257">
        <ele>195.39999389648</ele>
        <time>2013-12-23T15:07:12.000Z</time>
      </trkpt>
      <trkpt lat="43.49765" lon="6.94258">
        <ele>195.39999389648</ele>
        <time>2013-12-23T15:07:13.000Z</time>
      </trkpt>
      <trkpt lat="43.49763" lon="6.9425">
        <ele>195.39999389648</ele>
        <time>2013-12-23T15:07:16.000Z</time>
      </trkpt>
      <trkpt lat="43.4976" lon="6.94247">
        <ele>194.60000610352</ele>
        <time>2013-12-23T15:07:17.000Z</time>
      </trkpt>
      <trkpt lat="43.49749" lon="6.94235">
        <ele>191.39999389648</ele>
        <time>2013-12-23T15:07:20.000Z</time>
      </trkpt>
      <trkpt lat="43.49733" lon="6.94218">
        <ele>185.80000305176</ele>
        <time>2013-12-23T15:07:24.000Z</time>
      </trkpt>
      <trkpt lat="43.49732" lon="6.94218">
        <ele>185.39999389648</ele>
        <time>2013-12-23T15:07:25.000Z</time>
      </trkpt>
      <trkpt lat="43.49732" lon="6.9422">
        <ele>185.80000305176</ele>
        <time>2013-12-23T15:07:26.000Z</time>
      </trkpt>
      <trkpt lat="43.49737" lon="6.94226">
        <ele>187.80000305176</ele>
        <time>2013-12-23T15:07:29.000Z</time>
      </trkpt>
      <trkpt lat="43.49739" lon="6.94228">
        <ele>188.19999694824</ele>
        <time>2013-12-23T15:07:30.000Z</time>
      </trkpt>
      <trkpt lat="43.49743" lon="6.94231">
        <ele>189.60000610352</ele>
        <time>2013-12-23T15:07:34.000Z</time>
      </trkpt>
      <trkpt lat="43.49745" lon="6.9423">
        <ele>190</ele>
        <time>2013-12-23T15:07:35.000Z</time>
      </trkpt>
      <trkpt lat="43.49757" lon="6.94227">
        <ele>191.19999694824</ele>
        <time>2013-12-23T15:07:39.000Z</time>
      </trkpt>
      <trkpt lat="43.49763" lon="6.94239">
        <ele>193.60000610352</ele>
        <time>2013-12-23T15:07:42.000Z</time>
      </trkpt>
      <trkpt lat="43.49762" lon="6.94257">
        <ele>195.19999694824</ele>
        <time>2013-12-23T15:07:46.000Z</time>
      </trkpt>
      <trkpt lat="43.49765" lon="6.94257">
        <ele>195.60000610352</ele>
        <time>2013-12-23T15:07:48.000Z</time>
      </trkpt>
      <trkpt lat="43.49758" lon="6.94247">
        <ele>194.39999389648</ele>
        <time>2013-12-23T15:07:51.000Z</time>
      </trkpt>
      <trkpt lat="43.49745" lon="6.94228">
        <ele>189.60000610352</ele>
        <time>2013-12-23T15:07:55.000Z</time>
      </trkpt>
      <trkpt lat="43.49734" lon="6.94218">
        <ele>186</ele>
        <time>2013-12-23T15:07:58.000Z</time>
      </trkpt>
      <trkpt lat="43.49737" lon="6.94215">
        <ele>186</ele>
        <time>2013-12-23T15:08:01.000Z</time>
      </trkpt>
      <trkpt lat="43.49744" lon="6.9422">
        <ele>188.19999694824</ele>
        <time>2013-12-23T15:08:06.000Z</time>
      </trkpt>
      <trkpt lat="43.49754" lon="6.94226">
        <ele>190.60000610352</ele>
        <time>2013-12-23T15:08:11.000Z</time>
      </trkpt>
      <trkpt lat="43.49759" lon="6.94232">
        <ele>192.19999694824</ele>
        <time>2013-12-23T15:08:13.000Z</time>
      </trkpt>
      <trkpt lat="43.49762" lon="6.94245">
        <ele>194.60000610352</ele>
        <time>2013-12-23T15:08:16.000Z</time>
      </trkpt>
      <trkpt lat="43.49764" lon="6.94261">
        <ele>195.39999389648</ele>
        <time>2013-12-23T15:08:20.000Z</time>
      </trkpt>
      <trkpt lat="43.49766" lon="6.9426">
        <ele>195.60000610352</ele>
        <time>2013-12-23T15:08:21.000Z</time>
      </trkpt>
      <trkpt lat="43.49762" lon="6.94251">
        <ele>195.19999694824</ele>
        <time>2013-12-23T15:08:24.000Z</time>
      </trkpt>
      <trkpt lat="43.49755" lon="6.94242">
        <ele>193.19999694824</ele>
        <time>2013-12-23T15:08:26.000Z</time>
      </trkpt>
      <trkpt lat="43.49748" lon="6.94232">
        <ele>190.80000305176</ele>
        <time>2013-12-23T15:08:28.000Z</time>
      </trkpt>
      <trkpt lat="43.49735" lon="6.94221">
        <ele>186.39999389648</ele>
        <time>2013-12-23T15:08:31.000Z</time>
      </trkpt>
      <trkpt lat="43.49733" lon="6.94223">
        <ele>186.39999389648</ele>
        <time>2013-12-23T15:08:33.000Z</time>
      </trkpt>
      <trkpt lat="43.49738" lon="6.94224">
        <ele>187.60000610352</ele>
        <time>2013-12-23T15:08:37.000Z</time>
      </trkpt>
      <trkpt lat="43.49733" lon="6.94217">
        <ele>185.60000610352</ele>
        <time>2013-12-23T15:08:40.000Z</time>
      </trkpt>
      <trkpt lat="43.49717" lon="6.94215">
        <ele>182.19999694824</ele>
        <time>2013-12-23T15:08:44.000Z</time>
      </trkpt>
      <trkpt lat="43.49713" lon="6.94216">
        <ele>181.60000610352</ele>
        <time>2013-12-23T15:08:45.000Z</time>
      </trkpt>
      <trkpt lat="43.49699" lon="6.94218">
        <ele>179.19999694824</ele>
        <time>2013-12-23T15:08:48.000Z</time>
      </trkpt>
      <trkpt lat="43.4969" lon="6.9422">
        <ele>177.80000305176</ele>
        <time>2013-12-23T15:08:50.000Z</time>
      </trkpt>
      <trkpt lat="43.49686" lon="6.94221">
        <ele>177</ele>
        <time>2013-12-23T15:08:52.000Z</time>
      </trkpt>
      <trkpt lat="43.49676" lon="6.94232">
        <ele>176.19999694824</ele>
        <time>2013-12-23T15:08:57.000Z</time>
      </trkpt>
      <trkpt lat="43.49668" lon="6.94244">
        <ele>175.80000305176</ele>
        <time>2013-12-23T15:09:01.000Z</time>
      </trkpt>
      <trkpt lat="43.49657" lon="6.94241">
        <ele>173.39999389648</ele>
        <time>2013-12-23T15:09:04.000Z</time>
      </trkpt>
      <trkpt lat="43.49643" lon="6.94242">
        <ele>170.80000305176</ele>
        <time>2013-12-23T15:09:07.000Z</time>
      </trkpt>
      <trkpt lat="43.49632" lon="6.94247">
        <ele>169.39999389648</ele>
        <time>2013-12-23T15:09:09.000Z</time>
      </trkpt>
      <trkpt lat="43.49625" lon="6.94252">
        <ele>168.19999694824</ele>
        <time>2013-12-23T15:09:11.000Z</time>
      </trkpt>
      <trkpt lat="43.49611" lon="6.94267">
        <ele>164.39999389648</ele>
        <time>2013-12-23T15:09:16.000Z</time>
      </trkpt>
      <trkpt lat="43.49609" lon="6.94271">
        <ele>163.80000305176</ele>
        <time>2013-12-23T15:09:17.000Z</time>
      </trkpt>
      <trkpt lat="43.49607" lon="6.94274">
        <ele>163</ele>
        <time>2013-12-23T15:09:18.000Z</time>
      </trkpt>
      <trkpt lat="43.49599" lon="6.94278">
        <ele>161.39999389648</ele>
        <time>2013-12-23T15:09:21.000Z</time>
      </trkpt>
      <trkpt lat="43.49583" lon="6.94279">
        <ele>159</ele>
        <time>2013-12-23T15:09:26.000Z</time>
      </trkpt>
      <trkpt lat="43.49574" lon="6.94273">
        <ele>158.80000305176</ele>
        <time>2013-12-23T15:09:30.000Z</time>
      </trkpt>
      <trkpt lat="43.49568" lon="6.9427">
        <ele>158.80000305176</ele>
        <time>2013-12-23T15:09:34.000Z</time>
      </trkpt>
      <trkpt lat="43.49566" lon="6.94271">
        <ele>158.60000610352</ele>
        <time>2013-12-23T15:09:39.000Z</time>
      </trkpt>
      <trkpt lat="43.49561" lon="6.94272">
        <ele>158.19999694824</ele>
        <time>2013-12-23T15:10:05.000Z</time>
      </trkpt>
      <trkpt lat="43.49561" lon="6.94274">
        <ele>158</ele>
        <time>2013-12-23T15:10:06.000Z</time>
      </trkpt>
      <trkpt lat="43.49565" lon="6.94276">
        <ele>158</ele>
        <time>2013-12-23T15:10:10.000Z</time>
      </trkpt>
      <trkpt lat="43.49566" lon="6.94275">
        <ele>158.19999694824</ele>
        <time>2013-12-23T15:10:15.000Z</time>
      </trkpt>
      <trkpt lat="43.4956" lon="6.94271">
        <ele>158.19999694824</ele>
        <time>2013-12-23T15:11:16.000Z</time>
      </trkpt>
      <trkpt lat="43.49551" lon="6.94263">
        <ele>158.39999389648</ele>
        <time>2013-12-23T15:11:22.000Z</time>
      </trkpt>
      <trkpt lat="43.49544" lon="6.94249">
        <ele>159</ele>
        <time>2013-12-23T15:11:27.000Z</time>
      </trkpt>
      <trkpt lat="43.49536" lon="6.94248">
        <ele>158.39999389648</ele>
        <time>2013-12-23T15:11:31.000Z</time>
      </trkpt>
      <trkpt lat="43.49514" lon="6.94253">
        <ele>157.39999389648</ele>
        <time>2013-12-23T15:11:40.000Z</time>
      </trkpt>
      <trkpt lat="43.49496" lon="6.94256">
        <ele>156.39999389648</ele>
        <time>2013-12-23T15:11:46.000Z</time>
      </trkpt>
      <trkpt lat="43.49469" lon="6.94254">
        <ele>156.19999694824</ele>
        <time>2013-12-23T15:11:53.000Z</time>
      </trkpt>
      <trkpt lat="43.49453" lon="6.94254">
        <ele>155.80000305176</ele>
        <time>2013-12-23T15:11:57.000Z</time>
      </trkpt>
      <trkpt lat="43.49449" lon="6.94251">
        <ele>156.19999694824</ele>
        <time>2013-12-23T15:11:58.000Z</time>
      </trkpt>
      <trkpt lat="43.49443" lon="6.94244">
        <ele>155.80000305176</ele>
        <time>2013-12-23T15:12:01.000Z</time>
      </trkpt>
      <trkpt lat="43.49441" lon="6.94244">
        <ele>155.80000305176</ele>
        <time>2013-12-23T15:12:02.000Z</time>
      </trkpt>
      <trkpt lat="43.49437" lon="6.9424">
        <ele>155.39999389648</ele>
        <time>2013-12-23T15:12:06.000Z</time>
      </trkpt>
      <trkpt lat="43.49432" lon="6.94244">
        <ele>155.60000610352</ele>
        <time>2013-12-23T15:12:09.000Z</time>
      </trkpt>
      <trkpt lat="43.49429" lon="6.94245">
        <ele>155.80000305176</ele>
        <time>2013-12-23T15:12:10.000Z</time>
      </trkpt>
      <trkpt lat="43.49428" lon="6.94245">
        <ele>155.80000305176</ele>
        <time>2013-12-23T15:12:11.000Z</time>
      </trkpt>
      <trkpt lat="43.49424" lon="6.94243">
        <ele>155.60000610352</ele>
        <time>2013-12-23T15:12:14.000Z</time>
      </trkpt>
      <trkpt lat="43.49419" lon="6.94246">
        <ele>155.80000305176</ele>
        <time>2013-12-23T15:12:17.000Z</time>
      </trkpt>
      <trkpt lat="43.49417" lon="6.94248">
        <ele>155.80000305176</ele>
        <time>2013-12-23T15:12:18.000Z</time>
      </trkpt>
      <trkpt lat="43.4941" lon="6.94256">
        <ele>155.19999694824</ele>
        <time>2013-12-23T15:12:24.000Z</time>
      </trkpt>
      <trkpt lat="43.4941" lon="6.94255">
        <ele>155.39999389648</ele>
        <time>2013-12-23T15:12:30.000Z</time>
      </trkpt>
      <trkpt lat="43.49407" lon="6.94258">
        <ele>154.80000305176</ele>
        <time>2013-12-23T15:15:22.000Z</time>
      </trkpt>
      <trkpt lat="43.49403" lon="6.94263">
        <ele>154.19999694824</ele>
        <time>2013-12-23T15:16:32.000Z</time>
      </trkpt>
      <trkpt lat="43.49392" lon="6.94276">
        <ele>152</ele>
        <time>2013-12-23T15:16:37.000Z</time>
      </trkpt>
      <trkpt lat="43.49389" lon="6.94277">
        <ele>151.80000305176</ele>
        <time>2013-12-23T15:16:38.000Z</time>
      </trkpt>
      <trkpt lat="43.49379" lon="6.94282">
        <ele>151.19999694824</ele>
        <time>2013-12-23T15:16:41.000Z</time>
      </trkpt>
      <trkpt lat="43.49371" lon="6.94293">
        <ele>149.19999694824</ele>
        <time>2013-12-23T15:16:44.000Z</time>
      </trkpt>
      <trkpt lat="43.4937" lon="6.94297">
        <ele>148.60000610352</ele>
        <time>2013-12-23T15:16:45.000Z</time>
      </trkpt>
      <trkpt lat="43.49367" lon="6.94307">
        <ele>146.80000305176</ele>
        <time>2013-12-23T15:16:49.000Z</time>
      </trkpt>
      <trkpt lat="43.49366" lon="6.94314">
        <ele>145.60000610352</ele>
        <time>2013-12-23T15:16:52.000Z</time>
      </trkpt>
      <trkpt lat="43.49364" lon="6.94325">
        <ele>143.60000610352</ele>
        <time>2013-12-23T15:16:56.000Z</time>
      </trkpt>
      <trkpt lat="43.49362" lon="6.94333">
        <ele>142</ele>
        <time>2013-12-23T15:17:00.000Z</time>
      </trkpt>
      <trkpt lat="43.49355" lon="6.94348">
        <ele>137.39999389648</ele>
        <time>2013-12-23T15:17:04.000Z</time>
      </trkpt>
      <trkpt lat="43.4935" lon="6.94366">
        <ele>131.19999694824</ele>
        <time>2013-12-23T15:17:09.000Z</time>
      </trkpt>
      <trkpt lat="43.49347" lon="6.94371">
        <ele>129.80000305176</ele>
        <time>2013-12-23T15:17:11.000Z</time>
      </trkpt>
      <trkpt lat="43.49345" lon="6.94373">
        <ele>129.39999389648</ele>
        <time>2013-12-23T15:17:13.000Z</time>
      </trkpt>
      <trkpt lat="43.49346" lon="6.94372">
        <ele>129.39999389648</ele>
        <time>2013-12-23T15:17:24.000Z</time>
      </trkpt>
      <trkpt lat="43.49347" lon="6.94371">
        <ele>129.80000305176</ele>
        <time>2013-12-23T15:18:02.000Z</time>
      </trkpt>
      <trkpt lat="43.49342" lon="6.94371">
        <ele>130.19999694824</ele>
        <time>2013-12-23T15:18:51.000Z</time>
      </trkpt>
      <trkpt lat="43.49339" lon="6.94377">
        <ele>128</ele>
        <time>2013-12-23T15:18:55.000Z</time>
      </trkpt>
      <trkpt lat="43.49339" lon="6.94379">
        <ele>127.59999847412</ele>
        <time>2013-12-23T15:18:56.000Z</time>
      </trkpt>
      <trkpt lat="43.49337" lon="6.94386">
        <ele>125.59999847412</ele>
        <time>2013-12-23T15:19:01.000Z</time>
      </trkpt>
      <trkpt lat="43.49336" lon="6.94386">
        <ele>125.59999847412</ele>
        <time>2013-12-23T15:19:03.000Z</time>
      </trkpt>
      <trkpt lat="43.49336" lon="6.94386">
        <ele>125.59999847412</ele>
        <time>2013-12-23T15:19:07.000Z</time>
      </trkpt>
      <trkpt lat="43.49331" lon="6.94392">
        <ele>123.19999694824</ele>
        <time>2013-12-23T15:20:07.000Z</time>
      </trkpt>
      <trkpt lat="43.49321" lon="6.94395">
        <ele>119.80000305176</ele>
        <time>2013-12-23T15:20:11.000Z</time>
      </trkpt>
      <trkpt lat="43.49304" lon="6.94395">
        <ele>116</ele>
        <time>2013-12-23T15:20:16.000Z</time>
      </trkpt>
      <trkpt lat="43.49294" lon="6.94396">
        <ele>113.59999847412</ele>
        <time>2013-12-23T15:20:20.000Z</time>
      </trkpt>
      <trkpt lat="43.49292" lon="6.94395">
        <ele>113.19999694824</ele>
        <time>2013-12-23T15:20:21.000Z</time>
      </trkpt>
      <trkpt lat="43.49292" lon="6.94397">
        <ele>112.59999847412</ele>
        <time>2013-12-23T15:20:25.000Z</time>
      </trkpt>
      <trkpt lat="43.49292" lon="6.94399">
        <ele>112.19999694824</ele>
        <time>2013-12-23T15:20:28.000Z</time>
      </trkpt>
      <trkpt lat="43.49293" lon="6.94403">
        <ele>111.59999847412</ele>
        <time>2013-12-23T15:20:33.000Z</time>
      </trkpt>
      <trkpt lat="43.49294" lon="6.94405">
        <ele>111.40000152588</ele>
        <time>2013-12-23T15:20:39.000Z</time>
      </trkpt>
      <trkpt lat="43.49292" lon="6.94404">
        <ele>111.19999694824</ele>
        <time>2013-12-23T15:20:44.000Z</time>
      </trkpt>
      <trkpt lat="43.4929" lon="6.94405">
        <ele>110.59999847412</ele>
        <time>2013-12-23T15:20:45.000Z</time>
      </trkpt>
      <trkpt lat="43.49286" lon="6.94414">
        <ele>107.59999847412</ele>
        <time>2013-12-23T15:20:49.000Z</time>
      </trkpt>
      <trkpt lat="43.49284" lon="6.94415">
        <ele>107</ele>
        <time>2013-12-23T15:20:50.000Z</time>
      </trkpt>
      <trkpt lat="43.49284" lon="6.94414">
        <ele>107</ele>
        <time>2013-12-23T15:20:52.000Z</time>
      </trkpt>
      <trkpt lat="43.49286" lon="6.9441">
        <ele>108.40000152588</ele>
        <time>2013-12-23T15:21:09.000Z</time>
      </trkpt>
      <trkpt lat="43.49288" lon="6.9441">
        <ele>108.80000305176</ele>
        <time>2013-12-23T15:21:15.000Z</time>
      </trkpt>
      <trkpt lat="43.49288" lon="6.94407">
        <ele>109.59999847412</ele>
        <time>2013-12-23T15:21:22.000Z</time>
      </trkpt>
      <trkpt lat="43.49288" lon="6.94405">
        <ele>110</ele>
        <time>2013-12-23T15:21:28.000Z</time>
      </trkpt>
      <trkpt lat="43.4929" lon="6.94404">
        <ele>110.59999847412</ele>
        <time>2013-12-23T15:21:40.000Z</time>
      </trkpt>
      <trkpt lat="43.49288" lon="6.94408">
        <ele>109.19999694824</ele>
        <time>2013-12-23T15:22:02.000Z</time>
      </trkpt>
      <trkpt lat="43.4929" lon="6.94406">
        <ele>110.40000152588</ele>
        <time>2013-12-23T15:22:07.000Z</time>
      </trkpt>
      <trkpt lat="43.49294" lon="6.94406">
        <ele>111.19999694824</ele>
        <time>2013-12-23T15:22:20.000Z</time>
      </trkpt>
      <trkpt lat="43.49297" lon="6.94408">
        <ele>111.19999694824</ele>
        <time>2013-12-23T15:23:03.000Z</time>
      </trkpt>
      <trkpt lat="43.49298" lon="6.94404">
        <ele>112.40000152588</ele>
        <time>2013-12-23T15:23:08.000Z</time>
      </trkpt>
      <trkpt lat="43.49298" lon="6.94396">
        <ele>114.19999694824</ele>
        <time>2013-12-23T15:23:30.000Z</time>
      </trkpt>
      <trkpt lat="43.49294" lon="6.94396">
        <ele>113.59999847412</ele>
        <time>2013-12-23T15:23:32.000Z</time>
      </trkpt>
      <trkpt lat="43.49291" lon="6.94404">
        <ele>110.80000305176</ele>
        <time>2013-12-23T15:23:36.000Z</time>
      </trkpt>
      <trkpt lat="43.49287" lon="6.94407">
        <ele>109.40000152588</ele>
        <time>2013-12-23T15:23:39.000Z</time>
      </trkpt>
      <trkpt lat="43.49286" lon="6.94407">
        <ele>109.19999694824</ele>
        <time>2013-12-23T15:23:40.000Z</time>
      </trkpt>
      <trkpt lat="43.49286" lon="6.94407">
        <ele>109.19999694824</ele>
        <time>2013-12-23T15:23:43.000Z</time>
      </trkpt>
      <trkpt lat="43.49282" lon="6.94411">
        <ele>107.40000152588</ele>
        <time>2013-12-23T15:24:18.000Z</time>
      </trkpt>
      <trkpt lat="43.49282" lon="6.94409">
        <ele>107.80000305176</ele>
        <time>2013-12-23T15:24:38.000Z</time>
      </trkpt>
      <trkpt lat="43.49282" lon="6.94414">
        <ele>106.80000305176</ele>
        <time>2013-12-23T15:32:48.000Z</time>
      </trkpt>
      <trkpt lat="43.49275" lon="6.94404">
        <ele>107.40000152588</ele>
        <time>2013-12-23T15:32:53.000Z</time>
      </trkpt>
      <trkpt lat="43.49271" lon="6.94396">
        <ele>108.19999694824</ele>
        <time>2013-12-23T15:32:56.000Z</time>
      </trkpt>
      <trkpt lat="43.49269" lon="6.94394">
        <ele>108.19999694824</ele>
        <time>2013-12-23T15:32:57.000Z</time>
      </trkpt>
      <trkpt lat="43.49266" lon="6.94391">
        <ele>108.19999694824</ele>
        <time>2013-12-23T15:32:59.000Z</time>
      </trkpt>
      <trkpt lat="43.49263" lon="6.94387">
        <ele>108</ele>
        <time>2013-12-23T15:33:01.000Z</time>
      </trkpt>
      <trkpt lat="43.49256" lon="6.94385">
        <ele>106.80000305176</ele>
        <time>2013-12-23T15:33:04.000Z</time>
      </trkpt>
      <trkpt lat="43.49252" lon="6.94384">
        <ele>106</ele>
        <time>2013-12-23T15:33:06.000Z</time>
      </trkpt>
      <trkpt lat="43.49242" lon="6.94381">
        <ele>103</ele>
        <time>2013-12-23T15:33:11.000Z</time>
      </trkpt>
      <trkpt lat="43.49238" lon="6.94381">
        <ele>101.59999847412</ele>
        <time>2013-12-23T15:33:13.000Z</time>
      </trkpt>
      <trkpt lat="43.49236" lon="6.94378">
        <ele>101.59999847412</ele>
        <time>2013-12-23T15:33:15.000Z</time>
      </trkpt>
      <trkpt lat="43.49236" lon="6.94375">
        <ele>102.19999694824</ele>
        <time>2013-12-23T15:33:20.000Z</time>
      </trkpt>
      <trkpt lat="43.49233" lon="6.94367">
        <ele>102.40000152588</ele>
        <time>2013-12-23T15:33:51.000Z</time>
      </trkpt>
      <trkpt lat="43.49231" lon="6.94345">
        <ele>105.40000152588</ele>
        <time>2013-12-23T15:33:57.000Z</time>
      </trkpt>
      <trkpt lat="43.4923" lon="6.94335">
        <ele>106.59999847412</ele>
        <time>2013-12-23T15:33:59.000Z</time>
      </trkpt>
      <trkpt lat="43.49224" lon="6.94329">
        <ele>106.19999694824</ele>
        <time>2013-12-23T15:34:01.000Z</time>
      </trkpt>
      <trkpt lat="43.49219" lon="6.94325">
        <ele>105.40000152588</ele>
        <time>2013-12-23T15:34:03.000Z</time>
      </trkpt>
      <trkpt lat="43.49201" lon="6.94311">
        <ele>103.19999694824</ele>
        <time>2013-12-23T15:34:08.000Z</time>
      </trkpt>
      <trkpt lat="43.49182" lon="6.94291">
        <ele>102.40000152588</ele>
        <time>2013-12-23T15:34:14.000Z</time>
      </trkpt>
      <trkpt lat="43.4918" lon="6.94286">
        <ele>103</ele>
        <time>2013-12-23T15:34:15.000Z</time>
      </trkpt>
      <trkpt lat="43.49174" lon="6.94272">
        <ele>105.19999694824</ele>
        <time>2013-12-23T15:34:18.000Z</time>
      </trkpt>
      <trkpt lat="43.49172" lon="6.94269">
        <ele>105.40000152588</ele>
        <time>2013-12-23T15:34:19.000Z</time>
      </trkpt>
      <trkpt lat="43.49159" lon="6.94259">
        <ele>105.19999694824</ele>
        <time>2013-12-23T15:34:23.000Z</time>
      </trkpt>
      <trkpt lat="43.4915" lon="6.94257">
        <ele>104.40000152588</ele>
        <time>2013-12-23T15:34:25.000Z</time>
      </trkpt>
      <trkpt lat="43.49138" lon="6.94255">
        <ele>103.19999694824</ele>
        <time>2013-12-23T15:34:28.000Z</time>
      </trkpt>
      <trkpt lat="43.49118" lon="6.9425">
        <ele>101.40000152588</ele>
        <time>2013-12-23T15:34:33.000Z</time>
      </trkpt>
      <trkpt lat="43.4911" lon="6.94247">
        <ele>101</ele>
        <time>2013-12-23T15:34:35.000Z</time>
      </trkpt>
      <trkpt lat="43.491" lon="6.94239">
        <ele>101</ele>
        <time>2013-12-23T15:34:38.000Z</time>
      </trkpt>
      <trkpt lat="43.49088" lon="6.94222">
        <ele>102</ele>
        <time>2013-12-23T15:34:43.000Z</time>
      </trkpt>
      <trkpt lat="43.49077" lon="6.94204">
        <ele>104.40000152588</ele>
        <time>2013-12-23T15:34:49.000Z</time>
      </trkpt>
      <trkpt lat="43.49062" lon="6.94182">
        <ele>108.19999694824</ele>
        <time>2013-12-23T15:34:55.000Z</time>
      </trkpt>
      <trkpt lat="43.49057" lon="6.94171">
        <ele>110</ele>
        <time>2013-12-23T15:34:59.000Z</time>
      </trkpt>
      <trkpt lat="43.49054" lon="6.94161">
        <ele>110.59999847412</ele>
        <time>2013-12-23T15:35:07.000Z</time>
      </trkpt>
      <trkpt lat="43.49054" lon="6.94161">
        <ele>110.59999847412</ele>
        <time>2013-12-23T15:35:08.000Z</time>
      </trkpt>
      <trkpt lat="43.49051" lon="6.94158">
        <ele>110.40000152588</ele>
        <time>2013-12-23T15:35:11.000Z</time>
      </trkpt>
      <trkpt lat="43.49053" lon="6.9415">
        <ele>110.19999694824</ele>
        <time>2013-12-23T15:35:15.000Z</time>
      </trkpt>
      <trkpt lat="43.49053" lon="6.94148">
        <ele>110.19999694824</ele>
        <time>2013-12-23T15:35:16.000Z</time>
      </trkpt>
      <trkpt lat="43.49057" lon="6.94135">
        <ele>110</ele>
        <time>2013-12-23T15:35:22.000Z</time>
      </trkpt>
      <trkpt lat="43.49066" lon="6.94116">
        <ele>110.19999694824</ele>
        <time>2013-12-23T15:35:29.000Z</time>
      </trkpt>
      <trkpt lat="43.49081" lon="6.94086">
        <ele>110.80000305176</ele>
        <time>2013-12-23T15:35:39.000Z</time>
      </trkpt>
      <trkpt lat="43.49086" lon="6.94064">
        <ele>111.19999694824</ele>
        <time>2013-12-23T15:35:46.000Z</time>
      </trkpt>
      <trkpt lat="43.49091" lon="6.94037">
        <ele>111.59999847412</ele>
        <time>2013-12-23T15:35:55.000Z</time>
      </trkpt>
      <trkpt lat="43.49094" lon="6.94012">
        <ele>111.59999847412</ele>
        <time>2013-12-23T15:36:03.000Z</time>
      </trkpt>
      <trkpt lat="43.491" lon="6.93981">
        <ele>112</ele>
        <time>2013-12-23T15:36:11.000Z</time>
      </trkpt>
      <trkpt lat="43.49103" lon="6.93954">
        <ele>111.59999847412</ele>
        <time>2013-12-23T15:36:18.000Z</time>
      </trkpt>
      <trkpt lat="43.49108" lon="6.93922">
        <ele>111</ele>
        <time>2013-12-23T15:36:27.000Z</time>
      </trkpt>
      <trkpt lat="43.49111" lon="6.93898">
        <ele>110.19999694824</ele>
        <time>2013-12-23T15:36:34.000Z</time>
      </trkpt>
      <trkpt lat="43.4912" lon="6.93869">
        <ele>111.40000152588</ele>
        <time>2013-12-23T15:36:42.000Z</time>
      </trkpt>
      <trkpt lat="43.4913" lon="6.93859">
        <ele>114.19999694824</ele>
        <time>2013-12-23T15:36:47.000Z</time>
      </trkpt>
      <trkpt lat="43.49133" lon="6.93856">
        <ele>115</ele>
        <time>2013-12-23T15:36:49.000Z</time>
      </trkpt>
      <trkpt lat="43.49138" lon="6.93851">
        <ele>116.19999694824</ele>
        <time>2013-12-23T15:36:51.000Z</time>
      </trkpt>
      <trkpt lat="43.49143" lon="6.93837">
        <ele>116.59999847412</ele>
        <time>2013-12-23T15:36:56.000Z</time>
      </trkpt>
      <trkpt lat="43.4915" lon="6.93822">
        <ele>118.40000152588</ele>
        <time>2013-12-23T15:37:03.000Z</time>
      </trkpt>
      <trkpt lat="43.49151" lon="6.93819">
        <ele>118.80000305176</ele>
        <time>2013-12-23T15:37:04.000Z</time>
      </trkpt>
      <trkpt lat="43.49156" lon="6.93804">
        <ele>120.40000152588</ele>
        <time>2013-12-23T15:37:10.000Z</time>
      </trkpt>
      <trkpt lat="43.4916" lon="6.93782">
        <ele>121.19999694824</ele>
        <time>2013-12-23T15:37:17.000Z</time>
      </trkpt>
      <trkpt lat="43.49157" lon="6.93762">
        <ele>119.40000152588</ele>
        <time>2013-12-23T15:37:23.000Z</time>
      </trkpt>
      <trkpt lat="43.49147" lon="6.93747">
        <ele>115.40000152588</ele>
        <time>2013-12-23T15:37:29.000Z</time>
      </trkpt>
      <trkpt lat="43.49139" lon="6.93721">
        <ele>112.40000152588</ele>
        <time>2013-12-23T15:37:37.000Z</time>
      </trkpt>
      <trkpt lat="43.49141" lon="6.93703">
        <ele>113.59999847412</ele>
        <time>2013-12-23T15:37:42.000Z</time>
      </trkpt>
      <trkpt lat="43.49144" lon="6.93685">
        <ele>115</ele>
        <time>2013-12-23T15:37:47.000Z</time>
      </trkpt>
      <trkpt lat="43.49148" lon="6.9366">
        <ele>116.19999694824</ele>
        <time>2013-12-23T15:37:54.000Z</time>
      </trkpt>
      <trkpt lat="43.49155" lon="6.93634">
        <ele>116.19999694824</ele>
        <time>2013-12-23T15:38:01.000Z</time>
      </trkpt>
      <trkpt lat="43.49166" lon="6.93619">
        <ele>118.19999694824</ele>
        <time>2013-12-23T15:38:06.000Z</time>
      </trkpt>
      <trkpt lat="43.49179" lon="6.93606">
        <ele>121.59999847412</ele>
        <time>2013-12-23T15:38:12.000Z</time>
      </trkpt>
      <trkpt lat="43.49193" lon="6.93592">
        <ele>125.40000152588</ele>
        <time>2013-12-23T15:38:18.000Z</time>
      </trkpt>
      <trkpt lat="43.49205" lon="6.9358">
        <ele>128.39999389648</ele>
        <time>2013-12-23T15:38:23.000Z</time>
      </trkpt>
      <trkpt lat="43.49209" lon="6.93569">
        <ele>130</ele>
        <time>2013-12-23T15:38:27.000Z</time>
      </trkpt>
      <trkpt lat="43.49209" lon="6.93565">
        <ele>130</ele>
        <time>2013-12-23T15:38:28.000Z</time>
      </trkpt>
      <trkpt lat="43.49208" lon="6.93549">
        <ele>129.60000610352</ele>
        <time>2013-12-23T15:38:33.000Z</time>
      </trkpt>
      <trkpt lat="43.49203" lon="6.93534">
        <ele>127.19999694824</ele>
        <time>2013-12-23T15:38:38.000Z</time>
      </trkpt>
      <trkpt lat="43.492" lon="6.93524">
        <ele>125.19999694824</ele>
        <time>2013-12-23T15:38:41.000Z</time>
      </trkpt>
      <trkpt lat="43.49197" lon="6.93515">
        <ele>124</ele>
        <time>2013-12-23T15:38:44.000Z</time>
      </trkpt>
      <trkpt lat="43.49195" lon="6.93495">
        <ele>122.40000152588</ele>
        <time>2013-12-23T15:38:50.000Z</time>
      </trkpt>
      <trkpt lat="43.49196" lon="6.93473">
        <ele>122.59999847412</ele>
        <time>2013-12-23T15:38:56.000Z</time>
      </trkpt>
      <trkpt lat="43.49199" lon="6.93455">
        <ele>123.59999847412</ele>
        <time>2013-12-23T15:39:02.000Z</time>
      </trkpt>
      <trkpt lat="43.49206" lon="6.93426">
        <ele>126.19999694824</ele>
        <time>2013-12-23T15:39:10.000Z</time>
      </trkpt>
      <trkpt lat="43.49213" lon="6.93393">
        <ele>128.39999389648</ele>
        <time>2013-12-23T15:39:18.000Z</time>
      </trkpt>
      <trkpt lat="43.49219" lon="6.93368">
        <ele>129.80000305176</ele>
        <time>2013-12-23T15:39:25.000Z</time>
      </trkpt>
      <trkpt lat="43.49224" lon="6.93339">
        <ele>130.39999389648</ele>
        <time>2013-12-23T15:39:33.000Z</time>
      </trkpt>
      <trkpt lat="43.49229" lon="6.93316">
        <ele>130.39999389648</ele>
        <time>2013-12-23T15:39:39.000Z</time>
      </trkpt>
      <trkpt lat="43.49232" lon="6.93292">
        <ele>129.39999389648</ele>
        <time>2013-12-23T15:39:45.000Z</time>
      </trkpt>
      <trkpt lat="43.49232" lon="6.93268">
        <ele>126.59999847412</ele>
        <time>2013-12-23T15:39:51.000Z</time>
      </trkpt>
      <trkpt lat="43.49238" lon="6.93243">
        <ele>125.80000305176</ele>
        <time>2013-12-23T15:39:58.000Z</time>
      </trkpt>
      <trkpt lat="43.49247" lon="6.93233">
        <ele>127</ele>
        <time>2013-12-23T15:40:03.000Z</time>
      </trkpt>
      <trkpt lat="43.49258" lon="6.93221">
        <ele>128.19999694824</ele>
        <time>2013-12-23T15:40:09.000Z</time>
      </trkpt>
      <trkpt lat="43.49274" lon="6.93206">
        <ele>131</ele>
        <time>2013-12-23T15:40:16.000Z</time>
      </trkpt>
      <trkpt lat="43.49292" lon="6.93189">
        <ele>134.60000610352</ele>
        <time>2013-12-23T15:40:23.000Z</time>
      </trkpt>
      <trkpt lat="43.49303" lon="6.93168">
        <ele>135</ele>
        <time>2013-12-23T15:40:28.000Z</time>
      </trkpt>
      <trkpt lat="43.49304" lon="6.93152">
        <ele>132</ele>
        <time>2013-12-23T15:40:33.000Z</time>
      </trkpt>
      <trkpt lat="43.49303" lon="6.93148">
        <ele>131</ele>
        <time>2013-12-23T15:40:34.000Z</time>
      </trkpt>
      <trkpt lat="43.49301" lon="6.93123">
        <ele>125.40000152588</ele>
        <time>2013-12-23T15:40:40.000Z</time>
      </trkpt>
      <trkpt lat="43.49309" lon="6.93109">
        <ele>126.40000152588</ele>
        <time>2013-12-23T15:40:45.000Z</time>
      </trkpt>
      <trkpt lat="43.49326" lon="6.93089">
        <ele>130</ele>
        <time>2013-12-23T15:40:52.000Z</time>
      </trkpt>
      <trkpt lat="43.49347" lon="6.93063">
        <ele>132.19999694824</ele>
        <time>2013-12-23T15:40:59.000Z</time>
      </trkpt>
      <trkpt lat="43.49361" lon="6.93036">
        <ele>131.80000305176</ele>
        <time>2013-12-23T15:41:05.000Z</time>
      </trkpt>
      <trkpt lat="43.49363" lon="6.9303">
        <ele>131.39999389648</ele>
        <time>2013-12-23T15:41:06.000Z</time>
      </trkpt>
      <trkpt lat="43.49366" lon="6.93015">
        <ele>130</ele>
        <time>2013-12-23T15:41:09.000Z</time>
      </trkpt>
      <trkpt lat="43.49365" lon="6.93011">
        <ele>128.80000305176</ele>
        <time>2013-12-23T15:41:10.000Z</time>
      </trkpt>
      <trkpt lat="43.49363" lon="6.92991">
        <ele>125.19999694824</ele>
        <time>2013-12-23T15:41:14.000Z</time>
      </trkpt>
      <trkpt lat="43.49364" lon="6.92986">
        <ele>124.80000305176</ele>
        <time>2013-12-23T15:41:15.000Z</time>
      </trkpt>
      <trkpt lat="43.49373" lon="6.92955">
        <ele>124</ele>
        <time>2013-12-23T15:41:21.000Z</time>
      </trkpt>
      <trkpt lat="43.49383" lon="6.92932">
        <ele>124.40000152588</ele>
        <time>2013-12-23T15:41:26.000Z</time>
      </trkpt>
      <trkpt lat="43.4938" lon="6.92916">
        <ele>121</ele>
        <time>2013-12-23T15:41:29.000Z</time>
      </trkpt>
      <trkpt lat="43.49379" lon="6.92905">
        <ele>119.19999694824</ele>
        <time>2013-12-23T15:41:31.000Z</time>
      </trkpt>
      <trkpt lat="43.49379" lon="6.9288">
        <ele>115.80000305176</ele>
        <time>2013-12-23T15:41:35.000Z</time>
      </trkpt>
      <trkpt lat="43.49385" lon="6.92852">
        <ele>114</ele>
        <time>2013-12-23T15:41:40.000Z</time>
      </trkpt>
      <trkpt lat="43.49388" lon="6.92846">
        <ele>113.80000305176</ele>
        <time>2013-12-23T15:41:41.000Z</time>
      </trkpt>
      <trkpt lat="43.49404" lon="6.92826">
        <ele>116</ele>
        <time>2013-12-23T15:41:46.000Z</time>
      </trkpt>
      <trkpt lat="43.49422" lon="6.92818">
        <ele>118.59999847412</ele>
        <time>2013-12-23T15:41:50.000Z</time>
      </trkpt>
      <trkpt lat="43.49438" lon="6.92822">
        <ele>120</ele>
        <time>2013-12-23T15:41:54.000Z</time>
      </trkpt>
      <trkpt lat="43.49453" lon="6.92821">
        <ele>120.40000152588</ele>
        <time>2013-12-23T15:41:58.000Z</time>
      </trkpt>
      <trkpt lat="43.49458" lon="6.92813">
        <ele>119.80000305176</ele>
        <time>2013-12-23T15:42:00.000Z</time>
      </trkpt>
      <trkpt lat="43.49465" lon="6.92802">
        <ele>119.19999694824</ele>
        <time>2013-12-23T15:42:03.000Z</time>
      </trkpt>
      <trkpt lat="43.4948" lon="6.92784">
        <ele>119</ele>
        <time>2013-12-23T15:42:09.000Z</time>
      </trkpt>
      <trkpt lat="43.49486" lon="6.92778">
        <ele>119.40000152588</ele>
        <time>2013-12-23T15:42:14.000Z</time>
      </trkpt>
      <trkpt lat="43.49487" lon="6.92778">
        <ele>119.59999847412</ele>
        <time>2013-12-23T15:42:15.000Z</time>
      </trkpt>
      <trkpt lat="43.49488" lon="6.92778">
        <ele>119.59999847412</ele>
        <time>2013-12-23T15:42:22.000Z</time>
      </trkpt>
      <trkpt lat="43.49491" lon="6.92779">
        <ele>120</ele>
        <time>2013-12-23T15:42:36.000Z</time>
      </trkpt>
      <trkpt lat="43.49491" lon="6.92781">
        <ele>120.19999694824</ele>
        <time>2013-12-23T15:42:49.000Z</time>
      </trkpt>
      <trkpt lat="43.49489" lon="6.92784">
        <ele>120</ele>
        <time>2013-12-23T15:43:26.000Z</time>
      </trkpt>
      <trkpt lat="43.49489" lon="6.92783">
        <ele>120</ele>
        <time>2013-12-23T15:43:46.000Z</time>
      </trkpt>
      <trkpt lat="43.49492" lon="6.92781">
        <ele>120.19999694824</ele>
        <time>2013-12-23T15:43:49.000Z</time>
      </trkpt>
      <trkpt lat="43.49496" lon="6.92782">
        <ele>120.80000305176</ele>
        <time>2013-12-23T15:43:51.000Z</time>
      </trkpt>
      <trkpt lat="43.49504" lon="6.92794">
        <ele>120.80000305176</ele>
        <time>2013-12-23T15:43:55.000Z</time>
      </trkpt>
      <trkpt lat="43.49513" lon="6.92816">
        <ele>119.59999847412</ele>
        <time>2013-12-23T15:43:59.000Z</time>
      </trkpt>
      <trkpt lat="43.4952" lon="6.92833">
        <ele>118</ele>
        <time>2013-12-23T15:44:03.000Z</time>
      </trkpt>
      <trkpt lat="43.49529" lon="6.92838">
        <ele>116.40000152588</ele>
        <time>2013-12-23T15:44:05.000Z</time>
      </trkpt>
      <trkpt lat="43.49534" lon="6.92842">
        <ele>115.40000152588</ele>
        <time>2013-12-23T15:44:06.000Z</time>
      </trkpt>
      <trkpt lat="43.49543" lon="6.92848">
        <ele>113.80000305176</ele>
        <time>2013-12-23T15:44:08.000Z</time>
      </trkpt>
      <trkpt lat="43.49548" lon="6.92859">
        <ele>113.59999847412</ele>
        <time>2013-12-23T15:44:10.000Z</time>
      </trkpt>
      <trkpt lat="43.49551" lon="6.92864">
        <ele>113.19999694824</ele>
        <time>2013-12-23T15:44:11.000Z</time>
      </trkpt>
      <trkpt lat="43.4956" lon="6.92873">
        <ele>111.19999694824</ele>
        <time>2013-12-23T15:44:14.000Z</time>
      </trkpt>
      <trkpt lat="43.49566" lon="6.92878">
        <ele>109.80000305176</ele>
        <time>2013-12-23T15:44:16.000Z</time>
      </trkpt>
      <trkpt lat="43.49577" lon="6.92883">
        <ele>107</ele>
        <time>2013-12-23T15:44:19.000Z</time>
      </trkpt>
      <trkpt lat="43.4958" lon="6.92885">
        <ele>106.19999694824</ele>
        <time>2013-12-23T15:44:20.000Z</time>
      </trkpt>
      <trkpt lat="43.49587" lon="6.92898">
        <ele>105.40000152588</ele>
        <time>2013-12-23T15:44:23.000Z</time>
      </trkpt>
      <trkpt lat="43.49592" lon="6.92904">
        <ele>105</ele>
        <time>2013-12-23T15:44:25.000Z</time>
      </trkpt>
      <trkpt lat="43.49597" lon="6.92912">
        <ele>104.59999847412</ele>
        <time>2013-12-23T15:44:28.000Z</time>
      </trkpt>
      <trkpt lat="43.49603" lon="6.92922">
        <ele>104</ele>
        <time>2013-12-23T15:44:32.000Z</time>
      </trkpt>
      <trkpt lat="43.49611" lon="6.92935">
        <ele>103.40000152588</ele>
        <time>2013-12-23T15:44:37.000Z</time>
      </trkpt>
      <trkpt lat="43.49619" lon="6.92942">
        <ele>102.19999694824</ele>
        <time>2013-12-23T15:44:42.000Z</time>
      </trkpt>
      <trkpt lat="43.49625" lon="6.92947">
        <ele>101</ele>
        <time>2013-12-23T15:44:46.000Z</time>
      </trkpt>
      <trkpt lat="43.49634" lon="6.92951">
        <ele>99.400001525879</ele>
        <time>2013-12-23T15:44:50.000Z</time>
      </trkpt>
      <trkpt lat="43.49649" lon="6.92954">
        <ele>96.599998474121</ele>
        <time>2013-12-23T15:44:54.000Z</time>
      </trkpt>
      <trkpt lat="43.49659" lon="6.92962">
        <ele>94.599998474121</ele>
        <time>2013-12-23T15:44:58.000Z</time>
      </trkpt>
      <trkpt lat="43.49672" lon="6.92971">
        <ele>93.199996948242</ele>
        <time>2013-12-23T15:45:03.000Z</time>
      </trkpt>
      <trkpt lat="43.49683" lon="6.92986">
        <ele>93</ele>
        <time>2013-12-23T15:45:08.000Z</time>
      </trkpt>
      <trkpt lat="43.49694" lon="6.93">
        <ele>92.400001525879</ele>
        <time>2013-12-23T15:45:13.000Z</time>
      </trkpt>
      <trkpt lat="43.49697" lon="6.93003">
        <ele>92</ele>
        <time>2013-12-23T15:45:15.000Z</time>
      </trkpt>
      <trkpt lat="43.49705" lon="6.93009">
        <ele>91.400001525879</ele>
        <time>2013-12-23T15:45:18.000Z</time>
      </trkpt>
      <trkpt lat="43.49708" lon="6.93017">
        <ele>90.800003051758</ele>
        <time>2013-12-23T15:45:20.000Z</time>
      </trkpt>
      <trkpt lat="43.4971" lon="6.93023">
        <ele>90.199996948242</ele>
        <time>2013-12-23T15:45:22.000Z</time>
      </trkpt>
      <trkpt lat="43.49714" lon="6.93038">
        <ele>88.800003051758</ele>
        <time>2013-12-23T15:45:26.000Z</time>
      </trkpt>
      <trkpt lat="43.49711" lon="6.93064">
        <ele>87</ele>
        <time>2013-12-23T15:45:30.000Z</time>
      </trkpt>
      <trkpt lat="43.49704" lon="6.93092">
        <ele>85.800003051758</ele>
        <time>2013-12-23T15:45:34.000Z</time>
      </trkpt>
      <trkpt lat="43.49695" lon="6.9312">
        <ele>84.400001525879</ele>
        <time>2013-12-23T15:45:37.000Z</time>
      </trkpt>
      <trkpt lat="43.49687" lon="6.93147">
        <ele>82.199996948242</ele>
        <time>2013-12-23T15:45:40.000Z</time>
      </trkpt>
      <trkpt lat="43.49684" lon="6.93155">
        <ele>81.400001525879</ele>
        <time>2013-12-23T15:45:41.000Z</time>
      </trkpt>
      <trkpt lat="43.49678" lon="6.93169">
        <ele>80</ele>
        <time>2013-12-23T15:45:43.000Z</time>
      </trkpt>
      <trkpt lat="43.49671" lon="6.93178">
        <ele>79.599998474121</ele>
        <time>2013-12-23T15:45:45.000Z</time>
      </trkpt>
      <trkpt lat="43.49666" lon="6.93186">
        <ele>79.400001525879</ele>
        <time>2013-12-23T15:45:48.000Z</time>
      </trkpt>
      <trkpt lat="43.49666" lon="6.93189">
        <ele>79</ele>
        <time>2013-12-23T15:45:50.000Z</time>
      </trkpt>
      <trkpt lat="43.49667" lon="6.9319">
        <ele>78.800003051758</ele>
        <time>2013-12-23T15:45:52.000Z</time>
      </trkpt>
      <trkpt lat="43.49671" lon="6.93198">
        <ele>78.800003051758</ele>
        <time>2013-12-23T15:46:07.000Z</time>
      </trkpt>
      <trkpt lat="43.49672" lon="6.93196">
        <ele>79</ele>
        <time>2013-12-23T15:46:14.000Z</time>
      </trkpt>
      <trkpt lat="43.49673" lon="6.93197">
        <ele>78.800003051758</ele>
        <time>2013-12-23T15:46:16.000Z</time>
      </trkpt>
      <trkpt lat="43.49674" lon="6.93202">
        <ele>78.800003051758</ele>
        <time>2013-12-23T15:46:19.000Z</time>
      </trkpt>
      <trkpt lat="43.49674" lon="6.93208">
        <ele>78.599998474121</ele>
        <time>2013-12-23T15:46:22.000Z</time>
      </trkpt>
      <trkpt lat="43.49674" lon="6.93211">
        <ele>78.400001525879</ele>
        <time>2013-12-23T15:46:24.000Z</time>
      </trkpt>
      <trkpt lat="43.49675" lon="6.93213">
        <ele>78.400001525879</ele>
        <time>2013-12-23T15:46:25.000Z</time>
      </trkpt>
      <trkpt lat="43.49674" lon="6.93217">
        <ele>78.199996948242</ele>
        <time>2013-12-23T15:46:28.000Z</time>
      </trkpt>
      <trkpt lat="43.49674" lon="6.93224">
        <ele>77.800003051758</ele>
        <time>2013-12-23T15:46:36.000Z</time>
      </trkpt>
      <trkpt lat="43.49674" lon="6.93225">
        <ele>77.800003051758</ele>
        <time>2013-12-23T15:46:37.000Z</time>
      </trkpt>
      <trkpt lat="43.49674" lon="6.93234">
        <ele>77.599998474121</ele>
        <time>2013-12-23T15:46:44.000Z</time>
      </trkpt>
      <trkpt lat="43.49675" lon="6.93238">
        <ele>77.400001525879</ele>
        <time>2013-12-23T15:46:50.000Z</time>
      </trkpt>
      <trkpt lat="43.49675" lon="6.93244">
        <ele>77.400001525879</ele>
        <time>2013-12-23T15:46:54.000Z</time>
      </trkpt>
      <trkpt lat="43.49676" lon="6.93264">
        <ele>76.199996948242</ele>
        <time>2013-12-23T15:47:00.000Z</time>
      </trkpt>
      <trkpt lat="43.49675" lon="6.93275">
        <ele>75</ele>
        <time>2013-12-23T15:47:02.000Z</time>
      </trkpt>
      <trkpt lat="43.49672" lon="6.9328">
        <ele>74.199996948242</ele>
        <time>2013-12-23T15:47:03.000Z</time>
      </trkpt>
      <trkpt lat="43.49664" lon="6.93302">
        <ele>72.400001525879</ele>
        <time>2013-12-23T15:47:07.000Z</time>
      </trkpt>
      <trkpt lat="43.49663" lon="6.93308">
        <ele>72.400001525879</ele>
        <time>2013-12-23T15:47:08.000Z</time>
      </trkpt>
      <trkpt lat="43.49661" lon="6.93319">
        <ele>72.199996948242</ele>
        <time>2013-12-23T15:47:10.000Z</time>
      </trkpt>
      <trkpt lat="43.49658" lon="6.93337">
        <ele>71.800003051758</ele>
        <time>2013-12-23T15:47:13.000Z</time>
      </trkpt>
      <trkpt lat="43.49662" lon="6.9335">
        <ele>70.199996948242</ele>
        <time>2013-12-23T15:47:16.000Z</time>
      </trkpt>
      <trkpt lat="43.49666" lon="6.93353">
        <ele>68.800003051758</ele>
        <time>2013-12-23T15:47:18.000Z</time>
      </trkpt>
      <trkpt lat="43.4967" lon="6.93358">
        <ele>69.199996948242</ele>
        <time>2013-12-23T15:47:20.000Z</time>
      </trkpt>
      <trkpt lat="43.49676" lon="6.93374">
        <ele>69.800003051758</ele>
        <time>2013-12-23T15:47:24.000Z</time>
      </trkpt>
      <trkpt lat="43.49682" lon="6.93402">
        <ele>69.400001525879</ele>
        <time>2013-12-23T15:47:30.000Z</time>
      </trkpt>
      <trkpt lat="43.49691" lon="6.93422">
        <ele>69.199996948242</ele>
        <time>2013-12-23T15:47:34.000Z</time>
      </trkpt>
      <trkpt lat="43.49698" lon="6.93457">
        <ele>67.800003051758</ele>
        <time>2013-12-23T15:47:39.000Z</time>
      </trkpt>
      <trkpt lat="43.49701" lon="6.93475">
        <ele>66.599998474121</ele>
        <time>2013-12-23T15:47:41.000Z</time>
      </trkpt>
      <trkpt lat="43.49707" lon="6.93494">
        <ele>65.199996948242</ele>
        <time>2013-12-23T15:47:43.000Z</time>
      </trkpt>
      <trkpt lat="43.49708" lon="6.935">
        <ele>64.599998474121</ele>
        <time>2013-12-23T15:47:44.000Z</time>
      </trkpt>
      <trkpt lat="43.49706" lon="6.93513">
        <ele>64.400001525879</ele>
        <time>2013-12-23T15:47:46.000Z</time>
      </trkpt>
      <trkpt lat="43.49696" lon="6.93521">
        <ele>65.199996948242</ele>
        <time>2013-12-23T15:47:49.000Z</time>
      </trkpt>
      <trkpt lat="43.49679" lon="6.93539">
        <ele>66.400001525879</ele>
        <time>2013-12-23T15:47:54.000Z</time>
      </trkpt>
      <trkpt lat="43.49674" lon="6.9355">
        <ele>66.400001525879</ele>
        <time>2013-12-23T15:47:56.000Z</time>
      </trkpt>
      <trkpt lat="43.49672" lon="6.93555">
        <ele>66.400001525879</ele>
        <time>2013-12-23T15:47:57.000Z</time>
      </trkpt>
      <trkpt lat="43.49672" lon="6.9356">
        <ele>66.400001525879</ele>
        <time>2013-12-23T15:47:58.000Z</time>
      </trkpt>
      <trkpt lat="43.49672" lon="6.93566">
        <ele>66.199996948242</ele>
        <time>2013-12-23T15:48:01.000Z</time>
      </trkpt>
      <trkpt lat="43.49681" lon="6.93561">
        <ele>65.599998474121</ele>
        <time>2013-12-23T15:48:05.000Z</time>
      </trkpt>
      <trkpt lat="43.49682" lon="6.93558">
        <ele>65.599998474121</ele>
        <time>2013-12-23T15:48:06.000Z</time>
      </trkpt>
      <trkpt lat="43.49692" lon="6.93549">
        <ele>64.800003051758</ele>
        <time>2013-12-23T15:48:10.000Z</time>
      </trkpt>
      <trkpt lat="43.49712" lon="6.93545">
        <ele>63.200000762939</ele>
        <time>2013-12-23T15:48:14.000Z</time>
      </trkpt>
      <trkpt lat="43.49732" lon="6.93556">
        <ele>61</ele>
        <time>2013-12-23T15:48:18.000Z</time>
      </trkpt>
      <trkpt lat="43.49754" lon="6.93564">
        <ele>58.799999237061</ele>
        <time>2013-12-23T15:48:23.000Z</time>
      </trkpt>
      <trkpt lat="43.49761" lon="6.93566">
        <ele>58.200000762939</ele>
        <time>2013-12-23T15:48:25.000Z</time>
      </trkpt>
      <trkpt lat="43.49772" lon="6.93573">
        <ele>56.599998474121</ele>
        <time>2013-12-23T15:48:28.000Z</time>
      </trkpt>
      <trkpt lat="43.49795" lon="6.93585">
        <ele>52.799999237061</ele>
        <time>2013-12-23T15:48:33.000Z</time>
      </trkpt>
      <trkpt lat="43.49799" lon="6.93587">
        <ele>52.599998474121</ele>
        <time>2013-12-23T15:48:34.000Z</time>
      </trkpt>
      <trkpt lat="43.49804" lon="6.9359">
        <ele>52.200000762939</ele>
        <time>2013-12-23T15:48:35.000Z</time>
      </trkpt>
      <trkpt lat="43.49815" lon="6.93598">
        <ele>51.799999237061</ele>
        <time>2013-12-23T15:48:38.000Z</time>
      </trkpt>
      <trkpt lat="43.49821" lon="6.93606">
        <ele>51.599998474121</ele>
        <time>2013-12-23T15:48:40.000Z</time>
      </trkpt>
      <trkpt lat="43.49827" lon="6.93615">
        <ele>51.599998474121</ele>
        <time>2013-12-23T15:48:42.000Z</time>
      </trkpt>
      <trkpt lat="43.49832" lon="6.93622">
        <ele>51.400001525879</ele>
        <time>2013-12-23T15:48:44.000Z</time>
      </trkpt>
      <trkpt lat="43.49846" lon="6.93638">
        <ele>52</ele>
        <time>2013-12-23T15:48:48.000Z</time>
      </trkpt>
      <trkpt lat="43.4985" lon="6.9364">
        <ele>51.799999237061</ele>
        <time>2013-12-23T15:48:49.000Z</time>
      </trkpt>
      <trkpt lat="43.49867" lon="6.9364">
        <ele>50.599998474121</ele>
        <time>2013-12-23T15:48:53.000Z</time>
      </trkpt>
      <trkpt lat="43.49873" lon="6.93639">
        <ele>50.200000762939</ele>
        <time>2013-12-23T15:48:54.000Z</time>
      </trkpt>
      <trkpt lat="43.49884" lon="6.93635">
        <ele>49.200000762939</ele>
        <time>2013-12-23T15:48:56.000Z</time>
      </trkpt>
      <trkpt lat="43.49894" lon="6.93636">
        <ele>48.599998474121</ele>
        <time>2013-12-23T15:48:58.000Z</time>
      </trkpt>
      <trkpt lat="43.49898" lon="6.93638">
        <ele>48.400001525879</ele>
        <time>2013-12-23T15:49:00.000Z</time>
      </trkpt>
      <trkpt lat="43.499" lon="6.9364">
        <ele>48.200000762939</ele>
        <time>2013-12-23T15:49:01.000Z</time>
      </trkpt>
      <trkpt lat="43.49903" lon="6.93641">
        <ele>48</ele>
        <time>2013-12-23T15:49:02.000Z</time>
      </trkpt>
      <trkpt lat="43.49914" lon="6.93639">
        <ele>47.200000762939</ele>
        <time>2013-12-23T15:49:05.000Z</time>
      </trkpt>
      <trkpt lat="43.49923" lon="6.93641">
        <ele>46.799999237061</ele>
        <time>2013-12-23T15:49:08.000Z</time>
      </trkpt>
      <trkpt lat="43.49925" lon="6.93643">
        <ele>46.599998474121</ele>
        <time>2013-12-23T15:49:09.000Z</time>
      </trkpt>
      <trkpt lat="43.49938" lon="6.93653">
        <ele>45.400001525879</ele>
        <time>2013-12-23T15:49:13.000Z</time>
      </trkpt>
      <trkpt lat="43.4996" lon="6.93662">
        <ele>43</ele>
        <time>2013-12-23T15:49:18.000Z</time>
      </trkpt>
      <trkpt lat="43.49963" lon="6.93663">
        <ele>42.599998474121</ele>
        <time>2013-12-23T15:49:19.000Z</time>
      </trkpt>
      <trkpt lat="43.49975" lon="6.93671">
        <ele>42</ele>
        <time>2013-12-23T15:49:22.000Z</time>
      </trkpt>
      <trkpt lat="43.49988" lon="6.93679">
        <ele>42.599998474121</ele>
        <time>2013-12-23T15:49:25.000Z</time>
      </trkpt>
      <trkpt lat="43.49997" lon="6.93685">
        <ele>42.799999237061</ele>
        <time>2013-12-23T15:49:27.000Z</time>
      </trkpt>
      <trkpt lat="43.50008" lon="6.93696">
        <ele>44.799999237061</ele>
        <time>2013-12-23T15:49:30.000Z</time>
      </trkpt>
      <trkpt lat="43.50011" lon="6.93699">
        <ele>45.400001525879</ele>
        <time>2013-12-23T15:49:31.000Z</time>
      </trkpt>
      <trkpt lat="43.50016" lon="6.93704">
        <ele>46.200000762939</ele>
        <time>2013-12-23T15:49:35.000Z</time>
      </trkpt>
      <trkpt lat="43.50015" lon="6.93707">
        <ele>46.799999237061</ele>
        <time>2013-12-23T15:49:41.000Z</time>
      </trkpt>
      <trkpt lat="43.50014" lon="6.9371">
        <ele>47.200000762939</ele>
        <time>2013-12-23T15:49:51.000Z</time>
      </trkpt>
      <trkpt lat="43.5002" lon="6.93722">
        <ele>49</ele>
        <time>2013-12-23T15:51:48.000Z</time>
      </trkpt>
      <trkpt lat="43.50024" lon="6.93706">
        <ele>46.400001525879</ele>
        <time>2013-12-23T15:53:53.000Z</time>
      </trkpt>
      <trkpt lat="43.50039" lon="6.93705">
        <ele>46.400001525879</ele>
        <time>2013-12-23T15:53:56.000Z</time>
      </trkpt>
      <trkpt lat="43.50072" lon="6.93698">
        <ele>46</ele>
        <time>2013-12-23T15:54:01.000Z</time>
      </trkpt>
      <trkpt lat="43.50094" lon="6.93707">
        <ele>47</ele>
        <time>2013-12-23T15:54:05.000Z</time>
      </trkpt>
      <trkpt lat="43.50109" lon="6.93715">
        <ele>48</ele>
        <time>2013-12-23T15:54:08.000Z</time>
      </trkpt>
      <trkpt lat="43.50121" lon="6.93716">
        <ele>48.400001525879</ele>
        <time>2013-12-23T15:54:10.000Z</time>
      </trkpt>
      <trkpt lat="43.50127" lon="6.93717">
        <ele>48.599998474121</ele>
        <time>2013-12-23T15:54:11.000Z</time>
      </trkpt>
      <trkpt lat="43.50151" lon="6.93719">
        <ele>49.599998474121</ele>
        <time>2013-12-23T15:54:15.000Z</time>
      </trkpt>
      <trkpt lat="43.50176" lon="6.93717">
        <ele>50</ele>
        <time>2013-12-23T15:54:19.000Z</time>
      </trkpt>
      <trkpt lat="43.50199" lon="6.93717">
        <ele>49.400001525879</ele>
        <time>2013-12-23T15:54:22.000Z</time>
      </trkpt>
      <trkpt lat="43.50206" lon="6.9372">
        <ele>49</ele>
        <time>2013-12-23T15:54:23.000Z</time>
      </trkpt>
      <trkpt lat="43.50227" lon="6.93718">
        <ele>48.400001525879</ele>
        <time>2013-12-23T15:54:26.000Z</time>
      </trkpt>
      <trkpt lat="43.50243" lon="6.93711">
        <ele>48.200000762939</ele>
        <time>2013-12-23T15:54:28.000Z</time>
      </trkpt>
      <trkpt lat="43.5026" lon="6.93703">
        <ele>47</ele>
        <time>2013-12-23T15:54:30.000Z</time>
      </trkpt>
      <trkpt lat="43.5029" lon="6.93691">
        <ele>43.400001525879</ele>
        <time>2013-12-23T15:54:34.000Z</time>
      </trkpt>
      <trkpt lat="43.50308" lon="6.937">
        <ele>41</ele>
        <time>2013-12-23T15:54:37.000Z</time>
      </trkpt>
      <trkpt lat="43.50312" lon="6.93703">
        <ele>40.599998474121</ele>
        <time>2013-12-23T15:54:38.000Z</time>
      </trkpt>
      <trkpt lat="43.50315" lon="6.93707">
        <ele>40.200000762939</ele>
        <time>2013-12-23T15:54:39.000Z</time>
      </trkpt>
      <trkpt lat="43.50317" lon="6.93709">
        <ele>40</ele>
        <time>2013-12-23T15:54:40.000Z</time>
      </trkpt>
      <trkpt lat="43.5032" lon="6.93717">
        <ele>39.599998474121</ele>
        <time>2013-12-23T15:54:45.000Z</time>
      </trkpt>
      <trkpt lat="43.50333" lon="6.93726">
        <ele>38</ele>
        <time>2013-12-23T15:54:51.000Z</time>
      </trkpt>
      <trkpt lat="43.50346" lon="6.93721">
        <ele>37.799999237061</ele>
        <time>2013-12-23T15:54:56.000Z</time>
      </trkpt>
      <trkpt lat="43.50357" lon="6.93729">
        <ele>37</ele>
        <time>2013-12-23T15:55:01.000Z</time>
      </trkpt>
      <trkpt lat="43.50362" lon="6.93736">
        <ele>36.200000762939</ele>
        <time>2013-12-23T15:55:07.000Z</time>
      </trkpt>
      <trkpt lat="43.50359" lon="6.93739">
        <ele>36</ele>
        <time>2013-12-23T15:55:27.000Z</time>
      </trkpt>
      <trkpt lat="43.50358" lon="6.93735">
        <ele>36.400001525879</ele>
        <time>2013-12-23T15:56:32.000Z</time>
      </trkpt>
      <trkpt lat="43.50357" lon="6.93733">
        <ele>36.599998474121</ele>
        <time>2013-12-23T15:57:14.000Z</time>
      </trkpt>
      <trkpt lat="43.50359" lon="6.93733">
        <ele>36.599998474121</ele>
        <time>2013-12-23T15:58:28.000Z</time>
      </trkpt>
      <trkpt lat="43.50358" lon="6.93737">
        <ele>36.400001525879</ele>
        <time>2013-12-23T16:01:06.000Z</time>
      </trkpt>
      <trkpt lat="43.50359" lon="6.93737">
        <ele>36.200000762939</ele>
        <time>2013-12-23T16:01:10.000Z</time>
      </trkpt>
      <trkpt lat="43.5036" lon="6.93737">
        <ele>36.200000762939</ele>
        <time>2013-12-23T16:01:18.000Z</time>
      </trkpt>
      <trkpt lat="43.50369" lon="6.93728">
        <ele>36.599998474121</ele>
        <time>2013-12-23T16:03:12.000Z</time>
      </trkpt>
      <trkpt lat="43.50377" lon="6.93732">
        <ele>35.599998474121</ele>
        <time>2013-12-23T16:03:17.000Z</time>
      </trkpt>
      <trkpt lat="43.50379" lon="6.93734">
        <ele>35.200000762939</ele>
        <time>2013-12-23T16:03:18.000Z</time>
      </trkpt>
      <trkpt lat="43.50392" lon="6.93743">
        <ele>32.799999237061</ele>
        <time>2013-12-23T16:03:23.000Z</time>
      </trkpt>
      <trkpt lat="43.50408" lon="6.9376">
        <ele>30</ele>
        <time>2013-12-23T16:03:28.000Z</time>
      </trkpt>
      <trkpt lat="43.50408" lon="6.93769">
        <ele>30</ele>
        <time>2013-12-23T16:03:30.000Z</time>
      </trkpt>
      <trkpt lat="43.50407" lon="6.93773">
        <ele>30.39999961853</ele>
        <time>2013-12-23T16:03:31.000Z</time>
      </trkpt>
      <trkpt lat="43.50411" lon="6.93786">
        <ele>29.39999961853</ele>
        <time>2013-12-23T16:03:35.000Z</time>
      </trkpt>
      <trkpt lat="43.50415" lon="6.93797">
        <ele>28.200000762939</ele>
        <time>2013-12-23T16:03:37.000Z</time>
      </trkpt>
      <trkpt lat="43.50422" lon="6.9381">
        <ele>27.39999961853</ele>
        <time>2013-12-23T16:03:39.000Z</time>
      </trkpt>
      <trkpt lat="43.50444" lon="6.93842">
        <ele>25.200000762939</ele>
        <time>2013-12-23T16:03:44.000Z</time>
      </trkpt>
      <trkpt lat="43.5045" lon="6.93847">
        <ele>25</ele>
        <time>2013-12-23T16:03:45.000Z</time>
      </trkpt>
      <trkpt lat="43.50478" lon="6.93865">
        <ele>22</ele>
        <time>2013-12-23T16:03:49.000Z</time>
      </trkpt>
      <trkpt lat="43.50485" lon="6.93871">
        <ele>20.799999237061</ele>
        <time>2013-12-23T16:03:50.000Z</time>
      </trkpt>
      <trkpt lat="43.50522" lon="6.93897">
        <ele>16.799999237061</ele>
        <time>2013-12-23T16:03:56.000Z</time>
      </trkpt>
      <trkpt lat="43.50539" lon="6.93909">
        <ele>15</ele>
        <time>2013-12-23T16:04:00.000Z</time>
      </trkpt>
      <trkpt lat="43.50547" lon="6.93913">
        <ele>14</ele>
        <time>2013-12-23T16:04:04.000Z</time>
      </trkpt>
      <trkpt lat="43.50551" lon="6.93917">
        <ele>13.39999961853</ele>
        <time>2013-12-23T16:04:08.000Z</time>
      </trkpt>
      <trkpt lat="43.50552" lon="6.93917">
        <ele>13.39999961853</ele>
        <time>2013-12-23T16:04:09.000Z</time>
      </trkpt>
      <trkpt lat="43.50552" lon="6.93919">
        <ele>13.39999961853</ele>
        <time>2013-12-23T16:04:10.000Z</time>
      </trkpt>
      <trkpt lat="43.50558" lon="6.93926">
        <ele>13.39999961853</ele>
        <time>2013-12-23T16:04:13.000Z</time>
      </trkpt>
      <trkpt lat="43.50569" lon="6.93943">
        <ele>13</ele>
        <time>2013-12-23T16:04:18.000Z</time>
      </trkpt>
      <trkpt lat="43.50591" lon="6.93966">
        <ele>11.199999809265</ele>
        <time>2013-12-23T16:04:26.000Z</time>
      </trkpt>
      <trkpt lat="43.50609" lon="6.93978">
        <ele>11.60000038147</ele>
        <time>2013-12-23T16:04:33.000Z</time>
      </trkpt>
      <trkpt lat="43.50618" lon="6.93984">
        <ele>11.39999961853</ele>
        <time>2013-12-23T16:04:36.000Z</time>
      </trkpt>
      <trkpt lat="43.50619" lon="6.93989">
        <ele>11.199999809265</ele>
        <time>2013-12-23T16:04:37.000Z</time>
      </trkpt>
      <trkpt lat="43.50627" lon="6.9401">
        <ele>11.199999809265</ele>
        <time>2013-12-23T16:04:41.000Z</time>
      </trkpt>
      <trkpt lat="43.50636" lon="6.94023">
        <ele>11.60000038147</ele>
        <time>2013-12-23T16:04:43.000Z</time>
      </trkpt>
      <trkpt lat="43.50645" lon="6.94036">
        <ele>11.39999961853</ele>
        <time>2013-12-23T16:04:45.000Z</time>
      </trkpt>
      <trkpt lat="43.50668" lon="6.94073">
        <ele>8.3999996185303</ele>
        <time>2013-12-23T16:04:51.000Z</time>
      </trkpt>
      <trkpt lat="43.50686" lon="6.94102">
        <ele>8.8000001907349</ele>
        <time>2013-12-23T16:04:57.000Z</time>
      </trkpt>
      <trkpt lat="43.50693" lon="6.94117">
        <ele>8.8000001907349</ele>
        <time>2013-12-23T16:05:02.000Z</time>
      </trkpt>
      <trkpt lat="43.50708" lon="6.94135">
        <ele>8.1999998092651</ele>
        <time>2013-12-23T16:05:08.000Z</time>
      </trkpt>
      <trkpt lat="43.50722" lon="6.94162">
        <ele>6.8000001907349</ele>
        <time>2013-12-23T16:05:15.000Z</time>
      </trkpt>
      <trkpt lat="43.5073" lon="6.94169">
        <ele>6.1999998092651</ele>
        <time>2013-12-23T16:05:19.000Z</time>
      </trkpt>
      <trkpt lat="43.5074" lon="6.94171">
        <ele>5.4000000953674</ele>
        <time>2013-12-23T16:05:25.000Z</time>
      </trkpt>
      <trkpt lat="43.50747" lon="6.94163">
        <ele>5.4000000953674</ele>
        <time>2013-12-23T16:05:30.000Z</time>
      </trkpt>
      <trkpt lat="43.50754" lon="6.94144">
        <ele>6.8000001907349</ele>
        <time>2013-12-23T16:05:37.000Z</time>
      </trkpt>
      <trkpt lat="43.5076" lon="6.94119">
        <ele>8.3999996185303</ele>
        <time>2013-12-23T16:05:44.000Z</time>
      </trkpt>
      <trkpt lat="43.50764" lon="6.94092">
        <ele>10.199999809265</ele>
        <time>2013-12-23T16:05:51.000Z</time>
      </trkpt>
      <trkpt lat="43.50771" lon="6.94071">
        <ele>11</ele>
        <time>2013-12-23T16:05:57.000Z</time>
      </trkpt>
      <trkpt lat="43.50775" lon="6.94044">
        <ele>11.39999961853</ele>
        <time>2013-12-23T16:06:04.000Z</time>
      </trkpt>
      <trkpt lat="43.5078" lon="6.94004">
        <ele>11.800000190735</ele>
        <time>2013-12-23T16:06:13.000Z</time>
      </trkpt>
      <trkpt lat="43.50783" lon="6.93967">
        <ele>14.39999961853</ele>
        <time>2013-12-23T16:06:21.000Z</time>
      </trkpt>
      <trkpt lat="43.50789" lon="6.93919">
        <ele>17.39999961853</ele>
        <time>2013-12-23T16:06:31.000Z</time>
      </trkpt>
      <trkpt lat="43.50797" lon="6.93892">
        <ele>16.39999961853</ele>
        <time>2013-12-23T16:06:37.000Z</time>
      </trkpt>
      <trkpt lat="43.50808" lon="6.93849">
        <ele>15.199999809265</ele>
        <time>2013-12-23T16:06:45.000Z</time>
      </trkpt>
      <trkpt lat="43.50819" lon="6.93806">
        <ele>14.39999961853</ele>
        <time>2013-12-23T16:06:52.000Z</time>
      </trkpt>
      <trkpt lat="43.50836" lon="6.93785">
        <ele>12.39999961853</ele>
        <time>2013-12-23T16:06:56.000Z</time>
      </trkpt>
      <trkpt lat="43.50845" lon="6.93779">
        <ele>12.39999961853</ele>
        <time>2013-12-23T16:06:58.000Z</time>
      </trkpt>
      <trkpt lat="43.50864" lon="6.93766">
        <ele>12.39999961853</ele>
        <time>2013-12-23T16:07:02.000Z</time>
      </trkpt>
      <trkpt lat="43.50896" lon="6.93746">
        <ele>12.800000190735</ele>
        <time>2013-12-23T16:07:09.000Z</time>
      </trkpt>
      <trkpt lat="43.50928" lon="6.9373">
        <ele>14.60000038147</ele>
        <time>2013-12-23T16:07:16.000Z</time>
      </trkpt>
      <trkpt lat="43.50934" lon="6.93729">
        <ele>14.199999809265</ele>
        <time>2013-12-23T16:07:17.000Z</time>
      </trkpt>
      <trkpt lat="43.5097" lon="6.93725">
        <ele>12.199999809265</ele>
        <time>2013-12-23T16:07:24.000Z</time>
      </trkpt>
      <trkpt lat="43.51001" lon="6.93706">
        <ele>14</ele>
        <time>2013-12-23T16:07:31.000Z</time>
      </trkpt>
      <trkpt lat="43.51044" lon="6.93687">
        <ele>19.60000038147</ele>
        <time>2013-12-23T16:07:41.000Z</time>
      </trkpt>
      <trkpt lat="43.51053" lon="6.93684">
        <ele>20.200000762939</ele>
        <time>2013-12-23T16:07:43.000Z</time>
      </trkpt>
      <trkpt lat="43.51066" lon="6.9369">
        <ele>19.60000038147</ele>
        <time>2013-12-23T16:07:46.000Z</time>
      </trkpt>
      <trkpt lat="43.5108" lon="6.93708">
        <ele>17</ele>
        <time>2013-12-23T16:07:50.000Z</time>
      </trkpt>
      <trkpt lat="43.51083" lon="6.93712">
        <ele>16.39999961853</ele>
        <time>2013-12-23T16:07:51.000Z</time>
      </trkpt>
      <trkpt lat="43.51098" lon="6.93726">
        <ele>15.39999961853</ele>
        <time>2013-12-23T16:07:55.000Z</time>
      </trkpt>
      <trkpt lat="43.51114" lon="6.93735">
        <ele>15.199999809265</ele>
        <time>2013-12-23T16:07:59.000Z</time>
      </trkpt>
      <trkpt lat="43.51138" lon="6.93746">
        <ele>15</ele>
        <time>2013-12-23T16:08:05.000Z</time>
      </trkpt>
      <trkpt lat="43.51151" lon="6.93747">
        <ele>15.60000038147</ele>
        <time>2013-12-23T16:08:08.000Z</time>
      </trkpt>
      <trkpt lat="43.51197" lon="6.93746">
        <ele>16</ele>
        <time>2013-12-23T16:08:19.000Z</time>
      </trkpt>
      <trkpt lat="43.51209" lon="6.93743">
        <ele>16.39999961853</ele>
        <time>2013-12-23T16:08:22.000Z</time>
      </trkpt>
      <trkpt lat="43.51218" lon="6.93734">
        <ele>18.200000762939</ele>
        <time>2013-12-23T16:08:25.000Z</time>
      </trkpt>
      <trkpt lat="43.51226" lon="6.93722">
        <ele>20.799999237061</ele>
        <time>2013-12-23T16:08:28.000Z</time>
      </trkpt>
      <trkpt lat="43.51234" lon="6.9371">
        <ele>23.60000038147</ele>
        <time>2013-12-23T16:08:31.000Z</time>
      </trkpt>
      <trkpt lat="43.51249" lon="6.93702">
        <ele>25.200000762939</ele>
        <time>2013-12-23T16:08:35.000Z</time>
      </trkpt>
      <trkpt lat="43.5127" lon="6.93705">
        <ele>24.200000762939</ele>
        <time>2013-12-23T16:08:40.000Z</time>
      </trkpt>
      <trkpt lat="43.5131" lon="6.93712">
        <ele>22.200000762939</ele>
        <time>2013-12-23T16:08:49.000Z</time>
      </trkpt>
      <trkpt lat="43.51348" lon="6.93713">
        <ele>21</ele>
        <time>2013-12-23T16:08:57.000Z</time>
      </trkpt>
      <trkpt lat="43.51376" lon="6.93699">
        <ele>22.60000038147</ele>
        <time>2013-12-23T16:09:03.000Z</time>
      </trkpt>
      <trkpt lat="43.51386" lon="6.93696">
        <ele>22.60000038147</ele>
        <time>2013-12-23T16:09:05.000Z</time>
      </trkpt>
      <trkpt lat="43.51401" lon="6.93695">
        <ele>21.60000038147</ele>
        <time>2013-12-23T16:09:08.000Z</time>
      </trkpt>
      <trkpt lat="43.51445" lon="6.93697">
        <ele>21.60000038147</ele>
        <time>2013-12-23T16:09:17.000Z</time>
      </trkpt>
      <trkpt lat="43.51489" lon="6.93702">
        <ele>22.60000038147</ele>
        <time>2013-12-23T16:09:26.000Z</time>
      </trkpt>
      <trkpt lat="43.51493" lon="6.93704">
        <ele>22.39999961853</ele>
        <time>2013-12-23T16:09:27.000Z</time>
      </trkpt>
      <trkpt lat="43.51505" lon="6.93715">
        <ele>21.60000038147</ele>
        <time>2013-12-23T16:09:30.000Z</time>
      </trkpt>
      <trkpt lat="43.51511" lon="6.93724">
        <ele>21</ele>
        <time>2013-12-23T16:09:32.000Z</time>
      </trkpt>
      <trkpt lat="43.51524" lon="6.93738">
        <ele>20.200000762939</ele>
        <time>2013-12-23T16:09:36.000Z</time>
      </trkpt>
      <trkpt lat="43.51553" lon="6.9376">
        <ele>19.799999237061</ele>
        <time>2013-12-23T16:09:44.000Z</time>
      </trkpt>
      <trkpt lat="43.51576" lon="6.93777">
        <ele>19.60000038147</ele>
        <time>2013-12-23T16:09:51.000Z</time>
      </trkpt>
      <trkpt lat="43.51596" lon="6.93788">
        <ele>16.799999237061</ele>
        <time>2013-12-23T16:09:56.000Z</time>
      </trkpt>
      <trkpt lat="43.51601" lon="6.93787">
        <ele>16.39999961853</ele>
        <time>2013-12-23T16:09:57.000Z</time>
      </trkpt>
      <trkpt lat="43.51618" lon="6.9378">
        <ele>15.800000190735</ele>
        <time>2013-12-23T16:10:01.000Z</time>
      </trkpt>
      <trkpt lat="43.51629" lon="6.93762">
        <ele>17.200000762939</ele>
        <time>2013-12-23T16:10:05.000Z</time>
      </trkpt>
      <trkpt lat="43.51648" lon="6.93727">
        <ele>20.200000762939</ele>
        <time>2013-12-23T16:10:12.000Z</time>
      </trkpt>
      <trkpt lat="43.51658" lon="6.93708">
        <ele>21</ele>
        <time>2013-12-23T16:10:15.000Z</time>
      </trkpt>
      <trkpt lat="43.51664" lon="6.93691">
        <ele>21.799999237061</ele>
        <time>2013-12-23T16:10:17.000Z</time>
      </trkpt>
      <trkpt lat="43.5168" lon="6.9364">
        <ele>25.39999961853</ele>
        <time>2013-12-23T16:10:22.000Z</time>
      </trkpt>
      <trkpt lat="43.51705" lon="6.93586">
        <ele>25.200000762939</ele>
        <time>2013-12-23T16:10:27.000Z</time>
      </trkpt>
      <trkpt lat="43.51729" lon="6.93545">
        <ele>21.799999237061</ele>
        <time>2013-12-23T16:10:31.000Z</time>
      </trkpt>
      <trkpt lat="43.51738" lon="6.93537">
        <ele>19.200000762939</ele>
        <time>2013-12-23T16:10:32.000Z</time>
      </trkpt>
      <trkpt lat="43.51756" lon="6.93535">
        <ele>17.39999961853</ele>
        <time>2013-12-23T16:10:34.000Z</time>
      </trkpt>
      <trkpt lat="43.51773" lon="6.93548">
        <ele>22.799999237061</ele>
        <time>2013-12-23T16:10:36.000Z</time>
      </trkpt>
      <trkpt lat="43.51784" lon="6.93572">
        <ele>26.200000762939</ele>
        <time>2013-12-23T16:10:39.000Z</time>
      </trkpt>
      <trkpt lat="43.51784" lon="6.93604">
        <ele>25.60000038147</ele>
        <time>2013-12-23T16:10:42.000Z</time>
      </trkpt>
      <trkpt lat="43.51782" lon="6.9362">
        <ele>24.60000038147</ele>
        <time>2013-12-23T16:10:44.000Z</time>
      </trkpt>
      <trkpt lat="43.5178" lon="6.93642">
        <ele>23.799999237061</ele>
        <time>2013-12-23T16:10:47.000Z</time>
      </trkpt>
      <trkpt lat="43.51777" lon="6.93678">
        <ele>22</ele>
        <time>2013-12-23T16:10:53.000Z</time>
      </trkpt>
      <trkpt lat="43.51778" lon="6.93702">
        <ele>22</ele>
        <time>2013-12-23T16:10:58.000Z</time>
      </trkpt>
      <trkpt lat="43.5178" lon="6.93711">
        <ele>22.39999961853</ele>
        <time>2013-12-23T16:11:00.000Z</time>
      </trkpt>
      <trkpt lat="43.51787" lon="6.93733">
        <ele>25.200000762939</ele>
        <time>2013-12-23T16:11:06.000Z</time>
      </trkpt>
      <trkpt lat="43.51792" lon="6.93758">
        <ele>26.60000038147</ele>
        <time>2013-12-23T16:11:12.000Z</time>
      </trkpt>
      <trkpt lat="43.51793" lon="6.93783">
        <ele>26</ele>
        <time>2013-12-23T16:11:19.000Z</time>
      </trkpt>
      <trkpt lat="43.51796" lon="6.93816">
        <ele>25.799999237061</ele>
        <time>2013-12-23T16:11:28.000Z</time>
      </trkpt>
      <trkpt lat="43.518" lon="6.93838">
        <ele>26</ele>
        <time>2013-12-23T16:11:34.000Z</time>
      </trkpt>
      <trkpt lat="43.5181" lon="6.93867">
        <ele>27.799999237061</ele>
        <time>2013-12-23T16:11:42.000Z</time>
      </trkpt>
      <trkpt lat="43.51827" lon="6.9389">
        <ele>31.200000762939</ele>
        <time>2013-12-23T16:11:50.000Z</time>
      </trkpt>
      <trkpt lat="43.5184" lon="6.93913">
        <ele>32.400001525879</ele>
        <time>2013-12-23T16:11:57.000Z</time>
      </trkpt>
      <trkpt lat="43.51851" lon="6.93936">
        <ele>31</ele>
        <time>2013-12-23T16:12:04.000Z</time>
      </trkpt>
      <trkpt lat="43.51861" lon="6.93957">
        <ele>28.799999237061</ele>
        <time>2013-12-23T16:12:11.000Z</time>
      </trkpt>
      <trkpt lat="43.51876" lon="6.93968">
        <ele>30.60000038147</ele>
        <time>2013-12-23T16:12:18.000Z</time>
      </trkpt>
      <trkpt lat="43.51892" lon="6.9398">
        <ele>32.200000762939</ele>
        <time>2013-12-23T16:12:24.000Z</time>
      </trkpt>
      <trkpt lat="43.5192" lon="6.93995">
        <ele>35.400001525879</ele>
        <time>2013-12-23T16:12:33.000Z</time>
      </trkpt>
      <trkpt lat="43.51947" lon="6.94011">
        <ele>32.799999237061</ele>
        <time>2013-12-23T16:12:41.000Z</time>
      </trkpt>
      <trkpt lat="43.51979" lon="6.9403">
        <ele>30</ele>
        <time>2013-12-23T16:12:49.000Z</time>
      </trkpt>
      <trkpt lat="43.52014" lon="6.94044">
        <ele>27.60000038147</ele>
        <time>2013-12-23T16:12:55.000Z</time>
      </trkpt>
      <trkpt lat="43.52064" lon="6.94058">
        <ele>23</ele>
        <time>2013-12-23T16:13:02.000Z</time>
      </trkpt>
      <trkpt lat="43.52094" lon="6.94045">
        <ele>24.200000762939</ele>
        <time>2013-12-23T16:13:06.000Z</time>
      </trkpt>
      <trkpt lat="43.52111" lon="6.94032">
        <ele>24.799999237061</ele>
        <time>2013-12-23T16:13:09.000Z</time>
      </trkpt>
      <trkpt lat="43.52119" lon="6.94026">
        <ele>24.799999237061</ele>
        <time>2013-12-23T16:13:11.000Z</time>
      </trkpt>
      <trkpt lat="43.52136" lon="6.94015">
        <ele>23.799999237061</ele>
        <time>2013-12-23T16:13:16.000Z</time>
      </trkpt>
      <trkpt lat="43.52146" lon="6.94013">
        <ele>22.39999961853</ele>
        <time>2013-12-23T16:13:18.000Z</time>
      </trkpt>
      <trkpt lat="43.52158" lon="6.94012">
        <ele>20.39999961853</ele>
        <time>2013-12-23T16:13:20.000Z</time>
      </trkpt>
      <trkpt lat="43.52171" lon="6.94012">
        <ele>19</ele>
        <time>2013-12-23T16:13:22.000Z</time>
      </trkpt>
      <trkpt lat="43.52185" lon="6.94018">
        <ele>19.39999961853</ele>
        <time>2013-12-23T16:13:24.000Z</time>
      </trkpt>
      <trkpt lat="43.52225" lon="6.94042">
        <ele>19.60000038147</ele>
        <time>2013-12-23T16:13:30.000Z</time>
      </trkpt>
      <trkpt lat="43.52266" lon="6.9407">
        <ele>18.39999961853</ele>
        <time>2013-12-23T16:13:37.000Z</time>
      </trkpt>
      <trkpt lat="43.52281" lon="6.94085">
        <ele>16.799999237061</ele>
        <time>2013-12-23T16:13:40.000Z</time>
      </trkpt>
      <trkpt lat="43.52288" lon="6.94099">
        <ele>15.800000190735</ele>
        <time>2013-12-23T16:13:42.000Z</time>
      </trkpt>
      <trkpt lat="43.52294" lon="6.9412">
        <ele>14.39999961853</ele>
        <time>2013-12-23T16:13:45.000Z</time>
      </trkpt>
      <trkpt lat="43.52298" lon="6.94131">
        <ele>13.800000190735</ele>
        <time>2013-12-23T16:13:47.000Z</time>
      </trkpt>
      <trkpt lat="43.52304" lon="6.94141">
        <ele>13.199999809265</ele>
        <time>2013-12-23T16:13:49.000Z</time>
      </trkpt>
      <trkpt lat="43.52316" lon="6.94149">
        <ele>13.199999809265</ele>
        <time>2013-12-23T16:13:52.000Z</time>
      </trkpt>
      <trkpt lat="43.52332" lon="6.94151">
        <ele>13.800000190735</ele>
        <time>2013-12-23T16:13:55.000Z</time>
      </trkpt>
      <trkpt lat="43.52344" lon="6.94153">
        <ele>13.60000038147</ele>
        <time>2013-12-23T16:13:57.000Z</time>
      </trkpt>
      <trkpt lat="43.52357" lon="6.94157">
        <ele>13.199999809265</ele>
        <time>2013-12-23T16:13:59.000Z</time>
      </trkpt>
      <trkpt lat="43.5237" lon="6.94167">
        <ele>12.60000038147</ele>
        <time>2013-12-23T16:14:01.000Z</time>
      </trkpt>
      <trkpt lat="43.52388" lon="6.94198">
        <ele>11</ele>
        <time>2013-12-23T16:14:05.000Z</time>
      </trkpt>
      <trkpt lat="43.52392" lon="6.94206">
        <ele>10.800000190735</ele>
        <time>2013-12-23T16:14:06.000Z</time>
      </trkpt>
      <trkpt lat="43.52415" lon="6.94251">
        <ele>9</ele>
        <time>2013-12-23T16:14:12.000Z</time>
      </trkpt>
      <trkpt lat="43.52418" lon="6.94259">
        <ele>8.6000003814697</ele>
        <time>2013-12-23T16:14:13.000Z</time>
      </trkpt>
      <trkpt lat="43.52435" lon="6.94296">
        <ele>6.8000001907349</ele>
        <time>2013-12-23T16:14:18.000Z</time>
      </trkpt>
      <trkpt lat="43.52456" lon="6.9434">
        <ele>5.5999999046326</ele>
        <time>2013-12-23T16:14:24.000Z</time>
      </trkpt>
      <trkpt lat="43.52457" lon="6.94347">
        <ele>5.4000000953674</ele>
        <time>2013-12-23T16:14:25.000Z</time>
      </trkpt>
      <trkpt lat="43.52471" lon="6.94367">
        <ele>5</ele>
        <time>2013-12-23T16:14:29.000Z</time>
      </trkpt>
      <trkpt lat="43.5248" lon="6.94375">
        <ele>5.1999998092651</ele>
        <time>2013-12-23T16:14:31.000Z</time>
      </trkpt>
      <trkpt lat="43.52509" lon="6.94403">
        <ele>5.4000000953674</ele>
        <time>2013-12-23T16:14:38.000Z</time>
      </trkpt>
      <trkpt lat="43.52543" lon="6.94436">
        <ele>4.5999999046326</ele>
        <time>2013-12-23T16:14:47.000Z</time>
      </trkpt>
      <trkpt lat="43.52575" lon="6.94465">
        <ele>4</ele>
        <time>2013-12-23T16:14:56.000Z</time>
      </trkpt>
      <trkpt lat="43.52601" lon="6.94488">
        <ele>3.5999999046326</ele>
        <time>2013-12-23T16:15:03.000Z</time>
      </trkpt>
      <trkpt lat="43.52608" lon="6.94495">
        <ele>3.4000000953674</ele>
        <time>2013-12-23T16:15:05.000Z</time>
      </trkpt>
      <trkpt lat="43.52639" lon="6.94518">
        <ele>3.4000000953674</ele>
        <time>2013-12-23T16:15:13.000Z</time>
      </trkpt>
      <trkpt lat="43.52663" lon="6.94529">
        <ele>3.5999999046326</ele>
        <time>2013-12-23T16:15:19.000Z</time>
      </trkpt>
      <trkpt lat="43.52668" lon="6.9453">
        <ele>3.5999999046326</ele>
        <time>2013-12-23T16:15:20.000Z</time>
      </trkpt>
      <trkpt lat="43.52693" lon="6.94545">
        <ele>3.4000000953674</ele>
        <time>2013-12-23T16:15:27.000Z</time>
      </trkpt>
      <trkpt lat="43.52724" lon="6.94571">
        <ele>3.2000000476837</ele>
        <time>2013-12-23T16:15:36.000Z</time>
      </trkpt>
      <trkpt lat="43.52736" lon="6.94583">
        <ele>3</ele>
        <time>2013-12-23T16:15:39.000Z</time>
      </trkpt>
      <trkpt lat="43.52742" lon="6.94592">
        <ele>3</ele>
        <time>2013-12-23T16:15:41.000Z</time>
      </trkpt>
      <trkpt lat="43.52765" lon="6.9462">
        <ele>3.4000000953674</ele>
        <time>2013-12-23T16:15:48.000Z</time>
      </trkpt>
      <trkpt lat="43.52789" lon="6.94637">
        <ele>4</ele>
        <time>2013-12-23T16:15:54.000Z</time>
      </trkpt>
      <trkpt lat="43.52826" lon="6.94664">
        <ele>5.5999999046326</ele>
        <time>2013-12-23T16:16:03.000Z</time>
      </trkpt>
      <trkpt lat="43.52858" lon="6.94683">
        <ele>6.4000000953674</ele>
        <time>2013-12-23T16:16:10.000Z</time>
      </trkpt>
      <trkpt lat="43.52894" lon="6.94704">
        <ele>6.5999999046326</ele>
        <time>2013-12-23T16:16:18.000Z</time>
      </trkpt>
      <trkpt lat="43.52931" lon="6.94724">
        <ele>6.5999999046326</ele>
        <time>2013-12-23T16:16:26.000Z</time>
      </trkpt>
      <trkpt lat="43.52936" lon="6.94726">
        <ele>6.5999999046326</ele>
        <time>2013-12-23T16:16:27.000Z</time>
      </trkpt>
      <trkpt lat="43.52975" lon="6.94738">
        <ele>6.8000001907349</ele>
        <time>2013-12-23T16:16:34.000Z</time>
      </trkpt>
      <trkpt lat="43.53013" lon="6.94741">
        <ele>6.1999998092651</ele>
        <time>2013-12-23T16:16:41.000Z</time>
      </trkpt>
      <trkpt lat="43.53048" lon="6.94755">
        <ele>4.8000001907349</ele>
        <time>2013-12-23T16:16:48.000Z</time>
      </trkpt>
      <trkpt lat="43.53098" lon="6.94779">
        <ele>3.4000000953674</ele>
        <time>2013-12-23T16:16:58.000Z</time>
      </trkpt>
      <trkpt lat="43.53146" lon="6.94802">
        <ele>4</ele>
        <time>2013-12-23T16:17:07.000Z</time>
      </trkpt>
      <trkpt lat="43.53151" lon="6.94806">
        <ele>4.1999998092651</ele>
        <time>2013-12-23T16:17:08.000Z</time>
      </trkpt>
      <trkpt lat="43.53162" lon="6.94817">
        <ele>4.5999999046326</ele>
        <time>2013-12-23T16:17:11.000Z</time>
      </trkpt>
      <trkpt lat="43.53163" lon="6.94819">
        <ele>4.5999999046326</ele>
        <time>2013-12-23T16:17:12.000Z</time>
      </trkpt>
      <trkpt lat="43.53164" lon="6.94828">
        <ele>4.8000001907349</ele>
        <time>2013-12-23T16:17:15.000Z</time>
      </trkpt>
      <trkpt lat="43.53165" lon="6.94831">
        <ele>5</ele>
        <time>2013-12-23T16:17:16.000Z</time>
      </trkpt>
      <trkpt lat="43.53166" lon="6.94846">
        <ele>4.5999999046326</ele>
        <time>2013-12-23T16:17:21.000Z</time>
      </trkpt>
      <trkpt lat="43.53166" lon="6.94847">
        <ele>4.5999999046326</ele>
        <time>2013-12-23T16:17:25.000Z</time>
      </trkpt>
      <trkpt lat="43.53166" lon="6.94854">
        <ele>4.4000000953674</ele>
        <time>2013-12-23T16:21:41.000Z</time>
      </trkpt>
      <trkpt lat="43.53176" lon="6.94857">
        <ele>4.8000001907349</ele>
        <time>2013-12-23T16:21:44.000Z</time>
      </trkpt>
      <trkpt lat="43.53191" lon="6.94876">
        <ele>4.8000001907349</ele>
        <time>2013-12-23T16:21:48.000Z</time>
      </trkpt>
      <trkpt lat="43.53216" lon="6.94903">
        <ele>4.5999999046326</ele>
        <time>2013-12-23T16:21:53.000Z</time>
      </trkpt>
      <trkpt lat="43.53263" lon="6.94942">
        <ele>4.5999999046326</ele>
        <time>2013-12-23T16:22:01.000Z</time>
      </trkpt>
      <trkpt lat="43.53307" lon="6.94984">
        <ele>3.5999999046326</ele>
        <time>2013-12-23T16:22:09.000Z</time>
      </trkpt>
      <trkpt lat="43.53355" lon="6.95028">
        <ele>3.4000000953674</ele>
        <time>2013-12-23T16:22:18.000Z</time>
      </trkpt>
      <trkpt lat="43.53366" lon="6.95038">
        <ele>3.5999999046326</ele>
        <time>2013-12-23T16:22:20.000Z</time>
      </trkpt>
      <trkpt lat="43.53411" lon="6.95084">
        <ele>3</ele>
        <time>2013-12-23T16:22:29.000Z</time>
      </trkpt>
      <trkpt lat="43.53416" lon="6.9509">
        <ele>2.7999999523163</ele>
        <time>2013-12-23T16:22:30.000Z</time>
      </trkpt>
      <trkpt lat="43.5345" lon="6.95127">
        <ele>2.2000000476837</ele>
        <time>2013-12-23T16:22:37.000Z</time>
      </trkpt>
      <trkpt lat="43.53496" lon="6.95176">
        <ele>3</ele>
        <time>2013-12-23T16:22:46.000Z</time>
      </trkpt>
      <trkpt lat="43.5351" lon="6.95193">
        <ele>3.7999999523163</ele>
        <time>2013-12-23T16:22:49.000Z</time>
      </trkpt>
      <trkpt lat="43.53552" lon="6.95242">
        <ele>4.4000000953674</ele>
        <time>2013-12-23T16:22:58.000Z</time>
      </trkpt>
      <trkpt lat="43.53557" lon="6.95248">
        <ele>4.4000000953674</ele>
        <time>2013-12-23T16:22:59.000Z</time>
      </trkpt>
      <trkpt lat="43.53598" lon="6.95298">
        <ele>2.7999999523163</ele>
        <time>2013-12-23T16:23:08.000Z</time>
      </trkpt>
      <trkpt lat="43.53639" lon="6.95348">
        <ele>3</ele>
        <time>2013-12-23T16:23:17.000Z</time>
      </trkpt>
      <trkpt lat="43.5367" lon="6.9539">
        <ele>3.7999999523163</ele>
        <time>2013-12-23T16:23:25.000Z</time>
      </trkpt>
      <trkpt lat="43.53672" lon="6.95392">
        <ele>3.7999999523163</ele>
        <time>2013-12-23T16:23:26.000Z</time>
      </trkpt>
      <trkpt lat="43.53671" lon="6.95392">
        <ele>3.7999999523163</ele>
        <time>2013-12-23T16:23:28.000Z</time>
      </trkpt>
      <trkpt lat="43.53675" lon="6.95393">
        <ele>4</ele>
        <time>2013-12-23T16:23:53.000Z</time>
      </trkpt>
      <trkpt lat="43.53688" lon="6.95408">
        <ele>4.5999999046326</ele>
        <time>2013-12-23T16:23:57.000Z</time>
      </trkpt>
      <trkpt lat="43.5371" lon="6.95436">
        <ele>5.8000001907349</ele>
        <time>2013-12-23T16:24:02.000Z</time>
      </trkpt>
      <trkpt lat="43.53748" lon="6.95485">
        <ele>8.6000003814697</ele>
        <time>2013-12-23T16:24:10.000Z</time>
      </trkpt>
      <trkpt lat="43.53787" lon="6.95537">
        <ele>12.199999809265</ele>
        <time>2013-12-23T16:24:18.000Z</time>
      </trkpt>
      <trkpt lat="43.53805" lon="6.95564">
        <ele>13.199999809265</ele>
        <time>2013-12-23T16:24:22.000Z</time>
      </trkpt>
      <trkpt lat="43.53846" lon="6.95623">
        <ele>12.800000190735</ele>
        <time>2013-12-23T16:24:31.000Z</time>
      </trkpt>
      <trkpt lat="43.53854" lon="6.95636">
        <ele>12.199999809265</ele>
        <time>2013-12-23T16:24:33.000Z</time>
      </trkpt>
      <trkpt lat="43.53894" lon="6.95697">
        <ele>10</ele>
        <time>2013-12-23T16:24:42.000Z</time>
      </trkpt>
      <trkpt lat="43.53932" lon="6.95759">
        <ele>8.8000001907349</ele>
        <time>2013-12-23T16:24:51.000Z</time>
      </trkpt>
      <trkpt lat="43.53936" lon="6.95765">
        <ele>8.3999996185303</ele>
        <time>2013-12-23T16:24:52.000Z</time>
      </trkpt>
      <trkpt lat="43.53964" lon="6.95814">
        <ele>7.1999998092651</ele>
        <time>2013-12-23T16:24:59.000Z</time>
      </trkpt>
      <trkpt lat="43.53999" lon="6.95877">
        <ele>9.1999998092651</ele>
        <time>2013-12-23T16:25:08.000Z</time>
      </trkpt>
      <trkpt lat="43.5403" lon="6.95934">
        <ele>11.39999961853</ele>
        <time>2013-12-23T16:25:16.000Z</time>
      </trkpt>
      <trkpt lat="43.54066" lon="6.95997">
        <ele>10</ele>
        <time>2013-12-23T16:25:25.000Z</time>
      </trkpt>
      <trkpt lat="43.54069" lon="6.96005">
        <ele>9.3999996185303</ele>
        <time>2013-12-23T16:25:26.000Z</time>
      </trkpt>
      <trkpt lat="43.54108" lon="6.96067">
        <ele>6.4000000953674</ele>
        <time>2013-12-23T16:25:35.000Z</time>
      </trkpt>
      <trkpt lat="43.54143" lon="6.96121">
        <ele>5.1999998092651</ele>
        <time>2013-12-23T16:25:43.000Z</time>
      </trkpt>
      <trkpt lat="43.54145" lon="6.96129">
        <ele>5.4000000953674</ele>
        <time>2013-12-23T16:25:44.000Z</time>
      </trkpt>
      <trkpt lat="43.54165" lon="6.96153">
        <ele>6.5999999046326</ele>
        <time>2013-12-23T16:25:48.000Z</time>
      </trkpt>
      <trkpt lat="43.54174" lon="6.96176">
        <ele>7</ele>
        <time>2013-12-23T16:25:51.000Z</time>
      </trkpt>
      <trkpt lat="43.54176" lon="6.96183">
        <ele>6.8000001907349</ele>
        <time>2013-12-23T16:25:52.000Z</time>
      </trkpt>
      <trkpt lat="43.54198" lon="6.96237">
        <ele>6.4000000953674</ele>
        <time>2013-12-23T16:25:59.000Z</time>
      </trkpt>
      <trkpt lat="43.5423" lon="6.96303">
        <ele>7.1999998092651</ele>
        <time>2013-12-23T16:26:08.000Z</time>
      </trkpt>
      <trkpt lat="43.5426" lon="6.96361">
        <ele>6.4000000953674</ele>
        <time>2013-12-23T16:26:16.000Z</time>
      </trkpt>
      <trkpt lat="43.54287" lon="6.96421">
        <ele>5.5999999046326</ele>
        <time>2013-12-23T16:26:24.000Z</time>
      </trkpt>
      <trkpt lat="43.54317" lon="6.96488">
        <ele>7</ele>
        <time>2013-12-23T16:26:33.000Z</time>
      </trkpt>
      <trkpt lat="43.5432" lon="6.96496">
        <ele>7.4000000953674</ele>
        <time>2013-12-23T16:26:34.000Z</time>
      </trkpt>
      <trkpt lat="43.54349" lon="6.96566">
        <ele>2.4000000953674</ele>
        <time>2013-12-23T16:26:43.000Z</time>
      </trkpt>
      <trkpt lat="43.54352" lon="6.96574">
        <ele>1.7999999523163</ele>
        <time>2013-12-23T16:26:44.000Z</time>
      </trkpt>
      <trkpt lat="43.54379" lon="6.96645">
        <ele>1.6000000238419</ele>
        <time>2013-12-23T16:26:53.000Z</time>
      </trkpt>
      <trkpt lat="43.54403" lon="6.96708">
        <ele>3.2000000476837</ele>
        <time>2013-12-23T16:27:01.000Z</time>
      </trkpt>
      <trkpt lat="43.5443" lon="6.96778">
        <ele>3.2000000476837</ele>
        <time>2013-12-23T16:27:10.000Z</time>
      </trkpt>
      <trkpt lat="43.54458" lon="6.96847">
        <ele>1.7999999523163</ele>
        <time>2013-12-23T16:27:19.000Z</time>
      </trkpt>
      <trkpt lat="43.54464" lon="6.96863">
        <ele>1.6000000238419</ele>
        <time>2013-12-23T16:27:21.000Z</time>
      </trkpt>
      <trkpt lat="43.54489" lon="6.96933">
        <ele>0.80000001192093</ele>
        <time>2013-12-23T16:27:30.000Z</time>
      </trkpt>
      <trkpt lat="43.54515" lon="6.97002">
        <ele>2.6</ele>
        <time>2013-12-23T16:27:39.000Z</time>
      </trkpt>
      <trkpt lat="43.54523" lon="6.97026">
        <ele>3</ele>
        <time>2013-12-23T16:27:42.000Z</time>
      </trkpt>
      <trkpt lat="43.54545" lon="6.97099">
        <ele>3.4</ele>
        <time>2013-12-23T16:27:51.000Z</time>
      </trkpt>
      <trkpt lat="43.54547" lon="6.97107">
        <ele>3.1</ele>
        <time>2013-12-23T16:27:52.000Z</time>
      </trkpt>
      <trkpt lat="43.54569" lon="6.97182">
        <ele>2.7</ele>
        <time>2013-12-23T16:28:01.000Z</time>
      </trkpt>
      <trkpt lat="43.54571" lon="6.9719">
        <ele>2.9</ele>
        <time>2013-12-23T16:28:02.000Z</time>
      </trkpt>
      <trkpt lat="43.54591" lon="6.97265">
        <ele>-1</ele>
        <time>2013-12-23T16:28:11.000Z</time>
      </trkpt>
      <trkpt lat="43.54593" lon="6.97273">
        <ele>-1.2000000476837</ele>
        <time>2013-12-23T16:28:12.000Z</time>
      </trkpt>
      <trkpt lat="43.54613" lon="6.97346">
        <ele>-1</ele>
        <time>2013-12-23T16:28:21.000Z</time>
      </trkpt>
      <trkpt lat="43.54615" lon="6.97354">
        <ele>-1</ele>
        <time>2013-12-23T16:28:22.000Z</time>
      </trkpt>
      <trkpt lat="43.54635" lon="6.97428">
        <ele>3</ele>
        <time>2013-12-23T16:28:31.000Z</time>
      </trkpt>
      <trkpt lat="43.54644" lon="6.9746">
        <ele>0.20000000298023</ele>
        <time>2013-12-23T16:28:35.000Z</time>
      </trkpt>
      <trkpt lat="43.54664" lon="6.97533">
        <ele>-0.40000000596046</ele>
        <time>2013-12-23T16:28:44.000Z</time>
      </trkpt>
      <trkpt lat="43.54667" lon="6.97549">
        <ele>-0.60000002384186</ele>
        <time>2013-12-23T16:28:46.000Z</time>
      </trkpt>
      <trkpt lat="43.54685" lon="6.97623">
        <ele>-0.20000000298023</ele>
        <time>2013-12-23T16:28:55.000Z</time>
      </trkpt>
      <trkpt lat="43.54701" lon="6.977">
        <ele>1.2000000476837</ele>
        <time>2013-12-23T16:29:04.000Z</time>
      </trkpt>
      <trkpt lat="43.54716" lon="6.97775">
        <ele>3</ele>
        <time>2013-12-23T16:29:13.000Z</time>
      </trkpt>
      <trkpt lat="43.54718" lon="6.97784">
        <ele>3</ele>
        <time>2013-12-23T16:29:14.000Z</time>
      </trkpt>
      <trkpt lat="43.54732" lon="6.9786">
        <ele>4.4000000953674</ele>
        <time>2013-12-23T16:29:23.000Z</time>
      </trkpt>
      <trkpt lat="43.54743" lon="6.97934">
        <ele>5.4000000953674</ele>
        <time>2013-12-23T16:29:32.000Z</time>
      </trkpt>
      <trkpt lat="43.54751" lon="6.97993">
        <ele>5.1999998092651</ele>
        <time>2013-12-23T16:29:40.000Z</time>
      </trkpt>
      <trkpt lat="43.54752" lon="6.97997">
        <ele>5.1999998092651</ele>
        <time>2013-12-23T16:29:41.000Z</time>
      </trkpt>
      <trkpt lat="43.54754" lon="6.98006">
        <ele>5.4000000953674</ele>
        <time>2013-12-23T16:29:43.000Z</time>
      </trkpt>
      <trkpt lat="43.54754" lon="6.98011">
        <ele>5.4000000953674</ele>
        <time>2013-12-23T16:29:44.000Z</time>
      </trkpt>
      <trkpt lat="43.54754" lon="6.98031">
        <ele>5.1999998092651</ele>
        <time>2013-12-23T16:29:47.000Z</time>
      </trkpt>
      <trkpt lat="43.54755" lon="6.98038">
        <ele>5.4000000953674</ele>
        <time>2013-12-23T16:29:48.000Z</time>
      </trkpt>
      <trkpt lat="43.54765" lon="6.98104">
        <ele>5.8000001907349</ele>
        <time>2013-12-23T16:29:56.000Z</time>
      </trkpt>
      <trkpt lat="43.54773" lon="6.9817">
        <ele>6.8000001907349</ele>
        <time>2013-12-23T16:30:04.000Z</time>
      </trkpt>
      <trkpt lat="43.54783" lon="6.98245">
        <ele>7.4000000953674</ele>
        <time>2013-12-23T16:30:13.000Z</time>
      </trkpt>
      <trkpt lat="43.54785" lon="6.98262">
        <ele>7.4000000953674</ele>
        <time>2013-12-23T16:30:15.000Z</time>
      </trkpt>
      <trkpt lat="43.54798" lon="6.98339">
        <ele>6</ele>
        <time>2013-12-23T16:30:24.000Z</time>
      </trkpt>
      <trkpt lat="43.54799" lon="6.98348">
        <ele>6</ele>
        <time>2013-12-23T16:30:25.000Z</time>
      </trkpt>
      <trkpt lat="43.54813" lon="6.98423">
        <ele>7.5999999046326</ele>
        <time>2013-12-23T16:30:34.000Z</time>
      </trkpt>
      <trkpt lat="43.54817" lon="6.9844">
        <ele>8</ele>
        <time>2013-12-23T16:30:36.000Z</time>
      </trkpt>
      <trkpt lat="43.5483" lon="6.98514">
        <ele>9.8000001907349</ele>
        <time>2013-12-23T16:30:45.000Z</time>
      </trkpt>
      <trkpt lat="43.54843" lon="6.98589">
        <ele>7.1999998092651</ele>
        <time>2013-12-23T16:30:54.000Z</time>
      </trkpt>
      <trkpt lat="43.54856" lon="6.98656">
        <ele>3.7999999523163</ele>
        <time>2013-12-23T16:31:02.000Z</time>
      </trkpt>
      <trkpt lat="43.5487" lon="6.9873">
        <ele>5.8000001907349</ele>
        <time>2013-12-23T16:31:11.000Z</time>
      </trkpt>
      <trkpt lat="43.54877" lon="6.98789">
        <ele>5.1999998092651</ele>
        <time>2013-12-23T16:31:18.000Z</time>
      </trkpt>
      <trkpt lat="43.54889" lon="6.98867">
        <ele>4</ele>
        <time>2013-12-23T16:31:27.000Z</time>
      </trkpt>
      <trkpt lat="43.54893" lon="6.9894">
        <ele>3.2000000476837</ele>
        <time>2013-12-23T16:31:35.000Z</time>
      </trkpt>
      <trkpt lat="43.549" lon="6.99019">
        <ele>2.5999999046326</ele>
        <time>2013-12-23T16:31:44.000Z</time>
      </trkpt>
      <trkpt lat="43.549" lon="6.99027">
        <ele>2.7999999523163</ele>
        <time>2013-12-23T16:31:45.000Z</time>
      </trkpt>
      <trkpt lat="43.54907" lon="6.99106">
        <ele>4.5999999046326</ele>
        <time>2013-12-23T16:31:54.000Z</time>
      </trkpt>
      <trkpt lat="43.5491" lon="6.99186">
        <ele>6.5999999046326</ele>
        <time>2013-12-23T16:32:03.000Z</time>
      </trkpt>
      <trkpt lat="43.54914" lon="6.99264">
        <ele>8</ele>
        <time>2013-12-23T16:32:12.000Z</time>
      </trkpt>
      <trkpt lat="43.54914" lon="6.99272">
        <ele>7.5999999046326</ele>
        <time>2013-12-23T16:32:13.000Z</time>
      </trkpt>
      <trkpt lat="43.54916" lon="6.99324">
        <ele>5.4000000953674</ele>
        <time>2013-12-23T16:32:20.000Z</time>
      </trkpt>
      <trkpt lat="43.54917" lon="6.99369">
        <ele>6.4000000953674</ele>
        <time>2013-12-23T16:32:27.000Z</time>
      </trkpt>
      <trkpt lat="43.5492" lon="6.99423">
        <ele>8</ele>
        <time>2013-12-23T16:32:33.000Z</time>
      </trkpt>
      <trkpt lat="43.54923" lon="6.99497">
        <ele>5.5999999046326</ele>
        <time>2013-12-23T16:32:41.000Z</time>
      </trkpt>
      <trkpt lat="43.54923" lon="6.99515">
        <ele>5.1999998092651</ele>
        <time>2013-12-23T16:32:43.000Z</time>
      </trkpt>
      <trkpt lat="43.54924" lon="6.99578">
        <ele>4.8000001907349</ele>
        <time>2013-12-23T16:32:50.000Z</time>
      </trkpt>
      <trkpt lat="43.54923" lon="6.99652">
        <ele>6.1999998092651</ele>
        <time>2013-12-23T16:32:58.000Z</time>
      </trkpt>
      <trkpt lat="43.54921" lon="6.99726">
        <ele>5.5999999046326</ele>
        <time>2013-12-23T16:33:06.000Z</time>
      </trkpt>
      <trkpt lat="43.54918" lon="6.998">
        <ele>5.1999998092651</ele>
        <time>2013-12-23T16:33:14.000Z</time>
      </trkpt>
      <trkpt lat="43.54915" lon="6.99883">
        <ele>6.5999999046326</ele>
        <time>2013-12-23T16:33:23.000Z</time>
      </trkpt>
      <trkpt lat="43.54912" lon="6.99947">
        <ele>8.6000003814697</ele>
        <time>2013-12-23T16:33:30.000Z</time>
      </trkpt>
      <trkpt lat="43.5491" lon="7.00012">
        <ele>9.8000001907349</ele>
        <time>2013-12-23T16:33:37.000Z</time>
      </trkpt>
      <trkpt lat="43.54907" lon="7.00085">
        <ele>5</ele>
        <time>2013-12-23T16:33:45.000Z</time>
      </trkpt>
      <trkpt lat="43.54905" lon="7.00164">
        <ele>2.7999999523163</ele>
        <time>2013-12-23T16:33:54.000Z</time>
      </trkpt>
      <trkpt lat="43.54904" lon="7.00172">
        <ele>2.5999999046326</ele>
        <time>2013-12-23T16:33:55.000Z</time>
      </trkpt>
      <trkpt lat="43.54903" lon="7.00235">
        <ele>2.5999999046326</ele>
        <time>2013-12-23T16:34:02.000Z</time>
      </trkpt>
      <trkpt lat="43.54903" lon="7.00293">
        <ele>3</ele>
        <time>2013-12-23T16:34:09.000Z</time>
      </trkpt>
      <trkpt lat="43.54907" lon="7.00333">
        <ele>3.5999999046326</ele>
        <time>2013-12-23T16:34:15.000Z</time>
      </trkpt>
      <trkpt lat="43.54908" lon="7.00375">
        <ele>3.2000000476837</ele>
        <time>2013-12-23T16:34:21.000Z</time>
      </trkpt>
      <trkpt lat="43.54903" lon="7.00421">
        <ele>3</ele>
        <time>2013-12-23T16:34:26.000Z</time>
      </trkpt>
      <trkpt lat="43.54899" lon="7.00493">
        <ele>6.8000001907349</ele>
        <time>2013-12-23T16:34:34.000Z</time>
      </trkpt>
      <trkpt lat="43.54893" lon="7.00569">
        <ele>9.8000001907349</ele>
        <time>2013-12-23T16:34:43.000Z</time>
      </trkpt>
      <trkpt lat="43.54893" lon="7.00577">
        <ele>10</ele>
        <time>2013-12-23T16:34:44.000Z</time>
      </trkpt>
      <trkpt lat="43.54889" lon="7.0064">
        <ele>7.8000001907349</ele>
        <time>2013-12-23T16:34:52.000Z</time>
      </trkpt>
      <trkpt lat="43.54889" lon="7.00647">
        <ele>7.4000000953674</ele>
        <time>2013-12-23T16:34:53.000Z</time>
      </trkpt>
      <trkpt lat="43.54885" lon="7.00695">
        <ele>7.4000000953674</ele>
        <time>2013-12-23T16:34:59.000Z</time>
      </trkpt>
      <trkpt lat="43.54883" lon="7.00744">
        <ele>8.8000001907349</ele>
        <time>2013-12-23T16:35:06.000Z</time>
      </trkpt>
      <trkpt lat="43.54882" lon="7.00755">
        <ele>9.1999998092651</ele>
        <time>2013-12-23T16:35:08.000Z</time>
      </trkpt>
      <trkpt lat="43.54881" lon="7.00761">
        <ele>9.3999996185303</ele>
        <time>2013-12-23T16:35:10.000Z</time>
      </trkpt>
      <trkpt lat="43.54881" lon="7.00765">
        <ele>9.6000003814697</ele>
        <time>2013-12-23T16:35:14.000Z</time>
      </trkpt>
      <trkpt lat="43.54884" lon="7.00771">
        <ele>10.199999809265</ele>
        <time>2013-12-23T16:35:17.000Z</time>
      </trkpt>
      <trkpt lat="43.54887" lon="7.00773">
        <ele>10.60000038147</ele>
        <time>2013-12-23T16:35:18.000Z</time>
      </trkpt>
      <trkpt lat="43.54895" lon="7.00776">
        <ele>11.39999961853</ele>
        <time>2013-12-23T16:35:20.000Z</time>
      </trkpt>
      <trkpt lat="43.54904" lon="7.00774">
        <ele>12</ele>
        <time>2013-12-23T16:35:22.000Z</time>
      </trkpt>
      <trkpt lat="43.54931" lon="7.00763">
        <ele>12.60000038147</ele>
        <time>2013-12-23T16:35:27.000Z</time>
      </trkpt>
      <trkpt lat="43.5495" lon="7.00769">
        <ele>13.800000190735</ele>
        <time>2013-12-23T16:35:30.000Z</time>
      </trkpt>
      <trkpt lat="43.54955" lon="7.00772">
        <ele>14.199999809265</ele>
        <time>2013-12-23T16:35:31.000Z</time>
      </trkpt>
      <trkpt lat="43.54976" lon="7.00788">
        <ele>15.800000190735</ele>
        <time>2013-12-23T16:35:35.000Z</time>
      </trkpt>
      <trkpt lat="43.5498" lon="7.00789">
        <ele>16</ele>
        <time>2013-12-23T16:35:36.000Z</time>
      </trkpt>
      <trkpt lat="43.55004" lon="7.00811">
        <ele>17.200000762939</ele>
        <time>2013-12-23T16:35:43.000Z</time>
      </trkpt>
      <trkpt lat="43.55008" lon="7.00813">
        <ele>17.200000762939</ele>
        <time>2013-12-23T16:35:44.000Z</time>
      </trkpt>
      <trkpt lat="43.55019" lon="7.00808">
        <ele>17</ele>
        <time>2013-12-23T16:35:47.000Z</time>
      </trkpt>
      <trkpt lat="43.55034" lon="7.00798">
        <ele>16.39999961853</ele>
        <time>2013-12-23T16:35:51.000Z</time>
      </trkpt>
      <trkpt lat="43.55044" lon="7.0079">
        <ele>16.200000762939</ele>
        <time>2013-12-23T16:35:53.000Z</time>
      </trkpt>
      <trkpt lat="43.55069" lon="7.00771">
        <ele>15.60000038147</ele>
        <time>2013-12-23T16:35:59.000Z</time>
      </trkpt>
      <trkpt lat="43.55073" lon="7.00769">
        <ele>15.39999961853</ele>
        <time>2013-12-23T16:36:00.000Z</time>
      </trkpt>
      <trkpt lat="43.55085" lon="7.00774">
        <ele>15.800000190735</ele>
        <time>2013-12-23T16:36:03.000Z</time>
      </trkpt>
      <trkpt lat="43.55087" lon="7.00779">
        <ele>16.200000762939</ele>
        <time>2013-12-23T16:36:04.000Z</time>
      </trkpt>
      <trkpt lat="43.55091" lon="7.00787">
        <ele>17.200000762939</ele>
        <time>2013-12-23T16:36:06.000Z</time>
      </trkpt>
      <trkpt lat="43.55097" lon="7.00799">
        <ele>18.39999961853</ele>
        <time>2013-12-23T16:36:09.000Z</time>
      </trkpt>
      <trkpt lat="43.55101" lon="7.00809">
        <ele>19.200000762939</ele>
        <time>2013-12-23T16:36:11.000Z</time>
      </trkpt>
      <trkpt lat="43.55108" lon="7.00828">
        <ele>20.39999961853</ele>
        <time>2013-12-23T16:36:16.000Z</time>
      </trkpt>
      <trkpt lat="43.55114" lon="7.00868">
        <ele>23.39999961853</ele>
        <time>2013-12-23T16:36:23.000Z</time>
      </trkpt>
      <trkpt lat="43.5512" lon="7.00885">
        <ele>24.799999237061</ele>
        <time>2013-12-23T16:36:26.000Z</time>
      </trkpt>
      <trkpt lat="43.55126" lon="7.00901">
        <ele>25.799999237061</ele>
        <time>2013-12-23T16:36:29.000Z</time>
      </trkpt>
      <trkpt lat="43.55127" lon="7.00906">
        <ele>26.200000762939</ele>
        <time>2013-12-23T16:36:30.000Z</time>
      </trkpt>
      <trkpt lat="43.55131" lon="7.00923">
        <ele>27</ele>
        <time>2013-12-23T16:36:34.000Z</time>
      </trkpt>
      <trkpt lat="43.55132" lon="7.00932">
        <ele>27.200000762939</ele>
        <time>2013-12-23T16:36:36.000Z</time>
      </trkpt>
      <trkpt lat="43.55131" lon="7.00939">
        <ele>27.39999961853</ele>
        <time>2013-12-23T16:36:39.000Z</time>
      </trkpt>
      <trkpt lat="43.55132" lon="7.00945">
        <ele>27.60000038147</ele>
        <time>2013-12-23T16:36:41.000Z</time>
      </trkpt>
      <trkpt lat="43.55134" lon="7.00945">
        <ele>27.60000038147</ele>
        <time>2013-12-23T16:36:43.000Z</time>
      </trkpt>
      <trkpt lat="43.5514" lon="7.00947">
        <ele>27.60000038147</ele>
        <time>2013-12-23T16:36:46.000Z</time>
      </trkpt>
      <trkpt lat="43.55145" lon="7.00952">
        <ele>27.60000038147</ele>
        <time>2013-12-23T16:36:49.000Z</time>
      </trkpt>
      <trkpt lat="43.55146" lon="7.00955">
        <ele>27.60000038147</ele>
        <time>2013-12-23T16:36:50.000Z</time>
      </trkpt>
      <trkpt lat="43.5515" lon="7.00982">
        <ele>27.60000038147</ele>
        <time>2013-12-23T16:36:57.000Z</time>
      </trkpt>
      <trkpt lat="43.55149" lon="7.01014">
        <ele>26.39999961853</ele>
        <time>2013-12-23T16:37:04.000Z</time>
      </trkpt>
      <trkpt lat="43.55154" lon="7.01027">
        <ele>24.799999237061</ele>
        <time>2013-12-23T16:37:09.000Z</time>
      </trkpt>
      <trkpt lat="43.55152" lon="7.01039">
        <ele>23.799999237061</ele>
        <time>2013-12-23T16:37:16.000Z</time>
      </trkpt>
      <trkpt lat="43.55154" lon="7.01039">
        <ele>23.60000038147</ele>
        <time>2013-12-23T16:37:17.000Z</time>
      </trkpt>
      <trkpt lat="43.55155" lon="7.01044">
        <ele>23</ele>
        <time>2013-12-23T16:37:21.000Z</time>
      </trkpt>
      <trkpt lat="43.55156" lon="7.01046">
        <ele>22.799999237061</ele>
        <time>2013-12-23T16:37:23.000Z</time>
      </trkpt>
      <trkpt lat="43.55159" lon="7.01049">
        <ele>22.200000762939</ele>
        <time>2013-12-23T16:37:25.000Z</time>
      </trkpt>
      <trkpt lat="43.55159" lon="7.0105">
        <ele>22</ele>
        <time>2013-12-23T16:37:26.000Z</time>
      </trkpt>
      <trkpt lat="43.55156" lon="7.01057">
        <ele>21.799999237061</ele>
        <time>2013-12-23T16:37:33.000Z</time>
      </trkpt>
      <trkpt lat="43.55155" lon="7.01058">
        <ele>21.799999237061</ele>
        <time>2013-12-23T16:37:34.000Z</time>
      </trkpt>
      <trkpt lat="43.55151" lon="7.0107">
        <ele>21.200000762939</ele>
        <time>2013-12-23T16:37:39.000Z</time>
      </trkpt>
      <trkpt lat="43.55144" lon="7.0109">
        <ele>20.200000762939</ele>
        <time>2013-12-23T16:37:45.000Z</time>
      </trkpt>
      <trkpt lat="43.55139" lon="7.01119">
        <ele>17.39999961853</ele>
        <time>2013-12-23T16:37:51.000Z</time>
      </trkpt>
      <trkpt lat="43.55126" lon="7.01134">
        <ele>16.39999961853</ele>
        <time>2013-12-23T16:37:57.000Z</time>
      </trkpt>
      <trkpt lat="43.55126" lon="7.01135">
        <ele>16</ele>
        <time>2013-12-23T16:37:58.000Z</time>
      </trkpt>
      <trkpt lat="43.5513" lon="7.01142">
        <ele>15.199999809265</ele>
        <time>2013-12-23T16:38:01.000Z</time>
      </trkpt>
      <trkpt lat="43.55134" lon="7.01144">
        <ele>14.800000190735</ele>
        <time>2013-12-23T16:38:05.000Z</time>
      </trkpt>
      <trkpt lat="43.55137" lon="7.01146">
        <ele>14.60000038147</ele>
        <time>2013-12-23T16:38:06.000Z</time>
      </trkpt>
      <trkpt lat="43.55156" lon="7.01127">
        <ele>15.800000190735</ele>
        <time>2013-12-23T16:38:12.000Z</time>
      </trkpt>
      <trkpt lat="43.5516" lon="7.01123">
        <ele>16</ele>
        <time>2013-12-23T16:38:17.000Z</time>
      </trkpt>
      <trkpt lat="43.55157" lon="7.01118">
        <ele>16.39999961853</ele>
        <time>2013-12-23T16:38:24.000Z</time>
      </trkpt>
    </trkseg>
  </trk>
</gpx>